<?xml version="1.0" encoding="UTF-8" standalone="no" ?>
<gpx xmlns="http://www.topografix.com/GPX/1/1" xmlns:xsi="http://www.w3.org/2001/XMLSchema-instance" xsi:schemaLocation="http://www.topografix.com/GPX/1/1 http://www.topografix.com/GPX/1/1/gpx.xsd" version="1.1" creator="VisuGPX - https://www.visugpx.com">
  <metadata>
    <name>20150826 Arpont Fournache</name>
    <desc><![CDATA[Etape 9 du GR5]]></desc>
  </metadata>
  <trk>
    <name><![CDATA[20150826 Arpont Fournache_1]]></name>
    <trkseg>
      <trkpt lat="45.31911" lon="6.79267">
        <ele>2311.4</ele>
        <time>2015-08-26T07:32:58Z</time>
      </trkpt>
      <trkpt lat="45.31911" lon="6.79261">
        <ele>2311.4</ele>
        <time>2015-08-26T07:33:03Z</time>
      </trkpt>
      <trkpt lat="45.31912" lon="6.79246">
        <ele>2308.8794</ele>
        <time>2015-08-26T07:33:13Z</time>
      </trkpt>
      <trkpt lat="45.31912" lon="6.79237">
        <ele>2308.8794</ele>
        <time>2015-08-26T07:33:18Z</time>
      </trkpt>
      <trkpt lat="45.31911" lon="6.79226">
        <ele>2318.937</ele>
        <time>2015-08-26T07:33:28Z</time>
      </trkpt>
      <trkpt lat="45.31907" lon="6.79221">
        <ele>2318.937</ele>
        <time>2015-08-26T07:33:33Z</time>
      </trkpt>
      <trkpt lat="45.31897" lon="6.79203">
        <ele>2328.926</ele>
        <time>2015-08-26T07:33:48Z</time>
      </trkpt>
      <trkpt lat="45.31896" lon="6.79198">
        <ele>2328.926</ele>
        <time>2015-08-26T07:33:53Z</time>
      </trkpt>
      <trkpt lat="45.31889" lon="6.79194">
        <ele>2339.2593</ele>
        <time>2015-08-26T07:34:03Z</time>
      </trkpt>
      <trkpt lat="45.31886" lon="6.79191">
        <ele>2339.2593</ele>
        <time>2015-08-26T07:34:08Z</time>
      </trkpt>
      <trkpt lat="45.3188" lon="6.79181">
        <ele>2348.9727</ele>
        <time>2015-08-26T07:34:18Z</time>
      </trkpt>
      <trkpt lat="45.31878" lon="6.79178">
        <ele>2348.9727</ele>
        <time>2015-08-26T07:34:23Z</time>
      </trkpt>
      <trkpt lat="45.31872" lon="6.79172">
        <ele>2357.7866</ele>
        <time>2015-08-26T07:34:33Z</time>
      </trkpt>
      <trkpt lat="45.31866" lon="6.79167">
        <ele>2357.7866</ele>
        <time>2015-08-26T07:34:38Z</time>
      </trkpt>
      <trkpt lat="45.31861" lon="6.79161">
        <ele>2365.3584</ele>
        <time>2015-08-26T07:34:48Z</time>
      </trkpt>
      <trkpt lat="45.31858" lon="6.79162">
        <ele>2365.3584</ele>
        <time>2015-08-26T07:34:53Z</time>
      </trkpt>
      <trkpt lat="45.3185" lon="6.79159">
        <ele>2371.0222</ele>
        <time>2015-08-26T07:35:03Z</time>
      </trkpt>
      <trkpt lat="45.31847" lon="6.79159">
        <ele>2371.0222</ele>
        <time>2015-08-26T07:35:08Z</time>
      </trkpt>
      <trkpt lat="45.31842" lon="6.79154">
        <ele>2371.0222</ele>
        <time>2015-08-26T07:35:18Z</time>
      </trkpt>
      <trkpt lat="45.31842" lon="6.79154">
        <ele>2371.0222</ele>
        <time>2015-08-26T07:35:23Z</time>
      </trkpt>
      <trkpt lat="45.31837" lon="6.79153">
        <ele>2374.7817</ele>
        <time>2015-08-26T07:35:48Z</time>
      </trkpt>
      <trkpt lat="45.31833" lon="6.79152">
        <ele>2374.7817</ele>
        <time>2015-08-26T07:35:53Z</time>
      </trkpt>
      <trkpt lat="45.31828" lon="6.79158">
        <ele>2376.5598</ele>
        <time>2015-08-26T07:36:03Z</time>
      </trkpt>
      <trkpt lat="45.31825" lon="6.79159">
        <ele>2376.5598</ele>
        <time>2015-08-26T07:36:08Z</time>
      </trkpt>
      <trkpt lat="45.31821" lon="6.79159">
        <ele>2376.5598</ele>
        <time>2015-08-26T07:36:18Z</time>
      </trkpt>
      <trkpt lat="45.31817" lon="6.79154">
        <ele>2376.3677</ele>
        <time>2015-08-26T07:36:23Z</time>
      </trkpt>
      <trkpt lat="45.31817" lon="6.79154">
        <ele>2376.3677</ele>
        <time>2015-08-26T07:36:33Z</time>
      </trkpt>
      <trkpt lat="45.31816" lon="6.79152">
        <ele>2376.3677</ele>
        <time>2015-08-26T07:36:58Z</time>
      </trkpt>
      <trkpt lat="45.3181" lon="6.79147">
        <ele>2376.3677</ele>
        <time>2015-08-26T07:37:08Z</time>
      </trkpt>
      <trkpt lat="45.31807" lon="6.79143">
        <ele>2374.7632</ele>
        <time>2015-08-26T07:37:13Z</time>
      </trkpt>
      <trkpt lat="45.31798" lon="6.79151">
        <ele>2371.8557</ele>
        <time>2015-08-26T07:37:23Z</time>
      </trkpt>
      <trkpt lat="45.31796" lon="6.79152">
        <ele>2371.8557</ele>
        <time>2015-08-26T07:37:28Z</time>
      </trkpt>
      <trkpt lat="45.31789" lon="6.7916">
        <ele>2367.7576</ele>
        <time>2015-08-26T07:37:38Z</time>
      </trkpt>
      <trkpt lat="45.31787" lon="6.79161">
        <ele>2367.7576</ele>
        <time>2015-08-26T07:37:43Z</time>
      </trkpt>
      <trkpt lat="45.31781" lon="6.79162">
        <ele>2367.7576</ele>
        <time>2015-08-26T07:37:53Z</time>
      </trkpt>
      <trkpt lat="45.31777" lon="6.79164">
        <ele>2362.788</ele>
        <time>2015-08-26T07:37:58Z</time>
      </trkpt>
      <trkpt lat="45.31773" lon="6.79168">
        <ele>2362.788</ele>
        <time>2015-08-26T07:38:08Z</time>
      </trkpt>
      <trkpt lat="45.31772" lon="6.79168">
        <ele>2362.788</ele>
        <time>2015-08-26T07:38:13Z</time>
      </trkpt>
      <trkpt lat="45.31767" lon="6.79163">
        <ele>2356.9849</ele>
        <time>2015-08-26T07:38:23Z</time>
      </trkpt>
      <trkpt lat="45.31761" lon="6.79162">
        <ele>2356.9849</ele>
        <time>2015-08-26T07:38:28Z</time>
      </trkpt>
      <trkpt lat="45.31754" lon="6.79171">
        <ele>2350.9746</ele>
        <time>2015-08-26T07:38:38Z</time>
      </trkpt>
      <trkpt lat="45.31749" lon="6.79172">
        <ele>2350.9746</ele>
        <time>2015-08-26T07:38:43Z</time>
      </trkpt>
      <trkpt lat="45.31743" lon="6.79181">
        <ele>2344.741</ele>
        <time>2015-08-26T07:38:53Z</time>
      </trkpt>
      <trkpt lat="45.3174" lon="6.79186">
        <ele>2344.741</ele>
        <time>2015-08-26T07:38:58Z</time>
      </trkpt>
      <trkpt lat="45.31732" lon="6.79189">
        <ele>2338.3594</ele>
        <time>2015-08-26T07:39:08Z</time>
      </trkpt>
      <trkpt lat="45.31727" lon="6.7919">
        <ele>2338.3594</ele>
        <time>2015-08-26T07:39:13Z</time>
      </trkpt>
      <trkpt lat="45.31708" lon="6.79196">
        <ele>2332.0642</ele>
        <time>2015-08-26T07:39:28Z</time>
      </trkpt>
      <trkpt lat="45.31706" lon="6.79196">
        <ele>2332.0642</ele>
        <time>2015-08-26T07:39:33Z</time>
      </trkpt>
      <trkpt lat="45.31699" lon="6.79198">
        <ele>2332.0642</ele>
        <time>2015-08-26T07:39:43Z</time>
      </trkpt>
      <trkpt lat="45.31695" lon="6.79198">
        <ele>2325.7478</ele>
        <time>2015-08-26T07:39:48Z</time>
      </trkpt>
      <trkpt lat="45.31688" lon="6.79204">
        <ele>2325.7478</ele>
        <time>2015-08-26T07:39:58Z</time>
      </trkpt>
      <trkpt lat="45.31688" lon="6.79203">
        <ele>2325.7478</ele>
        <time>2015-08-26T07:40:03Z</time>
      </trkpt>
      <trkpt lat="45.31687" lon="6.79202">
        <ele>2319.5757</ele>
        <time>2015-08-26T07:40:13Z</time>
      </trkpt>
      <trkpt lat="45.31683" lon="6.79207">
        <ele>2319.5757</ele>
        <time>2015-08-26T07:40:18Z</time>
      </trkpt>
      <trkpt lat="45.31678" lon="6.79206">
        <ele>2313.515</ele>
        <time>2015-08-26T07:40:28Z</time>
      </trkpt>
      <trkpt lat="45.31675" lon="6.792">
        <ele>2313.515</ele>
        <time>2015-08-26T07:40:33Z</time>
      </trkpt>
      <trkpt lat="45.31664" lon="6.79201">
        <ele>2307.7485</ele>
        <time>2015-08-26T07:40:43Z</time>
      </trkpt>
      <trkpt lat="45.3166" lon="6.79199">
        <ele>2307.7485</ele>
        <time>2015-08-26T07:40:48Z</time>
      </trkpt>
      <trkpt lat="45.31651" lon="6.79197">
        <ele>2302.3855</ele>
        <time>2015-08-26T07:40:58Z</time>
      </trkpt>
      <trkpt lat="45.31647" lon="6.79196">
        <ele>2302.3855</ele>
        <time>2015-08-26T07:41:03Z</time>
      </trkpt>
      <trkpt lat="45.31635" lon="6.79197">
        <ele>2297.388</ele>
        <time>2015-08-26T07:41:13Z</time>
      </trkpt>
      <trkpt lat="45.3163" lon="6.79197">
        <ele>2297.388</ele>
        <time>2015-08-26T07:41:18Z</time>
      </trkpt>
      <trkpt lat="45.31623" lon="6.7919">
        <ele>2292.662</ele>
        <time>2015-08-26T07:41:28Z</time>
      </trkpt>
      <trkpt lat="45.3162" lon="6.79186">
        <ele>2292.662</ele>
        <time>2015-08-26T07:41:33Z</time>
      </trkpt>
      <trkpt lat="45.31614" lon="6.79185">
        <ele>2288.1653</ele>
        <time>2015-08-26T07:41:48Z</time>
      </trkpt>
      <trkpt lat="45.31611" lon="6.79187">
        <ele>2288.1653</ele>
        <time>2015-08-26T07:41:53Z</time>
      </trkpt>
      <trkpt lat="45.31603" lon="6.79188">
        <ele>2283.8457</ele>
        <time>2015-08-26T07:42:03Z</time>
      </trkpt>
      <trkpt lat="45.31601" lon="6.7919">
        <ele>2283.8457</ele>
        <time>2015-08-26T07:42:08Z</time>
      </trkpt>
      <trkpt lat="45.31597" lon="6.79199">
        <ele>2279.6423</ele>
        <time>2015-08-26T07:42:18Z</time>
      </trkpt>
      <trkpt lat="45.31594" lon="6.79202">
        <ele>2279.6423</ele>
        <time>2015-08-26T07:42:23Z</time>
      </trkpt>
      <trkpt lat="45.31589" lon="6.79208">
        <ele>2275.5713</ele>
        <time>2015-08-26T07:42:33Z</time>
      </trkpt>
      <trkpt lat="45.31585" lon="6.79213">
        <ele>2275.5713</ele>
        <time>2015-08-26T07:42:38Z</time>
      </trkpt>
      <trkpt lat="45.31578" lon="6.79218">
        <ele>2271.6904</ele>
        <time>2015-08-26T07:42:48Z</time>
      </trkpt>
      <trkpt lat="45.31578" lon="6.79222">
        <ele>2271.6904</ele>
        <time>2015-08-26T07:42:53Z</time>
      </trkpt>
      <trkpt lat="45.31572" lon="6.7923">
        <ele>2267.986</ele>
        <time>2015-08-26T07:43:03Z</time>
      </trkpt>
      <trkpt lat="45.31572" lon="6.79231">
        <ele>2267.986</ele>
        <time>2015-08-26T07:43:08Z</time>
      </trkpt>
      <trkpt lat="45.31572" lon="6.79237">
        <ele>2267.986</ele>
        <time>2015-08-26T07:43:18Z</time>
      </trkpt>
      <trkpt lat="45.31572" lon="6.79239">
        <ele>2267.986</ele>
        <time>2015-08-26T07:43:23Z</time>
      </trkpt>
      <trkpt lat="45.31562" lon="6.79239">
        <ele>2264.4763</ele>
        <time>2015-08-26T07:43:33Z</time>
      </trkpt>
      <trkpt lat="45.31559" lon="6.7924">
        <ele>2264.4763</ele>
        <time>2015-08-26T07:43:38Z</time>
      </trkpt>
      <trkpt lat="45.31552" lon="6.79261">
        <ele>2261.0688</ele>
        <time>2015-08-26T07:43:53Z</time>
      </trkpt>
      <trkpt lat="45.31546" lon="6.79264">
        <ele>2261.0688</ele>
        <time>2015-08-26T07:43:58Z</time>
      </trkpt>
      <trkpt lat="45.31538" lon="6.79265">
        <ele>2257.8333</ele>
        <time>2015-08-26T07:44:08Z</time>
      </trkpt>
      <trkpt lat="45.31535" lon="6.79263">
        <ele>2257.8333</ele>
        <time>2015-08-26T07:44:13Z</time>
      </trkpt>
      <trkpt lat="45.31523" lon="6.79259">
        <ele>2254.7102</ele>
        <time>2015-08-26T07:44:23Z</time>
      </trkpt>
      <trkpt lat="45.31522" lon="6.79261">
        <ele>2254.7102</ele>
        <time>2015-08-26T07:44:28Z</time>
      </trkpt>
      <trkpt lat="45.3152" lon="6.79264">
        <ele>2254.7102</ele>
        <time>2015-08-26T07:44:38Z</time>
      </trkpt>
      <trkpt lat="45.31519" lon="6.79267">
        <ele>2254.7102</ele>
        <time>2015-08-26T07:44:43Z</time>
      </trkpt>
      <trkpt lat="45.31516" lon="6.79268">
        <ele>2251.304</ele>
        <time>2015-08-26T07:44:53Z</time>
      </trkpt>
      <trkpt lat="45.31513" lon="6.7927">
        <ele>2251.304</ele>
        <time>2015-08-26T07:44:58Z</time>
      </trkpt>
      <trkpt lat="45.31508" lon="6.79268">
        <ele>2251.304</ele>
        <time>2015-08-26T07:45:08Z</time>
      </trkpt>
      <trkpt lat="45.31504" lon="6.7927">
        <ele>2247.8833</ele>
        <time>2015-08-26T07:45:13Z</time>
      </trkpt>
      <trkpt lat="45.31497" lon="6.7927">
        <ele>2247.8833</ele>
        <time>2015-08-26T07:45:23Z</time>
      </trkpt>
      <trkpt lat="45.31495" lon="6.79268">
        <ele>2244.676</ele>
        <time>2015-08-26T07:45:28Z</time>
      </trkpt>
      <trkpt lat="45.3149" lon="6.7927">
        <ele>2244.676</ele>
        <time>2015-08-26T07:45:38Z</time>
      </trkpt>
      <trkpt lat="45.31489" lon="6.79271">
        <ele>2244.676</ele>
        <time>2015-08-26T07:45:43Z</time>
      </trkpt>
      <trkpt lat="45.3149" lon="6.79277">
        <ele>2241.2896</ele>
        <time>2015-08-26T07:45:53Z</time>
      </trkpt>
      <trkpt lat="45.3149" lon="6.79279">
        <ele>2241.2896</ele>
        <time>2015-08-26T07:45:58Z</time>
      </trkpt>
      <trkpt lat="45.31485" lon="6.79278">
        <ele>2241.2896</ele>
        <time>2015-08-26T07:46:08Z</time>
      </trkpt>
      <trkpt lat="45.3148" lon="6.7928">
        <ele>2237.8628</ele>
        <time>2015-08-26T07:46:13Z</time>
      </trkpt>
      <trkpt lat="45.31474" lon="6.79282">
        <ele>2237.8628</ele>
        <time>2015-08-26T07:46:23Z</time>
      </trkpt>
      <trkpt lat="45.31471" lon="6.79284">
        <ele>2234.5562</ele>
        <time>2015-08-26T07:46:28Z</time>
      </trkpt>
      <trkpt lat="45.31469" lon="6.79293">
        <ele>2234.5562</ele>
        <time>2015-08-26T07:46:43Z</time>
      </trkpt>
      <trkpt lat="45.31467" lon="6.79295">
        <ele>2231.0493</ele>
        <time>2015-08-26T07:46:48Z</time>
      </trkpt>
      <trkpt lat="45.31461" lon="6.79299">
        <ele>2231.0493</ele>
        <time>2015-08-26T07:46:58Z</time>
      </trkpt>
      <trkpt lat="45.3146" lon="6.79302">
        <ele>2231.0493</ele>
        <time>2015-08-26T07:47:03Z</time>
      </trkpt>
      <trkpt lat="45.31455" lon="6.79305">
        <ele>2227.3215</ele>
        <time>2015-08-26T07:47:13Z</time>
      </trkpt>
      <trkpt lat="45.31451" lon="6.79309">
        <ele>2227.3215</ele>
        <time>2015-08-26T07:47:18Z</time>
      </trkpt>
      <trkpt lat="45.31447" lon="6.79318">
        <ele>2223.5776</ele>
        <time>2015-08-26T07:47:28Z</time>
      </trkpt>
      <trkpt lat="45.31445" lon="6.79324">
        <ele>2223.5776</ele>
        <time>2015-08-26T07:47:33Z</time>
      </trkpt>
      <trkpt lat="45.31439" lon="6.79331">
        <ele>2219.9353</ele>
        <time>2015-08-26T07:47:43Z</time>
      </trkpt>
      <trkpt lat="45.31436" lon="6.79333">
        <ele>2219.9353</ele>
        <time>2015-08-26T07:47:48Z</time>
      </trkpt>
      <trkpt lat="45.31426" lon="6.79343">
        <ele>2216.488</ele>
        <time>2015-08-26T07:47:58Z</time>
      </trkpt>
      <trkpt lat="45.31423" lon="6.79345">
        <ele>2216.488</ele>
        <time>2015-08-26T07:48:03Z</time>
      </trkpt>
      <trkpt lat="45.3142" lon="6.79352">
        <ele>2213.2466</ele>
        <time>2015-08-26T07:48:13Z</time>
      </trkpt>
      <trkpt lat="45.31416" lon="6.79357">
        <ele>2213.2466</ele>
        <time>2015-08-26T07:48:18Z</time>
      </trkpt>
      <trkpt lat="45.31409" lon="6.79358">
        <ele>2210.2637</ele>
        <time>2015-08-26T07:48:28Z</time>
      </trkpt>
      <trkpt lat="45.31407" lon="6.79354">
        <ele>2210.2637</ele>
        <time>2015-08-26T07:48:33Z</time>
      </trkpt>
      <trkpt lat="45.314" lon="6.79359">
        <ele>2207.451</ele>
        <time>2015-08-26T07:48:43Z</time>
      </trkpt>
      <trkpt lat="45.31397" lon="6.79364">
        <ele>2207.451</ele>
        <time>2015-08-26T07:48:48Z</time>
      </trkpt>
      <trkpt lat="45.31394" lon="6.79372">
        <ele>2204.6492</ele>
        <time>2015-08-26T07:48:58Z</time>
      </trkpt>
      <trkpt lat="45.31391" lon="6.79377">
        <ele>2204.6492</ele>
        <time>2015-08-26T07:49:03Z</time>
      </trkpt>
      <trkpt lat="45.3138" lon="6.79393">
        <ele>2202.0125</ele>
        <time>2015-08-26T07:49:18Z</time>
      </trkpt>
      <trkpt lat="45.31377" lon="6.79395">
        <ele>2202.0125</ele>
        <time>2015-08-26T07:49:23Z</time>
      </trkpt>
      <trkpt lat="45.31369" lon="6.79405">
        <ele>2199.607</ele>
        <time>2015-08-26T07:49:33Z</time>
      </trkpt>
      <trkpt lat="45.31366" lon="6.79408">
        <ele>2199.607</ele>
        <time>2015-08-26T07:49:38Z</time>
      </trkpt>
      <trkpt lat="45.31361" lon="6.79411">
        <ele>2197.356</ele>
        <time>2015-08-26T07:49:48Z</time>
      </trkpt>
      <trkpt lat="45.31359" lon="6.79412">
        <ele>2197.356</ele>
        <time>2015-08-26T07:49:53Z</time>
      </trkpt>
      <trkpt lat="45.3136" lon="6.79412">
        <ele>2197.356</ele>
        <time>2015-08-26T07:50:03Z</time>
      </trkpt>
      <trkpt lat="45.31358" lon="6.79413">
        <ele>2197.356</ele>
        <time>2015-08-26T07:50:08Z</time>
      </trkpt>
      <trkpt lat="45.31348" lon="6.79409">
        <ele>2195.0527</ele>
        <time>2015-08-26T07:50:18Z</time>
      </trkpt>
      <trkpt lat="45.31347" lon="6.79406">
        <ele>2195.0527</ele>
        <time>2015-08-26T07:50:23Z</time>
      </trkpt>
      <trkpt lat="45.31341" lon="6.794">
        <ele>2193.0186</ele>
        <time>2015-08-26T07:50:33Z</time>
      </trkpt>
      <trkpt lat="45.31337" lon="6.79398">
        <ele>2193.0186</ele>
        <time>2015-08-26T07:50:38Z</time>
      </trkpt>
      <trkpt lat="45.31327" lon="6.79402">
        <ele>2191.367</ele>
        <time>2015-08-26T07:50:48Z</time>
      </trkpt>
      <trkpt lat="45.31325" lon="6.79405">
        <ele>2191.367</ele>
        <time>2015-08-26T07:50:53Z</time>
      </trkpt>
      <trkpt lat="45.31315" lon="6.79408">
        <ele>2190.0361</ele>
        <time>2015-08-26T07:51:03Z</time>
      </trkpt>
      <trkpt lat="45.31312" lon="6.7941">
        <ele>2190.0361</ele>
        <time>2015-08-26T07:51:08Z</time>
      </trkpt>
      <trkpt lat="45.31299" lon="6.79415">
        <ele>2189.0425</ele>
        <time>2015-08-26T07:51:23Z</time>
      </trkpt>
      <trkpt lat="45.31294" lon="6.79417">
        <ele>2189.0425</ele>
        <time>2015-08-26T07:51:28Z</time>
      </trkpt>
      <trkpt lat="45.31288" lon="6.79418">
        <ele>2188.3706</ele>
        <time>2015-08-26T07:51:38Z</time>
      </trkpt>
      <trkpt lat="45.31289" lon="6.79419">
        <ele>2188.3706</ele>
        <time>2015-08-26T07:51:43Z</time>
      </trkpt>
      <trkpt lat="45.3129" lon="6.79416">
        <ele>2188.3706</ele>
        <time>2015-08-26T07:51:53Z</time>
      </trkpt>
      <trkpt lat="45.31288" lon="6.79417">
        <ele>2188.3706</ele>
        <time>2015-08-26T07:51:58Z</time>
      </trkpt>
      <trkpt lat="45.31289" lon="6.79418">
        <ele>2188.3706</ele>
        <time>2015-08-26T07:52:08Z</time>
      </trkpt>
      <trkpt lat="45.31289" lon="6.79419">
        <ele>2188.3706</ele>
        <time>2015-08-26T07:52:13Z</time>
      </trkpt>
      <trkpt lat="45.3129" lon="6.79419">
        <ele>2188.3706</ele>
        <time>2015-08-26T07:52:23Z</time>
      </trkpt>
      <trkpt lat="45.31291" lon="6.7942">
        <ele>2187.9016</ele>
        <time>2015-08-26T07:52:28Z</time>
      </trkpt>
      <trkpt lat="45.31293" lon="6.79418">
        <ele>2187.9016</ele>
        <time>2015-08-26T07:52:38Z</time>
      </trkpt>
      <trkpt lat="45.31293" lon="6.79417">
        <ele>2187.9016</ele>
        <time>2015-08-26T07:52:43Z</time>
      </trkpt>
      <trkpt lat="45.31293" lon="6.79416">
        <ele>2187.9016</ele>
        <time>2015-08-26T07:52:53Z</time>
      </trkpt>
      <trkpt lat="45.3129" lon="6.79417">
        <ele>2187.9016</ele>
        <time>2015-08-26T07:54:48Z</time>
      </trkpt>
      <trkpt lat="45.3129" lon="6.79417">
        <ele>2187.9016</ele>
        <time>2015-08-26T07:54:53Z</time>
      </trkpt>
      <trkpt lat="45.31286" lon="6.79418">
        <ele>2187.748</ele>
        <time>2015-08-26T07:55:03Z</time>
      </trkpt>
      <trkpt lat="45.31284" lon="6.79418">
        <ele>2187.748</ele>
        <time>2015-08-26T07:55:08Z</time>
      </trkpt>
      <trkpt lat="45.3128" lon="6.79423">
        <ele>2187.748</ele>
        <time>2015-08-26T07:55:18Z</time>
      </trkpt>
      <trkpt lat="45.31277" lon="6.79429">
        <ele>2187.6873</ele>
        <time>2015-08-26T07:55:23Z</time>
      </trkpt>
      <trkpt lat="45.31275" lon="6.79432">
        <ele>2187.6873</ele>
        <time>2015-08-26T07:55:33Z</time>
      </trkpt>
      <trkpt lat="45.31272" lon="6.79437">
        <ele>2187.6873</ele>
        <time>2015-08-26T07:57:03Z</time>
      </trkpt>
      <trkpt lat="45.31269" lon="6.79444">
        <ele>2187.839</ele>
        <time>2015-08-26T07:57:08Z</time>
      </trkpt>
      <trkpt lat="45.3126" lon="6.79452">
        <ele>2188.108</ele>
        <time>2015-08-26T07:57:23Z</time>
      </trkpt>
      <trkpt lat="45.31254" lon="6.79454">
        <ele>2188.108</ele>
        <time>2015-08-26T07:57:28Z</time>
      </trkpt>
      <trkpt lat="45.31242" lon="6.79454">
        <ele>2188.3752</ele>
        <time>2015-08-26T07:57:38Z</time>
      </trkpt>
      <trkpt lat="45.31235" lon="6.79452">
        <ele>2188.3752</ele>
        <time>2015-08-26T07:57:43Z</time>
      </trkpt>
      <trkpt lat="45.31227" lon="6.79447">
        <ele>2188.6946</ele>
        <time>2015-08-26T07:57:53Z</time>
      </trkpt>
      <trkpt lat="45.31223" lon="6.79448">
        <ele>2188.6946</ele>
        <time>2015-08-26T07:57:58Z</time>
      </trkpt>
      <trkpt lat="45.31215" lon="6.79452">
        <ele>2188.9976</ele>
        <time>2015-08-26T07:58:08Z</time>
      </trkpt>
      <trkpt lat="45.31211" lon="6.79454">
        <ele>2188.9976</ele>
        <time>2015-08-26T07:58:13Z</time>
      </trkpt>
      <trkpt lat="45.31202" lon="6.79463">
        <ele>2189.2654</ele>
        <time>2015-08-26T07:58:23Z</time>
      </trkpt>
      <trkpt lat="45.312" lon="6.79464">
        <ele>2189.2654</ele>
        <time>2015-08-26T07:58:28Z</time>
      </trkpt>
      <trkpt lat="45.31193" lon="6.79463">
        <ele>2189.5388</ele>
        <time>2015-08-26T07:58:38Z</time>
      </trkpt>
      <trkpt lat="45.3119" lon="6.79462">
        <ele>2189.5388</ele>
        <time>2015-08-26T07:58:43Z</time>
      </trkpt>
      <trkpt lat="45.3118" lon="6.79462">
        <ele>2189.9575</ele>
        <time>2015-08-26T07:58:53Z</time>
      </trkpt>
      <trkpt lat="45.31177" lon="6.79462">
        <ele>2189.9575</ele>
        <time>2015-08-26T07:58:58Z</time>
      </trkpt>
      <trkpt lat="45.31169" lon="6.7946">
        <ele>2190.432</ele>
        <time>2015-08-26T07:59:08Z</time>
      </trkpt>
      <trkpt lat="45.31167" lon="6.79457">
        <ele>2190.432</ele>
        <time>2015-08-26T07:59:13Z</time>
      </trkpt>
      <trkpt lat="45.31159" lon="6.79435">
        <ele>2190.3423</ele>
        <time>2015-08-26T07:59:28Z</time>
      </trkpt>
      <trkpt lat="45.3116" lon="6.79428">
        <ele>2190.3423</ele>
        <time>2015-08-26T07:59:33Z</time>
      </trkpt>
      <trkpt lat="45.31157" lon="6.79424">
        <ele>2190.148</ele>
        <time>2015-08-26T07:59:43Z</time>
      </trkpt>
      <trkpt lat="45.31154" lon="6.79425">
        <ele>2190.148</ele>
        <time>2015-08-26T07:59:48Z</time>
      </trkpt>
      <trkpt lat="45.31145" lon="6.79427">
        <ele>2190.1567</ele>
        <time>2015-08-26T07:59:58Z</time>
      </trkpt>
      <trkpt lat="45.31143" lon="6.79429">
        <ele>2190.1567</ele>
        <time>2015-08-26T08:00:03Z</time>
      </trkpt>
      <trkpt lat="45.31137" lon="6.79435">
        <ele>2190.1462</ele>
        <time>2015-08-26T08:00:13Z</time>
      </trkpt>
      <trkpt lat="45.31134" lon="6.79437">
        <ele>2190.1462</ele>
        <time>2015-08-26T08:00:18Z</time>
      </trkpt>
      <trkpt lat="45.31132" lon="6.7944">
        <ele>2190.1462</ele>
        <time>2015-08-26T08:00:28Z</time>
      </trkpt>
      <trkpt lat="45.3113" lon="6.79443">
        <ele>2190.0845</ele>
        <time>2015-08-26T08:00:33Z</time>
      </trkpt>
      <trkpt lat="45.31127" lon="6.79451">
        <ele>2190.0845</ele>
        <time>2015-08-26T08:00:43Z</time>
      </trkpt>
      <trkpt lat="45.31124" lon="6.79455">
        <ele>2189.9854</ele>
        <time>2015-08-26T08:00:48Z</time>
      </trkpt>
      <trkpt lat="45.31118" lon="6.79464">
        <ele>2189.9854</ele>
        <time>2015-08-26T08:00:58Z</time>
      </trkpt>
      <trkpt lat="45.31116" lon="6.79468">
        <ele>2189.8623</ele>
        <time>2015-08-26T08:01:03Z</time>
      </trkpt>
      <trkpt lat="45.3111" lon="6.79475">
        <ele>2189.8623</ele>
        <time>2015-08-26T08:01:13Z</time>
      </trkpt>
      <trkpt lat="45.31106" lon="6.7948">
        <ele>2189.5686</ele>
        <time>2015-08-26T08:01:18Z</time>
      </trkpt>
      <trkpt lat="45.31102" lon="6.79492">
        <ele>2189.186</ele>
        <time>2015-08-26T08:01:28Z</time>
      </trkpt>
      <trkpt lat="45.31098" lon="6.79497">
        <ele>2189.186</ele>
        <time>2015-08-26T08:01:33Z</time>
      </trkpt>
      <trkpt lat="45.31088" lon="6.79505">
        <ele>2188.9631</ele>
        <time>2015-08-26T08:01:48Z</time>
      </trkpt>
      <trkpt lat="45.31086" lon="6.79504">
        <ele>2188.9631</ele>
        <time>2015-08-26T08:01:53Z</time>
      </trkpt>
      <trkpt lat="45.31084" lon="6.79509">
        <ele>2188.9631</ele>
        <time>2015-08-26T08:02:03Z</time>
      </trkpt>
      <trkpt lat="45.31085" lon="6.79506">
        <ele>2188.9631</ele>
        <time>2015-08-26T08:02:08Z</time>
      </trkpt>
      <trkpt lat="45.31087" lon="6.7951">
        <ele>2188.741</ele>
        <time>2015-08-26T08:02:18Z</time>
      </trkpt>
      <trkpt lat="45.31088" lon="6.79507">
        <ele>2188.741</ele>
        <time>2015-08-26T08:02:23Z</time>
      </trkpt>
      <trkpt lat="45.31082" lon="6.79498">
        <ele>2188.6455</ele>
        <time>2015-08-26T08:02:33Z</time>
      </trkpt>
      <trkpt lat="45.31079" lon="6.79493">
        <ele>2188.6455</ele>
        <time>2015-08-26T08:02:38Z</time>
      </trkpt>
      <trkpt lat="45.31075" lon="6.79485">
        <ele>2188.6357</ele>
        <time>2015-08-26T08:02:48Z</time>
      </trkpt>
      <trkpt lat="45.31073" lon="6.79475">
        <ele>2188.6357</ele>
        <time>2015-08-26T08:02:53Z</time>
      </trkpt>
      <trkpt lat="45.31071" lon="6.79471">
        <ele>2188.759</ele>
        <time>2015-08-26T08:03:03Z</time>
      </trkpt>
      <trkpt lat="45.31067" lon="6.7947">
        <ele>2188.759</ele>
        <time>2015-08-26T08:03:08Z</time>
      </trkpt>
      <trkpt lat="45.31066" lon="6.79471">
        <ele>2188.759</ele>
        <time>2015-08-26T08:03:18Z</time>
      </trkpt>
      <trkpt lat="45.31065" lon="6.79474">
        <ele>2188.759</ele>
        <time>2015-08-26T08:03:23Z</time>
      </trkpt>
      <trkpt lat="45.31061" lon="6.79482">
        <ele>2188.6418</ele>
        <time>2015-08-26T08:03:33Z</time>
      </trkpt>
      <trkpt lat="45.31055" lon="6.79488">
        <ele>2188.6418</ele>
        <time>2015-08-26T08:03:38Z</time>
      </trkpt>
      <trkpt lat="45.31047" lon="6.79503">
        <ele>2188.3562</ele>
        <time>2015-08-26T08:03:48Z</time>
      </trkpt>
      <trkpt lat="45.31043" lon="6.79509">
        <ele>2188.3562</ele>
        <time>2015-08-26T08:03:53Z</time>
      </trkpt>
      <trkpt lat="45.31034" lon="6.79522">
        <ele>2187.8977</ele>
        <time>2015-08-26T08:04:08Z</time>
      </trkpt>
      <trkpt lat="45.3103" lon="6.79527">
        <ele>2187.8977</ele>
        <time>2015-08-26T08:04:13Z</time>
      </trkpt>
      <trkpt lat="45.31026" lon="6.79532">
        <ele>2187.3496</ele>
        <time>2015-08-26T08:04:23Z</time>
      </trkpt>
      <trkpt lat="45.31024" lon="6.79534">
        <ele>2187.3496</ele>
        <time>2015-08-26T08:04:28Z</time>
      </trkpt>
      <trkpt lat="45.31019" lon="6.79543">
        <ele>2186.6306</ele>
        <time>2015-08-26T08:04:38Z</time>
      </trkpt>
      <trkpt lat="45.31017" lon="6.79546">
        <ele>2186.6306</ele>
        <time>2015-08-26T08:04:43Z</time>
      </trkpt>
      <trkpt lat="45.31014" lon="6.79555">
        <ele>2185.6943</ele>
        <time>2015-08-26T08:04:53Z</time>
      </trkpt>
      <trkpt lat="45.31011" lon="6.79559">
        <ele>2185.6943</ele>
        <time>2015-08-26T08:04:58Z</time>
      </trkpt>
      <trkpt lat="45.31007" lon="6.79564">
        <ele>2184.6006</ele>
        <time>2015-08-26T08:05:08Z</time>
      </trkpt>
      <trkpt lat="45.31004" lon="6.79565">
        <ele>2184.6006</ele>
        <time>2015-08-26T08:05:13Z</time>
      </trkpt>
      <trkpt lat="45.30995" lon="6.7957">
        <ele>2183.606</ele>
        <time>2015-08-26T08:05:23Z</time>
      </trkpt>
      <trkpt lat="45.30992" lon="6.7957">
        <ele>2183.606</ele>
        <time>2015-08-26T08:05:28Z</time>
      </trkpt>
      <trkpt lat="45.30987" lon="6.79575">
        <ele>2182.733</ele>
        <time>2015-08-26T08:05:38Z</time>
      </trkpt>
      <trkpt lat="45.30982" lon="6.7958">
        <ele>2182.733</ele>
        <time>2015-08-26T08:05:43Z</time>
      </trkpt>
      <trkpt lat="45.30972" lon="6.79589">
        <ele>2181.8857</ele>
        <time>2015-08-26T08:05:53Z</time>
      </trkpt>
      <trkpt lat="45.30966" lon="6.79592">
        <ele>2181.8857</ele>
        <time>2015-08-26T08:05:58Z</time>
      </trkpt>
      <trkpt lat="45.30959" lon="6.79598">
        <ele>2181.106</ele>
        <time>2015-08-26T08:06:08Z</time>
      </trkpt>
      <trkpt lat="45.30956" lon="6.79602">
        <ele>2181.106</ele>
        <time>2015-08-26T08:06:13Z</time>
      </trkpt>
      <trkpt lat="45.30949" lon="6.79612">
        <ele>2180.2732</ele>
        <time>2015-08-26T08:06:23Z</time>
      </trkpt>
      <trkpt lat="45.30946" lon="6.79616">
        <ele>2180.2732</ele>
        <time>2015-08-26T08:06:28Z</time>
      </trkpt>
      <trkpt lat="45.30942" lon="6.79623">
        <ele>2179.2761</ele>
        <time>2015-08-26T08:06:38Z</time>
      </trkpt>
      <trkpt lat="45.30936" lon="6.79626">
        <ele>2179.2761</ele>
        <time>2015-08-26T08:06:43Z</time>
      </trkpt>
      <trkpt lat="45.30926" lon="6.79636">
        <ele>2177.9976</ele>
        <time>2015-08-26T08:06:58Z</time>
      </trkpt>
      <trkpt lat="45.30922" lon="6.79642">
        <ele>2177.9976</ele>
        <time>2015-08-26T08:07:03Z</time>
      </trkpt>
      <trkpt lat="45.30913" lon="6.79648">
        <ele>2176.7341</ele>
        <time>2015-08-26T08:07:13Z</time>
      </trkpt>
      <trkpt lat="45.30909" lon="6.79648">
        <ele>2176.7341</ele>
        <time>2015-08-26T08:07:18Z</time>
      </trkpt>
      <trkpt lat="45.30902" lon="6.79655">
        <ele>2175.7024</ele>
        <time>2015-08-26T08:07:28Z</time>
      </trkpt>
      <trkpt lat="45.30898" lon="6.79658">
        <ele>2175.7024</ele>
        <time>2015-08-26T08:07:33Z</time>
      </trkpt>
      <trkpt lat="45.30892" lon="6.79663">
        <ele>2174.5544</ele>
        <time>2015-08-26T08:07:43Z</time>
      </trkpt>
      <trkpt lat="45.30887" lon="6.79665">
        <ele>2174.5544</ele>
        <time>2015-08-26T08:07:48Z</time>
      </trkpt>
      <trkpt lat="45.30876" lon="6.79668">
        <ele>2173.257</ele>
        <time>2015-08-26T08:07:58Z</time>
      </trkpt>
      <trkpt lat="45.30873" lon="6.79669">
        <ele>2173.257</ele>
        <time>2015-08-26T08:08:03Z</time>
      </trkpt>
      <trkpt lat="45.30865" lon="6.79673">
        <ele>2171.8518</ele>
        <time>2015-08-26T08:08:13Z</time>
      </trkpt>
      <trkpt lat="45.30861" lon="6.79675">
        <ele>2171.8518</ele>
        <time>2015-08-26T08:08:18Z</time>
      </trkpt>
      <trkpt lat="45.30846" lon="6.79676">
        <ele>2170.2622</ele>
        <time>2015-08-26T08:08:33Z</time>
      </trkpt>
      <trkpt lat="45.3084" lon="6.79675">
        <ele>2170.2622</ele>
        <time>2015-08-26T08:08:38Z</time>
      </trkpt>
      <trkpt lat="45.30834" lon="6.79677">
        <ele>2168.5762</ele>
        <time>2015-08-26T08:08:48Z</time>
      </trkpt>
      <trkpt lat="45.30831" lon="6.79677">
        <ele>2168.5762</ele>
        <time>2015-08-26T08:08:53Z</time>
      </trkpt>
      <trkpt lat="45.30824" lon="6.7968">
        <ele>2166.7751</ele>
        <time>2015-08-26T08:09:03Z</time>
      </trkpt>
      <trkpt lat="45.30821" lon="6.79682">
        <ele>2166.7751</ele>
        <time>2015-08-26T08:09:08Z</time>
      </trkpt>
      <trkpt lat="45.30816" lon="6.79686">
        <ele>2165.0005</ele>
        <time>2015-08-26T08:09:18Z</time>
      </trkpt>
      <trkpt lat="45.30814" lon="6.79688">
        <ele>2165.0005</ele>
        <time>2015-08-26T08:09:23Z</time>
      </trkpt>
      <trkpt lat="45.30808" lon="6.79693">
        <ele>2165.0005</ele>
        <time>2015-08-26T08:09:33Z</time>
      </trkpt>
      <trkpt lat="45.30804" lon="6.79695">
        <ele>2163.1233</ele>
        <time>2015-08-26T08:09:38Z</time>
      </trkpt>
      <trkpt lat="45.30797" lon="6.79697">
        <ele>2163.1233</ele>
        <time>2015-08-26T08:09:48Z</time>
      </trkpt>
      <trkpt lat="45.30793" lon="6.79692">
        <ele>2161.2703</ele>
        <time>2015-08-26T08:09:53Z</time>
      </trkpt>
      <trkpt lat="45.30787" lon="6.79698">
        <ele>2161.2703</ele>
        <time>2015-08-26T08:10:03Z</time>
      </trkpt>
      <trkpt lat="45.30784" lon="6.797">
        <ele>2159.3992</ele>
        <time>2015-08-26T08:10:08Z</time>
      </trkpt>
      <trkpt lat="45.30777" lon="6.79706">
        <ele>2159.3992</ele>
        <time>2015-08-26T08:10:18Z</time>
      </trkpt>
      <trkpt lat="45.30772" lon="6.79708">
        <ele>2157.5725</ele>
        <time>2015-08-26T08:10:23Z</time>
      </trkpt>
      <trkpt lat="45.30771" lon="6.79709">
        <ele>2157.5725</ele>
        <time>2015-08-26T08:10:33Z</time>
      </trkpt>
      <trkpt lat="45.30768" lon="6.7971">
        <ele>2157.5725</ele>
        <time>2015-08-26T08:10:38Z</time>
      </trkpt>
      <trkpt lat="45.30757" lon="6.79706">
        <ele>2155.689</ele>
        <time>2015-08-26T08:10:53Z</time>
      </trkpt>
      <trkpt lat="45.30755" lon="6.79707">
        <ele>2155.689</ele>
        <time>2015-08-26T08:10:58Z</time>
      </trkpt>
      <trkpt lat="45.30751" lon="6.79708">
        <ele>2155.689</ele>
        <time>2015-08-26T08:11:08Z</time>
      </trkpt>
      <trkpt lat="45.30749" lon="6.79712">
        <ele>2153.9868</ele>
        <time>2015-08-26T08:11:13Z</time>
      </trkpt>
      <trkpt lat="45.30743" lon="6.79713">
        <ele>2153.9868</ele>
        <time>2015-08-26T08:11:23Z</time>
      </trkpt>
      <trkpt lat="45.30739" lon="6.79715">
        <ele>2152.484</ele>
        <time>2015-08-26T08:11:28Z</time>
      </trkpt>
      <trkpt lat="45.30732" lon="6.79719">
        <ele>2152.484</ele>
        <time>2015-08-26T08:11:38Z</time>
      </trkpt>
      <trkpt lat="45.30731" lon="6.79721">
        <ele>2152.484</ele>
        <time>2015-08-26T08:11:43Z</time>
      </trkpt>
      <trkpt lat="45.30729" lon="6.79723">
        <ele>2151.0957</ele>
        <time>2015-08-26T08:11:53Z</time>
      </trkpt>
      <trkpt lat="45.30728" lon="6.79724">
        <ele>2151.0957</ele>
        <time>2015-08-26T08:11:58Z</time>
      </trkpt>
      <trkpt lat="45.30725" lon="6.79728">
        <ele>2151.0957</ele>
        <time>2015-08-26T08:12:08Z</time>
      </trkpt>
      <trkpt lat="45.30723" lon="6.7973">
        <ele>2151.0957</ele>
        <time>2015-08-26T08:12:13Z</time>
      </trkpt>
      <trkpt lat="45.3072" lon="6.79732">
        <ele>2149.7</ele>
        <time>2015-08-26T08:12:23Z</time>
      </trkpt>
      <trkpt lat="45.30717" lon="6.79733">
        <ele>2149.7</ele>
        <time>2015-08-26T08:12:28Z</time>
      </trkpt>
      <trkpt lat="45.30711" lon="6.79741">
        <ele>2148.3855</ele>
        <time>2015-08-26T08:12:38Z</time>
      </trkpt>
      <trkpt lat="45.30707" lon="6.79744">
        <ele>2148.3855</ele>
        <time>2015-08-26T08:12:43Z</time>
      </trkpt>
      <trkpt lat="45.30701" lon="6.79748">
        <ele>2147.1763</ele>
        <time>2015-08-26T08:12:53Z</time>
      </trkpt>
      <trkpt lat="45.30699" lon="6.79751">
        <ele>2147.1763</ele>
        <time>2015-08-26T08:12:58Z</time>
      </trkpt>
      <trkpt lat="45.30694" lon="6.79756">
        <ele>2146.0798</ele>
        <time>2015-08-26T08:13:08Z</time>
      </trkpt>
      <trkpt lat="45.30691" lon="6.79759">
        <ele>2146.0798</ele>
        <time>2015-08-26T08:13:13Z</time>
      </trkpt>
      <trkpt lat="45.30687" lon="6.79758">
        <ele>2146.0798</ele>
        <time>2015-08-26T08:13:23Z</time>
      </trkpt>
      <trkpt lat="45.30686" lon="6.79759">
        <ele>2144.9443</ele>
        <time>2015-08-26T08:13:28Z</time>
      </trkpt>
      <trkpt lat="45.30681" lon="6.79759">
        <ele>2144.9443</ele>
        <time>2015-08-26T08:13:38Z</time>
      </trkpt>
      <trkpt lat="45.3068" lon="6.7976">
        <ele>2144.9443</ele>
        <time>2015-08-26T08:13:43Z</time>
      </trkpt>
      <trkpt lat="45.30675" lon="6.79765">
        <ele>2143.1538</ele>
        <time>2015-08-26T08:13:53Z</time>
      </trkpt>
      <trkpt lat="45.30674" lon="6.7977">
        <ele>2143.1538</ele>
        <time>2015-08-26T08:13:58Z</time>
      </trkpt>
      <trkpt lat="45.30668" lon="6.79784">
        <ele>2141.1187</ele>
        <time>2015-08-26T08:14:13Z</time>
      </trkpt>
      <trkpt lat="45.30665" lon="6.79789">
        <ele>2141.1187</ele>
        <time>2015-08-26T08:14:18Z</time>
      </trkpt>
      <trkpt lat="45.30659" lon="6.79793">
        <ele>2138.9612</ele>
        <time>2015-08-26T08:14:28Z</time>
      </trkpt>
      <trkpt lat="45.30655" lon="6.79796">
        <ele>2138.9612</ele>
        <time>2015-08-26T08:14:33Z</time>
      </trkpt>
      <trkpt lat="45.30648" lon="6.79797">
        <ele>2136.5637</ele>
        <time>2015-08-26T08:14:43Z</time>
      </trkpt>
      <trkpt lat="45.30645" lon="6.79799">
        <ele>2136.5637</ele>
        <time>2015-08-26T08:14:48Z</time>
      </trkpt>
      <trkpt lat="45.30638" lon="6.7981">
        <ele>2134.0774</ele>
        <time>2015-08-26T08:14:58Z</time>
      </trkpt>
      <trkpt lat="45.30636" lon="6.79813">
        <ele>2134.0774</ele>
        <time>2015-08-26T08:15:03Z</time>
      </trkpt>
      <trkpt lat="45.30633" lon="6.79817">
        <ele>2134.0774</ele>
        <time>2015-08-26T08:15:13Z</time>
      </trkpt>
      <trkpt lat="45.30631" lon="6.79819">
        <ele>2131.5276</ele>
        <time>2015-08-26T08:15:18Z</time>
      </trkpt>
      <trkpt lat="45.30626" lon="6.79824">
        <ele>2131.5276</ele>
        <time>2015-08-26T08:15:28Z</time>
      </trkpt>
      <trkpt lat="45.30622" lon="6.79828">
        <ele>2128.894</ele>
        <time>2015-08-26T08:15:33Z</time>
      </trkpt>
      <trkpt lat="45.30614" lon="6.79834">
        <ele>2126.3748</ele>
        <time>2015-08-26T08:15:43Z</time>
      </trkpt>
      <trkpt lat="45.30611" lon="6.79837">
        <ele>2126.3748</ele>
        <time>2015-08-26T08:15:48Z</time>
      </trkpt>
      <trkpt lat="45.30604" lon="6.79841">
        <ele>2123.864</ele>
        <time>2015-08-26T08:15:58Z</time>
      </trkpt>
      <trkpt lat="45.30602" lon="6.79842">
        <ele>2123.864</ele>
        <time>2015-08-26T08:16:03Z</time>
      </trkpt>
      <trkpt lat="45.30594" lon="6.79847">
        <ele>2121.322</ele>
        <time>2015-08-26T08:16:18Z</time>
      </trkpt>
      <trkpt lat="45.30591" lon="6.7985">
        <ele>2121.322</ele>
        <time>2015-08-26T08:16:23Z</time>
      </trkpt>
      <trkpt lat="45.30586" lon="6.79856">
        <ele>2118.8125</ele>
        <time>2015-08-26T08:16:33Z</time>
      </trkpt>
      <trkpt lat="45.30583" lon="6.79857">
        <ele>2118.8125</ele>
        <time>2015-08-26T08:16:38Z</time>
      </trkpt>
      <trkpt lat="45.30579" lon="6.79857">
        <ele>2118.8125</ele>
        <time>2015-08-26T08:16:48Z</time>
      </trkpt>
      <trkpt lat="45.30577" lon="6.79859">
        <ele>2116.1638</ele>
        <time>2015-08-26T08:16:53Z</time>
      </trkpt>
      <trkpt lat="45.30569" lon="6.79867">
        <ele>2113.7212</ele>
        <time>2015-08-26T08:17:03Z</time>
      </trkpt>
      <trkpt lat="45.30567" lon="6.79871">
        <ele>2113.7212</ele>
        <time>2015-08-26T08:17:08Z</time>
      </trkpt>
      <trkpt lat="45.30561" lon="6.79875">
        <ele>2111.5015</ele>
        <time>2015-08-26T08:17:18Z</time>
      </trkpt>
      <trkpt lat="45.30557" lon="6.79876">
        <ele>2111.5015</ele>
        <time>2015-08-26T08:17:23Z</time>
      </trkpt>
      <trkpt lat="45.3055" lon="6.79878">
        <ele>2109.5054</ele>
        <time>2015-08-26T08:17:33Z</time>
      </trkpt>
      <trkpt lat="45.30546" lon="6.79877">
        <ele>2109.5054</ele>
        <time>2015-08-26T08:17:38Z</time>
      </trkpt>
      <trkpt lat="45.3054" lon="6.79879">
        <ele>2107.7903</ele>
        <time>2015-08-26T08:17:48Z</time>
      </trkpt>
      <trkpt lat="45.30539" lon="6.79881">
        <ele>2107.7903</ele>
        <time>2015-08-26T08:17:53Z</time>
      </trkpt>
      <trkpt lat="45.30533" lon="6.79882">
        <ele>2107.7903</ele>
        <time>2015-08-26T08:18:08Z</time>
      </trkpt>
      <trkpt lat="45.3053" lon="6.79882">
        <ele>2106.192</ele>
        <time>2015-08-26T08:18:13Z</time>
      </trkpt>
      <trkpt lat="45.30523" lon="6.79886">
        <ele>2106.192</ele>
        <time>2015-08-26T08:18:23Z</time>
      </trkpt>
      <trkpt lat="45.30519" lon="6.79888">
        <ele>2104.6592</ele>
        <time>2015-08-26T08:18:28Z</time>
      </trkpt>
      <trkpt lat="45.30513" lon="6.79886">
        <ele>2104.6592</ele>
        <time>2015-08-26T08:18:38Z</time>
      </trkpt>
      <trkpt lat="45.30511" lon="6.79884">
        <ele>2104.6592</ele>
        <time>2015-08-26T08:18:43Z</time>
      </trkpt>
      <trkpt lat="45.30506" lon="6.7988">
        <ele>2103.259</ele>
        <time>2015-08-26T08:18:53Z</time>
      </trkpt>
      <trkpt lat="45.30503" lon="6.79881">
        <ele>2103.259</ele>
        <time>2015-08-26T08:18:58Z</time>
      </trkpt>
      <trkpt lat="45.30498" lon="6.7988">
        <ele>2103.259</ele>
        <time>2015-08-26T08:19:08Z</time>
      </trkpt>
      <trkpt lat="45.30492" lon="6.7988">
        <ele>2101.9958</ele>
        <time>2015-08-26T08:19:13Z</time>
      </trkpt>
      <trkpt lat="45.30485" lon="6.79882">
        <ele>2101.9958</ele>
        <time>2015-08-26T08:19:23Z</time>
      </trkpt>
      <trkpt lat="45.30482" lon="6.79882">
        <ele>2100.9167</ele>
        <time>2015-08-26T08:19:28Z</time>
      </trkpt>
      <trkpt lat="45.30476" lon="6.79883">
        <ele>2100.9167</ele>
        <time>2015-08-26T08:19:38Z</time>
      </trkpt>
      <trkpt lat="45.30474" lon="6.79883">
        <ele>2100.9167</ele>
        <time>2015-08-26T08:19:43Z</time>
      </trkpt>
      <trkpt lat="45.30469" lon="6.7988">
        <ele>2100.1506</ele>
        <time>2015-08-26T08:19:53Z</time>
      </trkpt>
      <trkpt lat="45.30466" lon="6.79877">
        <ele>2100.1506</ele>
        <time>2015-08-26T08:19:58Z</time>
      </trkpt>
      <trkpt lat="45.30459" lon="6.79873">
        <ele>2099.4702</ele>
        <time>2015-08-26T08:20:08Z</time>
      </trkpt>
      <trkpt lat="45.30455" lon="6.79873">
        <ele>2099.4702</ele>
        <time>2015-08-26T08:20:13Z</time>
      </trkpt>
      <trkpt lat="45.30449" lon="6.79874">
        <ele>2098.8813</ele>
        <time>2015-08-26T08:20:23Z</time>
      </trkpt>
      <trkpt lat="45.30447" lon="6.79876">
        <ele>2098.8813</ele>
        <time>2015-08-26T08:20:28Z</time>
      </trkpt>
      <trkpt lat="45.3044" lon="6.7988">
        <ele>2098.3308</ele>
        <time>2015-08-26T08:20:38Z</time>
      </trkpt>
      <trkpt lat="45.30437" lon="6.79883">
        <ele>2098.3308</ele>
        <time>2015-08-26T08:20:43Z</time>
      </trkpt>
      <trkpt lat="45.30429" lon="6.7989">
        <ele>2097.784</ele>
        <time>2015-08-26T08:20:53Z</time>
      </trkpt>
      <trkpt lat="45.30426" lon="6.79893">
        <ele>2097.784</ele>
        <time>2015-08-26T08:20:58Z</time>
      </trkpt>
      <trkpt lat="45.3042" lon="6.79902">
        <ele>2097.3096</ele>
        <time>2015-08-26T08:21:08Z</time>
      </trkpt>
      <trkpt lat="45.30419" lon="6.79903">
        <ele>2097.3096</ele>
        <time>2015-08-26T08:21:13Z</time>
      </trkpt>
      <trkpt lat="45.30411" lon="6.79905">
        <ele>2096.8557</ele>
        <time>2015-08-26T08:21:23Z</time>
      </trkpt>
      <trkpt lat="45.30406" lon="6.79904">
        <ele>2096.8557</ele>
        <time>2015-08-26T08:21:28Z</time>
      </trkpt>
      <trkpt lat="45.30395" lon="6.79899">
        <ele>2096.5183</ele>
        <time>2015-08-26T08:21:43Z</time>
      </trkpt>
      <trkpt lat="45.30391" lon="6.79902">
        <ele>2096.5183</ele>
        <time>2015-08-26T08:21:48Z</time>
      </trkpt>
      <trkpt lat="45.30387" lon="6.79905">
        <ele>2096.5183</ele>
        <time>2015-08-26T08:21:58Z</time>
      </trkpt>
      <trkpt lat="45.30385" lon="6.79906">
        <ele>2096.343</ele>
        <time>2015-08-26T08:22:03Z</time>
      </trkpt>
      <trkpt lat="45.3038" lon="6.79908">
        <ele>2096.343</ele>
        <time>2015-08-26T08:22:13Z</time>
      </trkpt>
      <trkpt lat="45.30378" lon="6.7991">
        <ele>2096.343</ele>
        <time>2015-08-26T08:22:18Z</time>
      </trkpt>
      <trkpt lat="45.30374" lon="6.79915">
        <ele>2096.0684</ele>
        <time>2015-08-26T08:22:28Z</time>
      </trkpt>
      <trkpt lat="45.30372" lon="6.79918">
        <ele>2096.0684</ele>
        <time>2015-08-26T08:22:33Z</time>
      </trkpt>
      <trkpt lat="45.30362" lon="6.79924">
        <ele>2095.7417</ele>
        <time>2015-08-26T08:22:43Z</time>
      </trkpt>
      <trkpt lat="45.30359" lon="6.79924">
        <ele>2095.7417</ele>
        <time>2015-08-26T08:22:48Z</time>
      </trkpt>
      <trkpt lat="45.30352" lon="6.79925">
        <ele>2095.4204</ele>
        <time>2015-08-26T08:22:58Z</time>
      </trkpt>
      <trkpt lat="45.30348" lon="6.79925">
        <ele>2095.4204</ele>
        <time>2015-08-26T08:23:03Z</time>
      </trkpt>
      <trkpt lat="45.30338" lon="6.79922">
        <ele>2095.1582</ele>
        <time>2015-08-26T08:23:13Z</time>
      </trkpt>
      <trkpt lat="45.30334" lon="6.79922">
        <ele>2095.1582</ele>
        <time>2015-08-26T08:23:18Z</time>
      </trkpt>
      <trkpt lat="45.30328" lon="6.7992">
        <ele>2095.0627</ele>
        <time>2015-08-26T08:23:28Z</time>
      </trkpt>
      <trkpt lat="45.30324" lon="6.79918">
        <ele>2095.0627</ele>
        <time>2015-08-26T08:23:33Z</time>
      </trkpt>
      <trkpt lat="45.30322" lon="6.79918">
        <ele>2095.0627</ele>
        <time>2015-08-26T08:23:43Z</time>
      </trkpt>
      <trkpt lat="45.30321" lon="6.79917">
        <ele>2095.0627</ele>
        <time>2015-08-26T08:23:48Z</time>
      </trkpt>
      <trkpt lat="45.30319" lon="6.79918">
        <ele>2095.175</ele>
        <time>2015-08-26T08:24:03Z</time>
      </trkpt>
      <trkpt lat="45.30319" lon="6.79918">
        <ele>2095.175</ele>
        <time>2015-08-26T08:24:08Z</time>
      </trkpt>
      <trkpt lat="45.30316" lon="6.7991">
        <ele>2095.175</ele>
        <time>2015-08-26T08:24:18Z</time>
      </trkpt>
      <trkpt lat="45.30312" lon="6.79903">
        <ele>2095.3743</ele>
        <time>2015-08-26T08:24:23Z</time>
      </trkpt>
      <trkpt lat="45.30307" lon="6.79893">
        <ele>2095.3743</ele>
        <time>2015-08-26T08:24:33Z</time>
      </trkpt>
      <trkpt lat="45.30306" lon="6.79888">
        <ele>2095.7505</ele>
        <time>2015-08-26T08:24:38Z</time>
      </trkpt>
      <trkpt lat="45.30302" lon="6.79884">
        <ele>2095.7505</ele>
        <time>2015-08-26T08:24:48Z</time>
      </trkpt>
      <trkpt lat="45.30302" lon="6.79881">
        <ele>2095.7505</ele>
        <time>2015-08-26T08:24:53Z</time>
      </trkpt>
      <trkpt lat="45.30298" lon="6.79885">
        <ele>2096.4148</ele>
        <time>2015-08-26T08:25:03Z</time>
      </trkpt>
      <trkpt lat="45.30296" lon="6.79888">
        <ele>2096.4148</ele>
        <time>2015-08-26T08:25:08Z</time>
      </trkpt>
      <trkpt lat="45.30292" lon="6.79883">
        <ele>2096.4148</ele>
        <time>2015-08-26T08:25:18Z</time>
      </trkpt>
      <trkpt lat="45.30288" lon="6.79875">
        <ele>2096.9517</ele>
        <time>2015-08-26T08:25:23Z</time>
      </trkpt>
      <trkpt lat="45.30284" lon="6.7987">
        <ele>2096.9517</ele>
        <time>2015-08-26T08:25:33Z</time>
      </trkpt>
      <trkpt lat="45.30284" lon="6.79867">
        <ele>2096.9517</ele>
        <time>2015-08-26T08:25:38Z</time>
      </trkpt>
      <trkpt lat="45.30281" lon="6.7986">
        <ele>2097.48</ele>
        <time>2015-08-26T08:25:48Z</time>
      </trkpt>
      <trkpt lat="45.3028" lon="6.79859">
        <ele>2097.48</ele>
        <time>2015-08-26T08:25:53Z</time>
      </trkpt>
      <trkpt lat="45.30274" lon="6.79859">
        <ele>2097.48</ele>
        <time>2015-08-26T08:26:08Z</time>
      </trkpt>
      <trkpt lat="45.30271" lon="6.7986">
        <ele>2097.5483</ele>
        <time>2015-08-26T08:26:13Z</time>
      </trkpt>
      <trkpt lat="45.30264" lon="6.79859">
        <ele>2097.5483</ele>
        <time>2015-08-26T08:26:23Z</time>
      </trkpt>
      <trkpt lat="45.3026" lon="6.79855">
        <ele>2097.4749</ele>
        <time>2015-08-26T08:26:28Z</time>
      </trkpt>
      <trkpt lat="45.30255" lon="6.79851">
        <ele>2097.4749</ele>
        <time>2015-08-26T08:26:38Z</time>
      </trkpt>
      <trkpt lat="45.30253" lon="6.79849">
        <ele>2097.4749</ele>
        <time>2015-08-26T08:26:43Z</time>
      </trkpt>
      <trkpt lat="45.30246" lon="6.79842">
        <ele>2097.022</ele>
        <time>2015-08-26T08:26:53Z</time>
      </trkpt>
      <trkpt lat="45.30244" lon="6.79838">
        <ele>2097.022</ele>
        <time>2015-08-26T08:26:58Z</time>
      </trkpt>
      <trkpt lat="45.3024" lon="6.79827">
        <ele>2096.4602</ele>
        <time>2015-08-26T08:27:08Z</time>
      </trkpt>
      <trkpt lat="45.30238" lon="6.79825">
        <ele>2096.4602</ele>
        <time>2015-08-26T08:27:13Z</time>
      </trkpt>
      <trkpt lat="45.30238" lon="6.7982">
        <ele>2096.4602</ele>
        <time>2015-08-26T08:27:23Z</time>
      </trkpt>
      <trkpt lat="45.30236" lon="6.79813">
        <ele>2095.6084</ele>
        <time>2015-08-26T08:27:28Z</time>
      </trkpt>
      <trkpt lat="45.30232" lon="6.79802">
        <ele>2094.7178</ele>
        <time>2015-08-26T08:27:38Z</time>
      </trkpt>
      <trkpt lat="45.30233" lon="6.79801">
        <ele>2094.7178</ele>
        <time>2015-08-26T08:27:43Z</time>
      </trkpt>
      <trkpt lat="45.30232" lon="6.79792">
        <ele>2094.7178</ele>
        <time>2015-08-26T08:27:53Z</time>
      </trkpt>
      <trkpt lat="45.30229" lon="6.79785">
        <ele>2093.661</ele>
        <time>2015-08-26T08:27:58Z</time>
      </trkpt>
      <trkpt lat="45.30223" lon="6.7978">
        <ele>2093.661</ele>
        <time>2015-08-26T08:28:08Z</time>
      </trkpt>
      <trkpt lat="45.30221" lon="6.79778">
        <ele>2092.3923</ele>
        <time>2015-08-26T08:28:13Z</time>
      </trkpt>
      <trkpt lat="45.30218" lon="6.79777">
        <ele>2092.3923</ele>
        <time>2015-08-26T08:28:28Z</time>
      </trkpt>
      <trkpt lat="45.30218" lon="6.79777">
        <ele>2092.3923</ele>
        <time>2015-08-26T08:28:33Z</time>
      </trkpt>
      <trkpt lat="45.30216" lon="6.79779">
        <ele>2092.3923</ele>
        <time>2015-08-26T08:28:43Z</time>
      </trkpt>
      <trkpt lat="45.30215" lon="6.79773">
        <ele>2090.914</ele>
        <time>2015-08-26T08:28:48Z</time>
      </trkpt>
      <trkpt lat="45.30217" lon="6.79775">
        <ele>2090.914</ele>
        <time>2015-08-26T08:28:58Z</time>
      </trkpt>
      <trkpt lat="45.30217" lon="6.79777">
        <ele>2090.914</ele>
        <time>2015-08-26T08:29:03Z</time>
      </trkpt>
      <trkpt lat="45.30215" lon="6.79776">
        <ele>2090.914</ele>
        <time>2015-08-26T08:29:13Z</time>
      </trkpt>
      <trkpt lat="45.30215" lon="6.79775">
        <ele>2090.914</ele>
        <time>2015-08-26T08:29:18Z</time>
      </trkpt>
      <trkpt lat="45.30214" lon="6.79773">
        <ele>2089.459</ele>
        <time>2015-08-26T08:29:28Z</time>
      </trkpt>
      <trkpt lat="45.30213" lon="6.79776">
        <ele>2089.459</ele>
        <time>2015-08-26T08:29:33Z</time>
      </trkpt>
      <trkpt lat="45.30213" lon="6.79776">
        <ele>2089.459</ele>
        <time>2015-08-26T08:29:43Z</time>
      </trkpt>
      <trkpt lat="45.30213" lon="6.79775">
        <ele>2089.459</ele>
        <time>2015-08-26T08:29:48Z</time>
      </trkpt>
      <trkpt lat="45.30214" lon="6.79773">
        <ele>2089.459</ele>
        <time>2015-08-26T08:29:58Z</time>
      </trkpt>
      <trkpt lat="45.30215" lon="6.79774">
        <ele>2089.459</ele>
        <time>2015-08-26T08:30:03Z</time>
      </trkpt>
      <trkpt lat="45.30217" lon="6.79774">
        <ele>2089.459</ele>
        <time>2015-08-26T08:30:13Z</time>
      </trkpt>
      <trkpt lat="45.30217" lon="6.79773">
        <ele>2089.459</ele>
        <time>2015-08-26T08:30:18Z</time>
      </trkpt>
      <trkpt lat="45.30213" lon="6.79774">
        <ele>2088.2139</ele>
        <time>2015-08-26T08:30:28Z</time>
      </trkpt>
      <trkpt lat="45.30212" lon="6.79775">
        <ele>2088.2139</ele>
        <time>2015-08-26T08:30:33Z</time>
      </trkpt>
      <trkpt lat="45.30211" lon="6.79774">
        <ele>2088.2139</ele>
        <time>2015-08-26T08:30:48Z</time>
      </trkpt>
      <trkpt lat="45.3021" lon="6.7977">
        <ele>2088.2139</ele>
        <time>2015-08-26T08:30:53Z</time>
      </trkpt>
      <trkpt lat="45.30208" lon="6.79759">
        <ele>2087.15</ele>
        <time>2015-08-26T08:31:03Z</time>
      </trkpt>
      <trkpt lat="45.30206" lon="6.79755">
        <ele>2087.15</ele>
        <time>2015-08-26T08:31:08Z</time>
      </trkpt>
      <trkpt lat="45.30202" lon="6.79745">
        <ele>2085.9663</ele>
        <time>2015-08-26T08:31:18Z</time>
      </trkpt>
      <trkpt lat="45.302" lon="6.7974">
        <ele>2085.9663</ele>
        <time>2015-08-26T08:31:23Z</time>
      </trkpt>
      <trkpt lat="45.30198" lon="6.79731">
        <ele>2084.773</ele>
        <time>2015-08-26T08:31:33Z</time>
      </trkpt>
      <trkpt lat="45.30196" lon="6.79724">
        <ele>2084.773</ele>
        <time>2015-08-26T08:31:38Z</time>
      </trkpt>
      <trkpt lat="45.3019" lon="6.79716">
        <ele>2083.5286</ele>
        <time>2015-08-26T08:31:48Z</time>
      </trkpt>
      <trkpt lat="45.30186" lon="6.79712">
        <ele>2083.5286</ele>
        <time>2015-08-26T08:31:53Z</time>
      </trkpt>
      <trkpt lat="45.30181" lon="6.797">
        <ele>2082.3389</ele>
        <time>2015-08-26T08:32:03Z</time>
      </trkpt>
      <trkpt lat="45.30179" lon="6.79694">
        <ele>2082.3389</ele>
        <time>2015-08-26T08:32:08Z</time>
      </trkpt>
      <trkpt lat="45.30172" lon="6.79681">
        <ele>2081.244</ele>
        <time>2015-08-26T08:32:18Z</time>
      </trkpt>
      <trkpt lat="45.3017" lon="6.79676">
        <ele>2081.244</ele>
        <time>2015-08-26T08:32:23Z</time>
      </trkpt>
      <trkpt lat="45.30167" lon="6.79668">
        <ele>2080.2664</ele>
        <time>2015-08-26T08:32:33Z</time>
      </trkpt>
      <trkpt lat="45.30164" lon="6.79665">
        <ele>2080.2664</ele>
        <time>2015-08-26T08:32:38Z</time>
      </trkpt>
      <trkpt lat="45.3016" lon="6.79658">
        <ele>2079.4556</ele>
        <time>2015-08-26T08:32:48Z</time>
      </trkpt>
      <trkpt lat="45.30159" lon="6.79657">
        <ele>2079.4556</ele>
        <time>2015-08-26T08:32:53Z</time>
      </trkpt>
      <trkpt lat="45.3016" lon="6.79644">
        <ele>2078.684</ele>
        <time>2015-08-26T08:33:08Z</time>
      </trkpt>
      <trkpt lat="45.30159" lon="6.79641">
        <ele>2078.684</ele>
        <time>2015-08-26T08:33:13Z</time>
      </trkpt>
      <trkpt lat="45.30154" lon="6.79628">
        <ele>2078.0496</ele>
        <time>2015-08-26T08:33:23Z</time>
      </trkpt>
      <trkpt lat="45.30152" lon="6.79624">
        <ele>2078.0496</ele>
        <time>2015-08-26T08:33:28Z</time>
      </trkpt>
      <trkpt lat="45.30151" lon="6.79615">
        <ele>2077.5703</ele>
        <time>2015-08-26T08:33:38Z</time>
      </trkpt>
      <trkpt lat="45.30151" lon="6.79612">
        <ele>2077.5703</ele>
        <time>2015-08-26T08:33:43Z</time>
      </trkpt>
      <trkpt lat="45.30146" lon="6.79597">
        <ele>2077.0613</ele>
        <time>2015-08-26T08:33:53Z</time>
      </trkpt>
      <trkpt lat="45.30144" lon="6.79594">
        <ele>2077.0613</ele>
        <time>2015-08-26T08:33:58Z</time>
      </trkpt>
      <trkpt lat="45.30142" lon="6.79586">
        <ele>2077.0613</ele>
        <time>2015-08-26T08:34:08Z</time>
      </trkpt>
      <trkpt lat="45.30142" lon="6.79584">
        <ele>2076.7686</ele>
        <time>2015-08-26T08:34:13Z</time>
      </trkpt>
      <trkpt lat="45.30141" lon="6.79576">
        <ele>2076.7686</ele>
        <time>2015-08-26T08:34:23Z</time>
      </trkpt>
      <trkpt lat="45.3014" lon="6.7957">
        <ele>2076.819</ele>
        <time>2015-08-26T08:34:28Z</time>
      </trkpt>
      <trkpt lat="45.30141" lon="6.79563">
        <ele>2076.819</ele>
        <time>2015-08-26T08:34:38Z</time>
      </trkpt>
      <trkpt lat="45.30141" lon="6.79559">
        <ele>2076.819</ele>
        <time>2015-08-26T08:34:43Z</time>
      </trkpt>
      <trkpt lat="45.30143" lon="6.79551">
        <ele>2077.056</ele>
        <time>2015-08-26T08:34:53Z</time>
      </trkpt>
      <trkpt lat="45.30144" lon="6.79543">
        <ele>2077.056</ele>
        <time>2015-08-26T08:34:58Z</time>
      </trkpt>
      <trkpt lat="45.30138" lon="6.79522">
        <ele>2077.6206</ele>
        <time>2015-08-26T08:35:13Z</time>
      </trkpt>
      <trkpt lat="45.30138" lon="6.79518">
        <ele>2077.6206</ele>
        <time>2015-08-26T08:35:18Z</time>
      </trkpt>
      <trkpt lat="45.30137" lon="6.79518">
        <ele>2077.6206</ele>
        <time>2015-08-26T08:35:28Z</time>
      </trkpt>
      <trkpt lat="45.30135" lon="6.79519">
        <ele>2077.6206</ele>
        <time>2015-08-26T08:35:33Z</time>
      </trkpt>
      <trkpt lat="45.30136" lon="6.79515">
        <ele>2077.6206</ele>
        <time>2015-08-26T08:35:43Z</time>
      </trkpt>
      <trkpt lat="45.30136" lon="6.79512">
        <ele>2078.4568</ele>
        <time>2015-08-26T08:35:48Z</time>
      </trkpt>
      <trkpt lat="45.30137" lon="6.79507">
        <ele>2078.4568</ele>
        <time>2015-08-26T08:35:58Z</time>
      </trkpt>
      <trkpt lat="45.30137" lon="6.79506">
        <ele>2078.4568</ele>
        <time>2015-08-26T08:36:03Z</time>
      </trkpt>
      <trkpt lat="45.30138" lon="6.79498">
        <ele>2079.2664</ele>
        <time>2015-08-26T08:36:13Z</time>
      </trkpt>
      <trkpt lat="45.3014" lon="6.79493">
        <ele>2079.2664</ele>
        <time>2015-08-26T08:36:18Z</time>
      </trkpt>
      <trkpt lat="45.30138" lon="6.79483">
        <ele>2080.0757</ele>
        <time>2015-08-26T08:36:28Z</time>
      </trkpt>
      <trkpt lat="45.30139" lon="6.79478">
        <ele>2080.0757</ele>
        <time>2015-08-26T08:36:33Z</time>
      </trkpt>
      <trkpt lat="45.30146" lon="6.79465">
        <ele>2080.9238</ele>
        <time>2015-08-26T08:36:43Z</time>
      </trkpt>
      <trkpt lat="45.30148" lon="6.79461">
        <ele>2080.9238</ele>
        <time>2015-08-26T08:36:48Z</time>
      </trkpt>
      <trkpt lat="45.30151" lon="6.79454">
        <ele>2081.9622</ele>
        <time>2015-08-26T08:36:58Z</time>
      </trkpt>
      <trkpt lat="45.3015" lon="6.79451">
        <ele>2081.9622</ele>
        <time>2015-08-26T08:37:03Z</time>
      </trkpt>
      <trkpt lat="45.3015" lon="6.79444">
        <ele>2081.9622</ele>
        <time>2015-08-26T08:37:18Z</time>
      </trkpt>
      <trkpt lat="45.30152" lon="6.79439">
        <ele>2083.3303</ele>
        <time>2015-08-26T08:37:23Z</time>
      </trkpt>
      <trkpt lat="45.30155" lon="6.79434">
        <ele>2083.3303</ele>
        <time>2015-08-26T08:37:33Z</time>
      </trkpt>
      <trkpt lat="45.30155" lon="6.79432">
        <ele>2083.3303</ele>
        <time>2015-08-26T08:37:38Z</time>
      </trkpt>
      <trkpt lat="45.30159" lon="6.79423">
        <ele>2084.3938</ele>
        <time>2015-08-26T08:37:48Z</time>
      </trkpt>
      <trkpt lat="45.3016" lon="6.79418">
        <ele>2084.3938</ele>
        <time>2015-08-26T08:37:53Z</time>
      </trkpt>
      <trkpt lat="45.3016" lon="6.79416">
        <ele>2084.3938</ele>
        <time>2015-08-26T08:38:03Z</time>
      </trkpt>
      <trkpt lat="45.30162" lon="6.79411">
        <ele>2085.3284</ele>
        <time>2015-08-26T08:38:08Z</time>
      </trkpt>
      <trkpt lat="45.30163" lon="6.79408">
        <ele>2085.3284</ele>
        <time>2015-08-26T08:38:18Z</time>
      </trkpt>
      <trkpt lat="45.30163" lon="6.79407">
        <ele>2085.3284</ele>
        <time>2015-08-26T08:38:23Z</time>
      </trkpt>
      <trkpt lat="45.30163" lon="6.79405">
        <ele>2085.3284</ele>
        <time>2015-08-26T08:38:33Z</time>
      </trkpt>
      <trkpt lat="45.30163" lon="6.79403">
        <ele>2085.3284</ele>
        <time>2015-08-26T08:38:38Z</time>
      </trkpt>
      <trkpt lat="45.30163" lon="6.79403">
        <ele>2085.3284</ele>
        <time>2015-08-26T08:38:48Z</time>
      </trkpt>
      <trkpt lat="45.30164" lon="6.79402">
        <ele>2085.3284</ele>
        <time>2015-08-26T08:39:23Z</time>
      </trkpt>
      <trkpt lat="45.30163" lon="6.79398">
        <ele>2086.7737</ele>
        <time>2015-08-26T08:39:38Z</time>
      </trkpt>
      <trkpt lat="45.30164" lon="6.79395">
        <ele>2086.7737</ele>
        <time>2015-08-26T08:39:43Z</time>
      </trkpt>
      <trkpt lat="45.30165" lon="6.79394">
        <ele>2086.7737</ele>
        <time>2015-08-26T08:39:53Z</time>
      </trkpt>
      <trkpt lat="45.30167" lon="6.79393">
        <ele>2086.7737</ele>
        <time>2015-08-26T08:39:58Z</time>
      </trkpt>
      <trkpt lat="45.30169" lon="6.79377">
        <ele>2088.6145</ele>
        <time>2015-08-26T08:40:08Z</time>
      </trkpt>
      <trkpt lat="45.3017" lon="6.79375">
        <ele>2088.6145</ele>
        <time>2015-08-26T08:40:23Z</time>
      </trkpt>
      <trkpt lat="45.30171" lon="6.79372">
        <ele>2088.6145</ele>
        <time>2015-08-26T08:40:28Z</time>
      </trkpt>
      <trkpt lat="45.30171" lon="6.79372">
        <ele>2088.6145</ele>
        <time>2015-08-26T08:40:38Z</time>
      </trkpt>
      <trkpt lat="45.30171" lon="6.7937">
        <ele>2088.6145</ele>
        <time>2015-08-26T08:40:43Z</time>
      </trkpt>
      <trkpt lat="45.30173" lon="6.79363">
        <ele>2091.003</ele>
        <time>2015-08-26T08:40:53Z</time>
      </trkpt>
      <trkpt lat="45.30177" lon="6.79352">
        <ele>2093.2568</ele>
        <time>2015-08-26T08:40:58Z</time>
      </trkpt>
      <trkpt lat="45.30183" lon="6.7934">
        <ele>2095.4072</ele>
        <time>2015-08-26T08:41:08Z</time>
      </trkpt>
      <trkpt lat="45.30185" lon="6.79331">
        <ele>2095.4072</ele>
        <time>2015-08-26T08:41:13Z</time>
      </trkpt>
      <trkpt lat="45.30186" lon="6.79327">
        <ele>2097.4836</ele>
        <time>2015-08-26T08:41:23Z</time>
      </trkpt>
      <trkpt lat="45.30189" lon="6.79321">
        <ele>2097.4836</ele>
        <time>2015-08-26T08:41:38Z</time>
      </trkpt>
      <trkpt lat="45.3019" lon="6.79318">
        <ele>2097.4836</ele>
        <time>2015-08-26T08:41:43Z</time>
      </trkpt>
      <trkpt lat="45.30192" lon="6.79308">
        <ele>2099.889</ele>
        <time>2015-08-26T08:41:53Z</time>
      </trkpt>
      <trkpt lat="45.30194" lon="6.79306">
        <ele>2099.889</ele>
        <time>2015-08-26T08:41:58Z</time>
      </trkpt>
      <trkpt lat="45.30196" lon="6.793">
        <ele>2099.889</ele>
        <time>2015-08-26T08:42:13Z</time>
      </trkpt>
      <trkpt lat="45.30195" lon="6.79294">
        <ele>2102.2166</ele>
        <time>2015-08-26T08:42:18Z</time>
      </trkpt>
      <trkpt lat="45.30195" lon="6.7929">
        <ele>2102.2166</ele>
        <time>2015-08-26T08:42:28Z</time>
      </trkpt>
      <trkpt lat="45.30193" lon="6.79285">
        <ele>2102.2166</ele>
        <time>2015-08-26T08:42:43Z</time>
      </trkpt>
      <trkpt lat="45.30191" lon="6.79273">
        <ele>2104.8113</ele>
        <time>2015-08-26T08:42:48Z</time>
      </trkpt>
      <trkpt lat="45.30191" lon="6.79273">
        <ele>2104.8113</ele>
        <time>2015-08-26T08:42:58Z</time>
      </trkpt>
      <trkpt lat="45.3019" lon="6.79271">
        <ele>2104.8113</ele>
        <time>2015-08-26T08:43:03Z</time>
      </trkpt>
      <trkpt lat="45.30188" lon="6.79263">
        <ele>2104.8113</ele>
        <time>2015-08-26T08:43:13Z</time>
      </trkpt>
      <trkpt lat="45.30186" lon="6.79259">
        <ele>2107.776</ele>
        <time>2015-08-26T08:43:18Z</time>
      </trkpt>
      <trkpt lat="45.30186" lon="6.79258">
        <ele>2107.776</ele>
        <time>2015-08-26T08:43:28Z</time>
      </trkpt>
      <trkpt lat="45.30187" lon="6.79256">
        <ele>2107.776</ele>
        <time>2015-08-26T08:43:33Z</time>
      </trkpt>
      <trkpt lat="45.30186" lon="6.79251">
        <ele>2107.776</ele>
        <time>2015-08-26T08:43:43Z</time>
      </trkpt>
      <trkpt lat="45.30181" lon="6.79239">
        <ele>2111.06</ele>
        <time>2015-08-26T08:43:48Z</time>
      </trkpt>
      <trkpt lat="45.3018" lon="6.79235">
        <ele>2111.06</ele>
        <time>2015-08-26T08:43:58Z</time>
      </trkpt>
      <trkpt lat="45.3018" lon="6.79234">
        <ele>2111.06</ele>
        <time>2015-08-26T08:44:03Z</time>
      </trkpt>
      <trkpt lat="45.3018" lon="6.79234">
        <ele>2111.06</ele>
        <time>2015-08-26T08:44:13Z</time>
      </trkpt>
      <trkpt lat="45.30178" lon="6.79231">
        <ele>2111.06</ele>
        <time>2015-08-26T08:44:18Z</time>
      </trkpt>
      <trkpt lat="45.30178" lon="6.79226">
        <ele>2114.6897</ele>
        <time>2015-08-26T08:44:33Z</time>
      </trkpt>
      <trkpt lat="45.30177" lon="6.79223">
        <ele>2114.6897</ele>
        <time>2015-08-26T08:45:08Z</time>
      </trkpt>
      <trkpt lat="45.30177" lon="6.79219">
        <ele>2114.6897</ele>
        <time>2015-08-26T08:45:18Z</time>
      </trkpt>
      <trkpt lat="45.30174" lon="6.79189">
        <ele>2118.7444</ele>
        <time>2015-08-26T08:45:38Z</time>
      </trkpt>
      <trkpt lat="45.30174" lon="6.79189">
        <ele>2118.7444</ele>
        <time>2015-08-26T08:45:53Z</time>
      </trkpt>
      <trkpt lat="45.30175" lon="6.79189">
        <ele>2118.7444</ele>
        <time>2015-08-26T08:46:08Z</time>
      </trkpt>
      <trkpt lat="45.30177" lon="6.7919">
        <ele>2118.7444</ele>
        <time>2015-08-26T08:46:13Z</time>
      </trkpt>
      <trkpt lat="45.30179" lon="6.7919">
        <ele>2118.7444</ele>
        <time>2015-08-26T08:46:23Z</time>
      </trkpt>
      <trkpt lat="45.30179" lon="6.7919">
        <ele>2118.7444</ele>
        <time>2015-08-26T08:46:28Z</time>
      </trkpt>
      <trkpt lat="45.3018" lon="6.79187">
        <ele>2118.7444</ele>
        <time>2015-08-26T08:46:43Z</time>
      </trkpt>
      <trkpt lat="45.3018" lon="6.79177">
        <ele>2123.1533</ele>
        <time>2015-08-26T08:46:53Z</time>
      </trkpt>
      <trkpt lat="45.3018" lon="6.79177">
        <ele>2123.1533</ele>
        <time>2015-08-26T08:46:58Z</time>
      </trkpt>
      <trkpt lat="45.3018" lon="6.79174">
        <ele>2123.1533</ele>
        <time>2015-08-26T08:47:08Z</time>
      </trkpt>
      <trkpt lat="45.3018" lon="6.79174">
        <ele>2123.1533</ele>
        <time>2015-08-26T08:47:13Z</time>
      </trkpt>
      <trkpt lat="45.3018" lon="6.79171">
        <ele>2123.1533</ele>
        <time>2015-08-26T08:47:43Z</time>
      </trkpt>
      <trkpt lat="45.3018" lon="6.79166">
        <ele>2123.1533</ele>
        <time>2015-08-26T08:47:48Z</time>
      </trkpt>
      <trkpt lat="45.30175" lon="6.79148">
        <ele>2128.2688</ele>
        <time>2015-08-26T08:47:58Z</time>
      </trkpt>
      <trkpt lat="45.30172" lon="6.79146">
        <ele>2128.2688</ele>
        <time>2015-08-26T08:48:03Z</time>
      </trkpt>
      <trkpt lat="45.30167" lon="6.79142">
        <ele>2133.1172</ele>
        <time>2015-08-26T08:48:13Z</time>
      </trkpt>
      <trkpt lat="45.30167" lon="6.79142">
        <ele>2133.1172</ele>
        <time>2015-08-26T08:48:18Z</time>
      </trkpt>
      <trkpt lat="45.30165" lon="6.79141">
        <ele>2133.1172</ele>
        <time>2015-08-26T08:48:28Z</time>
      </trkpt>
      <trkpt lat="45.30162" lon="6.79136">
        <ele>2133.1172</ele>
        <time>2015-08-26T08:48:33Z</time>
      </trkpt>
      <trkpt lat="45.30162" lon="6.79136">
        <ele>2133.1172</ele>
        <time>2015-08-26T08:48:43Z</time>
      </trkpt>
      <trkpt lat="45.3016" lon="6.79131">
        <ele>2138.34</ele>
        <time>2015-08-26T08:48:48Z</time>
      </trkpt>
      <trkpt lat="45.30151" lon="6.79124">
        <ele>2143.1338</ele>
        <time>2015-08-26T08:48:58Z</time>
      </trkpt>
      <trkpt lat="45.30148" lon="6.79122">
        <ele>2143.1338</ele>
        <time>2015-08-26T08:49:03Z</time>
      </trkpt>
      <trkpt lat="45.30143" lon="6.79113">
        <ele>2147.619</ele>
        <time>2015-08-26T08:49:18Z</time>
      </trkpt>
      <trkpt lat="45.30141" lon="6.7911">
        <ele>2147.619</ele>
        <time>2015-08-26T08:49:23Z</time>
      </trkpt>
      <trkpt lat="45.30139" lon="6.79108">
        <ele>2147.619</ele>
        <time>2015-08-26T08:49:33Z</time>
      </trkpt>
      <trkpt lat="45.30139" lon="6.79107">
        <ele>2147.619</ele>
        <time>2015-08-26T08:49:38Z</time>
      </trkpt>
      <trkpt lat="45.3013" lon="6.79103">
        <ele>2152.255</ele>
        <time>2015-08-26T08:49:48Z</time>
      </trkpt>
      <trkpt lat="45.30127" lon="6.79103">
        <ele>2152.255</ele>
        <time>2015-08-26T08:49:53Z</time>
      </trkpt>
      <trkpt lat="45.30124" lon="6.79107">
        <ele>2152.255</ele>
        <time>2015-08-26T08:50:03Z</time>
      </trkpt>
      <trkpt lat="45.30123" lon="6.7911">
        <ele>2156.7607</ele>
        <time>2015-08-26T08:50:08Z</time>
      </trkpt>
      <trkpt lat="45.3012" lon="6.79117">
        <ele>2156.7607</ele>
        <time>2015-08-26T08:50:18Z</time>
      </trkpt>
      <trkpt lat="45.30118" lon="6.79118">
        <ele>2156.7607</ele>
        <time>2015-08-26T08:50:23Z</time>
      </trkpt>
      <trkpt lat="45.30115" lon="6.7912">
        <ele>2161.0068</ele>
        <time>2015-08-26T08:50:33Z</time>
      </trkpt>
      <trkpt lat="45.30112" lon="6.79124">
        <ele>2161.0068</ele>
        <time>2015-08-26T08:50:38Z</time>
      </trkpt>
      <trkpt lat="45.30106" lon="6.79132">
        <ele>2164.8884</ele>
        <time>2015-08-26T08:50:48Z</time>
      </trkpt>
      <trkpt lat="45.30102" lon="6.79134">
        <ele>2164.8884</ele>
        <time>2015-08-26T08:50:53Z</time>
      </trkpt>
      <trkpt lat="45.30094" lon="6.79132">
        <ele>2168.3386</ele>
        <time>2015-08-26T08:51:03Z</time>
      </trkpt>
      <trkpt lat="45.30091" lon="6.79129">
        <ele>2168.3386</ele>
        <time>2015-08-26T08:51:08Z</time>
      </trkpt>
      <trkpt lat="45.30084" lon="6.79126">
        <ele>2171.4414</ele>
        <time>2015-08-26T08:51:23Z</time>
      </trkpt>
      <trkpt lat="45.30084" lon="6.79125">
        <ele>2171.4414</ele>
        <time>2015-08-26T08:51:28Z</time>
      </trkpt>
      <trkpt lat="45.30086" lon="6.79123">
        <ele>2171.4414</ele>
        <time>2015-08-26T08:51:38Z</time>
      </trkpt>
      <trkpt lat="45.30087" lon="6.79124">
        <ele>2171.4414</ele>
        <time>2015-08-26T08:51:43Z</time>
      </trkpt>
      <trkpt lat="45.30092" lon="6.79123">
        <ele>2171.4414</ele>
        <time>2015-08-26T08:51:53Z</time>
      </trkpt>
      <trkpt lat="45.30092" lon="6.79122">
        <ele>2174.6208</ele>
        <time>2015-08-26T08:51:58Z</time>
      </trkpt>
      <trkpt lat="45.30094" lon="6.79118">
        <ele>2174.6208</ele>
        <time>2015-08-26T08:52:08Z</time>
      </trkpt>
      <trkpt lat="45.30096" lon="6.79116">
        <ele>2174.6208</ele>
        <time>2015-08-26T08:52:13Z</time>
      </trkpt>
      <trkpt lat="45.30095" lon="6.79111">
        <ele>2177.8533</ele>
        <time>2015-08-26T08:52:23Z</time>
      </trkpt>
      <trkpt lat="45.30096" lon="6.79109">
        <ele>2177.8533</ele>
        <time>2015-08-26T08:52:28Z</time>
      </trkpt>
      <trkpt lat="45.30098" lon="6.79104">
        <ele>2177.8533</ele>
        <time>2015-08-26T08:52:38Z</time>
      </trkpt>
      <trkpt lat="45.30099" lon="6.79099">
        <ele>2180.9863</ele>
        <time>2015-08-26T08:52:43Z</time>
      </trkpt>
      <trkpt lat="45.30099" lon="6.79099">
        <ele>2180.9863</ele>
        <time>2015-08-26T08:52:53Z</time>
      </trkpt>
      <trkpt lat="45.30098" lon="6.79098">
        <ele>2180.9863</ele>
        <time>2015-08-26T08:52:58Z</time>
      </trkpt>
      <trkpt lat="45.30101" lon="6.7909">
        <ele>2180.9863</ele>
        <time>2015-08-26T08:53:08Z</time>
      </trkpt>
      <trkpt lat="45.301" lon="6.79089">
        <ele>2183.9087</ele>
        <time>2015-08-26T08:53:13Z</time>
      </trkpt>
      <trkpt lat="45.301" lon="6.79089">
        <ele>2183.9087</ele>
        <time>2015-08-26T08:53:23Z</time>
      </trkpt>
      <trkpt lat="45.30096" lon="6.7908">
        <ele>2183.9087</ele>
        <time>2015-08-26T08:53:43Z</time>
      </trkpt>
      <trkpt lat="45.30093" lon="6.79069">
        <ele>2186.9788</ele>
        <time>2015-08-26T08:53:53Z</time>
      </trkpt>
      <trkpt lat="45.30094" lon="6.79067">
        <ele>2186.9788</ele>
        <time>2015-08-26T08:53:58Z</time>
      </trkpt>
      <trkpt lat="45.30094" lon="6.79067">
        <ele>2186.9788</ele>
        <time>2015-08-26T08:54:08Z</time>
      </trkpt>
      <trkpt lat="45.30094" lon="6.79065">
        <ele>2186.9788</ele>
        <time>2015-08-26T08:54:13Z</time>
      </trkpt>
      <trkpt lat="45.30094" lon="6.79063">
        <ele>2186.9788</ele>
        <time>2015-08-26T08:54:23Z</time>
      </trkpt>
      <trkpt lat="45.30094" lon="6.79061">
        <ele>2186.9788</ele>
        <time>2015-08-26T08:54:28Z</time>
      </trkpt>
      <trkpt lat="45.30093" lon="6.79049">
        <ele>2189.6067</ele>
        <time>2015-08-26T08:54:38Z</time>
      </trkpt>
      <trkpt lat="45.30093" lon="6.79041">
        <ele>2189.6067</ele>
        <time>2015-08-26T08:54:58Z</time>
      </trkpt>
      <trkpt lat="45.30092" lon="6.79035">
        <ele>2191.9966</ele>
        <time>2015-08-26T08:55:03Z</time>
      </trkpt>
      <trkpt lat="45.30086" lon="6.79014">
        <ele>2194.3096</ele>
        <time>2015-08-26T08:55:13Z</time>
      </trkpt>
      <trkpt lat="45.30086" lon="6.79014">
        <ele>2194.3096</ele>
        <time>2015-08-26T08:55:18Z</time>
      </trkpt>
      <trkpt lat="45.30087" lon="6.79012">
        <ele>2194.3096</ele>
        <time>2015-08-26T08:55:28Z</time>
      </trkpt>
      <trkpt lat="45.30089" lon="6.79009">
        <ele>2194.3096</ele>
        <time>2015-08-26T08:55:33Z</time>
      </trkpt>
      <trkpt lat="45.30089" lon="6.79006">
        <ele>2194.3096</ele>
        <time>2015-08-26T08:55:43Z</time>
      </trkpt>
      <trkpt lat="45.30088" lon="6.79005">
        <ele>2194.3096</ele>
        <time>2015-08-26T08:55:48Z</time>
      </trkpt>
      <trkpt lat="45.3009" lon="6.78996">
        <ele>2197.3152</ele>
        <time>2015-08-26T08:55:58Z</time>
      </trkpt>
      <trkpt lat="45.30089" lon="6.7899">
        <ele>2197.3152</ele>
        <time>2015-08-26T08:56:03Z</time>
      </trkpt>
      <trkpt lat="45.30085" lon="6.78983">
        <ele>2200.096</ele>
        <time>2015-08-26T08:56:13Z</time>
      </trkpt>
      <trkpt lat="45.30082" lon="6.7898">
        <ele>2200.096</ele>
        <time>2015-08-26T08:56:18Z</time>
      </trkpt>
      <trkpt lat="45.30079" lon="6.78983">
        <ele>2200.096</ele>
        <time>2015-08-26T08:56:28Z</time>
      </trkpt>
      <trkpt lat="45.30076" lon="6.78982">
        <ele>2202.7114</ele>
        <time>2015-08-26T08:56:33Z</time>
      </trkpt>
      <trkpt lat="45.30071" lon="6.78986">
        <ele>2202.7114</ele>
        <time>2015-08-26T08:56:43Z</time>
      </trkpt>
      <trkpt lat="45.3007" lon="6.78985">
        <ele>2202.7114</ele>
        <time>2015-08-26T08:56:48Z</time>
      </trkpt>
      <trkpt lat="45.30066" lon="6.78983">
        <ele>2205.0864</ele>
        <time>2015-08-26T08:56:58Z</time>
      </trkpt>
      <trkpt lat="45.30062" lon="6.78982">
        <ele>2205.0864</ele>
        <time>2015-08-26T08:57:03Z</time>
      </trkpt>
      <trkpt lat="45.30057" lon="6.78978">
        <ele>2205.0864</ele>
        <time>2015-08-26T08:57:13Z</time>
      </trkpt>
      <trkpt lat="45.30055" lon="6.78978">
        <ele>2207.1384</ele>
        <time>2015-08-26T08:57:18Z</time>
      </trkpt>
      <trkpt lat="45.30048" lon="6.78979">
        <ele>2207.1384</ele>
        <time>2015-08-26T08:57:33Z</time>
      </trkpt>
      <trkpt lat="45.30046" lon="6.78979">
        <ele>2209.0806</ele>
        <time>2015-08-26T08:57:38Z</time>
      </trkpt>
      <trkpt lat="45.30041" lon="6.78979">
        <ele>2209.0806</ele>
        <time>2015-08-26T08:57:48Z</time>
      </trkpt>
      <trkpt lat="45.30039" lon="6.78978">
        <ele>2209.0806</ele>
        <time>2015-08-26T08:57:53Z</time>
      </trkpt>
      <trkpt lat="45.30036" lon="6.78976">
        <ele>2211.0813</ele>
        <time>2015-08-26T08:58:03Z</time>
      </trkpt>
      <trkpt lat="45.30032" lon="6.78978">
        <ele>2211.0813</ele>
        <time>2015-08-26T08:58:08Z</time>
      </trkpt>
      <trkpt lat="45.30029" lon="6.78976">
        <ele>2211.0813</ele>
        <time>2015-08-26T08:58:18Z</time>
      </trkpt>
      <trkpt lat="45.30027" lon="6.78974">
        <ele>2213.0088</ele>
        <time>2015-08-26T08:58:23Z</time>
      </trkpt>
      <trkpt lat="45.30023" lon="6.78973">
        <ele>2213.0088</ele>
        <time>2015-08-26T08:58:33Z</time>
      </trkpt>
      <trkpt lat="45.30023" lon="6.78972">
        <ele>2213.0088</ele>
        <time>2015-08-26T08:58:38Z</time>
      </trkpt>
      <trkpt lat="45.30018" lon="6.78972">
        <ele>2214.7844</ele>
        <time>2015-08-26T08:58:48Z</time>
      </trkpt>
      <trkpt lat="45.30014" lon="6.7897">
        <ele>2214.7844</ele>
        <time>2015-08-26T08:58:53Z</time>
      </trkpt>
      <trkpt lat="45.30014" lon="6.78965">
        <ele>2214.7844</ele>
        <time>2015-08-26T08:59:03Z</time>
      </trkpt>
      <trkpt lat="45.30015" lon="6.78961">
        <ele>2216.451</ele>
        <time>2015-08-26T08:59:08Z</time>
      </trkpt>
      <trkpt lat="45.30015" lon="6.7896">
        <ele>2216.451</ele>
        <time>2015-08-26T08:59:18Z</time>
      </trkpt>
      <trkpt lat="45.30015" lon="6.78959">
        <ele>2216.451</ele>
        <time>2015-08-26T08:59:23Z</time>
      </trkpt>
      <trkpt lat="45.30015" lon="6.78952">
        <ele>2216.451</ele>
        <time>2015-08-26T08:59:33Z</time>
      </trkpt>
      <trkpt lat="45.30012" lon="6.78946">
        <ele>2218.5386</ele>
        <time>2015-08-26T08:59:38Z</time>
      </trkpt>
      <trkpt lat="45.30006" lon="6.78937">
        <ele>2218.5386</ele>
        <time>2015-08-26T08:59:53Z</time>
      </trkpt>
      <trkpt lat="45.30004" lon="6.78936">
        <ele>2220.514</ele>
        <time>2015-08-26T08:59:58Z</time>
      </trkpt>
      <trkpt lat="45.29997" lon="6.78936">
        <ele>2220.514</ele>
        <time>2015-08-26T09:00:08Z</time>
      </trkpt>
      <trkpt lat="45.29995" lon="6.78935">
        <ele>2222.3738</ele>
        <time>2015-08-26T09:00:13Z</time>
      </trkpt>
      <trkpt lat="45.29989" lon="6.78936">
        <ele>2222.3738</ele>
        <time>2015-08-26T09:00:23Z</time>
      </trkpt>
      <trkpt lat="45.29988" lon="6.78934">
        <ele>2222.3738</ele>
        <time>2015-08-26T09:00:28Z</time>
      </trkpt>
      <trkpt lat="45.29984" lon="6.78931">
        <ele>2224.0427</ele>
        <time>2015-08-26T09:00:38Z</time>
      </trkpt>
      <trkpt lat="45.29985" lon="6.78929">
        <ele>2224.0427</ele>
        <time>2015-08-26T09:00:43Z</time>
      </trkpt>
      <trkpt lat="45.29986" lon="6.78925">
        <ele>2224.0427</ele>
        <time>2015-08-26T09:00:53Z</time>
      </trkpt>
      <trkpt lat="45.29985" lon="6.78921">
        <ele>2224.0427</ele>
        <time>2015-08-26T09:00:58Z</time>
      </trkpt>
      <trkpt lat="45.29981" lon="6.78915">
        <ele>2225.5095</ele>
        <time>2015-08-26T09:01:08Z</time>
      </trkpt>
      <trkpt lat="45.2998" lon="6.78913">
        <ele>2225.5095</ele>
        <time>2015-08-26T09:01:13Z</time>
      </trkpt>
      <trkpt lat="45.29977" lon="6.78905">
        <ele>2225.5095</ele>
        <time>2015-08-26T09:01:23Z</time>
      </trkpt>
      <trkpt lat="45.29973" lon="6.78899">
        <ele>2226.3752</ele>
        <time>2015-08-26T09:01:28Z</time>
      </trkpt>
      <trkpt lat="45.29971" lon="6.78896">
        <ele>2226.3752</ele>
        <time>2015-08-26T09:01:38Z</time>
      </trkpt>
      <trkpt lat="45.2997" lon="6.78892">
        <ele>2226.3752</ele>
        <time>2015-08-26T09:01:43Z</time>
      </trkpt>
      <trkpt lat="45.29967" lon="6.78883">
        <ele>2227.3958</ele>
        <time>2015-08-26T09:01:53Z</time>
      </trkpt>
      <trkpt lat="45.29966" lon="6.78875">
        <ele>2227.3958</ele>
        <time>2015-08-26T09:01:58Z</time>
      </trkpt>
      <trkpt lat="45.29959" lon="6.7886">
        <ele>2228.6084</ele>
        <time>2015-08-26T09:02:13Z</time>
      </trkpt>
      <trkpt lat="45.29957" lon="6.78858">
        <ele>2228.6084</ele>
        <time>2015-08-26T09:02:18Z</time>
      </trkpt>
      <trkpt lat="45.29955" lon="6.78854">
        <ele>2228.6084</ele>
        <time>2015-08-26T09:02:28Z</time>
      </trkpt>
      <trkpt lat="45.29955" lon="6.78854">
        <ele>2228.6084</ele>
        <time>2015-08-26T09:02:33Z</time>
      </trkpt>
      <trkpt lat="45.29954" lon="6.78853">
        <ele>2228.6084</ele>
        <time>2015-08-26T09:03:13Z</time>
      </trkpt>
      <trkpt lat="45.29954" lon="6.78853">
        <ele>2228.6084</ele>
        <time>2015-08-26T09:03:18Z</time>
      </trkpt>
      <trkpt lat="45.29953" lon="6.78851">
        <ele>2229.6575</ele>
        <time>2015-08-26T09:03:43Z</time>
      </trkpt>
      <trkpt lat="45.29951" lon="6.78851">
        <ele>2229.6575</ele>
        <time>2015-08-26T09:03:48Z</time>
      </trkpt>
      <trkpt lat="45.29945" lon="6.7885">
        <ele>2229.6575</ele>
        <time>2015-08-26T09:03:58Z</time>
      </trkpt>
      <trkpt lat="45.29939" lon="6.78848">
        <ele>2230.0706</ele>
        <time>2015-08-26T09:04:18Z</time>
      </trkpt>
      <trkpt lat="45.29937" lon="6.78848">
        <ele>2230.0706</ele>
        <time>2015-08-26T09:04:28Z</time>
      </trkpt>
      <trkpt lat="45.29936" lon="6.78848">
        <ele>2230.0706</ele>
        <time>2015-08-26T09:04:58Z</time>
      </trkpt>
      <trkpt lat="45.29935" lon="6.78849">
        <ele>2230.0706</ele>
        <time>2015-08-26T09:05:03Z</time>
      </trkpt>
      <trkpt lat="45.29932" lon="6.78852">
        <ele>2230.0706</ele>
        <time>2015-08-26T09:05:18Z</time>
      </trkpt>
      <trkpt lat="45.2993" lon="6.78853">
        <ele>2230.5063</ele>
        <time>2015-08-26T09:05:38Z</time>
      </trkpt>
      <trkpt lat="45.2993" lon="6.78853">
        <ele>2230.5063</ele>
        <time>2015-08-26T09:05:48Z</time>
      </trkpt>
      <trkpt lat="45.29929" lon="6.78855">
        <ele>2230.5063</ele>
        <time>2015-08-26T09:06:18Z</time>
      </trkpt>
      <trkpt lat="45.29929" lon="6.78855">
        <ele>2230.5063</ele>
        <time>2015-08-26T09:06:23Z</time>
      </trkpt>
      <trkpt lat="45.29926" lon="6.78858">
        <ele>2230.5063</ele>
        <time>2015-08-26T09:06:38Z</time>
      </trkpt>
      <trkpt lat="45.29926" lon="6.78858">
        <ele>2230.5063</ele>
        <time>2015-08-26T09:06:48Z</time>
      </trkpt>
      <trkpt lat="45.29925" lon="6.78858">
        <ele>2230.5063</ele>
        <time>2015-08-26T09:07:08Z</time>
      </trkpt>
      <trkpt lat="45.29924" lon="6.78859">
        <ele>2230.5063</ele>
        <time>2015-08-26T09:07:13Z</time>
      </trkpt>
      <trkpt lat="45.29922" lon="6.78859">
        <ele>2231.5317</ele>
        <time>2015-08-26T09:07:23Z</time>
      </trkpt>
      <trkpt lat="45.29921" lon="6.78859">
        <ele>2231.5317</ele>
        <time>2015-08-26T09:07:43Z</time>
      </trkpt>
      <trkpt lat="45.2992" lon="6.78857">
        <ele>2231.5317</ele>
        <time>2015-08-26T09:07:53Z</time>
      </trkpt>
      <trkpt lat="45.2992" lon="6.78857">
        <ele>2231.5317</ele>
        <time>2015-08-26T09:07:58Z</time>
      </trkpt>
      <trkpt lat="45.2992" lon="6.78856">
        <ele>2231.5317</ele>
        <time>2015-08-26T09:08:08Z</time>
      </trkpt>
      <trkpt lat="45.29918" lon="6.78856">
        <ele>2231.5317</ele>
        <time>2015-08-26T09:08:23Z</time>
      </trkpt>
      <trkpt lat="45.2991" lon="6.78859">
        <ele>2232.8923</ele>
        <time>2015-08-26T09:08:38Z</time>
      </trkpt>
      <trkpt lat="45.29907" lon="6.78858">
        <ele>2232.8923</ele>
        <time>2015-08-26T09:08:43Z</time>
      </trkpt>
      <trkpt lat="45.29902" lon="6.78857">
        <ele>2232.8923</ele>
        <time>2015-08-26T09:08:53Z</time>
      </trkpt>
      <trkpt lat="45.299" lon="6.7886">
        <ele>2234.5818</ele>
        <time>2015-08-26T09:08:58Z</time>
      </trkpt>
      <trkpt lat="45.299" lon="6.78861">
        <ele>2234.5818</ele>
        <time>2015-08-26T09:09:08Z</time>
      </trkpt>
      <trkpt lat="45.29895" lon="6.78875">
        <ele>2236.4207</ele>
        <time>2015-08-26T09:09:28Z</time>
      </trkpt>
      <trkpt lat="45.29893" lon="6.78878">
        <ele>2236.4207</ele>
        <time>2015-08-26T09:09:33Z</time>
      </trkpt>
      <trkpt lat="45.29893" lon="6.78882">
        <ele>2236.4207</ele>
        <time>2015-08-26T09:09:43Z</time>
      </trkpt>
      <trkpt lat="45.29893" lon="6.78882">
        <ele>2236.4207</ele>
        <time>2015-08-26T09:09:48Z</time>
      </trkpt>
      <trkpt lat="45.29891" lon="6.78885">
        <ele>2236.4207</ele>
        <time>2015-08-26T09:09:58Z</time>
      </trkpt>
      <trkpt lat="45.2989" lon="6.78886">
        <ele>2238.371</ele>
        <time>2015-08-26T09:10:03Z</time>
      </trkpt>
      <trkpt lat="45.2989" lon="6.78886">
        <ele>2238.371</ele>
        <time>2015-08-26T09:10:13Z</time>
      </trkpt>
      <trkpt lat="45.2989" lon="6.78888">
        <ele>2238.371</ele>
        <time>2015-08-26T09:10:18Z</time>
      </trkpt>
      <trkpt lat="45.29883" lon="6.78896">
        <ele>2240.4126</ele>
        <time>2015-08-26T09:10:28Z</time>
      </trkpt>
      <trkpt lat="45.29882" lon="6.78899">
        <ele>2240.4126</ele>
        <time>2015-08-26T09:10:33Z</time>
      </trkpt>
      <trkpt lat="45.29874" lon="6.78909">
        <ele>2242.4683</ele>
        <time>2015-08-26T09:10:43Z</time>
      </trkpt>
      <trkpt lat="45.29872" lon="6.7891">
        <ele>2242.4683</ele>
        <time>2015-08-26T09:10:48Z</time>
      </trkpt>
      <trkpt lat="45.29869" lon="6.78911">
        <ele>2242.4683</ele>
        <time>2015-08-26T09:10:58Z</time>
      </trkpt>
      <trkpt lat="45.29869" lon="6.7891">
        <ele>2242.4683</ele>
        <time>2015-08-26T09:11:03Z</time>
      </trkpt>
      <trkpt lat="45.2987" lon="6.78906">
        <ele>2244.61</ele>
        <time>2015-08-26T09:11:13Z</time>
      </trkpt>
      <trkpt lat="45.29869" lon="6.78903">
        <ele>2244.61</ele>
        <time>2015-08-26T09:11:18Z</time>
      </trkpt>
      <trkpt lat="45.29864" lon="6.78902">
        <ele>2244.61</ele>
        <time>2015-08-26T09:11:28Z</time>
      </trkpt>
      <trkpt lat="45.29863" lon="6.78906">
        <ele>2246.891</ele>
        <time>2015-08-26T09:11:33Z</time>
      </trkpt>
      <trkpt lat="45.29857" lon="6.7891">
        <ele>2246.891</ele>
        <time>2015-08-26T09:11:43Z</time>
      </trkpt>
      <trkpt lat="45.29853" lon="6.78908">
        <ele>2248.9126</ele>
        <time>2015-08-26T09:11:48Z</time>
      </trkpt>
      <trkpt lat="45.29848" lon="6.78908">
        <ele>2248.9126</ele>
        <time>2015-08-26T09:11:58Z</time>
      </trkpt>
      <trkpt lat="45.29845" lon="6.78908">
        <ele>2248.9126</ele>
        <time>2015-08-26T09:12:03Z</time>
      </trkpt>
      <trkpt lat="45.29839" lon="6.78904">
        <ele>2250.637</ele>
        <time>2015-08-26T09:12:13Z</time>
      </trkpt>
      <trkpt lat="45.29837" lon="6.78907">
        <ele>2250.637</ele>
        <time>2015-08-26T09:12:18Z</time>
      </trkpt>
      <trkpt lat="45.29829" lon="6.78909">
        <ele>2252.0881</ele>
        <time>2015-08-26T09:12:33Z</time>
      </trkpt>
      <trkpt lat="45.29826" lon="6.78909">
        <ele>2252.0881</ele>
        <time>2015-08-26T09:12:38Z</time>
      </trkpt>
      <trkpt lat="45.29818" lon="6.78914">
        <ele>2253.39</ele>
        <time>2015-08-26T09:12:48Z</time>
      </trkpt>
      <trkpt lat="45.29816" lon="6.78918">
        <ele>2253.39</ele>
        <time>2015-08-26T09:12:53Z</time>
      </trkpt>
      <trkpt lat="45.29812" lon="6.78923">
        <ele>2254.5564</ele>
        <time>2015-08-26T09:13:03Z</time>
      </trkpt>
      <trkpt lat="45.29809" lon="6.78923">
        <ele>2254.5564</ele>
        <time>2015-08-26T09:13:08Z</time>
      </trkpt>
      <trkpt lat="45.29803" lon="6.78925">
        <ele>2254.5564</ele>
        <time>2015-08-26T09:13:18Z</time>
      </trkpt>
      <trkpt lat="45.29801" lon="6.78924">
        <ele>2255.212</ele>
        <time>2015-08-26T09:13:23Z</time>
      </trkpt>
      <trkpt lat="45.29799" lon="6.78921">
        <ele>2255.212</ele>
        <time>2015-08-26T09:13:33Z</time>
      </trkpt>
      <trkpt lat="45.29798" lon="6.78918">
        <ele>2255.212</ele>
        <time>2015-08-26T09:13:38Z</time>
      </trkpt>
      <trkpt lat="45.29798" lon="6.78912">
        <ele>2255.4993</ele>
        <time>2015-08-26T09:13:48Z</time>
      </trkpt>
      <trkpt lat="45.29796" lon="6.78912">
        <ele>2255.4993</ele>
        <time>2015-08-26T09:13:53Z</time>
      </trkpt>
      <trkpt lat="45.29794" lon="6.78911">
        <ele>2255.4993</ele>
        <time>2015-08-26T09:14:03Z</time>
      </trkpt>
      <trkpt lat="45.29792" lon="6.78906">
        <ele>2255.4993</ele>
        <time>2015-08-26T09:14:08Z</time>
      </trkpt>
      <trkpt lat="45.29792" lon="6.78894">
        <ele>2256.042</ele>
        <time>2015-08-26T09:14:18Z</time>
      </trkpt>
      <trkpt lat="45.29791" lon="6.78891">
        <ele>2256.042</ele>
        <time>2015-08-26T09:14:23Z</time>
      </trkpt>
      <trkpt lat="45.29789" lon="6.7888">
        <ele>2256.524</ele>
        <time>2015-08-26T09:14:38Z</time>
      </trkpt>
      <trkpt lat="45.29787" lon="6.78877">
        <ele>2256.524</ele>
        <time>2015-08-26T09:14:43Z</time>
      </trkpt>
      <trkpt lat="45.29784" lon="6.78875">
        <ele>2256.524</ele>
        <time>2015-08-26T09:14:53Z</time>
      </trkpt>
      <trkpt lat="45.29783" lon="6.78873">
        <ele>2256.524</ele>
        <time>2015-08-26T09:14:58Z</time>
      </trkpt>
      <trkpt lat="45.29777" lon="6.7887">
        <ele>2257.2854</ele>
        <time>2015-08-26T09:15:08Z</time>
      </trkpt>
      <trkpt lat="45.29776" lon="6.78869">
        <ele>2257.2854</ele>
        <time>2015-08-26T09:15:13Z</time>
      </trkpt>
      <trkpt lat="45.2977" lon="6.7886">
        <ele>2257.8489</ele>
        <time>2015-08-26T09:15:23Z</time>
      </trkpt>
      <trkpt lat="45.2977" lon="6.78859">
        <ele>2257.8489</ele>
        <time>2015-08-26T09:15:28Z</time>
      </trkpt>
      <trkpt lat="45.29759" lon="6.78857">
        <ele>2258.4062</ele>
        <time>2015-08-26T09:15:38Z</time>
      </trkpt>
      <trkpt lat="45.29758" lon="6.78859">
        <ele>2258.4062</ele>
        <time>2015-08-26T09:15:43Z</time>
      </trkpt>
      <trkpt lat="45.29751" lon="6.78866">
        <ele>2258.775</ele>
        <time>2015-08-26T09:15:53Z</time>
      </trkpt>
      <trkpt lat="45.29749" lon="6.78869">
        <ele>2258.775</ele>
        <time>2015-08-26T09:15:58Z</time>
      </trkpt>
      <trkpt lat="45.29746" lon="6.78873">
        <ele>2258.775</ele>
        <time>2015-08-26T09:16:08Z</time>
      </trkpt>
      <trkpt lat="45.29746" lon="6.78873">
        <ele>2258.775</ele>
        <time>2015-08-26T09:16:13Z</time>
      </trkpt>
      <trkpt lat="45.29741" lon="6.78879">
        <ele>2259.0598</ele>
        <time>2015-08-26T09:16:23Z</time>
      </trkpt>
      <trkpt lat="45.29738" lon="6.78884">
        <ele>2259.0598</ele>
        <time>2015-08-26T09:16:28Z</time>
      </trkpt>
      <trkpt lat="45.29734" lon="6.7889">
        <ele>2258.9983</ele>
        <time>2015-08-26T09:16:38Z</time>
      </trkpt>
      <trkpt lat="45.29733" lon="6.78891">
        <ele>2258.9983</ele>
        <time>2015-08-26T09:16:43Z</time>
      </trkpt>
      <trkpt lat="45.2973" lon="6.78894">
        <ele>2258.9983</ele>
        <time>2015-08-26T09:16:53Z</time>
      </trkpt>
      <trkpt lat="45.2973" lon="6.78894">
        <ele>2258.9983</ele>
        <time>2015-08-26T09:16:58Z</time>
      </trkpt>
      <trkpt lat="45.29717" lon="6.78908">
        <ele>2258.8083</ele>
        <time>2015-08-26T09:17:13Z</time>
      </trkpt>
      <trkpt lat="45.29713" lon="6.78909">
        <ele>2258.8083</ele>
        <time>2015-08-26T09:17:18Z</time>
      </trkpt>
      <trkpt lat="45.29708" lon="6.78909">
        <ele>2258.8083</ele>
        <time>2015-08-26T09:17:28Z</time>
      </trkpt>
      <trkpt lat="45.29707" lon="6.7891">
        <ele>2258.5635</ele>
        <time>2015-08-26T09:17:33Z</time>
      </trkpt>
      <trkpt lat="45.29705" lon="6.78916">
        <ele>2258.5635</ele>
        <time>2015-08-26T09:17:43Z</time>
      </trkpt>
      <trkpt lat="45.29702" lon="6.7892">
        <ele>2258.5635</ele>
        <time>2015-08-26T09:17:48Z</time>
      </trkpt>
      <trkpt lat="45.29699" lon="6.78925">
        <ele>2258.4026</ele>
        <time>2015-08-26T09:17:58Z</time>
      </trkpt>
      <trkpt lat="45.29696" lon="6.78929">
        <ele>2258.4026</ele>
        <time>2015-08-26T09:18:03Z</time>
      </trkpt>
      <trkpt lat="45.29693" lon="6.78935">
        <ele>2258.095</ele>
        <time>2015-08-26T09:18:13Z</time>
      </trkpt>
      <trkpt lat="45.29692" lon="6.78935">
        <ele>2258.095</ele>
        <time>2015-08-26T09:18:18Z</time>
      </trkpt>
      <trkpt lat="45.29688" lon="6.78939">
        <ele>2258.095</ele>
        <time>2015-08-26T09:18:28Z</time>
      </trkpt>
      <trkpt lat="45.29687" lon="6.78945">
        <ele>2257.6711</ele>
        <time>2015-08-26T09:18:33Z</time>
      </trkpt>
      <trkpt lat="45.29687" lon="6.78952">
        <ele>2257.6711</ele>
        <time>2015-08-26T09:18:43Z</time>
      </trkpt>
      <trkpt lat="45.29686" lon="6.78954">
        <ele>2257.6711</ele>
        <time>2015-08-26T09:18:48Z</time>
      </trkpt>
      <trkpt lat="45.29685" lon="6.78965">
        <ele>2257.2466</ele>
        <time>2015-08-26T09:19:03Z</time>
      </trkpt>
      <trkpt lat="45.29684" lon="6.78969">
        <ele>2257.2466</ele>
        <time>2015-08-26T09:19:08Z</time>
      </trkpt>
      <trkpt lat="45.29681" lon="6.78972">
        <ele>2257.2466</ele>
        <time>2015-08-26T09:19:18Z</time>
      </trkpt>
      <trkpt lat="45.29679" lon="6.78973">
        <ele>2256.9998</ele>
        <time>2015-08-26T09:19:23Z</time>
      </trkpt>
      <trkpt lat="45.29678" lon="6.78977">
        <ele>2256.9998</ele>
        <time>2015-08-26T09:19:33Z</time>
      </trkpt>
      <trkpt lat="45.29675" lon="6.78984">
        <ele>2256.9998</ele>
        <time>2015-08-26T09:19:38Z</time>
      </trkpt>
      <trkpt lat="45.29673" lon="6.78994">
        <ele>2256.9373</ele>
        <time>2015-08-26T09:19:48Z</time>
      </trkpt>
      <trkpt lat="45.29669" lon="6.78997">
        <ele>2256.9373</ele>
        <time>2015-08-26T09:19:53Z</time>
      </trkpt>
      <trkpt lat="45.29663" lon="6.79004">
        <ele>2257.0063</ele>
        <time>2015-08-26T09:20:03Z</time>
      </trkpt>
      <trkpt lat="45.29661" lon="6.79006">
        <ele>2257.0063</ele>
        <time>2015-08-26T09:20:08Z</time>
      </trkpt>
      <trkpt lat="45.29657" lon="6.79011">
        <ele>2257.0063</ele>
        <time>2015-08-26T09:20:18Z</time>
      </trkpt>
      <trkpt lat="45.29655" lon="6.79015">
        <ele>2257.0283</ele>
        <time>2015-08-26T09:20:23Z</time>
      </trkpt>
      <trkpt lat="45.29651" lon="6.79022">
        <ele>2257.0283</ele>
        <time>2015-08-26T09:20:33Z</time>
      </trkpt>
      <trkpt lat="45.29648" lon="6.79027">
        <ele>2257.068</ele>
        <time>2015-08-26T09:20:38Z</time>
      </trkpt>
      <trkpt lat="45.29647" lon="6.79035">
        <ele>2257.068</ele>
        <time>2015-08-26T09:20:48Z</time>
      </trkpt>
      <trkpt lat="45.29646" lon="6.7904">
        <ele>2257.0413</ele>
        <time>2015-08-26T09:20:53Z</time>
      </trkpt>
      <trkpt lat="45.2964" lon="6.79056">
        <ele>2257.043</ele>
        <time>2015-08-26T09:21:08Z</time>
      </trkpt>
      <trkpt lat="45.29638" lon="6.79061">
        <ele>2257.043</ele>
        <time>2015-08-26T09:21:13Z</time>
      </trkpt>
      <trkpt lat="45.29634" lon="6.79065">
        <ele>2257.043</ele>
        <time>2015-08-26T09:21:23Z</time>
      </trkpt>
      <trkpt lat="45.29633" lon="6.79064">
        <ele>2257.103</ele>
        <time>2015-08-26T09:21:28Z</time>
      </trkpt>
      <trkpt lat="45.29632" lon="6.79064">
        <ele>2257.103</ele>
        <time>2015-08-26T09:21:38Z</time>
      </trkpt>
      <trkpt lat="45.29633" lon="6.79064">
        <ele>2257.103</ele>
        <time>2015-08-26T09:21:43Z</time>
      </trkpt>
      <trkpt lat="45.29633" lon="6.79069">
        <ele>2257.103</ele>
        <time>2015-08-26T09:21:53Z</time>
      </trkpt>
      <trkpt lat="45.29632" lon="6.79073">
        <ele>2257.103</ele>
        <time>2015-08-26T09:21:58Z</time>
      </trkpt>
      <trkpt lat="45.29627" lon="6.79083">
        <ele>2257.1191</ele>
        <time>2015-08-26T09:22:08Z</time>
      </trkpt>
      <trkpt lat="45.29625" lon="6.79088">
        <ele>2257.1191</ele>
        <time>2015-08-26T09:22:13Z</time>
      </trkpt>
      <trkpt lat="45.29622" lon="6.79099">
        <ele>2257.1406</ele>
        <time>2015-08-26T09:22:23Z</time>
      </trkpt>
      <trkpt lat="45.29621" lon="6.79105">
        <ele>2257.1406</ele>
        <time>2015-08-26T09:22:28Z</time>
      </trkpt>
      <trkpt lat="45.29619" lon="6.79113">
        <ele>2257.069</ele>
        <time>2015-08-26T09:22:38Z</time>
      </trkpt>
      <trkpt lat="45.29616" lon="6.79116">
        <ele>2257.069</ele>
        <time>2015-08-26T09:22:43Z</time>
      </trkpt>
      <trkpt lat="45.2961" lon="6.79123">
        <ele>2256.828</ele>
        <time>2015-08-26T09:22:53Z</time>
      </trkpt>
      <trkpt lat="45.29607" lon="6.79127">
        <ele>2256.828</ele>
        <time>2015-08-26T09:22:58Z</time>
      </trkpt>
      <trkpt lat="45.29601" lon="6.79132">
        <ele>2256.3027</ele>
        <time>2015-08-26T09:23:08Z</time>
      </trkpt>
      <trkpt lat="45.29599" lon="6.79137">
        <ele>2256.3027</ele>
        <time>2015-08-26T09:23:13Z</time>
      </trkpt>
      <trkpt lat="45.29595" lon="6.79144">
        <ele>2255.7056</ele>
        <time>2015-08-26T09:23:23Z</time>
      </trkpt>
      <trkpt lat="45.29593" lon="6.79152">
        <ele>2255.7056</ele>
        <time>2015-08-26T09:23:28Z</time>
      </trkpt>
      <trkpt lat="45.2959" lon="6.79161">
        <ele>2254.9592</ele>
        <time>2015-08-26T09:23:38Z</time>
      </trkpt>
      <trkpt lat="45.29588" lon="6.79166">
        <ele>2254.9592</ele>
        <time>2015-08-26T09:23:43Z</time>
      </trkpt>
      <trkpt lat="45.29588" lon="6.79177">
        <ele>2254.1077</ele>
        <time>2015-08-26T09:23:53Z</time>
      </trkpt>
      <trkpt lat="45.29587" lon="6.79183">
        <ele>2254.1077</ele>
        <time>2015-08-26T09:23:58Z</time>
      </trkpt>
      <trkpt lat="45.29584" lon="6.79196">
        <ele>2253.321</ele>
        <time>2015-08-26T09:24:13Z</time>
      </trkpt>
      <trkpt lat="45.29584" lon="6.79203">
        <ele>2253.321</ele>
        <time>2015-08-26T09:24:18Z</time>
      </trkpt>
      <trkpt lat="45.29583" lon="6.79212">
        <ele>2252.6423</ele>
        <time>2015-08-26T09:24:28Z</time>
      </trkpt>
      <trkpt lat="45.29581" lon="6.79216">
        <ele>2252.6423</ele>
        <time>2015-08-26T09:24:33Z</time>
      </trkpt>
      <trkpt lat="45.29578" lon="6.79227">
        <ele>2252.1099</ele>
        <time>2015-08-26T09:24:43Z</time>
      </trkpt>
      <trkpt lat="45.29577" lon="6.79233">
        <ele>2252.1099</ele>
        <time>2015-08-26T09:24:48Z</time>
      </trkpt>
      <trkpt lat="45.29576" lon="6.79241">
        <ele>2251.6584</ele>
        <time>2015-08-26T09:24:58Z</time>
      </trkpt>
      <trkpt lat="45.29577" lon="6.79246">
        <ele>2251.6584</ele>
        <time>2015-08-26T09:25:03Z</time>
      </trkpt>
      <trkpt lat="45.29577" lon="6.79252">
        <ele>2251.6584</ele>
        <time>2015-08-26T09:25:13Z</time>
      </trkpt>
      <trkpt lat="45.2958" lon="6.7925">
        <ele>2250.8953</ele>
        <time>2015-08-26T09:25:18Z</time>
      </trkpt>
      <trkpt lat="45.29578" lon="6.79249">
        <ele>2250.8953</ele>
        <time>2015-08-26T09:25:28Z</time>
      </trkpt>
      <trkpt lat="45.2958" lon="6.79254">
        <ele>2250.8953</ele>
        <time>2015-08-26T09:25:33Z</time>
      </trkpt>
      <trkpt lat="45.2958" lon="6.79255">
        <ele>2250.8953</ele>
        <time>2015-08-26T09:25:38Z</time>
      </trkpt>
      <trkpt lat="45.29573" lon="6.79259">
        <ele>2249.9766</ele>
        <time>2015-08-26T09:25:48Z</time>
      </trkpt>
      <trkpt lat="45.29573" lon="6.7926">
        <ele>2249.9766</ele>
        <time>2015-08-26T09:25:53Z</time>
      </trkpt>
      <trkpt lat="45.29574" lon="6.79258">
        <ele>2249.9766</ele>
        <time>2015-08-26T09:26:08Z</time>
      </trkpt>
      <trkpt lat="45.29576" lon="6.79258">
        <ele>2249.9766</ele>
        <time>2015-08-26T09:26:13Z</time>
      </trkpt>
      <trkpt lat="45.29579" lon="6.79256">
        <ele>2249.9766</ele>
        <time>2015-08-26T09:26:23Z</time>
      </trkpt>
      <trkpt lat="45.29579" lon="6.79256">
        <ele>2249.9766</ele>
        <time>2015-08-26T09:26:28Z</time>
      </trkpt>
      <trkpt lat="45.29577" lon="6.79255">
        <ele>2249.753</ele>
        <time>2015-08-26T09:26:38Z</time>
      </trkpt>
      <trkpt lat="45.29577" lon="6.79255">
        <ele>2249.753</ele>
        <time>2015-08-26T09:26:43Z</time>
      </trkpt>
      <trkpt lat="45.29577" lon="6.79256">
        <ele>2249.753</ele>
        <time>2015-08-26T09:38:03Z</time>
      </trkpt>
      <trkpt lat="45.29572" lon="6.79265">
        <ele>2249.753</ele>
        <time>2015-08-26T09:38:13Z</time>
      </trkpt>
      <trkpt lat="45.2957" lon="6.7927">
        <ele>2249.613</ele>
        <time>2015-08-26T09:38:18Z</time>
      </trkpt>
      <trkpt lat="45.29569" lon="6.79278">
        <ele>2249.613</ele>
        <time>2015-08-26T09:38:28Z</time>
      </trkpt>
      <trkpt lat="45.29568" lon="6.79282">
        <ele>2249.613</ele>
        <time>2015-08-26T09:38:33Z</time>
      </trkpt>
      <trkpt lat="45.29566" lon="6.79291">
        <ele>2249.0183</ele>
        <time>2015-08-26T09:38:43Z</time>
      </trkpt>
      <trkpt lat="45.29565" lon="6.79295">
        <ele>2249.0183</ele>
        <time>2015-08-26T09:38:48Z</time>
      </trkpt>
      <trkpt lat="45.29562" lon="6.79299">
        <ele>2249.0183</ele>
        <time>2015-08-26T09:39:03Z</time>
      </trkpt>
      <trkpt lat="45.29557" lon="6.79301">
        <ele>2248.3647</ele>
        <time>2015-08-26T09:39:08Z</time>
      </trkpt>
      <trkpt lat="45.29553" lon="6.79307">
        <ele>2248.3647</ele>
        <time>2015-08-26T09:39:18Z</time>
      </trkpt>
      <trkpt lat="45.29556" lon="6.7931">
        <ele>2248.3647</ele>
        <time>2015-08-26T09:39:23Z</time>
      </trkpt>
      <trkpt lat="45.29559" lon="6.79316">
        <ele>2247.241</ele>
        <time>2015-08-26T09:39:33Z</time>
      </trkpt>
      <trkpt lat="45.29554" lon="6.79316">
        <ele>2247.241</ele>
        <time>2015-08-26T09:39:38Z</time>
      </trkpt>
      <trkpt lat="45.29547" lon="6.79317">
        <ele>2245.916</ele>
        <time>2015-08-26T09:39:48Z</time>
      </trkpt>
      <trkpt lat="45.29548" lon="6.79321">
        <ele>2245.916</ele>
        <time>2015-08-26T09:39:53Z</time>
      </trkpt>
      <trkpt lat="45.29554" lon="6.79327">
        <ele>2244.3647</ele>
        <time>2015-08-26T09:40:03Z</time>
      </trkpt>
      <trkpt lat="45.29556" lon="6.79329">
        <ele>2244.3647</ele>
        <time>2015-08-26T09:40:08Z</time>
      </trkpt>
      <trkpt lat="45.2956" lon="6.79333">
        <ele>2244.3647</ele>
        <time>2015-08-26T09:40:18Z</time>
      </trkpt>
      <trkpt lat="45.29562" lon="6.79335">
        <ele>2242.5654</ele>
        <time>2015-08-26T09:40:23Z</time>
      </trkpt>
      <trkpt lat="45.29564" lon="6.7934">
        <ele>2242.5654</ele>
        <time>2015-08-26T09:40:33Z</time>
      </trkpt>
      <trkpt lat="45.29562" lon="6.79344">
        <ele>2242.5654</ele>
        <time>2015-08-26T09:40:38Z</time>
      </trkpt>
      <trkpt lat="45.29561" lon="6.79347">
        <ele>2240.5986</ele>
        <time>2015-08-26T09:40:48Z</time>
      </trkpt>
      <trkpt lat="45.29558" lon="6.79347">
        <ele>2240.5986</ele>
        <time>2015-08-26T09:40:53Z</time>
      </trkpt>
      <trkpt lat="45.29549" lon="6.79347">
        <ele>2238.295</ele>
        <time>2015-08-26T09:41:08Z</time>
      </trkpt>
      <trkpt lat="45.29547" lon="6.79346">
        <ele>2238.295</ele>
        <time>2015-08-26T09:41:13Z</time>
      </trkpt>
      <trkpt lat="45.29542" lon="6.79347">
        <ele>2238.295</ele>
        <time>2015-08-26T09:41:23Z</time>
      </trkpt>
      <trkpt lat="45.29541" lon="6.7935">
        <ele>2238.295</ele>
        <time>2015-08-26T09:41:28Z</time>
      </trkpt>
      <trkpt lat="45.29535" lon="6.7935">
        <ele>2235.3967</ele>
        <time>2015-08-26T09:41:38Z</time>
      </trkpt>
      <trkpt lat="45.29533" lon="6.7935">
        <ele>2235.3967</ele>
        <time>2015-08-26T09:41:43Z</time>
      </trkpt>
      <trkpt lat="45.2953" lon="6.79353">
        <ele>2235.3967</ele>
        <time>2015-08-26T09:41:53Z</time>
      </trkpt>
      <trkpt lat="45.29526" lon="6.79352">
        <ele>2232.229</ele>
        <time>2015-08-26T09:41:58Z</time>
      </trkpt>
      <trkpt lat="45.29522" lon="6.79354">
        <ele>2232.229</ele>
        <time>2015-08-26T09:42:08Z</time>
      </trkpt>
      <trkpt lat="45.29519" lon="6.79356">
        <ele>2232.229</ele>
        <time>2015-08-26T09:42:13Z</time>
      </trkpt>
      <trkpt lat="45.29514" lon="6.79358">
        <ele>2228.676</ele>
        <time>2015-08-26T09:42:23Z</time>
      </trkpt>
      <trkpt lat="45.29512" lon="6.79358">
        <ele>2228.676</ele>
        <time>2015-08-26T09:42:28Z</time>
      </trkpt>
      <trkpt lat="45.29504" lon="6.79365">
        <ele>2225.0923</ele>
        <time>2015-08-26T09:42:38Z</time>
      </trkpt>
      <trkpt lat="45.29503" lon="6.79365">
        <ele>2225.0923</ele>
        <time>2015-08-26T09:42:43Z</time>
      </trkpt>
      <trkpt lat="45.29498" lon="6.79368">
        <ele>2225.0923</ele>
        <time>2015-08-26T09:42:53Z</time>
      </trkpt>
      <trkpt lat="45.29496" lon="6.7937">
        <ele>2225.0923</ele>
        <time>2015-08-26T09:42:58Z</time>
      </trkpt>
      <trkpt lat="45.2949" lon="6.7937">
        <ele>2221.186</ele>
        <time>2015-08-26T09:43:08Z</time>
      </trkpt>
      <trkpt lat="45.29488" lon="6.79373">
        <ele>2221.186</ele>
        <time>2015-08-26T09:43:13Z</time>
      </trkpt>
      <trkpt lat="45.29482" lon="6.79374">
        <ele>2221.186</ele>
        <time>2015-08-26T09:43:23Z</time>
      </trkpt>
      <trkpt lat="45.29476" lon="6.79376">
        <ele>2217.2217</ele>
        <time>2015-08-26T09:43:28Z</time>
      </trkpt>
      <trkpt lat="45.29467" lon="6.79379">
        <ele>2213.0977</ele>
        <time>2015-08-26T09:43:43Z</time>
      </trkpt>
      <trkpt lat="45.29464" lon="6.79378">
        <ele>2213.0977</ele>
        <time>2015-08-26T09:43:48Z</time>
      </trkpt>
      <trkpt lat="45.29461" lon="6.79376">
        <ele>2213.0977</ele>
        <time>2015-08-26T09:43:58Z</time>
      </trkpt>
      <trkpt lat="45.29458" lon="6.79376">
        <ele>2213.0977</ele>
        <time>2015-08-26T09:44:03Z</time>
      </trkpt>
      <trkpt lat="45.29447" lon="6.79374">
        <ele>2208.951</ele>
        <time>2015-08-26T09:44:13Z</time>
      </trkpt>
      <trkpt lat="45.29445" lon="6.79373">
        <ele>2208.951</ele>
        <time>2015-08-26T09:44:18Z</time>
      </trkpt>
      <trkpt lat="45.29436" lon="6.79372">
        <ele>2204.865</ele>
        <time>2015-08-26T09:44:28Z</time>
      </trkpt>
      <trkpt lat="45.29436" lon="6.79373">
        <ele>2204.865</ele>
        <time>2015-08-26T09:44:33Z</time>
      </trkpt>
      <trkpt lat="45.29431" lon="6.79374">
        <ele>2204.865</ele>
        <time>2015-08-26T09:44:43Z</time>
      </trkpt>
      <trkpt lat="45.29428" lon="6.79374">
        <ele>2204.865</ele>
        <time>2015-08-26T09:44:48Z</time>
      </trkpt>
      <trkpt lat="45.29424" lon="6.7937">
        <ele>2200.4556</ele>
        <time>2015-08-26T09:44:58Z</time>
      </trkpt>
      <trkpt lat="45.29423" lon="6.79371">
        <ele>2200.4556</ele>
        <time>2015-08-26T09:45:03Z</time>
      </trkpt>
      <trkpt lat="45.29424" lon="6.79371">
        <ele>2200.4556</ele>
        <time>2015-08-26T09:45:18Z</time>
      </trkpt>
      <trkpt lat="45.29423" lon="6.7937">
        <ele>2200.4556</ele>
        <time>2015-08-26T09:45:23Z</time>
      </trkpt>
      <trkpt lat="45.29423" lon="6.79363">
        <ele>2200.4556</ele>
        <time>2015-08-26T09:45:33Z</time>
      </trkpt>
      <trkpt lat="45.29423" lon="6.79358">
        <ele>2195.9148</ele>
        <time>2015-08-26T09:45:38Z</time>
      </trkpt>
      <trkpt lat="45.29416" lon="6.79346">
        <ele>2191.7524</ele>
        <time>2015-08-26T09:45:48Z</time>
      </trkpt>
      <trkpt lat="45.29417" lon="6.79339">
        <ele>2191.7524</ele>
        <time>2015-08-26T09:45:53Z</time>
      </trkpt>
      <trkpt lat="45.29417" lon="6.79324">
        <ele>2187.8054</ele>
        <time>2015-08-26T09:46:03Z</time>
      </trkpt>
      <trkpt lat="45.29417" lon="6.7932">
        <ele>2187.8054</ele>
        <time>2015-08-26T09:46:08Z</time>
      </trkpt>
      <trkpt lat="45.29418" lon="6.79315">
        <ele>2187.8054</ele>
        <time>2015-08-26T09:46:18Z</time>
      </trkpt>
      <trkpt lat="45.29418" lon="6.79309">
        <ele>2184.0798</ele>
        <time>2015-08-26T09:46:23Z</time>
      </trkpt>
      <trkpt lat="45.29417" lon="6.79298">
        <ele>2184.0798</ele>
        <time>2015-08-26T09:46:33Z</time>
      </trkpt>
      <trkpt lat="45.29419" lon="6.7929">
        <ele>2180.7683</ele>
        <time>2015-08-26T09:46:38Z</time>
      </trkpt>
      <trkpt lat="45.29415" lon="6.79277">
        <ele>2177.846</ele>
        <time>2015-08-26T09:46:48Z</time>
      </trkpt>
      <trkpt lat="45.29413" lon="6.79272">
        <ele>2177.846</ele>
        <time>2015-08-26T09:46:53Z</time>
      </trkpt>
      <trkpt lat="45.29408" lon="6.79265">
        <ele>2175.2017</ele>
        <time>2015-08-26T09:47:03Z</time>
      </trkpt>
      <trkpt lat="45.29405" lon="6.7926">
        <ele>2175.2017</ele>
        <time>2015-08-26T09:47:08Z</time>
      </trkpt>
      <trkpt lat="45.29398" lon="6.79256">
        <ele>2173.0344</ele>
        <time>2015-08-26T09:47:18Z</time>
      </trkpt>
      <trkpt lat="45.29393" lon="6.79249">
        <ele>2173.0344</ele>
        <time>2015-08-26T09:47:23Z</time>
      </trkpt>
      <trkpt lat="45.29387" lon="6.79241">
        <ele>2171.3103</ele>
        <time>2015-08-26T09:47:38Z</time>
      </trkpt>
      <trkpt lat="45.29383" lon="6.79238">
        <ele>2171.3103</ele>
        <time>2015-08-26T09:47:43Z</time>
      </trkpt>
      <trkpt lat="45.29383" lon="6.79233">
        <ele>2171.3103</ele>
        <time>2015-08-26T09:47:53Z</time>
      </trkpt>
      <trkpt lat="45.29383" lon="6.79234">
        <ele>2171.3103</ele>
        <time>2015-08-26T09:47:58Z</time>
      </trkpt>
      <trkpt lat="45.29378" lon="6.79228">
        <ele>2170.4006</ele>
        <time>2015-08-26T09:48:08Z</time>
      </trkpt>
      <trkpt lat="45.29377" lon="6.79226">
        <ele>2170.4006</ele>
        <time>2015-08-26T09:48:13Z</time>
      </trkpt>
      <trkpt lat="45.2938" lon="6.79222">
        <ele>2170.4006</ele>
        <time>2015-08-26T09:48:23Z</time>
      </trkpt>
      <trkpt lat="45.29382" lon="6.7922">
        <ele>2170.4006</ele>
        <time>2015-08-26T09:48:28Z</time>
      </trkpt>
      <trkpt lat="45.29382" lon="6.7921">
        <ele>2169.9543</ele>
        <time>2015-08-26T09:48:38Z</time>
      </trkpt>
      <trkpt lat="45.29379" lon="6.79209">
        <ele>2169.9543</ele>
        <time>2015-08-26T09:48:43Z</time>
      </trkpt>
      <trkpt lat="45.29375" lon="6.79206">
        <ele>2169.9543</ele>
        <time>2015-08-26T09:48:53Z</time>
      </trkpt>
      <trkpt lat="45.29374" lon="6.79202">
        <ele>2169.905</ele>
        <time>2015-08-26T09:48:58Z</time>
      </trkpt>
      <trkpt lat="45.2937" lon="6.79195">
        <ele>2169.905</ele>
        <time>2015-08-26T09:49:13Z</time>
      </trkpt>
      <trkpt lat="45.29368" lon="6.79195">
        <ele>2169.905</ele>
        <time>2015-08-26T09:49:18Z</time>
      </trkpt>
      <trkpt lat="45.29367" lon="6.79191">
        <ele>2170.0884</ele>
        <time>2015-08-26T09:49:28Z</time>
      </trkpt>
      <trkpt lat="45.29367" lon="6.79187">
        <ele>2170.0884</ele>
        <time>2015-08-26T09:49:33Z</time>
      </trkpt>
      <trkpt lat="45.29369" lon="6.79179">
        <ele>2170.0884</ele>
        <time>2015-08-26T09:49:43Z</time>
      </trkpt>
      <trkpt lat="45.29367" lon="6.79175">
        <ele>2170.1494</ele>
        <time>2015-08-26T09:49:48Z</time>
      </trkpt>
      <trkpt lat="45.29359" lon="6.79174">
        <ele>2170.1494</ele>
        <time>2015-08-26T09:49:58Z</time>
      </trkpt>
      <trkpt lat="45.29356" lon="6.79174">
        <ele>2170.6248</ele>
        <time>2015-08-26T09:50:03Z</time>
      </trkpt>
      <trkpt lat="45.29348" lon="6.79171">
        <ele>2170.6248</ele>
        <time>2015-08-26T09:50:13Z</time>
      </trkpt>
      <trkpt lat="45.29347" lon="6.79169">
        <ele>2171.232</ele>
        <time>2015-08-26T09:50:18Z</time>
      </trkpt>
      <trkpt lat="45.2934" lon="6.79162">
        <ele>2171.232</ele>
        <time>2015-08-26T09:50:28Z</time>
      </trkpt>
      <trkpt lat="45.29338" lon="6.79159">
        <ele>2171.7517</ele>
        <time>2015-08-26T09:50:33Z</time>
      </trkpt>
      <trkpt lat="45.29333" lon="6.79147">
        <ele>2172.0244</ele>
        <time>2015-08-26T09:50:48Z</time>
      </trkpt>
      <trkpt lat="45.2933" lon="6.79143">
        <ele>2172.0244</ele>
        <time>2015-08-26T09:50:53Z</time>
      </trkpt>
      <trkpt lat="45.29321" lon="6.79138">
        <ele>2172.3215</ele>
        <time>2015-08-26T09:51:03Z</time>
      </trkpt>
      <trkpt lat="45.29317" lon="6.79137">
        <ele>2172.3215</ele>
        <time>2015-08-26T09:51:08Z</time>
      </trkpt>
      <trkpt lat="45.29307" lon="6.79135">
        <ele>2172.85</ele>
        <time>2015-08-26T09:51:18Z</time>
      </trkpt>
      <trkpt lat="45.29304" lon="6.79136">
        <ele>2172.85</ele>
        <time>2015-08-26T09:51:23Z</time>
      </trkpt>
      <trkpt lat="45.29301" lon="6.79133">
        <ele>2172.85</ele>
        <time>2015-08-26T09:51:33Z</time>
      </trkpt>
      <trkpt lat="45.29299" lon="6.79127">
        <ele>2172.7935</ele>
        <time>2015-08-26T09:51:38Z</time>
      </trkpt>
      <trkpt lat="45.29292" lon="6.79114">
        <ele>2172.5925</ele>
        <time>2015-08-26T09:51:48Z</time>
      </trkpt>
      <trkpt lat="45.29288" lon="6.79111">
        <ele>2172.5925</ele>
        <time>2015-08-26T09:51:53Z</time>
      </trkpt>
      <trkpt lat="45.29283" lon="6.79103">
        <ele>2172.3389</ele>
        <time>2015-08-26T09:52:03Z</time>
      </trkpt>
      <trkpt lat="45.29279" lon="6.79099">
        <ele>2172.3389</ele>
        <time>2015-08-26T09:52:08Z</time>
      </trkpt>
      <trkpt lat="45.29277" lon="6.79093">
        <ele>2172.3198</ele>
        <time>2015-08-26T09:52:18Z</time>
      </trkpt>
      <trkpt lat="45.29274" lon="6.79093">
        <ele>2172.3198</ele>
        <time>2015-08-26T09:52:23Z</time>
      </trkpt>
      <trkpt lat="45.2927" lon="6.79096">
        <ele>2172.3198</ele>
        <time>2015-08-26T09:52:33Z</time>
      </trkpt>
      <trkpt lat="45.29268" lon="6.79097">
        <ele>2172.2676</ele>
        <time>2015-08-26T09:52:38Z</time>
      </trkpt>
      <trkpt lat="45.29257" lon="6.79099">
        <ele>2172.2659</ele>
        <time>2015-08-26T09:52:53Z</time>
      </trkpt>
      <trkpt lat="45.29254" lon="6.791">
        <ele>2172.2659</ele>
        <time>2015-08-26T09:52:58Z</time>
      </trkpt>
      <trkpt lat="45.29251" lon="6.79101">
        <ele>2172.2659</ele>
        <time>2015-08-26T09:53:08Z</time>
      </trkpt>
      <trkpt lat="45.29245" lon="6.791">
        <ele>2172.3628</ele>
        <time>2015-08-26T09:53:13Z</time>
      </trkpt>
      <trkpt lat="45.29239" lon="6.79092">
        <ele>2172.3628</ele>
        <time>2015-08-26T09:53:23Z</time>
      </trkpt>
      <trkpt lat="45.29239" lon="6.79087">
        <ele>2172.5894</ele>
        <time>2015-08-26T09:53:28Z</time>
      </trkpt>
      <trkpt lat="45.29233" lon="6.79078">
        <ele>2172.5894</ele>
        <time>2015-08-26T09:53:38Z</time>
      </trkpt>
      <trkpt lat="45.29233" lon="6.79073">
        <ele>2172.7856</ele>
        <time>2015-08-26T09:53:43Z</time>
      </trkpt>
      <trkpt lat="45.29227" lon="6.7906">
        <ele>2172.9197</ele>
        <time>2015-08-26T09:53:53Z</time>
      </trkpt>
      <trkpt lat="45.29224" lon="6.79058">
        <ele>2172.9197</ele>
        <time>2015-08-26T09:53:58Z</time>
      </trkpt>
      <trkpt lat="45.29222" lon="6.79048">
        <ele>2172.6306</ele>
        <time>2015-08-26T09:54:08Z</time>
      </trkpt>
      <trkpt lat="45.29222" lon="6.79044">
        <ele>2172.6306</ele>
        <time>2015-08-26T09:54:13Z</time>
      </trkpt>
      <trkpt lat="45.29213" lon="6.79037">
        <ele>2171.9165</ele>
        <time>2015-08-26T09:54:23Z</time>
      </trkpt>
      <trkpt lat="45.29208" lon="6.79033">
        <ele>2171.9165</ele>
        <time>2015-08-26T09:54:28Z</time>
      </trkpt>
      <trkpt lat="45.29205" lon="6.79028">
        <ele>2171.2961</ele>
        <time>2015-08-26T09:54:38Z</time>
      </trkpt>
      <trkpt lat="45.29203" lon="6.79024">
        <ele>2171.2961</ele>
        <time>2015-08-26T09:54:43Z</time>
      </trkpt>
      <trkpt lat="45.29197" lon="6.79009">
        <ele>2170.9326</ele>
        <time>2015-08-26T09:54:58Z</time>
      </trkpt>
      <trkpt lat="45.29196" lon="6.79005">
        <ele>2170.9326</ele>
        <time>2015-08-26T09:55:03Z</time>
      </trkpt>
      <trkpt lat="45.29196" lon="6.78993">
        <ele>2170.8616</ele>
        <time>2015-08-26T09:55:13Z</time>
      </trkpt>
      <trkpt lat="45.29195" lon="6.78989">
        <ele>2170.8616</ele>
        <time>2015-08-26T09:55:18Z</time>
      </trkpt>
      <trkpt lat="45.29187" lon="6.78985">
        <ele>2171.0718</ele>
        <time>2015-08-26T09:55:28Z</time>
      </trkpt>
      <trkpt lat="45.29183" lon="6.78986">
        <ele>2171.0718</ele>
        <time>2015-08-26T09:55:33Z</time>
      </trkpt>
      <trkpt lat="45.29175" lon="6.78981">
        <ele>2171.5383</ele>
        <time>2015-08-26T09:55:43Z</time>
      </trkpt>
      <trkpt lat="45.29172" lon="6.78974">
        <ele>2171.5383</ele>
        <time>2015-08-26T09:55:48Z</time>
      </trkpt>
      <trkpt lat="45.29166" lon="6.78965">
        <ele>2172.2078</ele>
        <time>2015-08-26T09:55:58Z</time>
      </trkpt>
      <trkpt lat="45.29163" lon="6.7896">
        <ele>2172.2078</ele>
        <time>2015-08-26T09:56:03Z</time>
      </trkpt>
      <trkpt lat="45.29155" lon="6.7895">
        <ele>2172.8005</ele>
        <time>2015-08-26T09:56:13Z</time>
      </trkpt>
      <trkpt lat="45.29153" lon="6.78947">
        <ele>2172.8005</ele>
        <time>2015-08-26T09:56:18Z</time>
      </trkpt>
      <trkpt lat="45.29154" lon="6.78938">
        <ele>2173.4321</ele>
        <time>2015-08-26T09:56:28Z</time>
      </trkpt>
      <trkpt lat="45.29151" lon="6.78933">
        <ele>2173.4321</ele>
        <time>2015-08-26T09:56:33Z</time>
      </trkpt>
      <trkpt lat="45.29149" lon="6.78923">
        <ele>2173.9648</ele>
        <time>2015-08-26T09:56:43Z</time>
      </trkpt>
      <trkpt lat="45.29147" lon="6.78923">
        <ele>2173.9648</ele>
        <time>2015-08-26T09:56:48Z</time>
      </trkpt>
      <trkpt lat="45.29143" lon="6.7892">
        <ele>2173.9648</ele>
        <time>2015-08-26T09:56:58Z</time>
      </trkpt>
      <trkpt lat="45.29142" lon="6.78917">
        <ele>2173.9648</ele>
        <time>2015-08-26T09:57:03Z</time>
      </trkpt>
      <trkpt lat="45.29144" lon="6.78916">
        <ele>2174.7903</ele>
        <time>2015-08-26T09:57:18Z</time>
      </trkpt>
      <trkpt lat="45.29145" lon="6.78917">
        <ele>2174.7903</ele>
        <time>2015-08-26T09:57:23Z</time>
      </trkpt>
      <trkpt lat="45.2914" lon="6.78915">
        <ele>2174.7903</ele>
        <time>2015-08-26T09:57:33Z</time>
      </trkpt>
      <trkpt lat="45.29138" lon="6.78916">
        <ele>2174.7903</ele>
        <time>2015-08-26T09:57:38Z</time>
      </trkpt>
      <trkpt lat="45.29139" lon="6.78911">
        <ele>2175.6077</ele>
        <time>2015-08-26T09:57:48Z</time>
      </trkpt>
      <trkpt lat="45.29142" lon="6.78909">
        <ele>2175.6077</ele>
        <time>2015-08-26T09:57:53Z</time>
      </trkpt>
      <trkpt lat="45.29144" lon="6.7891">
        <ele>2175.6077</ele>
        <time>2015-08-26T09:58:03Z</time>
      </trkpt>
      <trkpt lat="45.29144" lon="6.78908">
        <ele>2175.6077</ele>
        <time>2015-08-26T09:58:08Z</time>
      </trkpt>
      <trkpt lat="45.29145" lon="6.78903">
        <ele>2176.7437</ele>
        <time>2015-08-26T09:58:18Z</time>
      </trkpt>
      <trkpt lat="45.29141" lon="6.78899">
        <ele>2176.7437</ele>
        <time>2015-08-26T09:58:23Z</time>
      </trkpt>
      <trkpt lat="45.29138" lon="6.78894">
        <ele>2177.9382</ele>
        <time>2015-08-26T09:58:33Z</time>
      </trkpt>
      <trkpt lat="45.29136" lon="6.78894">
        <ele>2177.9382</ele>
        <time>2015-08-26T09:58:38Z</time>
      </trkpt>
      <trkpt lat="45.29131" lon="6.78891">
        <ele>2177.9382</ele>
        <time>2015-08-26T09:58:48Z</time>
      </trkpt>
      <trkpt lat="45.29129" lon="6.7889">
        <ele>2179.3977</ele>
        <time>2015-08-26T09:58:53Z</time>
      </trkpt>
      <trkpt lat="45.29123" lon="6.78883">
        <ele>2179.3977</ele>
        <time>2015-08-26T09:59:08Z</time>
      </trkpt>
      <trkpt lat="45.29121" lon="6.78882">
        <ele>2180.6921</ele>
        <time>2015-08-26T09:59:13Z</time>
      </trkpt>
      <trkpt lat="45.29118" lon="6.78875">
        <ele>2180.6921</ele>
        <time>2015-08-26T09:59:23Z</time>
      </trkpt>
      <trkpt lat="45.29117" lon="6.78872">
        <ele>2180.6921</ele>
        <time>2015-08-26T09:59:28Z</time>
      </trkpt>
      <trkpt lat="45.29114" lon="6.78866">
        <ele>2182.2605</ele>
        <time>2015-08-26T09:59:38Z</time>
      </trkpt>
      <trkpt lat="45.29111" lon="6.78866">
        <ele>2182.2605</ele>
        <time>2015-08-26T09:59:43Z</time>
      </trkpt>
      <trkpt lat="45.29106" lon="6.78864">
        <ele>2182.2605</ele>
        <time>2015-08-26T09:59:53Z</time>
      </trkpt>
      <trkpt lat="45.29103" lon="6.78864">
        <ele>2184.0613</ele>
        <time>2015-08-26T09:59:58Z</time>
      </trkpt>
      <trkpt lat="45.29101" lon="6.78865">
        <ele>2184.0613</ele>
        <time>2015-08-26T10:00:08Z</time>
      </trkpt>
      <trkpt lat="45.29099" lon="6.78866">
        <ele>2184.0613</ele>
        <time>2015-08-26T10:00:13Z</time>
      </trkpt>
      <trkpt lat="45.29094" lon="6.78863">
        <ele>2186.0999</ele>
        <time>2015-08-26T10:00:23Z</time>
      </trkpt>
      <trkpt lat="45.29091" lon="6.78862">
        <ele>2186.0999</ele>
        <time>2015-08-26T10:00:28Z</time>
      </trkpt>
      <trkpt lat="45.29086" lon="6.7886">
        <ele>2186.0999</ele>
        <time>2015-08-26T10:00:38Z</time>
      </trkpt>
      <trkpt lat="45.29084" lon="6.7886">
        <ele>2188.1926</ele>
        <time>2015-08-26T10:00:43Z</time>
      </trkpt>
      <trkpt lat="45.29078" lon="6.78855">
        <ele>2188.1926</ele>
        <time>2015-08-26T10:00:53Z</time>
      </trkpt>
      <trkpt lat="45.29075" lon="6.78853">
        <ele>2190.3713</ele>
        <time>2015-08-26T10:00:58Z</time>
      </trkpt>
      <trkpt lat="45.29071" lon="6.78844">
        <ele>2190.3713</ele>
        <time>2015-08-26T10:01:13Z</time>
      </trkpt>
      <trkpt lat="45.29069" lon="6.78842">
        <ele>2192.5793</ele>
        <time>2015-08-26T10:01:18Z</time>
      </trkpt>
      <trkpt lat="45.29069" lon="6.78837">
        <ele>2192.5793</ele>
        <time>2015-08-26T10:01:28Z</time>
      </trkpt>
      <trkpt lat="45.29071" lon="6.78832">
        <ele>2192.5793</ele>
        <time>2015-08-26T10:01:33Z</time>
      </trkpt>
      <trkpt lat="45.29073" lon="6.78826">
        <ele>2195.009</ele>
        <time>2015-08-26T10:01:43Z</time>
      </trkpt>
      <trkpt lat="45.29072" lon="6.7883">
        <ele>2195.009</ele>
        <time>2015-08-26T10:01:48Z</time>
      </trkpt>
      <trkpt lat="45.29071" lon="6.78828">
        <ele>2195.009</ele>
        <time>2015-08-26T10:01:58Z</time>
      </trkpt>
      <trkpt lat="45.29074" lon="6.78826">
        <ele>2195.009</ele>
        <time>2015-08-26T10:02:03Z</time>
      </trkpt>
      <trkpt lat="45.29075" lon="6.78832">
        <ele>2197.3628</ele>
        <time>2015-08-26T10:02:13Z</time>
      </trkpt>
      <trkpt lat="45.29074" lon="6.78831">
        <ele>2197.3628</ele>
        <time>2015-08-26T10:02:18Z</time>
      </trkpt>
      <trkpt lat="45.29074" lon="6.78831">
        <ele>2197.3628</ele>
        <time>2015-08-26T10:02:28Z</time>
      </trkpt>
      <trkpt lat="45.29073" lon="6.78828">
        <ele>2197.3628</ele>
        <time>2015-08-26T10:02:58Z</time>
      </trkpt>
      <trkpt lat="45.29072" lon="6.78827">
        <ele>2197.3628</ele>
        <time>2015-08-26T10:03:03Z</time>
      </trkpt>
      <trkpt lat="45.2906" lon="6.78821">
        <ele>2199.682</ele>
        <time>2015-08-26T10:03:18Z</time>
      </trkpt>
      <trkpt lat="45.29059" lon="6.78821">
        <ele>2199.682</ele>
        <time>2015-08-26T10:03:23Z</time>
      </trkpt>
      <trkpt lat="45.29053" lon="6.78822">
        <ele>2199.682</ele>
        <time>2015-08-26T10:03:33Z</time>
      </trkpt>
      <trkpt lat="45.29051" lon="6.78822">
        <ele>2199.682</ele>
        <time>2015-08-26T10:03:38Z</time>
      </trkpt>
      <trkpt lat="45.29051" lon="6.78822">
        <ele>2199.682</ele>
        <time>2015-08-26T10:03:48Z</time>
      </trkpt>
      <trkpt lat="45.29045" lon="6.78828">
        <ele>2202.3804</ele>
        <time>2015-08-26T10:04:03Z</time>
      </trkpt>
      <trkpt lat="45.29042" lon="6.78829">
        <ele>2202.3804</ele>
        <time>2015-08-26T10:04:08Z</time>
      </trkpt>
      <trkpt lat="45.29039" lon="6.78831">
        <ele>2202.3804</ele>
        <time>2015-08-26T10:04:18Z</time>
      </trkpt>
      <trkpt lat="45.29037" lon="6.78831">
        <ele>2202.3804</ele>
        <time>2015-08-26T10:04:23Z</time>
      </trkpt>
      <trkpt lat="45.29035" lon="6.78835">
        <ele>2205.2205</ele>
        <time>2015-08-26T10:04:33Z</time>
      </trkpt>
      <trkpt lat="45.29033" lon="6.78835">
        <ele>2205.2205</ele>
        <time>2015-08-26T10:04:38Z</time>
      </trkpt>
      <trkpt lat="45.29032" lon="6.78837">
        <ele>2205.2205</ele>
        <time>2015-08-26T10:04:48Z</time>
      </trkpt>
      <trkpt lat="45.2903" lon="6.78836">
        <ele>2205.2205</ele>
        <time>2015-08-26T10:04:53Z</time>
      </trkpt>
      <trkpt lat="45.29027" lon="6.78834">
        <ele>2208.3286</ele>
        <time>2015-08-26T10:05:03Z</time>
      </trkpt>
      <trkpt lat="45.29026" lon="6.78831">
        <ele>2208.3286</ele>
        <time>2015-08-26T10:05:08Z</time>
      </trkpt>
      <trkpt lat="45.29026" lon="6.78825">
        <ele>2208.3286</ele>
        <time>2015-08-26T10:05:18Z</time>
      </trkpt>
      <trkpt lat="45.29024" lon="6.78826">
        <ele>2208.3286</ele>
        <time>2015-08-26T10:05:23Z</time>
      </trkpt>
      <trkpt lat="45.29021" lon="6.78833">
        <ele>2211.8352</ele>
        <time>2015-08-26T10:05:33Z</time>
      </trkpt>
      <trkpt lat="45.29021" lon="6.78836">
        <ele>2211.8352</ele>
        <time>2015-08-26T10:05:38Z</time>
      </trkpt>
      <trkpt lat="45.29017" lon="6.78838">
        <ele>2211.8352</ele>
        <time>2015-08-26T10:05:48Z</time>
      </trkpt>
      <trkpt lat="45.29015" lon="6.78838">
        <ele>2211.8352</ele>
        <time>2015-08-26T10:05:53Z</time>
      </trkpt>
      <trkpt lat="45.2901" lon="6.78841">
        <ele>2215.5718</ele>
        <time>2015-08-26T10:06:08Z</time>
      </trkpt>
      <trkpt lat="45.29008" lon="6.78842">
        <ele>2215.5718</ele>
        <time>2015-08-26T10:06:13Z</time>
      </trkpt>
      <trkpt lat="45.29002" lon="6.78845">
        <ele>2215.5718</ele>
        <time>2015-08-26T10:06:23Z</time>
      </trkpt>
      <trkpt lat="45.29" lon="6.78847">
        <ele>2219.2527</ele>
        <time>2015-08-26T10:06:28Z</time>
      </trkpt>
      <trkpt lat="45.28999" lon="6.78842">
        <ele>2219.2527</ele>
        <time>2015-08-26T10:06:38Z</time>
      </trkpt>
      <trkpt lat="45.29" lon="6.78842">
        <ele>2219.2527</ele>
        <time>2015-08-26T10:06:43Z</time>
      </trkpt>
      <trkpt lat="45.29003" lon="6.78839">
        <ele>2219.2527</ele>
        <time>2015-08-26T10:06:53Z</time>
      </trkpt>
      <trkpt lat="45.29004" lon="6.78834">
        <ele>2223.1326</ele>
        <time>2015-08-26T10:06:58Z</time>
      </trkpt>
      <trkpt lat="45.29006" lon="6.78829">
        <ele>2223.1326</ele>
        <time>2015-08-26T10:07:08Z</time>
      </trkpt>
      <trkpt lat="45.29009" lon="6.78825">
        <ele>2223.1326</ele>
        <time>2015-08-26T10:07:13Z</time>
      </trkpt>
      <trkpt lat="45.29012" lon="6.78819">
        <ele>2226.596</ele>
        <time>2015-08-26T10:07:23Z</time>
      </trkpt>
      <trkpt lat="45.29008" lon="6.78817">
        <ele>2226.596</ele>
        <time>2015-08-26T10:07:28Z</time>
      </trkpt>
      <trkpt lat="45.29007" lon="6.78812">
        <ele>2226.596</ele>
        <time>2015-08-26T10:07:38Z</time>
      </trkpt>
      <trkpt lat="45.29007" lon="6.78813">
        <ele>2226.596</ele>
        <time>2015-08-26T10:07:43Z</time>
      </trkpt>
      <trkpt lat="45.2901" lon="6.78815">
        <ele>2229.9973</ele>
        <time>2015-08-26T10:07:53Z</time>
      </trkpt>
      <trkpt lat="45.29009" lon="6.78815">
        <ele>2229.9973</ele>
        <time>2015-08-26T10:07:58Z</time>
      </trkpt>
      <trkpt lat="45.29004" lon="6.78817">
        <ele>2229.9973</ele>
        <time>2015-08-26T10:08:08Z</time>
      </trkpt>
      <trkpt lat="45.29002" lon="6.78817">
        <ele>2229.9973</ele>
        <time>2015-08-26T10:08:13Z</time>
      </trkpt>
      <trkpt lat="45.28998" lon="6.7882">
        <ele>2233.7085</ele>
        <time>2015-08-26T10:08:28Z</time>
      </trkpt>
      <trkpt lat="45.28995" lon="6.7882">
        <ele>2233.7085</ele>
        <time>2015-08-26T10:08:33Z</time>
      </trkpt>
      <trkpt lat="45.28991" lon="6.78824">
        <ele>2233.7085</ele>
        <time>2015-08-26T10:08:43Z</time>
      </trkpt>
      <trkpt lat="45.28989" lon="6.78824">
        <ele>2237.439</ele>
        <time>2015-08-26T10:08:48Z</time>
      </trkpt>
      <trkpt lat="45.28985" lon="6.78826">
        <ele>2237.439</ele>
        <time>2015-08-26T10:08:58Z</time>
      </trkpt>
      <trkpt lat="45.28982" lon="6.78827">
        <ele>2237.439</ele>
        <time>2015-08-26T10:09:03Z</time>
      </trkpt>
      <trkpt lat="45.28979" lon="6.7883">
        <ele>2241.0789</ele>
        <time>2015-08-26T10:09:13Z</time>
      </trkpt>
      <trkpt lat="45.28976" lon="6.7883">
        <ele>2241.0789</ele>
        <time>2015-08-26T10:09:18Z</time>
      </trkpt>
      <trkpt lat="45.2897" lon="6.78831">
        <ele>2244.469</ele>
        <time>2015-08-26T10:09:28Z</time>
      </trkpt>
      <trkpt lat="45.28968" lon="6.78829">
        <ele>2244.469</ele>
        <time>2015-08-26T10:09:33Z</time>
      </trkpt>
      <trkpt lat="45.28963" lon="6.78824">
        <ele>2244.469</ele>
        <time>2015-08-26T10:09:43Z</time>
      </trkpt>
      <trkpt lat="45.28961" lon="6.78822">
        <ele>2247.4336</ele>
        <time>2015-08-26T10:09:48Z</time>
      </trkpt>
      <trkpt lat="45.28959" lon="6.78819">
        <ele>2247.4336</ele>
        <time>2015-08-26T10:09:58Z</time>
      </trkpt>
      <trkpt lat="45.2896" lon="6.7882">
        <ele>2247.4336</ele>
        <time>2015-08-26T10:10:03Z</time>
      </trkpt>
      <trkpt lat="45.28963" lon="6.78819">
        <ele>2247.4336</ele>
        <time>2015-08-26T10:10:13Z</time>
      </trkpt>
      <trkpt lat="45.28966" lon="6.78817">
        <ele>2250.461</ele>
        <time>2015-08-26T10:10:18Z</time>
      </trkpt>
      <trkpt lat="45.28968" lon="6.78815">
        <ele>2250.461</ele>
        <time>2015-08-26T10:10:28Z</time>
      </trkpt>
      <trkpt lat="45.28968" lon="6.78815">
        <ele>2250.461</ele>
        <time>2015-08-26T10:10:33Z</time>
      </trkpt>
      <trkpt lat="45.28975" lon="6.7881">
        <ele>2253.3828</ele>
        <time>2015-08-26T10:10:48Z</time>
      </trkpt>
      <trkpt lat="45.28977" lon="6.78809">
        <ele>2253.3828</ele>
        <time>2015-08-26T10:10:53Z</time>
      </trkpt>
      <trkpt lat="45.2898" lon="6.78804">
        <ele>2253.3828</ele>
        <time>2015-08-26T10:11:03Z</time>
      </trkpt>
      <trkpt lat="45.28981" lon="6.788">
        <ele>2256.1738</ele>
        <time>2015-08-26T10:11:08Z</time>
      </trkpt>
      <trkpt lat="45.28977" lon="6.78797">
        <ele>2256.1738</ele>
        <time>2015-08-26T10:11:18Z</time>
      </trkpt>
      <trkpt lat="45.28975" lon="6.78797">
        <ele>2256.1738</ele>
        <time>2015-08-26T10:11:23Z</time>
      </trkpt>
      <trkpt lat="45.28971" lon="6.78795">
        <ele>2259.0854</ele>
        <time>2015-08-26T10:11:33Z</time>
      </trkpt>
      <trkpt lat="45.28969" lon="6.78794">
        <ele>2259.0854</ele>
        <time>2015-08-26T10:11:38Z</time>
      </trkpt>
      <trkpt lat="45.28966" lon="6.78793">
        <ele>2259.0854</ele>
        <time>2015-08-26T10:11:48Z</time>
      </trkpt>
      <trkpt lat="45.28966" lon="6.78791">
        <ele>2259.0854</ele>
        <time>2015-08-26T10:11:53Z</time>
      </trkpt>
      <trkpt lat="45.28971" lon="6.78788">
        <ele>2262.1917</ele>
        <time>2015-08-26T10:12:03Z</time>
      </trkpt>
      <trkpt lat="45.28972" lon="6.78787">
        <ele>2262.1917</ele>
        <time>2015-08-26T10:12:08Z</time>
      </trkpt>
      <trkpt lat="45.28974" lon="6.78786">
        <ele>2262.1917</ele>
        <time>2015-08-26T10:12:18Z</time>
      </trkpt>
      <trkpt lat="45.28976" lon="6.78784">
        <ele>2262.1917</ele>
        <time>2015-08-26T10:12:23Z</time>
      </trkpt>
      <trkpt lat="45.28978" lon="6.7878">
        <ele>2262.1917</ele>
        <time>2015-08-26T10:12:33Z</time>
      </trkpt>
      <trkpt lat="45.28979" lon="6.78779">
        <ele>2265.2144</ele>
        <time>2015-08-26T10:12:38Z</time>
      </trkpt>
      <trkpt lat="45.28981" lon="6.78775">
        <ele>2265.2144</ele>
        <time>2015-08-26T10:12:48Z</time>
      </trkpt>
      <trkpt lat="45.28986" lon="6.78769">
        <ele>2268.0127</ele>
        <time>2015-08-26T10:12:53Z</time>
      </trkpt>
      <trkpt lat="45.28991" lon="6.78764">
        <ele>2268.0127</ele>
        <time>2015-08-26T10:13:03Z</time>
      </trkpt>
      <trkpt lat="45.28993" lon="6.78764">
        <ele>2268.0127</ele>
        <time>2015-08-26T10:13:08Z</time>
      </trkpt>
      <trkpt lat="45.28997" lon="6.78758">
        <ele>2270.8022</ele>
        <time>2015-08-26T10:13:23Z</time>
      </trkpt>
      <trkpt lat="45.28995" lon="6.78757">
        <ele>2270.8022</ele>
        <time>2015-08-26T10:13:28Z</time>
      </trkpt>
      <trkpt lat="45.28991" lon="6.78757">
        <ele>2270.8022</ele>
        <time>2015-08-26T10:13:38Z</time>
      </trkpt>
      <trkpt lat="45.2899" lon="6.78756">
        <ele>2270.8022</ele>
        <time>2015-08-26T10:13:43Z</time>
      </trkpt>
      <trkpt lat="45.28987" lon="6.78756">
        <ele>2273.7542</ele>
        <time>2015-08-26T10:13:53Z</time>
      </trkpt>
      <trkpt lat="45.28985" lon="6.78754">
        <ele>2273.7542</ele>
        <time>2015-08-26T10:13:58Z</time>
      </trkpt>
      <trkpt lat="45.28981" lon="6.78754">
        <ele>2273.7542</ele>
        <time>2015-08-26T10:14:08Z</time>
      </trkpt>
      <trkpt lat="45.2898" lon="6.78754">
        <ele>2273.7542</ele>
        <time>2015-08-26T10:14:13Z</time>
      </trkpt>
      <trkpt lat="45.28975" lon="6.78752">
        <ele>2276.7532</ele>
        <time>2015-08-26T10:14:23Z</time>
      </trkpt>
      <trkpt lat="45.28975" lon="6.7875">
        <ele>2276.7532</ele>
        <time>2015-08-26T10:14:28Z</time>
      </trkpt>
      <trkpt lat="45.2897" lon="6.78747">
        <ele>2276.7532</ele>
        <time>2015-08-26T10:14:38Z</time>
      </trkpt>
      <trkpt lat="45.28969" lon="6.78746">
        <ele>2276.7532</ele>
        <time>2015-08-26T10:14:43Z</time>
      </trkpt>
      <trkpt lat="45.28963" lon="6.78743">
        <ele>2279.5916</ele>
        <time>2015-08-26T10:14:53Z</time>
      </trkpt>
      <trkpt lat="45.2896" lon="6.78743">
        <ele>2279.5916</ele>
        <time>2015-08-26T10:14:58Z</time>
      </trkpt>
      <trkpt lat="45.28954" lon="6.78742">
        <ele>2279.5916</ele>
        <time>2015-08-26T10:15:08Z</time>
      </trkpt>
      <trkpt lat="45.28951" lon="6.78741">
        <ele>2282.3223</ele>
        <time>2015-08-26T10:15:13Z</time>
      </trkpt>
      <trkpt lat="45.28947" lon="6.78742">
        <ele>2282.3223</ele>
        <time>2015-08-26T10:15:23Z</time>
      </trkpt>
      <trkpt lat="45.28946" lon="6.78742">
        <ele>2282.3223</ele>
        <time>2015-08-26T10:15:28Z</time>
      </trkpt>
      <trkpt lat="45.2894" lon="6.78741">
        <ele>2285.2837</ele>
        <time>2015-08-26T10:15:43Z</time>
      </trkpt>
      <trkpt lat="45.28937" lon="6.78741">
        <ele>2285.2837</ele>
        <time>2015-08-26T10:15:48Z</time>
      </trkpt>
      <trkpt lat="45.28935" lon="6.78742">
        <ele>2285.2837</ele>
        <time>2015-08-26T10:15:58Z</time>
      </trkpt>
      <trkpt lat="45.28932" lon="6.78741">
        <ele>2285.2837</ele>
        <time>2015-08-26T10:16:03Z</time>
      </trkpt>
      <trkpt lat="45.2893" lon="6.78744">
        <ele>2288.2983</ele>
        <time>2015-08-26T10:16:13Z</time>
      </trkpt>
      <trkpt lat="45.28929" lon="6.78742">
        <ele>2288.2983</ele>
        <time>2015-08-26T10:16:18Z</time>
      </trkpt>
      <trkpt lat="45.28922" lon="6.78741">
        <ele>2288.2983</ele>
        <time>2015-08-26T10:16:28Z</time>
      </trkpt>
      <trkpt lat="45.2892" lon="6.78742">
        <ele>2291.1301</ele>
        <time>2015-08-26T10:16:33Z</time>
      </trkpt>
      <trkpt lat="45.28919" lon="6.78743">
        <ele>2291.1301</ele>
        <time>2015-08-26T10:16:43Z</time>
      </trkpt>
      <trkpt lat="45.28921" lon="6.78742">
        <ele>2291.1301</ele>
        <time>2015-08-26T10:16:48Z</time>
      </trkpt>
      <trkpt lat="45.28925" lon="6.7874">
        <ele>2291.1301</ele>
        <time>2015-08-26T10:16:58Z</time>
      </trkpt>
      <trkpt lat="45.28926" lon="6.78739">
        <ele>2293.892</ele>
        <time>2015-08-26T10:17:03Z</time>
      </trkpt>
      <trkpt lat="45.28931" lon="6.78733">
        <ele>2293.892</ele>
        <time>2015-08-26T10:17:13Z</time>
      </trkpt>
      <trkpt lat="45.28933" lon="6.78729">
        <ele>2296.3435</ele>
        <time>2015-08-26T10:17:18Z</time>
      </trkpt>
      <trkpt lat="45.28937" lon="6.78722">
        <ele>2296.3435</ele>
        <time>2015-08-26T10:17:28Z</time>
      </trkpt>
      <trkpt lat="45.28938" lon="6.78719">
        <ele>2298.421</ele>
        <time>2015-08-26T10:17:33Z</time>
      </trkpt>
      <trkpt lat="45.28942" lon="6.78712">
        <ele>2298.421</ele>
        <time>2015-08-26T10:17:43Z</time>
      </trkpt>
      <trkpt lat="45.28944" lon="6.78709">
        <ele>2300.3984</ele>
        <time>2015-08-26T10:17:48Z</time>
      </trkpt>
      <trkpt lat="45.28948" lon="6.78706">
        <ele>2300.3984</ele>
        <time>2015-08-26T10:17:58Z</time>
      </trkpt>
      <trkpt lat="45.2895" lon="6.78704">
        <ele>2300.3984</ele>
        <time>2015-08-26T10:18:03Z</time>
      </trkpt>
      <trkpt lat="45.28951" lon="6.78699">
        <ele>2302.458</ele>
        <time>2015-08-26T10:18:18Z</time>
      </trkpt>
      <trkpt lat="45.28948" lon="6.78699">
        <ele>2302.458</ele>
        <time>2015-08-26T10:18:23Z</time>
      </trkpt>
      <trkpt lat="45.28941" lon="6.78699">
        <ele>2304.5234</ele>
        <time>2015-08-26T10:18:33Z</time>
      </trkpt>
      <trkpt lat="45.28939" lon="6.78701">
        <ele>2304.5234</ele>
        <time>2015-08-26T10:18:38Z</time>
      </trkpt>
      <trkpt lat="45.28936" lon="6.78703">
        <ele>2304.5234</ele>
        <time>2015-08-26T10:18:48Z</time>
      </trkpt>
      <trkpt lat="45.28933" lon="6.78702">
        <ele>2304.5234</ele>
        <time>2015-08-26T10:18:53Z</time>
      </trkpt>
      <trkpt lat="45.2893" lon="6.78705">
        <ele>2306.4805</ele>
        <time>2015-08-26T10:19:03Z</time>
      </trkpt>
      <trkpt lat="45.28928" lon="6.78705">
        <ele>2306.4805</ele>
        <time>2015-08-26T10:19:08Z</time>
      </trkpt>
      <trkpt lat="45.28923" lon="6.78708">
        <ele>2306.4805</ele>
        <time>2015-08-26T10:19:18Z</time>
      </trkpt>
      <trkpt lat="45.28921" lon="6.7871">
        <ele>2308.3394</ele>
        <time>2015-08-26T10:19:23Z</time>
      </trkpt>
      <trkpt lat="45.28917" lon="6.7871">
        <ele>2308.3394</ele>
        <time>2015-08-26T10:19:33Z</time>
      </trkpt>
      <trkpt lat="45.28915" lon="6.7871">
        <ele>2308.3394</ele>
        <time>2015-08-26T10:19:38Z</time>
      </trkpt>
      <trkpt lat="45.28914" lon="6.78713">
        <ele>2308.3394</ele>
        <time>2015-08-26T10:19:48Z</time>
      </trkpt>
      <trkpt lat="45.2891" lon="6.78713">
        <ele>2310.2825</ele>
        <time>2015-08-26T10:19:53Z</time>
      </trkpt>
      <trkpt lat="45.28907" lon="6.78713">
        <ele>2310.2825</ele>
        <time>2015-08-26T10:20:03Z</time>
      </trkpt>
      <trkpt lat="45.28906" lon="6.78715">
        <ele>2310.2825</ele>
        <time>2015-08-26T10:20:08Z</time>
      </trkpt>
      <trkpt lat="45.28902" lon="6.78715">
        <ele>2312.3352</ele>
        <time>2015-08-26T10:20:18Z</time>
      </trkpt>
      <trkpt lat="45.289" lon="6.78715">
        <ele>2312.3352</ele>
        <time>2015-08-26T10:20:23Z</time>
      </trkpt>
      <trkpt lat="45.28897" lon="6.78712">
        <ele>2312.3352</ele>
        <time>2015-08-26T10:20:33Z</time>
      </trkpt>
      <trkpt lat="45.28894" lon="6.78711">
        <ele>2312.3352</ele>
        <time>2015-08-26T10:20:38Z</time>
      </trkpt>
      <trkpt lat="45.28891" lon="6.78711">
        <ele>2314.5056</ele>
        <time>2015-08-26T10:20:48Z</time>
      </trkpt>
      <trkpt lat="45.2889" lon="6.78716">
        <ele>2314.5056</ele>
        <time>2015-08-26T10:20:53Z</time>
      </trkpt>
      <trkpt lat="45.28888" lon="6.78722">
        <ele>2314.5056</ele>
        <time>2015-08-26T10:21:03Z</time>
      </trkpt>
      <trkpt lat="45.28889" lon="6.7872">
        <ele>2316.5708</ele>
        <time>2015-08-26T10:21:08Z</time>
      </trkpt>
      <trkpt lat="45.28889" lon="6.78719">
        <ele>2316.5708</ele>
        <time>2015-08-26T10:21:23Z</time>
      </trkpt>
      <trkpt lat="45.28889" lon="6.78718">
        <ele>2316.5708</ele>
        <time>2015-08-26T10:21:28Z</time>
      </trkpt>
      <trkpt lat="45.28889" lon="6.78719">
        <ele>2316.5708</ele>
        <time>2015-08-26T10:21:38Z</time>
      </trkpt>
      <trkpt lat="45.28886" lon="6.7872">
        <ele>2316.5708</ele>
        <time>2015-08-26T10:21:43Z</time>
      </trkpt>
      <trkpt lat="45.28882" lon="6.78718">
        <ele>2318.4106</ele>
        <time>2015-08-26T10:21:53Z</time>
      </trkpt>
      <trkpt lat="45.28882" lon="6.78718">
        <ele>2318.4106</ele>
        <time>2015-08-26T10:21:58Z</time>
      </trkpt>
      <trkpt lat="45.28886" lon="6.78717">
        <ele>2318.4106</ele>
        <time>2015-08-26T10:22:08Z</time>
      </trkpt>
      <trkpt lat="45.28887" lon="6.78717">
        <ele>2318.4106</ele>
        <time>2015-08-26T10:22:13Z</time>
      </trkpt>
      <trkpt lat="45.28888" lon="6.78721">
        <ele>2318.4106</ele>
        <time>2015-08-26T10:22:23Z</time>
      </trkpt>
      <trkpt lat="45.28885" lon="6.78722">
        <ele>2319.958</ele>
        <time>2015-08-26T10:22:28Z</time>
      </trkpt>
      <trkpt lat="45.28885" lon="6.78719">
        <ele>2319.958</ele>
        <time>2015-08-26T10:22:38Z</time>
      </trkpt>
      <trkpt lat="45.28883" lon="6.78718">
        <ele>2319.958</ele>
        <time>2015-08-26T10:22:43Z</time>
      </trkpt>
      <trkpt lat="45.28882" lon="6.78719">
        <ele>2319.958</ele>
        <time>2015-08-26T10:22:53Z</time>
      </trkpt>
      <trkpt lat="45.28884" lon="6.78722">
        <ele>2319.958</ele>
        <time>2015-08-26T10:22:58Z</time>
      </trkpt>
      <trkpt lat="45.28877" lon="6.78722">
        <ele>2321.238</ele>
        <time>2015-08-26T10:23:08Z</time>
      </trkpt>
      <trkpt lat="45.28879" lon="6.78719">
        <ele>2321.238</ele>
        <time>2015-08-26T10:23:13Z</time>
      </trkpt>
      <trkpt lat="45.28883" lon="6.78716">
        <ele>2321.238</ele>
        <time>2015-08-26T10:23:28Z</time>
      </trkpt>
      <trkpt lat="45.28885" lon="6.78718">
        <ele>2322.3467</ele>
        <time>2015-08-26T10:23:33Z</time>
      </trkpt>
      <trkpt lat="45.28886" lon="6.78718">
        <ele>2322.3467</ele>
        <time>2015-08-26T10:23:43Z</time>
      </trkpt>
      <trkpt lat="45.28885" lon="6.78715">
        <ele>2322.3467</ele>
        <time>2015-08-26T10:23:48Z</time>
      </trkpt>
      <trkpt lat="45.28886" lon="6.78717">
        <ele>2322.3467</ele>
        <time>2015-08-26T10:23:58Z</time>
      </trkpt>
      <trkpt lat="45.28885" lon="6.78717">
        <ele>2322.3467</ele>
        <time>2015-08-26T10:24:03Z</time>
      </trkpt>
      <trkpt lat="45.28886" lon="6.78715">
        <ele>2322.3467</ele>
        <time>2015-08-26T10:24:13Z</time>
      </trkpt>
      <trkpt lat="45.28886" lon="6.78719">
        <ele>2322.3467</ele>
        <time>2015-08-26T10:24:18Z</time>
      </trkpt>
      <trkpt lat="45.28889" lon="6.7872">
        <ele>2323.373</ele>
        <time>2015-08-26T10:33:39Z</time>
      </trkpt>
      <trkpt lat="45.28889" lon="6.7872">
        <ele>2323.373</ele>
        <time>2015-08-26T10:33:44Z</time>
      </trkpt>
      <trkpt lat="45.28889" lon="6.78718">
        <ele>2323.373</ele>
        <time>2015-08-26T10:35:04Z</time>
      </trkpt>
      <trkpt lat="45.2889" lon="6.78708">
        <ele>2323.373</ele>
        <time>2015-08-26T10:35:14Z</time>
      </trkpt>
      <trkpt lat="45.28887" lon="6.78703">
        <ele>2324.0547</ele>
        <time>2015-08-26T10:35:19Z</time>
      </trkpt>
      <trkpt lat="45.28876" lon="6.78688">
        <ele>2324.9124</ele>
        <time>2015-08-26T10:35:34Z</time>
      </trkpt>
      <trkpt lat="45.28872" lon="6.78685">
        <ele>2324.9124</ele>
        <time>2015-08-26T10:35:39Z</time>
      </trkpt>
      <trkpt lat="45.28869" lon="6.78683">
        <ele>2324.9124</ele>
        <time>2015-08-26T10:35:49Z</time>
      </trkpt>
      <trkpt lat="45.28866" lon="6.78684">
        <ele>2325.8667</ele>
        <time>2015-08-26T10:35:54Z</time>
      </trkpt>
      <trkpt lat="45.28863" lon="6.78683">
        <ele>2325.8667</ele>
        <time>2015-08-26T10:36:04Z</time>
      </trkpt>
      <trkpt lat="45.28861" lon="6.78681">
        <ele>2325.8667</ele>
        <time>2015-08-26T10:36:09Z</time>
      </trkpt>
      <trkpt lat="45.28857" lon="6.78679">
        <ele>2326.6995</ele>
        <time>2015-08-26T10:36:19Z</time>
      </trkpt>
      <trkpt lat="45.28856" lon="6.78678">
        <ele>2326.6995</ele>
        <time>2015-08-26T10:36:24Z</time>
      </trkpt>
      <trkpt lat="45.28853" lon="6.78678">
        <ele>2326.6995</ele>
        <time>2015-08-26T10:36:34Z</time>
      </trkpt>
      <trkpt lat="45.28852" lon="6.78677">
        <ele>2326.6995</ele>
        <time>2015-08-26T10:36:39Z</time>
      </trkpt>
      <trkpt lat="45.28848" lon="6.78674">
        <ele>2327.0498</ele>
        <time>2015-08-26T10:36:54Z</time>
      </trkpt>
      <trkpt lat="45.28844" lon="6.78672">
        <ele>2327.0498</ele>
        <time>2015-08-26T10:36:59Z</time>
      </trkpt>
      <trkpt lat="45.28848" lon="6.7867">
        <ele>2327.0498</ele>
        <time>2015-08-26T10:37:09Z</time>
      </trkpt>
      <trkpt lat="45.28851" lon="6.78665">
        <ele>2327.3057</ele>
        <time>2015-08-26T10:37:14Z</time>
      </trkpt>
      <trkpt lat="45.28852" lon="6.78662">
        <ele>2327.3057</ele>
        <time>2015-08-26T10:37:24Z</time>
      </trkpt>
      <trkpt lat="45.28853" lon="6.78659">
        <ele>2327.3057</ele>
        <time>2015-08-26T10:37:29Z</time>
      </trkpt>
      <trkpt lat="45.28858" lon="6.78655">
        <ele>2327.4087</ele>
        <time>2015-08-26T10:37:39Z</time>
      </trkpt>
      <trkpt lat="45.2886" lon="6.78653">
        <ele>2327.4087</ele>
        <time>2015-08-26T10:37:44Z</time>
      </trkpt>
      <trkpt lat="45.28862" lon="6.7865">
        <ele>2327.4087</ele>
        <time>2015-08-26T10:37:54Z</time>
      </trkpt>
      <trkpt lat="45.28863" lon="6.78648">
        <ele>2327.4087</ele>
        <time>2015-08-26T10:37:59Z</time>
      </trkpt>
      <trkpt lat="45.28865" lon="6.78644">
        <ele>2327.3914</ele>
        <time>2015-08-26T10:38:09Z</time>
      </trkpt>
      <trkpt lat="45.28865" lon="6.78641">
        <ele>2327.3914</ele>
        <time>2015-08-26T10:38:14Z</time>
      </trkpt>
      <trkpt lat="45.28866" lon="6.78636">
        <ele>2327.3914</ele>
        <time>2015-08-26T10:38:24Z</time>
      </trkpt>
      <trkpt lat="45.28866" lon="6.78632">
        <ele>2327.3914</ele>
        <time>2015-08-26T10:38:29Z</time>
      </trkpt>
      <trkpt lat="45.28866" lon="6.78633">
        <ele>2327.5002</ele>
        <time>2015-08-26T10:38:39Z</time>
      </trkpt>
      <trkpt lat="45.28864" lon="6.78633">
        <ele>2327.5002</ele>
        <time>2015-08-26T10:38:44Z</time>
      </trkpt>
      <trkpt lat="45.28859" lon="6.78632">
        <ele>2327.5002</ele>
        <time>2015-08-26T10:38:54Z</time>
      </trkpt>
      <trkpt lat="45.28857" lon="6.78632">
        <ele>2327.5002</ele>
        <time>2015-08-26T10:38:59Z</time>
      </trkpt>
      <trkpt lat="45.28854" lon="6.78631">
        <ele>2328.2952</ele>
        <time>2015-08-26T10:39:09Z</time>
      </trkpt>
      <trkpt lat="45.28852" lon="6.7863">
        <ele>2328.2952</ele>
        <time>2015-08-26T10:39:14Z</time>
      </trkpt>
      <trkpt lat="45.28844" lon="6.78628">
        <ele>2329.1821</ele>
        <time>2015-08-26T10:39:29Z</time>
      </trkpt>
      <trkpt lat="45.28842" lon="6.78627">
        <ele>2329.1821</ele>
        <time>2015-08-26T10:39:34Z</time>
      </trkpt>
      <trkpt lat="45.28837" lon="6.78622">
        <ele>2329.1821</ele>
        <time>2015-08-26T10:39:44Z</time>
      </trkpt>
      <trkpt lat="45.28835" lon="6.78619">
        <ele>2330.1304</ele>
        <time>2015-08-26T10:39:49Z</time>
      </trkpt>
      <trkpt lat="45.2883" lon="6.78612">
        <ele>2330.1304</ele>
        <time>2015-08-26T10:39:59Z</time>
      </trkpt>
      <trkpt lat="45.28829" lon="6.78609">
        <ele>2330.9658</ele>
        <time>2015-08-26T10:40:04Z</time>
      </trkpt>
      <trkpt lat="45.28827" lon="6.78605">
        <ele>2330.9658</ele>
        <time>2015-08-26T10:40:14Z</time>
      </trkpt>
      <trkpt lat="45.28826" lon="6.78602">
        <ele>2330.9658</ele>
        <time>2015-08-26T10:40:19Z</time>
      </trkpt>
      <trkpt lat="45.28822" lon="6.78595">
        <ele>2331.73</ele>
        <time>2015-08-26T10:40:29Z</time>
      </trkpt>
      <trkpt lat="45.28821" lon="6.78592">
        <ele>2331.73</ele>
        <time>2015-08-26T10:40:34Z</time>
      </trkpt>
      <trkpt lat="45.28817" lon="6.78584">
        <ele>2332.562</ele>
        <time>2015-08-26T10:40:44Z</time>
      </trkpt>
      <trkpt lat="45.28815" lon="6.78579">
        <ele>2332.562</ele>
        <time>2015-08-26T10:40:49Z</time>
      </trkpt>
      <trkpt lat="45.28811" lon="6.78578">
        <ele>2332.562</ele>
        <time>2015-08-26T10:40:59Z</time>
      </trkpt>
      <trkpt lat="45.28809" lon="6.78576">
        <ele>2333.417</ele>
        <time>2015-08-26T10:41:04Z</time>
      </trkpt>
      <trkpt lat="45.28807" lon="6.78573">
        <ele>2333.417</ele>
        <time>2015-08-26T10:41:14Z</time>
      </trkpt>
      <trkpt lat="45.28806" lon="6.78571">
        <ele>2333.417</ele>
        <time>2015-08-26T10:41:19Z</time>
      </trkpt>
      <trkpt lat="45.28801" lon="6.78566">
        <ele>2334.571</ele>
        <time>2015-08-26T10:41:29Z</time>
      </trkpt>
      <trkpt lat="45.288" lon="6.78563">
        <ele>2334.571</ele>
        <time>2015-08-26T10:41:34Z</time>
      </trkpt>
      <trkpt lat="45.28795" lon="6.78559">
        <ele>2334.571</ele>
        <time>2015-08-26T10:41:49Z</time>
      </trkpt>
      <trkpt lat="45.28793" lon="6.7856">
        <ele>2335.774</ele>
        <time>2015-08-26T10:41:54Z</time>
      </trkpt>
      <trkpt lat="45.28789" lon="6.78558">
        <ele>2335.774</ele>
        <time>2015-08-26T10:42:04Z</time>
      </trkpt>
      <trkpt lat="45.28787" lon="6.78558">
        <ele>2335.774</ele>
        <time>2015-08-26T10:42:09Z</time>
      </trkpt>
      <trkpt lat="45.28782" lon="6.78555">
        <ele>2337.1108</ele>
        <time>2015-08-26T10:42:19Z</time>
      </trkpt>
      <trkpt lat="45.28781" lon="6.78554">
        <ele>2337.1108</ele>
        <time>2015-08-26T10:42:24Z</time>
      </trkpt>
      <trkpt lat="45.28777" lon="6.78552">
        <ele>2337.1108</ele>
        <time>2015-08-26T10:42:34Z</time>
      </trkpt>
      <trkpt lat="45.28776" lon="6.78552">
        <ele>2337.1108</ele>
        <time>2015-08-26T10:42:39Z</time>
      </trkpt>
      <trkpt lat="45.28773" lon="6.78548">
        <ele>2339.006</ele>
        <time>2015-08-26T10:42:49Z</time>
      </trkpt>
      <trkpt lat="45.2877" lon="6.78544">
        <ele>2339.006</ele>
        <time>2015-08-26T10:42:54Z</time>
      </trkpt>
      <trkpt lat="45.28766" lon="6.78541">
        <ele>2339.006</ele>
        <time>2015-08-26T10:43:04Z</time>
      </trkpt>
      <trkpt lat="45.28764" lon="6.78541">
        <ele>2341.0007</ele>
        <time>2015-08-26T10:43:09Z</time>
      </trkpt>
      <trkpt lat="45.28761" lon="6.78536">
        <ele>2341.0007</ele>
        <time>2015-08-26T10:43:19Z</time>
      </trkpt>
      <trkpt lat="45.28759" lon="6.78533">
        <ele>2341.0007</ele>
        <time>2015-08-26T10:43:24Z</time>
      </trkpt>
      <trkpt lat="45.28753" lon="6.78528">
        <ele>2343.1592</ele>
        <time>2015-08-26T10:43:34Z</time>
      </trkpt>
      <trkpt lat="45.28751" lon="6.78525">
        <ele>2343.1592</ele>
        <time>2015-08-26T10:43:39Z</time>
      </trkpt>
      <trkpt lat="45.28747" lon="6.78521">
        <ele>2343.1592</ele>
        <time>2015-08-26T10:43:49Z</time>
      </trkpt>
      <trkpt lat="45.28744" lon="6.78519">
        <ele>2345.1948</ele>
        <time>2015-08-26T10:43:54Z</time>
      </trkpt>
      <trkpt lat="45.28739" lon="6.78514">
        <ele>2345.1948</ele>
        <time>2015-08-26T10:44:04Z</time>
      </trkpt>
      <trkpt lat="45.28737" lon="6.78512">
        <ele>2347.2166</ele>
        <time>2015-08-26T10:44:09Z</time>
      </trkpt>
      <trkpt lat="45.28731" lon="6.78508">
        <ele>2347.2166</ele>
        <time>2015-08-26T10:44:19Z</time>
      </trkpt>
      <trkpt lat="45.28729" lon="6.78506">
        <ele>2349.167</ele>
        <time>2015-08-26T10:44:24Z</time>
      </trkpt>
      <trkpt lat="45.28723" lon="6.78503">
        <ele>2349.167</ele>
        <time>2015-08-26T10:44:34Z</time>
      </trkpt>
      <trkpt lat="45.28722" lon="6.78503">
        <ele>2349.167</ele>
        <time>2015-08-26T10:44:39Z</time>
      </trkpt>
      <trkpt lat="45.28715" lon="6.78504">
        <ele>2351.325</ele>
        <time>2015-08-26T10:44:49Z</time>
      </trkpt>
      <trkpt lat="45.28713" lon="6.78501">
        <ele>2351.325</ele>
        <time>2015-08-26T10:44:54Z</time>
      </trkpt>
      <trkpt lat="45.28707" lon="6.78502">
        <ele>2353.3853</ele>
        <time>2015-08-26T10:45:04Z</time>
      </trkpt>
      <trkpt lat="45.28702" lon="6.78502">
        <ele>2353.3853</ele>
        <time>2015-08-26T10:45:09Z</time>
      </trkpt>
      <trkpt lat="45.28694" lon="6.78498">
        <ele>2355.3975</ele>
        <time>2015-08-26T10:45:24Z</time>
      </trkpt>
      <trkpt lat="45.28691" lon="6.78497">
        <ele>2355.3975</ele>
        <time>2015-08-26T10:45:29Z</time>
      </trkpt>
      <trkpt lat="45.28685" lon="6.78493">
        <ele>2357.2778</ele>
        <time>2015-08-26T10:45:39Z</time>
      </trkpt>
      <trkpt lat="45.28683" lon="6.78493">
        <ele>2357.2778</ele>
        <time>2015-08-26T10:45:44Z</time>
      </trkpt>
      <trkpt lat="45.28681" lon="6.78488">
        <ele>2357.2778</ele>
        <time>2015-08-26T10:45:54Z</time>
      </trkpt>
      <trkpt lat="45.2868" lon="6.78486">
        <ele>2357.2778</ele>
        <time>2015-08-26T10:45:59Z</time>
      </trkpt>
      <trkpt lat="45.28675" lon="6.78484">
        <ele>2359.1357</ele>
        <time>2015-08-26T10:46:09Z</time>
      </trkpt>
      <trkpt lat="45.28673" lon="6.78481">
        <ele>2359.1357</ele>
        <time>2015-08-26T10:46:14Z</time>
      </trkpt>
      <trkpt lat="45.28667" lon="6.78473">
        <ele>2360.929</ele>
        <time>2015-08-26T10:46:24Z</time>
      </trkpt>
      <trkpt lat="45.28664" lon="6.78472">
        <ele>2360.929</ele>
        <time>2015-08-26T10:46:29Z</time>
      </trkpt>
      <trkpt lat="45.2866" lon="6.78466">
        <ele>2360.929</ele>
        <time>2015-08-26T10:46:39Z</time>
      </trkpt>
      <trkpt lat="45.28658" lon="6.78463">
        <ele>2362.6765</ele>
        <time>2015-08-26T10:46:44Z</time>
      </trkpt>
      <trkpt lat="45.28655" lon="6.78455">
        <ele>2362.6765</ele>
        <time>2015-08-26T10:46:54Z</time>
      </trkpt>
      <trkpt lat="45.28651" lon="6.78452">
        <ele>2364.2515</ele>
        <time>2015-08-26T10:46:59Z</time>
      </trkpt>
      <trkpt lat="45.28643" lon="6.78442">
        <ele>2365.8682</ele>
        <time>2015-08-26T10:47:14Z</time>
      </trkpt>
      <trkpt lat="45.28643" lon="6.7844">
        <ele>2365.8682</ele>
        <time>2015-08-26T10:47:19Z</time>
      </trkpt>
      <trkpt lat="45.28641" lon="6.78435">
        <ele>2365.8682</ele>
        <time>2015-08-26T10:47:29Z</time>
      </trkpt>
      <trkpt lat="45.28639" lon="6.78433">
        <ele>2365.8682</ele>
        <time>2015-08-26T10:47:34Z</time>
      </trkpt>
      <trkpt lat="45.28633" lon="6.78429">
        <ele>2367.4946</ele>
        <time>2015-08-26T10:47:44Z</time>
      </trkpt>
      <trkpt lat="45.28631" lon="6.78427">
        <ele>2367.4946</ele>
        <time>2015-08-26T10:47:49Z</time>
      </trkpt>
      <trkpt lat="45.28625" lon="6.78423">
        <ele>2369.0288</ele>
        <time>2015-08-26T10:47:59Z</time>
      </trkpt>
      <trkpt lat="45.28622" lon="6.78421">
        <ele>2369.0288</ele>
        <time>2015-08-26T10:48:04Z</time>
      </trkpt>
      <trkpt lat="45.28618" lon="6.78417">
        <ele>2369.0288</ele>
        <time>2015-08-26T10:48:14Z</time>
      </trkpt>
      <trkpt lat="45.28616" lon="6.78415">
        <ele>2370.5212</ele>
        <time>2015-08-26T10:48:19Z</time>
      </trkpt>
      <trkpt lat="45.28612" lon="6.78412">
        <ele>2370.5212</ele>
        <time>2015-08-26T10:48:29Z</time>
      </trkpt>
      <trkpt lat="45.2861" lon="6.78409">
        <ele>2370.5212</ele>
        <time>2015-08-26T10:48:34Z</time>
      </trkpt>
      <trkpt lat="45.28604" lon="6.78404">
        <ele>2372.1624</ele>
        <time>2015-08-26T10:48:49Z</time>
      </trkpt>
      <trkpt lat="45.28601" lon="6.78402">
        <ele>2372.1624</ele>
        <time>2015-08-26T10:48:54Z</time>
      </trkpt>
      <trkpt lat="45.28597" lon="6.78401">
        <ele>2372.1624</ele>
        <time>2015-08-26T10:49:04Z</time>
      </trkpt>
      <trkpt lat="45.28594" lon="6.784">
        <ele>2373.8684</ele>
        <time>2015-08-26T10:49:09Z</time>
      </trkpt>
      <trkpt lat="45.28591" lon="6.78397">
        <ele>2373.8684</ele>
        <time>2015-08-26T10:49:19Z</time>
      </trkpt>
      <trkpt lat="45.28589" lon="6.78397">
        <ele>2373.8684</ele>
        <time>2015-08-26T10:49:24Z</time>
      </trkpt>
      <trkpt lat="45.28584" lon="6.78394">
        <ele>2375.5916</ele>
        <time>2015-08-26T10:49:34Z</time>
      </trkpt>
      <trkpt lat="45.28581" lon="6.78393">
        <ele>2375.5916</ele>
        <time>2015-08-26T10:49:39Z</time>
      </trkpt>
      <trkpt lat="45.28578" lon="6.78393">
        <ele>2375.5916</ele>
        <time>2015-08-26T10:49:49Z</time>
      </trkpt>
      <trkpt lat="45.28578" lon="6.78392">
        <ele>2375.5916</ele>
        <time>2015-08-26T10:49:54Z</time>
      </trkpt>
      <trkpt lat="45.28577" lon="6.78391">
        <ele>2375.5916</ele>
        <time>2015-08-26T10:50:04Z</time>
      </trkpt>
      <trkpt lat="45.28576" lon="6.7839">
        <ele>2375.5916</ele>
        <time>2015-08-26T10:50:09Z</time>
      </trkpt>
      <trkpt lat="45.28571" lon="6.78385">
        <ele>2377.3728</ele>
        <time>2015-08-26T10:50:24Z</time>
      </trkpt>
      <trkpt lat="45.2857" lon="6.78384">
        <ele>2377.3728</ele>
        <time>2015-08-26T10:50:29Z</time>
      </trkpt>
      <trkpt lat="45.28569" lon="6.78384">
        <ele>2377.3728</ele>
        <time>2015-08-26T10:50:39Z</time>
      </trkpt>
      <trkpt lat="45.28567" lon="6.78381">
        <ele>2377.3728</ele>
        <time>2015-08-26T10:50:44Z</time>
      </trkpt>
      <trkpt lat="45.28562" lon="6.78378">
        <ele>2379.236</ele>
        <time>2015-08-26T10:50:54Z</time>
      </trkpt>
      <trkpt lat="45.2856" lon="6.78375">
        <ele>2379.236</ele>
        <time>2015-08-26T10:50:59Z</time>
      </trkpt>
      <trkpt lat="45.28556" lon="6.7837">
        <ele>2379.236</ele>
        <time>2015-08-26T10:51:09Z</time>
      </trkpt>
      <trkpt lat="45.28554" lon="6.78369">
        <ele>2381.131</ele>
        <time>2015-08-26T10:51:14Z</time>
      </trkpt>
      <trkpt lat="45.28551" lon="6.78365">
        <ele>2381.131</ele>
        <time>2015-08-26T10:51:24Z</time>
      </trkpt>
      <trkpt lat="45.28549" lon="6.78363">
        <ele>2381.131</ele>
        <time>2015-08-26T10:51:29Z</time>
      </trkpt>
      <trkpt lat="45.28546" lon="6.78357">
        <ele>2383.141</ele>
        <time>2015-08-26T10:51:39Z</time>
      </trkpt>
      <trkpt lat="45.28544" lon="6.78356">
        <ele>2383.141</ele>
        <time>2015-08-26T10:51:44Z</time>
      </trkpt>
      <trkpt lat="45.2854" lon="6.78353">
        <ele>2383.141</ele>
        <time>2015-08-26T10:51:59Z</time>
      </trkpt>
      <trkpt lat="45.28538" lon="6.78352">
        <ele>2383.141</ele>
        <time>2015-08-26T10:52:04Z</time>
      </trkpt>
      <trkpt lat="45.28533" lon="6.78349">
        <ele>2385.2703</ele>
        <time>2015-08-26T10:52:14Z</time>
      </trkpt>
      <trkpt lat="45.28531" lon="6.78347">
        <ele>2385.2703</ele>
        <time>2015-08-26T10:52:19Z</time>
      </trkpt>
      <trkpt lat="45.28529" lon="6.78346">
        <ele>2385.2703</ele>
        <time>2015-08-26T10:52:29Z</time>
      </trkpt>
      <trkpt lat="45.28527" lon="6.78346">
        <ele>2385.2703</ele>
        <time>2015-08-26T10:52:34Z</time>
      </trkpt>
      <trkpt lat="45.28522" lon="6.78342">
        <ele>2387.307</ele>
        <time>2015-08-26T10:52:44Z</time>
      </trkpt>
      <trkpt lat="45.28519" lon="6.78341">
        <ele>2387.307</ele>
        <time>2015-08-26T10:52:49Z</time>
      </trkpt>
      <trkpt lat="45.28516" lon="6.78339">
        <ele>2387.307</ele>
        <time>2015-08-26T10:52:59Z</time>
      </trkpt>
      <trkpt lat="45.28514" lon="6.7834">
        <ele>2387.307</ele>
        <time>2015-08-26T10:53:04Z</time>
      </trkpt>
      <trkpt lat="45.28512" lon="6.78337">
        <ele>2389.5151</ele>
        <time>2015-08-26T10:53:14Z</time>
      </trkpt>
      <trkpt lat="45.2851" lon="6.78335">
        <ele>2389.5151</ele>
        <time>2015-08-26T10:53:19Z</time>
      </trkpt>
      <trkpt lat="45.28506" lon="6.78331">
        <ele>2389.5151</ele>
        <time>2015-08-26T10:53:29Z</time>
      </trkpt>
      <trkpt lat="45.28504" lon="6.78331">
        <ele>2391.6648</ele>
        <time>2015-08-26T10:53:34Z</time>
      </trkpt>
      <trkpt lat="45.28498" lon="6.78327">
        <ele>2391.6648</ele>
        <time>2015-08-26T10:53:44Z</time>
      </trkpt>
      <trkpt lat="45.28496" lon="6.78324">
        <ele>2393.8447</ele>
        <time>2015-08-26T10:53:49Z</time>
      </trkpt>
      <trkpt lat="45.28492" lon="6.78321">
        <ele>2393.8447</ele>
        <time>2015-08-26T10:54:04Z</time>
      </trkpt>
      <trkpt lat="45.28489" lon="6.78317">
        <ele>2393.8447</ele>
        <time>2015-08-26T10:54:09Z</time>
      </trkpt>
      <trkpt lat="45.28484" lon="6.78312">
        <ele>2396.195</ele>
        <time>2015-08-26T10:54:19Z</time>
      </trkpt>
      <trkpt lat="45.28482" lon="6.78311">
        <ele>2396.195</ele>
        <time>2015-08-26T10:54:24Z</time>
      </trkpt>
      <trkpt lat="45.28478" lon="6.78305">
        <ele>2396.195</ele>
        <time>2015-08-26T10:54:34Z</time>
      </trkpt>
      <trkpt lat="45.28476" lon="6.78305">
        <ele>2398.5422</ele>
        <time>2015-08-26T10:54:39Z</time>
      </trkpt>
      <trkpt lat="45.28471" lon="6.78302">
        <ele>2398.5422</ele>
        <time>2015-08-26T10:54:49Z</time>
      </trkpt>
      <trkpt lat="45.28468" lon="6.78301">
        <ele>2398.5422</ele>
        <time>2015-08-26T10:54:54Z</time>
      </trkpt>
      <trkpt lat="45.28463" lon="6.78297">
        <ele>2400.8267</ele>
        <time>2015-08-26T10:55:04Z</time>
      </trkpt>
      <trkpt lat="45.2846" lon="6.78296">
        <ele>2400.8267</ele>
        <time>2015-08-26T10:55:09Z</time>
      </trkpt>
      <trkpt lat="45.28456" lon="6.78294">
        <ele>2400.8267</ele>
        <time>2015-08-26T10:55:19Z</time>
      </trkpt>
      <trkpt lat="45.28454" lon="6.78292">
        <ele>2403.0225</ele>
        <time>2015-08-26T10:55:24Z</time>
      </trkpt>
      <trkpt lat="45.28449" lon="6.78292">
        <ele>2403.0225</ele>
        <time>2015-08-26T10:55:34Z</time>
      </trkpt>
      <trkpt lat="45.28448" lon="6.78291">
        <ele>2403.0225</ele>
        <time>2015-08-26T10:55:39Z</time>
      </trkpt>
      <trkpt lat="45.28446" lon="6.78289">
        <ele>2403.0225</ele>
        <time>2015-08-26T10:55:49Z</time>
      </trkpt>
      <trkpt lat="45.28444" lon="6.78287">
        <ele>2405.1772</ele>
        <time>2015-08-26T10:55:54Z</time>
      </trkpt>
      <trkpt lat="45.28437" lon="6.78284">
        <ele>2405.1772</ele>
        <time>2015-08-26T10:56:09Z</time>
      </trkpt>
      <trkpt lat="45.28434" lon="6.78284">
        <ele>2407.3071</ele>
        <time>2015-08-26T10:56:14Z</time>
      </trkpt>
      <trkpt lat="45.2843" lon="6.7828">
        <ele>2407.3071</ele>
        <time>2015-08-26T10:56:24Z</time>
      </trkpt>
      <trkpt lat="45.28428" lon="6.78278">
        <ele>2407.3071</ele>
        <time>2015-08-26T10:56:29Z</time>
      </trkpt>
      <trkpt lat="45.28425" lon="6.78275">
        <ele>2409.7295</ele>
        <time>2015-08-26T10:56:39Z</time>
      </trkpt>
      <trkpt lat="45.28425" lon="6.78275">
        <ele>2409.7295</ele>
        <time>2015-08-26T10:56:44Z</time>
      </trkpt>
      <trkpt lat="45.2842" lon="6.78276">
        <ele>2409.7295</ele>
        <time>2015-08-26T10:56:54Z</time>
      </trkpt>
      <trkpt lat="45.28419" lon="6.78273">
        <ele>2409.7295</ele>
        <time>2015-08-26T10:56:59Z</time>
      </trkpt>
      <trkpt lat="45.28415" lon="6.78272">
        <ele>2412.3772</ele>
        <time>2015-08-26T10:57:09Z</time>
      </trkpt>
      <trkpt lat="45.28416" lon="6.78267">
        <ele>2412.3772</ele>
        <time>2015-08-26T10:57:14Z</time>
      </trkpt>
      <trkpt lat="45.28416" lon="6.78262">
        <ele>2412.3772</ele>
        <time>2015-08-26T10:57:24Z</time>
      </trkpt>
      <trkpt lat="45.28416" lon="6.78259">
        <ele>2414.9426</ele>
        <time>2015-08-26T10:57:29Z</time>
      </trkpt>
      <trkpt lat="45.28411" lon="6.78255">
        <ele>2414.9426</ele>
        <time>2015-08-26T10:57:39Z</time>
      </trkpt>
      <trkpt lat="45.28409" lon="6.78254">
        <ele>2414.9426</ele>
        <time>2015-08-26T10:57:44Z</time>
      </trkpt>
      <trkpt lat="45.28406" lon="6.78249">
        <ele>2417.5737</ele>
        <time>2015-08-26T10:57:54Z</time>
      </trkpt>
      <trkpt lat="45.28405" lon="6.78248">
        <ele>2417.5737</ele>
        <time>2015-08-26T10:57:59Z</time>
      </trkpt>
      <trkpt lat="45.284" lon="6.78248">
        <ele>2417.5737</ele>
        <time>2015-08-26T10:58:09Z</time>
      </trkpt>
      <trkpt lat="45.28398" lon="6.78248">
        <ele>2417.5737</ele>
        <time>2015-08-26T10:58:14Z</time>
      </trkpt>
      <trkpt lat="45.28394" lon="6.78244">
        <ele>2420.2048</ele>
        <time>2015-08-26T10:58:24Z</time>
      </trkpt>
      <trkpt lat="45.28392" lon="6.78242">
        <ele>2420.2048</ele>
        <time>2015-08-26T10:58:29Z</time>
      </trkpt>
      <trkpt lat="45.28383" lon="6.78235">
        <ele>2422.7185</ele>
        <time>2015-08-26T10:58:44Z</time>
      </trkpt>
      <trkpt lat="45.2838" lon="6.78234">
        <ele>2422.7185</ele>
        <time>2015-08-26T10:58:49Z</time>
      </trkpt>
      <trkpt lat="45.28377" lon="6.78229">
        <ele>2422.7185</ele>
        <time>2015-08-26T10:58:59Z</time>
      </trkpt>
      <trkpt lat="45.28376" lon="6.78229">
        <ele>2422.7185</ele>
        <time>2015-08-26T10:59:04Z</time>
      </trkpt>
      <trkpt lat="45.28371" lon="6.78229">
        <ele>2425.582</ele>
        <time>2015-08-26T10:59:14Z</time>
      </trkpt>
      <trkpt lat="45.28368" lon="6.78228">
        <ele>2425.582</ele>
        <time>2015-08-26T10:59:19Z</time>
      </trkpt>
      <trkpt lat="45.28361" lon="6.78225">
        <ele>2428.464</ele>
        <time>2015-08-26T10:59:29Z</time>
      </trkpt>
      <trkpt lat="45.2836" lon="6.7822">
        <ele>2428.464</ele>
        <time>2015-08-26T10:59:34Z</time>
      </trkpt>
      <trkpt lat="45.28357" lon="6.78213">
        <ele>2431.3025</ele>
        <time>2015-08-26T10:59:44Z</time>
      </trkpt>
      <trkpt lat="45.28357" lon="6.78207">
        <ele>2431.3025</ele>
        <time>2015-08-26T10:59:49Z</time>
      </trkpt>
      <trkpt lat="45.28353" lon="6.78198">
        <ele>2433.795</ele>
        <time>2015-08-26T10:59:59Z</time>
      </trkpt>
      <trkpt lat="45.2835" lon="6.78197">
        <ele>2433.795</ele>
        <time>2015-08-26T11:00:04Z</time>
      </trkpt>
      <trkpt lat="45.28343" lon="6.78192">
        <ele>2436.1091</ele>
        <time>2015-08-26T11:00:19Z</time>
      </trkpt>
      <trkpt lat="45.2834" lon="6.78188">
        <ele>2436.1091</ele>
        <time>2015-08-26T11:00:24Z</time>
      </trkpt>
      <trkpt lat="45.28332" lon="6.78184">
        <ele>2438.1267</ele>
        <time>2015-08-26T11:00:34Z</time>
      </trkpt>
      <trkpt lat="45.28328" lon="6.78182">
        <ele>2438.1267</ele>
        <time>2015-08-26T11:00:39Z</time>
      </trkpt>
      <trkpt lat="45.28322" lon="6.78174">
        <ele>2439.8984</ele>
        <time>2015-08-26T11:00:49Z</time>
      </trkpt>
      <trkpt lat="45.2832" lon="6.78171">
        <ele>2439.8984</ele>
        <time>2015-08-26T11:00:54Z</time>
      </trkpt>
      <trkpt lat="45.28319" lon="6.78165">
        <ele>2439.8984</ele>
        <time>2015-08-26T11:01:04Z</time>
      </trkpt>
      <trkpt lat="45.28318" lon="6.78162">
        <ele>2441.4568</ele>
        <time>2015-08-26T11:01:09Z</time>
      </trkpt>
      <trkpt lat="45.28313" lon="6.7816">
        <ele>2441.4568</ele>
        <time>2015-08-26T11:01:19Z</time>
      </trkpt>
      <trkpt lat="45.28311" lon="6.78158">
        <ele>2441.4568</ele>
        <time>2015-08-26T11:01:24Z</time>
      </trkpt>
      <trkpt lat="45.28308" lon="6.78156">
        <ele>2442.905</ele>
        <time>2015-08-26T11:01:34Z</time>
      </trkpt>
      <trkpt lat="45.28304" lon="6.78155">
        <ele>2442.905</ele>
        <time>2015-08-26T11:01:39Z</time>
      </trkpt>
      <trkpt lat="45.28299" lon="6.78149">
        <ele>2444.2239</ele>
        <time>2015-08-26T11:01:49Z</time>
      </trkpt>
      <trkpt lat="45.28295" lon="6.78147">
        <ele>2444.2239</ele>
        <time>2015-08-26T11:01:54Z</time>
      </trkpt>
      <trkpt lat="45.28288" lon="6.78148">
        <ele>2445.3958</ele>
        <time>2015-08-26T11:02:04Z</time>
      </trkpt>
      <trkpt lat="45.28285" lon="6.78148">
        <ele>2445.3958</ele>
        <time>2015-08-26T11:02:09Z</time>
      </trkpt>
      <trkpt lat="45.28277" lon="6.78142">
        <ele>2446.3616</ele>
        <time>2015-08-26T11:02:24Z</time>
      </trkpt>
      <trkpt lat="45.28274" lon="6.78139">
        <ele>2446.3616</ele>
        <time>2015-08-26T11:02:29Z</time>
      </trkpt>
      <trkpt lat="45.28264" lon="6.78135">
        <ele>2447.2402</ele>
        <time>2015-08-26T11:02:39Z</time>
      </trkpt>
      <trkpt lat="45.2826" lon="6.78131">
        <ele>2447.2402</ele>
        <time>2015-08-26T11:02:44Z</time>
      </trkpt>
      <trkpt lat="45.28255" lon="6.78125">
        <ele>2448.07</ele>
        <time>2015-08-26T11:02:54Z</time>
      </trkpt>
      <trkpt lat="45.28253" lon="6.78119">
        <ele>2448.07</ele>
        <time>2015-08-26T11:02:59Z</time>
      </trkpt>
      <trkpt lat="45.28247" lon="6.78118">
        <ele>2448.7136</ele>
        <time>2015-08-26T11:03:09Z</time>
      </trkpt>
      <trkpt lat="45.28243" lon="6.78118">
        <ele>2448.7136</ele>
        <time>2015-08-26T11:03:14Z</time>
      </trkpt>
      <trkpt lat="45.28235" lon="6.78117">
        <ele>2449.2463</ele>
        <time>2015-08-26T11:03:24Z</time>
      </trkpt>
      <trkpt lat="45.28233" lon="6.78115">
        <ele>2449.2463</ele>
        <time>2015-08-26T11:03:29Z</time>
      </trkpt>
      <trkpt lat="45.28229" lon="6.78115">
        <ele>2449.2463</ele>
        <time>2015-08-26T11:03:39Z</time>
      </trkpt>
      <trkpt lat="45.28227" lon="6.78114">
        <ele>2449.2463</ele>
        <time>2015-08-26T11:03:44Z</time>
      </trkpt>
      <trkpt lat="45.28225" lon="6.78113">
        <ele>2449.7957</ele>
        <time>2015-08-26T11:03:54Z</time>
      </trkpt>
      <trkpt lat="45.28223" lon="6.78115">
        <ele>2449.7957</ele>
        <time>2015-08-26T11:03:59Z</time>
      </trkpt>
      <trkpt lat="45.28219" lon="6.78111">
        <ele>2449.7957</ele>
        <time>2015-08-26T11:04:09Z</time>
      </trkpt>
      <trkpt lat="45.2822" lon="6.78109">
        <ele>2449.7957</ele>
        <time>2015-08-26T11:04:14Z</time>
      </trkpt>
      <trkpt lat="45.28224" lon="6.78098">
        <ele>2450.4504</ele>
        <time>2015-08-26T11:04:24Z</time>
      </trkpt>
      <trkpt lat="45.28224" lon="6.78096">
        <ele>2450.4504</ele>
        <time>2015-08-26T11:04:29Z</time>
      </trkpt>
      <trkpt lat="45.28221" lon="6.78106">
        <ele>2450.4504</ele>
        <time>2015-08-26T11:04:39Z</time>
      </trkpt>
      <trkpt lat="45.2822" lon="6.78113">
        <ele>2450.8323</ele>
        <time>2015-08-26T11:04:44Z</time>
      </trkpt>
      <trkpt lat="45.28219" lon="6.78114">
        <ele>2450.8323</ele>
        <time>2015-08-26T11:04:59Z</time>
      </trkpt>
      <trkpt lat="45.2822" lon="6.78109">
        <ele>2450.8323</ele>
        <time>2015-08-26T11:06:19Z</time>
      </trkpt>
      <trkpt lat="45.2822" lon="6.78094">
        <ele>2451.3403</ele>
        <time>2015-08-26T11:06:34Z</time>
      </trkpt>
      <trkpt lat="45.2822" lon="6.78092">
        <ele>2451.3403</ele>
        <time>2015-08-26T11:06:39Z</time>
      </trkpt>
      <trkpt lat="45.28222" lon="6.78091">
        <ele>2451.3403</ele>
        <time>2015-08-26T11:06:49Z</time>
      </trkpt>
      <trkpt lat="45.28223" lon="6.78089">
        <ele>2451.3403</ele>
        <time>2015-08-26T11:06:54Z</time>
      </trkpt>
      <trkpt lat="45.28225" lon="6.78085">
        <ele>2451.3403</ele>
        <time>2015-08-26T11:07:04Z</time>
      </trkpt>
      <trkpt lat="45.28228" lon="6.78084">
        <ele>2451.6663</ele>
        <time>2015-08-26T11:07:09Z</time>
      </trkpt>
      <trkpt lat="45.28231" lon="6.78081">
        <ele>2451.6663</ele>
        <time>2015-08-26T11:07:19Z</time>
      </trkpt>
      <trkpt lat="45.28232" lon="6.78081">
        <ele>2451.6663</ele>
        <time>2015-08-26T11:07:24Z</time>
      </trkpt>
      <trkpt lat="45.28234" lon="6.78076">
        <ele>2451.6663</ele>
        <time>2015-08-26T11:07:34Z</time>
      </trkpt>
      <trkpt lat="45.28237" lon="6.78068">
        <ele>2452.0588</ele>
        <time>2015-08-26T11:07:39Z</time>
      </trkpt>
      <trkpt lat="45.28238" lon="6.78061">
        <ele>2452.0588</ele>
        <time>2015-08-26T11:07:49Z</time>
      </trkpt>
      <trkpt lat="45.28239" lon="6.78055">
        <ele>2452.4883</ele>
        <time>2015-08-26T11:07:54Z</time>
      </trkpt>
      <trkpt lat="45.2824" lon="6.78053">
        <ele>2452.4883</ele>
        <time>2015-08-26T11:08:04Z</time>
      </trkpt>
      <trkpt lat="45.28241" lon="6.7805">
        <ele>2452.4883</ele>
        <time>2015-08-26T11:08:09Z</time>
      </trkpt>
      <trkpt lat="45.28244" lon="6.78051">
        <ele>2452.4883</ele>
        <time>2015-08-26T11:08:19Z</time>
      </trkpt>
      <trkpt lat="45.28245" lon="6.78049">
        <ele>2452.4883</ele>
        <time>2015-08-26T11:08:24Z</time>
      </trkpt>
      <trkpt lat="45.2825" lon="6.78034">
        <ele>2452.9128</ele>
        <time>2015-08-26T11:08:39Z</time>
      </trkpt>
      <trkpt lat="45.28251" lon="6.78031">
        <ele>2452.9128</ele>
        <time>2015-08-26T11:08:44Z</time>
      </trkpt>
      <trkpt lat="45.2825" lon="6.78031">
        <ele>2452.9128</ele>
        <time>2015-08-26T11:08:54Z</time>
      </trkpt>
      <trkpt lat="45.28249" lon="6.78028">
        <ele>2452.9128</ele>
        <time>2015-08-26T11:08:59Z</time>
      </trkpt>
      <trkpt lat="45.28251" lon="6.78017">
        <ele>2453.985</ele>
        <time>2015-08-26T11:09:09Z</time>
      </trkpt>
      <trkpt lat="45.28252" lon="6.7801">
        <ele>2453.985</ele>
        <time>2015-08-26T11:09:14Z</time>
      </trkpt>
      <trkpt lat="45.2825" lon="6.78003">
        <ele>2455.04</ele>
        <time>2015-08-26T11:09:24Z</time>
      </trkpt>
      <trkpt lat="45.2825" lon="6.78002">
        <ele>2455.04</ele>
        <time>2015-08-26T11:09:29Z</time>
      </trkpt>
      <trkpt lat="45.28249" lon="6.77994">
        <ele>2455.04</ele>
        <time>2015-08-26T11:09:39Z</time>
      </trkpt>
      <trkpt lat="45.28248" lon="6.77992">
        <ele>2455.04</ele>
        <time>2015-08-26T11:09:44Z</time>
      </trkpt>
      <trkpt lat="45.28249" lon="6.77985">
        <ele>2456.2825</ele>
        <time>2015-08-26T11:09:54Z</time>
      </trkpt>
      <trkpt lat="45.28248" lon="6.7798">
        <ele>2456.2825</ele>
        <time>2015-08-26T11:09:59Z</time>
      </trkpt>
      <trkpt lat="45.28247" lon="6.77975">
        <ele>2456.2825</ele>
        <time>2015-08-26T11:10:09Z</time>
      </trkpt>
      <trkpt lat="45.28246" lon="6.77972">
        <ele>2457.4407</ele>
        <time>2015-08-26T11:10:14Z</time>
      </trkpt>
      <trkpt lat="45.28243" lon="6.77967">
        <ele>2457.4407</ele>
        <time>2015-08-26T11:10:24Z</time>
      </trkpt>
      <trkpt lat="45.28241" lon="6.77964">
        <ele>2457.4407</ele>
        <time>2015-08-26T11:10:29Z</time>
      </trkpt>
      <trkpt lat="45.28237" lon="6.77958">
        <ele>2458.7239</ele>
        <time>2015-08-26T11:10:39Z</time>
      </trkpt>
      <trkpt lat="45.28236" lon="6.77955">
        <ele>2458.7239</ele>
        <time>2015-08-26T11:10:44Z</time>
      </trkpt>
      <trkpt lat="45.28232" lon="6.77954">
        <ele>2458.7239</ele>
        <time>2015-08-26T11:10:54Z</time>
      </trkpt>
      <trkpt lat="45.2823" lon="6.77951">
        <ele>2460.0522</ele>
        <time>2015-08-26T11:10:59Z</time>
      </trkpt>
      <trkpt lat="45.28228" lon="6.77944">
        <ele>2460.0522</ele>
        <time>2015-08-26T11:11:09Z</time>
      </trkpt>
      <trkpt lat="45.28228" lon="6.7794">
        <ele>2460.0522</ele>
        <time>2015-08-26T11:11:14Z</time>
      </trkpt>
      <trkpt lat="45.28228" lon="6.77933">
        <ele>2461.5671</ele>
        <time>2015-08-26T11:11:24Z</time>
      </trkpt>
      <trkpt lat="45.28227" lon="6.77926">
        <ele>2461.5671</ele>
        <time>2015-08-26T11:11:29Z</time>
      </trkpt>
      <trkpt lat="45.28223" lon="6.77911">
        <ele>2463.1545</ele>
        <time>2015-08-26T11:11:44Z</time>
      </trkpt>
      <trkpt lat="45.28223" lon="6.77908">
        <ele>2463.1545</ele>
        <time>2015-08-26T11:11:49Z</time>
      </trkpt>
      <trkpt lat="45.2822" lon="6.77904">
        <ele>2463.1545</ele>
        <time>2015-08-26T11:11:59Z</time>
      </trkpt>
      <trkpt lat="45.28219" lon="6.77901">
        <ele>2464.3623</ele>
        <time>2015-08-26T11:12:04Z</time>
      </trkpt>
      <trkpt lat="45.28212" lon="6.77893">
        <ele>2464.3623</ele>
        <time>2015-08-26T11:12:14Z</time>
      </trkpt>
      <trkpt lat="45.28209" lon="6.77888">
        <ele>2465.248</ele>
        <time>2015-08-26T11:12:19Z</time>
      </trkpt>
      <trkpt lat="45.28202" lon="6.77881">
        <ele>2465.248</ele>
        <time>2015-08-26T11:12:29Z</time>
      </trkpt>
      <trkpt lat="45.28198" lon="6.77876">
        <ele>2465.7363</ele>
        <time>2015-08-26T11:12:34Z</time>
      </trkpt>
      <trkpt lat="45.2819" lon="6.77866">
        <ele>2465.9458</ele>
        <time>2015-08-26T11:12:44Z</time>
      </trkpt>
      <trkpt lat="45.28188" lon="6.77863">
        <ele>2465.9458</ele>
        <time>2015-08-26T11:12:49Z</time>
      </trkpt>
      <trkpt lat="45.28181" lon="6.77855">
        <ele>2465.8286</ele>
        <time>2015-08-26T11:12:59Z</time>
      </trkpt>
      <trkpt lat="45.28179" lon="6.77849">
        <ele>2465.8286</ele>
        <time>2015-08-26T11:13:04Z</time>
      </trkpt>
      <trkpt lat="45.28177" lon="6.77843">
        <ele>2465.4849</ele>
        <time>2015-08-26T11:13:14Z</time>
      </trkpt>
      <trkpt lat="45.28175" lon="6.77837">
        <ele>2465.4849</ele>
        <time>2015-08-26T11:13:19Z</time>
      </trkpt>
      <trkpt lat="45.28166" lon="6.77826">
        <ele>2464.9797</ele>
        <time>2015-08-26T11:13:34Z</time>
      </trkpt>
      <trkpt lat="45.28165" lon="6.77823">
        <ele>2464.9797</ele>
        <time>2015-08-26T11:13:39Z</time>
      </trkpt>
      <trkpt lat="45.28161" lon="6.77821">
        <ele>2464.9797</ele>
        <time>2015-08-26T11:13:49Z</time>
      </trkpt>
      <trkpt lat="45.28158" lon="6.77818">
        <ele>2464.4602</ele>
        <time>2015-08-26T11:13:54Z</time>
      </trkpt>
      <trkpt lat="45.28154" lon="6.77814">
        <ele>2464.4602</ele>
        <time>2015-08-26T11:14:04Z</time>
      </trkpt>
      <trkpt lat="45.28153" lon="6.77815">
        <ele>2464.4602</ele>
        <time>2015-08-26T11:14:09Z</time>
      </trkpt>
      <trkpt lat="45.28148" lon="6.77811">
        <ele>2464.206</ele>
        <time>2015-08-26T11:14:19Z</time>
      </trkpt>
      <trkpt lat="45.28146" lon="6.77809">
        <ele>2464.206</ele>
        <time>2015-08-26T11:14:24Z</time>
      </trkpt>
      <trkpt lat="45.2814" lon="6.77805">
        <ele>2464.0295</ele>
        <time>2015-08-26T11:14:34Z</time>
      </trkpt>
      <trkpt lat="45.28139" lon="6.77801">
        <ele>2464.0295</ele>
        <time>2015-08-26T11:14:39Z</time>
      </trkpt>
      <trkpt lat="45.28136" lon="6.77796">
        <ele>2464.0295</ele>
        <time>2015-08-26T11:14:49Z</time>
      </trkpt>
      <trkpt lat="45.28133" lon="6.77795">
        <ele>2463.7847</ele>
        <time>2015-08-26T11:14:54Z</time>
      </trkpt>
      <trkpt lat="45.28132" lon="6.77792">
        <ele>2463.7847</ele>
        <time>2015-08-26T11:15:04Z</time>
      </trkpt>
      <trkpt lat="45.28127" lon="6.77787">
        <ele>2463.654</ele>
        <time>2015-08-26T11:15:09Z</time>
      </trkpt>
      <trkpt lat="45.28119" lon="6.7778">
        <ele>2463.654</ele>
        <time>2015-08-26T11:15:19Z</time>
      </trkpt>
      <trkpt lat="45.28117" lon="6.77777">
        <ele>2463.3877</ele>
        <time>2015-08-26T11:15:24Z</time>
      </trkpt>
      <trkpt lat="45.28115" lon="6.77767">
        <ele>2463.3877</ele>
        <time>2015-08-26T11:15:34Z</time>
      </trkpt>
      <trkpt lat="45.28112" lon="6.77763">
        <ele>2463.187</ele>
        <time>2015-08-26T11:15:39Z</time>
      </trkpt>
      <trkpt lat="45.28108" lon="6.77755">
        <ele>2463.187</ele>
        <time>2015-08-26T11:15:49Z</time>
      </trkpt>
      <trkpt lat="45.28108" lon="6.77748">
        <ele>2462.95</ele>
        <time>2015-08-26T11:15:54Z</time>
      </trkpt>
      <trkpt lat="45.28105" lon="6.77739">
        <ele>2462.95</ele>
        <time>2015-08-26T11:16:09Z</time>
      </trkpt>
      <trkpt lat="45.28104" lon="6.77736">
        <ele>2463</ele>
        <time>2015-08-26T11:16:14Z</time>
      </trkpt>
      <trkpt lat="45.28101" lon="6.7773">
        <ele>2463</ele>
        <time>2015-08-26T11:16:24Z</time>
      </trkpt>
      <trkpt lat="45.281" lon="6.77728">
        <ele>2463</ele>
        <time>2015-08-26T11:16:29Z</time>
      </trkpt>
      <trkpt lat="45.28096" lon="6.7772">
        <ele>2463.5205</ele>
        <time>2015-08-26T11:16:39Z</time>
      </trkpt>
      <trkpt lat="45.28094" lon="6.77717">
        <ele>2463.5205</ele>
        <time>2015-08-26T11:16:44Z</time>
      </trkpt>
      <trkpt lat="45.28092" lon="6.77712">
        <ele>2463.5205</ele>
        <time>2015-08-26T11:16:54Z</time>
      </trkpt>
      <trkpt lat="45.28089" lon="6.77709">
        <ele>2464.2188</ele>
        <time>2015-08-26T11:16:59Z</time>
      </trkpt>
      <trkpt lat="45.28084" lon="6.77703">
        <ele>2464.2188</ele>
        <time>2015-08-26T11:17:09Z</time>
      </trkpt>
      <trkpt lat="45.28079" lon="6.777">
        <ele>2465.039</ele>
        <time>2015-08-26T11:17:14Z</time>
      </trkpt>
      <trkpt lat="45.28073" lon="6.77696">
        <ele>2465.039</ele>
        <time>2015-08-26T11:17:24Z</time>
      </trkpt>
      <trkpt lat="45.2807" lon="6.77695">
        <ele>2465.8718</ele>
        <time>2015-08-26T11:17:29Z</time>
      </trkpt>
      <trkpt lat="45.28063" lon="6.7769">
        <ele>2465.8718</ele>
        <time>2015-08-26T11:17:39Z</time>
      </trkpt>
      <trkpt lat="45.28059" lon="6.77686">
        <ele>2466.8171</ele>
        <time>2015-08-26T11:17:44Z</time>
      </trkpt>
      <trkpt lat="45.28053" lon="6.77668">
        <ele>2467.7078</ele>
        <time>2015-08-26T11:17:59Z</time>
      </trkpt>
      <trkpt lat="45.28048" lon="6.77663">
        <ele>2467.7078</ele>
        <time>2015-08-26T11:18:04Z</time>
      </trkpt>
      <trkpt lat="45.28041" lon="6.77655">
        <ele>2468.634</ele>
        <time>2015-08-26T11:18:14Z</time>
      </trkpt>
      <trkpt lat="45.28038" lon="6.77651">
        <ele>2468.634</ele>
        <time>2015-08-26T11:18:19Z</time>
      </trkpt>
      <trkpt lat="45.28032" lon="6.77642">
        <ele>2469.3767</ele>
        <time>2015-08-26T11:18:29Z</time>
      </trkpt>
      <trkpt lat="45.2803" lon="6.77634">
        <ele>2469.3767</ele>
        <time>2015-08-26T11:18:34Z</time>
      </trkpt>
      <trkpt lat="45.28025" lon="6.77631">
        <ele>2470.122</ele>
        <time>2015-08-26T11:18:44Z</time>
      </trkpt>
      <trkpt lat="45.28024" lon="6.77628">
        <ele>2470.122</ele>
        <time>2015-08-26T11:18:49Z</time>
      </trkpt>
      <trkpt lat="45.28013" lon="6.7762">
        <ele>2470.8267</ele>
        <time>2015-08-26T11:18:59Z</time>
      </trkpt>
      <trkpt lat="45.28008" lon="6.77617">
        <ele>2470.8267</ele>
        <time>2015-08-26T11:19:04Z</time>
      </trkpt>
      <trkpt lat="45.28002" lon="6.77611">
        <ele>2471.306</ele>
        <time>2015-08-26T11:19:14Z</time>
      </trkpt>
      <trkpt lat="45.27999" lon="6.77609">
        <ele>2471.306</ele>
        <time>2015-08-26T11:19:19Z</time>
      </trkpt>
      <trkpt lat="45.2799" lon="6.77608">
        <ele>2471.6924</ele>
        <time>2015-08-26T11:19:29Z</time>
      </trkpt>
      <trkpt lat="45.27987" lon="6.77603">
        <ele>2471.6924</ele>
        <time>2015-08-26T11:19:34Z</time>
      </trkpt>
      <trkpt lat="45.27979" lon="6.77592">
        <ele>2472.0513</ele>
        <time>2015-08-26T11:19:44Z</time>
      </trkpt>
      <trkpt lat="45.27976" lon="6.77587">
        <ele>2472.0513</ele>
        <time>2015-08-26T11:19:49Z</time>
      </trkpt>
      <trkpt lat="45.27964" lon="6.77581">
        <ele>2472.1836</ele>
        <time>2015-08-26T11:20:04Z</time>
      </trkpt>
      <trkpt lat="45.2796" lon="6.77576">
        <ele>2472.1836</ele>
        <time>2015-08-26T11:20:09Z</time>
      </trkpt>
      <trkpt lat="45.27945" lon="6.77568">
        <ele>2472.1794</ele>
        <time>2015-08-26T11:20:19Z</time>
      </trkpt>
      <trkpt lat="45.27941" lon="6.77565">
        <ele>2472.1794</ele>
        <time>2015-08-26T11:20:24Z</time>
      </trkpt>
      <trkpt lat="45.27934" lon="6.7756">
        <ele>2472.1511</ele>
        <time>2015-08-26T11:20:34Z</time>
      </trkpt>
      <trkpt lat="45.27931" lon="6.77557">
        <ele>2472.1511</ele>
        <time>2015-08-26T11:20:39Z</time>
      </trkpt>
      <trkpt lat="45.27921" lon="6.77548">
        <ele>2471.9724</ele>
        <time>2015-08-26T11:20:49Z</time>
      </trkpt>
      <trkpt lat="45.27918" lon="6.77545">
        <ele>2471.9724</ele>
        <time>2015-08-26T11:20:54Z</time>
      </trkpt>
      <trkpt lat="45.27917" lon="6.77542">
        <ele>2471.9724</ele>
        <time>2015-08-26T11:21:04Z</time>
      </trkpt>
      <trkpt lat="45.27912" lon="6.77539">
        <ele>2471.7288</ele>
        <time>2015-08-26T11:21:09Z</time>
      </trkpt>
      <trkpt lat="45.27904" lon="6.77533">
        <ele>2471.3115</ele>
        <time>2015-08-26T11:21:19Z</time>
      </trkpt>
      <trkpt lat="45.279" lon="6.77529">
        <ele>2471.3115</ele>
        <time>2015-08-26T11:21:24Z</time>
      </trkpt>
      <trkpt lat="45.27898" lon="6.77524">
        <ele>2471.3115</ele>
        <time>2015-08-26T11:21:34Z</time>
      </trkpt>
      <trkpt lat="45.27897" lon="6.77521">
        <ele>2470.9958</ele>
        <time>2015-08-26T11:21:39Z</time>
      </trkpt>
      <trkpt lat="45.27888" lon="6.77515">
        <ele>2470.6318</ele>
        <time>2015-08-26T11:21:49Z</time>
      </trkpt>
      <trkpt lat="45.27884" lon="6.77512">
        <ele>2470.6318</ele>
        <time>2015-08-26T11:21:54Z</time>
      </trkpt>
      <trkpt lat="45.27876" lon="6.77505">
        <ele>2470.197</ele>
        <time>2015-08-26T11:22:09Z</time>
      </trkpt>
      <trkpt lat="45.27873" lon="6.77504">
        <ele>2470.197</ele>
        <time>2015-08-26T11:22:14Z</time>
      </trkpt>
      <trkpt lat="45.27868" lon="6.77499">
        <ele>2469.6558</ele>
        <time>2015-08-26T11:22:24Z</time>
      </trkpt>
      <trkpt lat="45.27867" lon="6.77495">
        <ele>2469.6558</ele>
        <time>2015-08-26T11:22:29Z</time>
      </trkpt>
      <trkpt lat="45.27863" lon="6.77481">
        <ele>2469.0327</ele>
        <time>2015-08-26T11:22:39Z</time>
      </trkpt>
      <trkpt lat="45.27863" lon="6.77478">
        <ele>2469.0327</ele>
        <time>2015-08-26T11:22:44Z</time>
      </trkpt>
      <trkpt lat="45.27861" lon="6.77472">
        <ele>2469.0327</ele>
        <time>2015-08-26T11:22:54Z</time>
      </trkpt>
      <trkpt lat="45.27859" lon="6.77468">
        <ele>2468.582</ele>
        <time>2015-08-26T11:22:59Z</time>
      </trkpt>
      <trkpt lat="45.27857" lon="6.77454">
        <ele>2468.2786</ele>
        <time>2015-08-26T11:23:09Z</time>
      </trkpt>
      <trkpt lat="45.27856" lon="6.77449">
        <ele>2468.2786</ele>
        <time>2015-08-26T11:23:14Z</time>
      </trkpt>
      <trkpt lat="45.27852" lon="6.77443">
        <ele>2468.0706</ele>
        <time>2015-08-26T11:23:24Z</time>
      </trkpt>
      <trkpt lat="45.27852" lon="6.77443">
        <ele>2468.0706</ele>
        <time>2015-08-26T11:23:29Z</time>
      </trkpt>
      <trkpt lat="45.27852" lon="6.77442">
        <ele>2468.0706</ele>
        <time>2015-08-26T11:23:59Z</time>
      </trkpt>
      <trkpt lat="45.27847" lon="6.77433">
        <ele>2468.0706</ele>
        <time>2015-08-26T11:24:14Z</time>
      </trkpt>
      <trkpt lat="45.27843" lon="6.77427">
        <ele>2467.88</ele>
        <time>2015-08-26T11:24:19Z</time>
      </trkpt>
      <trkpt lat="45.27837" lon="6.77422">
        <ele>2467.88</ele>
        <time>2015-08-26T11:24:29Z</time>
      </trkpt>
      <trkpt lat="45.27832" lon="6.77418">
        <ele>2467.5774</ele>
        <time>2015-08-26T11:24:34Z</time>
      </trkpt>
      <trkpt lat="45.27826" lon="6.77413">
        <ele>2467.5774</ele>
        <time>2015-08-26T11:24:44Z</time>
      </trkpt>
      <trkpt lat="45.27822" lon="6.7741">
        <ele>2467.1438</ele>
        <time>2015-08-26T11:24:49Z</time>
      </trkpt>
      <trkpt lat="45.27815" lon="6.77404">
        <ele>2467.1438</ele>
        <time>2015-08-26T11:24:59Z</time>
      </trkpt>
      <trkpt lat="45.27812" lon="6.774">
        <ele>2466.5042</ele>
        <time>2015-08-26T11:25:04Z</time>
      </trkpt>
      <trkpt lat="45.27808" lon="6.77394">
        <ele>2466.5042</ele>
        <time>2015-08-26T11:25:14Z</time>
      </trkpt>
      <trkpt lat="45.27804" lon="6.77389">
        <ele>2465.8489</ele>
        <time>2015-08-26T11:25:19Z</time>
      </trkpt>
      <trkpt lat="45.27796" lon="6.77385">
        <ele>2465.8489</ele>
        <time>2015-08-26T11:25:29Z</time>
      </trkpt>
      <trkpt lat="45.27793" lon="6.77382">
        <ele>2465.095</ele>
        <time>2015-08-26T11:25:34Z</time>
      </trkpt>
      <trkpt lat="45.27782" lon="6.77372">
        <ele>2464.1948</ele>
        <time>2015-08-26T11:25:49Z</time>
      </trkpt>
      <trkpt lat="45.27778" lon="6.77367">
        <ele>2464.1948</ele>
        <time>2015-08-26T11:25:54Z</time>
      </trkpt>
      <trkpt lat="45.27773" lon="6.77359">
        <ele>2463.1619</ele>
        <time>2015-08-26T11:26:04Z</time>
      </trkpt>
      <trkpt lat="45.27773" lon="6.77359">
        <ele>2463.1619</ele>
        <time>2015-08-26T11:26:09Z</time>
      </trkpt>
      <trkpt lat="45.2777" lon="6.7736">
        <ele>2463.1619</ele>
        <time>2015-08-26T11:26:19Z</time>
      </trkpt>
      <trkpt lat="45.2777" lon="6.77358">
        <ele>2463.1619</ele>
        <time>2015-08-26T11:26:24Z</time>
      </trkpt>
      <trkpt lat="45.27766" lon="6.77353">
        <ele>2462.153</ele>
        <time>2015-08-26T11:26:34Z</time>
      </trkpt>
      <trkpt lat="45.27762" lon="6.77351">
        <ele>2462.153</ele>
        <time>2015-08-26T11:26:39Z</time>
      </trkpt>
      <trkpt lat="45.27757" lon="6.77345">
        <ele>2461.242</ele>
        <time>2015-08-26T11:26:49Z</time>
      </trkpt>
      <trkpt lat="45.27754" lon="6.77339">
        <ele>2461.242</ele>
        <time>2015-08-26T11:26:54Z</time>
      </trkpt>
      <trkpt lat="45.27749" lon="6.77332">
        <ele>2459.977</ele>
        <time>2015-08-26T11:27:04Z</time>
      </trkpt>
      <trkpt lat="45.27747" lon="6.77331">
        <ele>2459.977</ele>
        <time>2015-08-26T11:27:09Z</time>
      </trkpt>
      <trkpt lat="45.27745" lon="6.77337">
        <ele>2459.977</ele>
        <time>2015-08-26T11:27:19Z</time>
      </trkpt>
      <trkpt lat="45.27747" lon="6.77341">
        <ele>2458.7197</ele>
        <time>2015-08-26T11:27:24Z</time>
      </trkpt>
      <trkpt lat="45.2775" lon="6.77355">
        <ele>2457.4148</ele>
        <time>2015-08-26T11:27:39Z</time>
      </trkpt>
      <trkpt lat="45.27749" lon="6.77355">
        <ele>2457.4148</ele>
        <time>2015-08-26T11:27:44Z</time>
      </trkpt>
      <trkpt lat="45.27745" lon="6.77352">
        <ele>2457.4148</ele>
        <time>2015-08-26T11:27:54Z</time>
      </trkpt>
      <trkpt lat="45.27743" lon="6.7735">
        <ele>2457.4148</ele>
        <time>2015-08-26T11:27:59Z</time>
      </trkpt>
      <trkpt lat="45.27739" lon="6.77344">
        <ele>2455.6658</ele>
        <time>2015-08-26T11:28:09Z</time>
      </trkpt>
      <trkpt lat="45.27737" lon="6.77341">
        <ele>2455.6658</ele>
        <time>2015-08-26T11:28:14Z</time>
      </trkpt>
      <trkpt lat="45.27736" lon="6.7733">
        <ele>2453.9138</ele>
        <time>2015-08-26T11:28:24Z</time>
      </trkpt>
      <trkpt lat="45.27735" lon="6.77326">
        <ele>2453.9138</ele>
        <time>2015-08-26T11:28:29Z</time>
      </trkpt>
      <trkpt lat="45.27733" lon="6.77316">
        <ele>2452.567</ele>
        <time>2015-08-26T11:28:39Z</time>
      </trkpt>
      <trkpt lat="45.27732" lon="6.77313">
        <ele>2452.567</ele>
        <time>2015-08-26T11:28:44Z</time>
      </trkpt>
      <trkpt lat="45.27729" lon="6.77304">
        <ele>2451.5986</ele>
        <time>2015-08-26T11:28:54Z</time>
      </trkpt>
      <trkpt lat="45.27727" lon="6.77301">
        <ele>2451.5986</ele>
        <time>2015-08-26T11:28:59Z</time>
      </trkpt>
      <trkpt lat="45.27724" lon="6.77293">
        <ele>2451.5986</ele>
        <time>2015-08-26T11:29:09Z</time>
      </trkpt>
      <trkpt lat="45.27721" lon="6.7729">
        <ele>2450.5942</ele>
        <time>2015-08-26T11:29:14Z</time>
      </trkpt>
      <trkpt lat="45.27716" lon="6.77276">
        <ele>2449.6304</ele>
        <time>2015-08-26T11:29:24Z</time>
      </trkpt>
      <trkpt lat="45.27713" lon="6.77271">
        <ele>2449.6304</ele>
        <time>2015-08-26T11:29:29Z</time>
      </trkpt>
      <trkpt lat="45.27705" lon="6.77267">
        <ele>2448.4468</ele>
        <time>2015-08-26T11:29:39Z</time>
      </trkpt>
      <trkpt lat="45.27701" lon="6.77264">
        <ele>2448.4468</ele>
        <time>2015-08-26T11:29:44Z</time>
      </trkpt>
      <trkpt lat="45.27693" lon="6.77253">
        <ele>2447.206</ele>
        <time>2015-08-26T11:29:54Z</time>
      </trkpt>
      <trkpt lat="45.2769" lon="6.77247">
        <ele>2447.206</ele>
        <time>2015-08-26T11:29:59Z</time>
      </trkpt>
      <trkpt lat="45.27682" lon="6.77238">
        <ele>2445.8716</ele>
        <time>2015-08-26T11:30:14Z</time>
      </trkpt>
      <trkpt lat="45.2768" lon="6.77236">
        <ele>2445.8716</ele>
        <time>2015-08-26T11:30:19Z</time>
      </trkpt>
      <trkpt lat="45.27675" lon="6.77229">
        <ele>2444.3809</ele>
        <time>2015-08-26T11:30:29Z</time>
      </trkpt>
      <trkpt lat="45.2767" lon="6.77227">
        <ele>2444.3809</ele>
        <time>2015-08-26T11:30:34Z</time>
      </trkpt>
      <trkpt lat="45.27664" lon="6.77222">
        <ele>2442.9358</ele>
        <time>2015-08-26T11:30:44Z</time>
      </trkpt>
      <trkpt lat="45.27661" lon="6.77216">
        <ele>2442.9358</ele>
        <time>2015-08-26T11:30:49Z</time>
      </trkpt>
      <trkpt lat="45.27658" lon="6.77208">
        <ele>2441.8237</ele>
        <time>2015-08-26T11:30:59Z</time>
      </trkpt>
      <trkpt lat="45.27657" lon="6.77201">
        <ele>2441.8237</ele>
        <time>2015-08-26T11:31:04Z</time>
      </trkpt>
      <trkpt lat="45.27654" lon="6.77197">
        <ele>2441.8237</ele>
        <time>2015-08-26T11:31:14Z</time>
      </trkpt>
      <trkpt lat="45.27653" lon="6.77191">
        <ele>2440.6616</ele>
        <time>2015-08-26T11:31:19Z</time>
      </trkpt>
      <trkpt lat="45.2765" lon="6.77186">
        <ele>2440.6616</ele>
        <time>2015-08-26T11:31:29Z</time>
      </trkpt>
      <trkpt lat="45.27648" lon="6.77184">
        <ele>2440.6616</ele>
        <time>2015-08-26T11:31:34Z</time>
      </trkpt>
      <trkpt lat="45.27643" lon="6.77178">
        <ele>2439.224</ele>
        <time>2015-08-26T11:31:44Z</time>
      </trkpt>
      <trkpt lat="45.27641" lon="6.77176">
        <ele>2439.224</ele>
        <time>2015-08-26T11:31:49Z</time>
      </trkpt>
      <trkpt lat="45.27633" lon="6.77171">
        <ele>2437.9524</ele>
        <time>2015-08-26T11:31:59Z</time>
      </trkpt>
      <trkpt lat="45.27627" lon="6.77166">
        <ele>2437.9524</ele>
        <time>2015-08-26T11:32:04Z</time>
      </trkpt>
      <trkpt lat="45.27617" lon="6.77153">
        <ele>2436.8066</ele>
        <time>2015-08-26T11:32:19Z</time>
      </trkpt>
      <trkpt lat="45.27615" lon="6.77147">
        <ele>2436.8066</ele>
        <time>2015-08-26T11:32:24Z</time>
      </trkpt>
      <trkpt lat="45.2761" lon="6.77141">
        <ele>2435.8657</ele>
        <time>2015-08-26T11:32:34Z</time>
      </trkpt>
      <trkpt lat="45.27605" lon="6.77138">
        <ele>2435.8657</ele>
        <time>2015-08-26T11:32:39Z</time>
      </trkpt>
      <trkpt lat="45.27601" lon="6.7713">
        <ele>2435</ele>
        <time>2015-08-26T11:32:49Z</time>
      </trkpt>
      <trkpt lat="45.27599" lon="6.77128">
        <ele>2435</ele>
        <time>2015-08-26T11:32:54Z</time>
      </trkpt>
      <trkpt lat="45.27597" lon="6.7712">
        <ele>2435</ele>
        <time>2015-08-26T11:33:04Z</time>
      </trkpt>
      <trkpt lat="45.27597" lon="6.7712">
        <ele>2435</ele>
        <time>2015-08-26T11:33:09Z</time>
      </trkpt>
      <trkpt lat="45.27597" lon="6.7712">
        <ele>2435</ele>
        <time>2015-08-26T11:33:49Z</time>
      </trkpt>
      <trkpt lat="45.27596" lon="6.77114">
        <ele>2433.1667</ele>
        <time>2015-08-26T11:33:54Z</time>
      </trkpt>
      <trkpt lat="45.27591" lon="6.77098">
        <ele>2430.9731</ele>
        <time>2015-08-26T11:34:09Z</time>
      </trkpt>
      <trkpt lat="45.27586" lon="6.77092">
        <ele>2430.9731</ele>
        <time>2015-08-26T11:34:14Z</time>
      </trkpt>
      <trkpt lat="45.2758" lon="6.77084">
        <ele>2428.4067</ele>
        <time>2015-08-26T11:34:24Z</time>
      </trkpt>
      <trkpt lat="45.27577" lon="6.77079">
        <ele>2428.4067</ele>
        <time>2015-08-26T11:34:29Z</time>
      </trkpt>
      <trkpt lat="45.27572" lon="6.7707">
        <ele>2425.5283</ele>
        <time>2015-08-26T11:34:39Z</time>
      </trkpt>
      <trkpt lat="45.27567" lon="6.77066">
        <ele>2425.5283</ele>
        <time>2015-08-26T11:34:44Z</time>
      </trkpt>
      <trkpt lat="45.27564" lon="6.77059">
        <ele>2422.3809</ele>
        <time>2015-08-26T11:34:54Z</time>
      </trkpt>
      <trkpt lat="45.2756" lon="6.77057">
        <ele>2422.3809</ele>
        <time>2015-08-26T11:34:59Z</time>
      </trkpt>
      <trkpt lat="45.27563" lon="6.77046">
        <ele>2419.2932</ele>
        <time>2015-08-26T11:35:09Z</time>
      </trkpt>
      <trkpt lat="45.27563" lon="6.77046">
        <ele>2419.2932</ele>
        <time>2015-08-26T11:35:14Z</time>
      </trkpt>
      <trkpt lat="45.27561" lon="6.77047">
        <ele>2419.2932</ele>
        <time>2015-08-26T11:35:29Z</time>
      </trkpt>
      <trkpt lat="45.2755" lon="6.77039">
        <ele>2415.878</ele>
        <time>2015-08-26T11:35:39Z</time>
      </trkpt>
      <trkpt lat="45.27547" lon="6.77032">
        <ele>2415.878</ele>
        <time>2015-08-26T11:35:44Z</time>
      </trkpt>
      <trkpt lat="45.27541" lon="6.77018">
        <ele>2413.42</ele>
        <time>2015-08-26T11:35:54Z</time>
      </trkpt>
      <trkpt lat="45.27538" lon="6.77016">
        <ele>2413.42</ele>
        <time>2015-08-26T11:35:59Z</time>
      </trkpt>
      <trkpt lat="45.27524" lon="6.77014">
        <ele>2411.2039</ele>
        <time>2015-08-26T11:36:09Z</time>
      </trkpt>
      <trkpt lat="45.2752" lon="6.7701">
        <ele>2411.2039</ele>
        <time>2015-08-26T11:36:14Z</time>
      </trkpt>
      <trkpt lat="45.27512" lon="6.77004">
        <ele>2409.0857</ele>
        <time>2015-08-26T11:36:24Z</time>
      </trkpt>
      <trkpt lat="45.27508" lon="6.77003">
        <ele>2409.0857</ele>
        <time>2015-08-26T11:36:29Z</time>
      </trkpt>
      <trkpt lat="45.27504" lon="6.76995">
        <ele>2407.1042</ele>
        <time>2015-08-26T11:36:39Z</time>
      </trkpt>
      <trkpt lat="45.27501" lon="6.76991">
        <ele>2407.1042</ele>
        <time>2015-08-26T11:36:44Z</time>
      </trkpt>
      <trkpt lat="45.27492" lon="6.7698">
        <ele>2405.108</ele>
        <time>2015-08-26T11:36:59Z</time>
      </trkpt>
      <trkpt lat="45.27489" lon="6.76977">
        <ele>2405.108</ele>
        <time>2015-08-26T11:37:04Z</time>
      </trkpt>
      <trkpt lat="45.27483" lon="6.76965">
        <ele>2403.2722</ele>
        <time>2015-08-26T11:37:14Z</time>
      </trkpt>
      <trkpt lat="45.27478" lon="6.76958">
        <ele>2403.2722</ele>
        <time>2015-08-26T11:37:19Z</time>
      </trkpt>
      <trkpt lat="45.2747" lon="6.76952">
        <ele>2401.6165</ele>
        <time>2015-08-26T11:37:29Z</time>
      </trkpt>
      <trkpt lat="45.27464" lon="6.76952">
        <ele>2401.6165</ele>
        <time>2015-08-26T11:37:34Z</time>
      </trkpt>
      <trkpt lat="45.27458" lon="6.76954">
        <ele>2400.5315</ele>
        <time>2015-08-26T11:37:44Z</time>
      </trkpt>
      <trkpt lat="45.27455" lon="6.76949">
        <ele>2400.5315</ele>
        <time>2015-08-26T11:37:49Z</time>
      </trkpt>
      <trkpt lat="45.27451" lon="6.7694">
        <ele>2399.5278</ele>
        <time>2015-08-26T11:37:59Z</time>
      </trkpt>
      <trkpt lat="45.27446" lon="6.76938">
        <ele>2399.5278</ele>
        <time>2015-08-26T11:38:04Z</time>
      </trkpt>
      <trkpt lat="45.27438" lon="6.76934">
        <ele>2398.5266</ele>
        <time>2015-08-26T11:38:14Z</time>
      </trkpt>
      <trkpt lat="45.27434" lon="6.76932">
        <ele>2398.5266</ele>
        <time>2015-08-26T11:38:19Z</time>
      </trkpt>
      <trkpt lat="45.27427" lon="6.76932">
        <ele>2397.3247</ele>
        <time>2015-08-26T11:38:29Z</time>
      </trkpt>
      <trkpt lat="45.27426" lon="6.76932">
        <ele>2397.3247</ele>
        <time>2015-08-26T11:38:34Z</time>
      </trkpt>
      <trkpt lat="45.27414" lon="6.76933">
        <ele>2395.9646</ele>
        <time>2015-08-26T11:38:49Z</time>
      </trkpt>
      <trkpt lat="45.27412" lon="6.76933">
        <ele>2395.9646</ele>
        <time>2015-08-26T11:38:54Z</time>
      </trkpt>
      <trkpt lat="45.27404" lon="6.76929">
        <ele>2394.775</ele>
        <time>2015-08-26T11:39:04Z</time>
      </trkpt>
      <trkpt lat="45.27401" lon="6.76929">
        <ele>2394.775</ele>
        <time>2015-08-26T11:39:09Z</time>
      </trkpt>
      <trkpt lat="45.27393" lon="6.76933">
        <ele>2393.7998</ele>
        <time>2015-08-26T11:39:19Z</time>
      </trkpt>
      <trkpt lat="45.2739" lon="6.76934">
        <ele>2393.7998</ele>
        <time>2015-08-26T11:39:24Z</time>
      </trkpt>
      <trkpt lat="45.27385" lon="6.76937">
        <ele>2393.2236</ele>
        <time>2015-08-26T11:39:34Z</time>
      </trkpt>
      <trkpt lat="45.2738" lon="6.76937">
        <ele>2393.2236</ele>
        <time>2015-08-26T11:39:39Z</time>
      </trkpt>
      <trkpt lat="45.2737" lon="6.76941">
        <ele>2392.928</ele>
        <time>2015-08-26T11:39:49Z</time>
      </trkpt>
      <trkpt lat="45.27368" lon="6.76942">
        <ele>2392.928</ele>
        <time>2015-08-26T11:39:54Z</time>
      </trkpt>
      <trkpt lat="45.27363" lon="6.76945">
        <ele>2392.928</ele>
        <time>2015-08-26T11:40:04Z</time>
      </trkpt>
      <trkpt lat="45.27359" lon="6.76947">
        <ele>2392.3987</ele>
        <time>2015-08-26T11:40:09Z</time>
      </trkpt>
      <trkpt lat="45.27352" lon="6.76955">
        <ele>2391.7654</ele>
        <time>2015-08-26T11:40:19Z</time>
      </trkpt>
      <trkpt lat="45.27348" lon="6.7696">
        <ele>2391.7654</ele>
        <time>2015-08-26T11:40:24Z</time>
      </trkpt>
      <trkpt lat="45.27339" lon="6.7698">
        <ele>2390.7156</ele>
        <time>2015-08-26T11:40:39Z</time>
      </trkpt>
      <trkpt lat="45.27335" lon="6.76981">
        <ele>2390.7156</ele>
        <time>2015-08-26T11:40:44Z</time>
      </trkpt>
      <trkpt lat="45.27327" lon="6.76987">
        <ele>2389.5527</ele>
        <time>2015-08-26T11:40:54Z</time>
      </trkpt>
      <trkpt lat="45.27322" lon="6.76992">
        <ele>2389.5527</ele>
        <time>2015-08-26T11:40:59Z</time>
      </trkpt>
      <trkpt lat="45.27315" lon="6.76999">
        <ele>2388.2837</ele>
        <time>2015-08-26T11:41:09Z</time>
      </trkpt>
      <trkpt lat="45.2731" lon="6.77004">
        <ele>2388.2837</ele>
        <time>2015-08-26T11:41:14Z</time>
      </trkpt>
      <trkpt lat="45.27301" lon="6.77013">
        <ele>2386.8577</ele>
        <time>2015-08-26T11:41:24Z</time>
      </trkpt>
      <trkpt lat="45.27298" lon="6.77017">
        <ele>2386.8577</ele>
        <time>2015-08-26T11:41:29Z</time>
      </trkpt>
      <trkpt lat="45.27295" lon="6.77025">
        <ele>2385.3435</ele>
        <time>2015-08-26T11:41:39Z</time>
      </trkpt>
      <trkpt lat="45.27291" lon="6.77029">
        <ele>2385.3435</ele>
        <time>2015-08-26T11:41:44Z</time>
      </trkpt>
      <trkpt lat="45.27283" lon="6.77034">
        <ele>2383.632</ele>
        <time>2015-08-26T11:41:54Z</time>
      </trkpt>
      <trkpt lat="45.27279" lon="6.7704">
        <ele>2383.632</ele>
        <time>2015-08-26T11:41:59Z</time>
      </trkpt>
      <trkpt lat="45.27272" lon="6.77053">
        <ele>2381.7385</ele>
        <time>2015-08-26T11:42:09Z</time>
      </trkpt>
      <trkpt lat="45.27269" lon="6.77057">
        <ele>2381.7385</ele>
        <time>2015-08-26T11:42:14Z</time>
      </trkpt>
      <trkpt lat="45.27261" lon="6.77071">
        <ele>2379.749</ele>
        <time>2015-08-26T11:42:24Z</time>
      </trkpt>
      <trkpt lat="45.27257" lon="6.77074">
        <ele>2379.749</ele>
        <time>2015-08-26T11:42:29Z</time>
      </trkpt>
      <trkpt lat="45.27246" lon="6.77086">
        <ele>2377.4844</ele>
        <time>2015-08-26T11:42:44Z</time>
      </trkpt>
      <trkpt lat="45.27243" lon="6.77089">
        <ele>2377.4844</ele>
        <time>2015-08-26T11:42:49Z</time>
      </trkpt>
      <trkpt lat="45.27234" lon="6.77098">
        <ele>2375.3413</ele>
        <time>2015-08-26T11:42:59Z</time>
      </trkpt>
      <trkpt lat="45.27231" lon="6.77102">
        <ele>2375.3413</ele>
        <time>2015-08-26T11:43:04Z</time>
      </trkpt>
      <trkpt lat="45.27229" lon="6.77117">
        <ele>2373.4714</ele>
        <time>2015-08-26T11:43:14Z</time>
      </trkpt>
      <trkpt lat="45.27229" lon="6.77122">
        <ele>2373.4714</ele>
        <time>2015-08-26T11:43:19Z</time>
      </trkpt>
      <trkpt lat="45.27229" lon="6.77132">
        <ele>2371.725</ele>
        <time>2015-08-26T11:43:29Z</time>
      </trkpt>
      <trkpt lat="45.27228" lon="6.77141">
        <ele>2371.725</ele>
        <time>2015-08-26T11:43:34Z</time>
      </trkpt>
      <trkpt lat="45.27226" lon="6.77154">
        <ele>2370.3105</ele>
        <time>2015-08-26T11:43:44Z</time>
      </trkpt>
      <trkpt lat="45.27224" lon="6.77162">
        <ele>2370.3105</ele>
        <time>2015-08-26T11:43:49Z</time>
      </trkpt>
      <trkpt lat="45.27221" lon="6.7717">
        <ele>2368.972</ele>
        <time>2015-08-26T11:43:59Z</time>
      </trkpt>
      <trkpt lat="45.27219" lon="6.77174">
        <ele>2368.972</ele>
        <time>2015-08-26T11:44:04Z</time>
      </trkpt>
      <trkpt lat="45.2721" lon="6.77179">
        <ele>2367.6309</ele>
        <time>2015-08-26T11:44:14Z</time>
      </trkpt>
      <trkpt lat="45.27206" lon="6.77183">
        <ele>2367.6309</ele>
        <time>2015-08-26T11:44:19Z</time>
      </trkpt>
      <trkpt lat="45.27203" lon="6.7719">
        <ele>2366.532</ele>
        <time>2015-08-26T11:44:29Z</time>
      </trkpt>
      <trkpt lat="45.27202" lon="6.7719">
        <ele>2366.532</ele>
        <time>2015-08-26T11:44:34Z</time>
      </trkpt>
      <trkpt lat="45.27203" lon="6.77191">
        <ele>2366.532</ele>
        <time>2015-08-26T11:44:49Z</time>
      </trkpt>
      <trkpt lat="45.27202" lon="6.77194">
        <ele>2366.532</ele>
        <time>2015-08-26T11:44:54Z</time>
      </trkpt>
      <trkpt lat="45.27197" lon="6.77195">
        <ele>2365.5264</ele>
        <time>2015-08-26T11:45:04Z</time>
      </trkpt>
      <trkpt lat="45.27193" lon="6.772">
        <ele>2365.5264</ele>
        <time>2015-08-26T11:45:09Z</time>
      </trkpt>
      <trkpt lat="45.27189" lon="6.77212">
        <ele>2364.3027</ele>
        <time>2015-08-26T11:45:19Z</time>
      </trkpt>
      <trkpt lat="45.27187" lon="6.77219">
        <ele>2364.3027</ele>
        <time>2015-08-26T11:45:24Z</time>
      </trkpt>
      <trkpt lat="45.27181" lon="6.7723">
        <ele>2362.9336</ele>
        <time>2015-08-26T11:45:34Z</time>
      </trkpt>
      <trkpt lat="45.27179" lon="6.77235">
        <ele>2362.9336</ele>
        <time>2015-08-26T11:45:39Z</time>
      </trkpt>
      <trkpt lat="45.27171" lon="6.77246">
        <ele>2361.5015</ele>
        <time>2015-08-26T11:45:49Z</time>
      </trkpt>
      <trkpt lat="45.27167" lon="6.77247">
        <ele>2361.5015</ele>
        <time>2015-08-26T11:45:54Z</time>
      </trkpt>
      <trkpt lat="45.2716" lon="6.77259">
        <ele>2360.039</ele>
        <time>2015-08-26T11:46:04Z</time>
      </trkpt>
      <trkpt lat="45.27159" lon="6.77265">
        <ele>2360.039</ele>
        <time>2015-08-26T11:46:09Z</time>
      </trkpt>
      <trkpt lat="45.27156" lon="6.77274">
        <ele>2358.5193</ele>
        <time>2015-08-26T11:46:19Z</time>
      </trkpt>
      <trkpt lat="45.27154" lon="6.77281">
        <ele>2358.5193</ele>
        <time>2015-08-26T11:46:24Z</time>
      </trkpt>
      <trkpt lat="45.2715" lon="6.77306">
        <ele>2357.105</ele>
        <time>2015-08-26T11:46:39Z</time>
      </trkpt>
      <trkpt lat="45.2715" lon="6.77312">
        <ele>2357.105</ele>
        <time>2015-08-26T11:46:44Z</time>
      </trkpt>
      <trkpt lat="45.27147" lon="6.77325">
        <ele>2356.0186</ele>
        <time>2015-08-26T11:46:54Z</time>
      </trkpt>
      <trkpt lat="45.27144" lon="6.77329">
        <ele>2356.0186</ele>
        <time>2015-08-26T11:46:59Z</time>
      </trkpt>
      <trkpt lat="45.27143" lon="6.77338">
        <ele>2355.1765</ele>
        <time>2015-08-26T11:47:09Z</time>
      </trkpt>
      <trkpt lat="45.27142" lon="6.77341">
        <ele>2355.1765</ele>
        <time>2015-08-26T11:47:14Z</time>
      </trkpt>
      <trkpt lat="45.2714" lon="6.77351">
        <ele>2354.6023</ele>
        <time>2015-08-26T11:47:24Z</time>
      </trkpt>
      <trkpt lat="45.27141" lon="6.77358">
        <ele>2354.6023</ele>
        <time>2015-08-26T11:47:29Z</time>
      </trkpt>
      <trkpt lat="45.27142" lon="6.77366">
        <ele>2354.1006</ele>
        <time>2015-08-26T11:47:39Z</time>
      </trkpt>
      <trkpt lat="45.2714" lon="6.77373">
        <ele>2354.1006</ele>
        <time>2015-08-26T11:47:44Z</time>
      </trkpt>
      <trkpt lat="45.27143" lon="6.77383">
        <ele>2353.8645</ele>
        <time>2015-08-26T11:47:54Z</time>
      </trkpt>
      <trkpt lat="45.27143" lon="6.77387">
        <ele>2353.8645</ele>
        <time>2015-08-26T11:47:59Z</time>
      </trkpt>
      <trkpt lat="45.27144" lon="6.77393">
        <ele>2353.8645</ele>
        <time>2015-08-26T11:48:09Z</time>
      </trkpt>
      <trkpt lat="45.27144" lon="6.77395">
        <ele>2353.9292</ele>
        <time>2015-08-26T11:48:14Z</time>
      </trkpt>
      <trkpt lat="45.27146" lon="6.77404">
        <ele>2353.9292</ele>
        <time>2015-08-26T11:48:24Z</time>
      </trkpt>
      <trkpt lat="45.27145" lon="6.77407">
        <ele>2353.9292</ele>
        <time>2015-08-26T11:48:29Z</time>
      </trkpt>
      <trkpt lat="45.27143" lon="6.77415">
        <ele>2354.4114</ele>
        <time>2015-08-26T11:48:39Z</time>
      </trkpt>
      <trkpt lat="45.27142" lon="6.77421">
        <ele>2354.4114</ele>
        <time>2015-08-26T11:48:44Z</time>
      </trkpt>
      <trkpt lat="45.27141" lon="6.7743">
        <ele>2355.117</ele>
        <time>2015-08-26T11:48:54Z</time>
      </trkpt>
      <trkpt lat="45.2714" lon="6.77435">
        <ele>2355.117</ele>
        <time>2015-08-26T11:48:59Z</time>
      </trkpt>
      <trkpt lat="45.27137" lon="6.77442">
        <ele>2355.9797</ele>
        <time>2015-08-26T11:49:09Z</time>
      </trkpt>
      <trkpt lat="45.27136" lon="6.77443">
        <ele>2355.9797</ele>
        <time>2015-08-26T11:49:14Z</time>
      </trkpt>
      <trkpt lat="45.27133" lon="6.77449">
        <ele>2355.9797</ele>
        <time>2015-08-26T11:49:29Z</time>
      </trkpt>
      <trkpt lat="45.27133" lon="6.7745">
        <ele>2355.9797</ele>
        <time>2015-08-26T11:49:34Z</time>
      </trkpt>
      <trkpt lat="45.2713" lon="6.77453">
        <ele>2356.708</ele>
        <time>2015-08-26T11:49:44Z</time>
      </trkpt>
      <trkpt lat="45.27129" lon="6.77456">
        <ele>2356.708</ele>
        <time>2015-08-26T11:49:49Z</time>
      </trkpt>
      <trkpt lat="45.27125" lon="6.77464">
        <ele>2357.4785</ele>
        <time>2015-08-26T11:49:59Z</time>
      </trkpt>
      <trkpt lat="45.27123" lon="6.77466">
        <ele>2357.4785</ele>
        <time>2015-08-26T11:50:04Z</time>
      </trkpt>
      <trkpt lat="45.27122" lon="6.77466">
        <ele>2357.4785</ele>
        <time>2015-08-26T11:50:14Z</time>
      </trkpt>
      <trkpt lat="45.27122" lon="6.77468">
        <ele>2357.4785</ele>
        <time>2015-08-26T11:50:19Z</time>
      </trkpt>
      <trkpt lat="45.27125" lon="6.77468">
        <ele>2357.4785</ele>
        <time>2015-08-26T11:50:29Z</time>
      </trkpt>
      <trkpt lat="45.27124" lon="6.77465">
        <ele>2358.6423</ele>
        <time>2015-08-26T11:50:34Z</time>
      </trkpt>
      <trkpt lat="45.27124" lon="6.77463">
        <ele>2358.6423</ele>
        <time>2015-08-26T11:50:44Z</time>
      </trkpt>
      <trkpt lat="45.27124" lon="6.77463">
        <ele>2358.6423</ele>
        <time>2015-08-26T11:50:49Z</time>
      </trkpt>
      <trkpt lat="45.27126" lon="6.77463">
        <ele>2358.6423</ele>
        <time>2015-08-26T11:50:59Z</time>
      </trkpt>
      <trkpt lat="45.27127" lon="6.77466">
        <ele>2358.6423</ele>
        <time>2015-08-26T11:51:04Z</time>
      </trkpt>
      <trkpt lat="45.27127" lon="6.77466">
        <ele>2358.6423</ele>
        <time>2015-08-26T11:51:14Z</time>
      </trkpt>
      <trkpt lat="45.27128" lon="6.77466">
        <ele>2358.6423</ele>
        <time>2015-08-26T11:51:19Z</time>
      </trkpt>
      <trkpt lat="45.27124" lon="6.7746">
        <ele>2359.472</ele>
        <time>2015-08-26T11:51:34Z</time>
      </trkpt>
      <trkpt lat="45.27123" lon="6.7746">
        <ele>2359.472</ele>
        <time>2015-08-26T11:51:39Z</time>
      </trkpt>
      <trkpt lat="45.27124" lon="6.7746">
        <ele>2359.472</ele>
        <time>2015-08-26T11:51:49Z</time>
      </trkpt>
      <trkpt lat="45.27125" lon="6.77463">
        <ele>2359.472</ele>
        <time>2015-08-26T11:51:54Z</time>
      </trkpt>
      <trkpt lat="45.27127" lon="6.77466">
        <ele>2359.472</ele>
        <time>2015-08-26T11:52:04Z</time>
      </trkpt>
      <trkpt lat="45.27127" lon="6.77466">
        <ele>2359.472</ele>
        <time>2015-08-26T11:52:09Z</time>
      </trkpt>
      <trkpt lat="45.27128" lon="6.77467">
        <ele>2359.472</ele>
        <time>2015-08-26T11:52:19Z</time>
      </trkpt>
      <trkpt lat="45.27127" lon="6.77467">
        <ele>2360.2307</ele>
        <time>2015-08-26T11:52:24Z</time>
      </trkpt>
      <trkpt lat="45.27123" lon="6.77466">
        <ele>2360.2307</ele>
        <time>2015-08-26T11:52:34Z</time>
      </trkpt>
      <trkpt lat="45.2712" lon="6.77468">
        <ele>2360.2307</ele>
        <time>2015-08-26T11:52:39Z</time>
      </trkpt>
      <trkpt lat="45.27112" lon="6.77483">
        <ele>2361.0334</ele>
        <time>2015-08-26T11:52:49Z</time>
      </trkpt>
      <trkpt lat="45.2711" lon="6.77488">
        <ele>2361.0334</ele>
        <time>2015-08-26T11:52:54Z</time>
      </trkpt>
      <trkpt lat="45.27101" lon="6.77508">
        <ele>2362.0876</ele>
        <time>2015-08-26T11:53:09Z</time>
      </trkpt>
      <trkpt lat="45.27096" lon="6.77513">
        <ele>2362.0876</ele>
        <time>2015-08-26T11:53:14Z</time>
      </trkpt>
      <trkpt lat="45.27089" lon="6.77524">
        <ele>2363.4548</ele>
        <time>2015-08-26T11:53:24Z</time>
      </trkpt>
      <trkpt lat="45.27085" lon="6.77526">
        <ele>2363.4548</ele>
        <time>2015-08-26T11:53:29Z</time>
      </trkpt>
      <trkpt lat="45.27076" lon="6.77534">
        <ele>2365.0334</ele>
        <time>2015-08-26T11:53:39Z</time>
      </trkpt>
      <trkpt lat="45.27074" lon="6.77537">
        <ele>2365.0334</ele>
        <time>2015-08-26T11:53:44Z</time>
      </trkpt>
      <trkpt lat="45.27069" lon="6.77548">
        <ele>2366.5122</ele>
        <time>2015-08-26T11:53:54Z</time>
      </trkpt>
      <trkpt lat="45.27065" lon="6.77556">
        <ele>2366.5122</ele>
        <time>2015-08-26T11:53:59Z</time>
      </trkpt>
      <trkpt lat="45.27061" lon="6.77567">
        <ele>2367.7473</ele>
        <time>2015-08-26T11:54:09Z</time>
      </trkpt>
      <trkpt lat="45.27059" lon="6.77571">
        <ele>2367.7473</ele>
        <time>2015-08-26T11:54:14Z</time>
      </trkpt>
      <trkpt lat="45.27054" lon="6.77577">
        <ele>2368.6929</ele>
        <time>2015-08-26T11:54:24Z</time>
      </trkpt>
      <trkpt lat="45.27049" lon="6.77582">
        <ele>2368.6929</ele>
        <time>2015-08-26T11:54:29Z</time>
      </trkpt>
      <trkpt lat="45.27041" lon="6.7759">
        <ele>2369.4521</ele>
        <time>2015-08-26T11:54:39Z</time>
      </trkpt>
      <trkpt lat="45.27036" lon="6.77593">
        <ele>2369.4521</ele>
        <time>2015-08-26T11:54:44Z</time>
      </trkpt>
      <trkpt lat="45.27026" lon="6.77599">
        <ele>2370.1494</ele>
        <time>2015-08-26T11:54:54Z</time>
      </trkpt>
      <trkpt lat="45.27019" lon="6.77601">
        <ele>2370.1494</ele>
        <time>2015-08-26T11:54:59Z</time>
      </trkpt>
      <trkpt lat="45.2701" lon="6.77602">
        <ele>2371.1167</ele>
        <time>2015-08-26T11:55:09Z</time>
      </trkpt>
      <trkpt lat="45.27003" lon="6.77602">
        <ele>2371.1167</ele>
        <time>2015-08-26T11:55:14Z</time>
      </trkpt>
      <trkpt lat="45.26993" lon="6.77602">
        <ele>2372.0703</ele>
        <time>2015-08-26T11:55:24Z</time>
      </trkpt>
      <trkpt lat="45.26992" lon="6.77602">
        <ele>2372.0703</ele>
        <time>2015-08-26T11:55:29Z</time>
      </trkpt>
      <trkpt lat="45.26995" lon="6.77603">
        <ele>2372.0703</ele>
        <time>2015-08-26T11:55:44Z</time>
      </trkpt>
      <trkpt lat="45.26993" lon="6.77601">
        <ele>2372.0703</ele>
        <time>2015-08-26T11:55:49Z</time>
      </trkpt>
      <trkpt lat="45.26991" lon="6.77601">
        <ele>2372.0703</ele>
        <time>2015-08-26T11:55:59Z</time>
      </trkpt>
      <trkpt lat="45.26991" lon="6.77599">
        <ele>2372.0703</ele>
        <time>2015-08-26T11:56:04Z</time>
      </trkpt>
      <trkpt lat="45.26992" lon="6.77594">
        <ele>2372.9204</ele>
        <time>2015-08-26T11:56:14Z</time>
      </trkpt>
      <trkpt lat="45.26992" lon="6.77594">
        <ele>2372.9204</ele>
        <time>2015-08-26T11:56:19Z</time>
      </trkpt>
      <trkpt lat="45.26993" lon="6.77599">
        <ele>2372.9204</ele>
        <time>2015-08-26T11:56:29Z</time>
      </trkpt>
      <trkpt lat="45.26995" lon="6.776">
        <ele>2372.9204</ele>
        <time>2015-08-26T11:56:34Z</time>
      </trkpt>
      <trkpt lat="45.26993" lon="6.77599">
        <ele>2372.9204</ele>
        <time>2015-08-26T11:56:44Z</time>
      </trkpt>
      <trkpt lat="45.2699" lon="6.77596">
        <ele>2373.5125</ele>
        <time>2015-08-26T11:56:49Z</time>
      </trkpt>
      <trkpt lat="45.26982" lon="6.77586">
        <ele>2374.165</ele>
        <time>2015-08-26T11:56:59Z</time>
      </trkpt>
      <trkpt lat="45.26978" lon="6.77579">
        <ele>2374.165</ele>
        <time>2015-08-26T11:57:04Z</time>
      </trkpt>
      <trkpt lat="45.26968" lon="6.77575">
        <ele>2374.6975</ele>
        <time>2015-08-26T11:57:14Z</time>
      </trkpt>
      <trkpt lat="45.26963" lon="6.77571">
        <ele>2374.6975</ele>
        <time>2015-08-26T11:57:19Z</time>
      </trkpt>
      <trkpt lat="45.26954" lon="6.77565">
        <ele>2375.2896</ele>
        <time>2015-08-26T11:57:29Z</time>
      </trkpt>
      <trkpt lat="45.26949" lon="6.77564">
        <ele>2375.2896</ele>
        <time>2015-08-26T11:57:34Z</time>
      </trkpt>
      <trkpt lat="45.26943" lon="6.77559">
        <ele>2375.9775</ele>
        <time>2015-08-26T11:57:44Z</time>
      </trkpt>
      <trkpt lat="45.26939" lon="6.77556">
        <ele>2375.9775</ele>
        <time>2015-08-26T11:57:49Z</time>
      </trkpt>
      <trkpt lat="45.26927" lon="6.77543">
        <ele>2376.766</ele>
        <time>2015-08-26T11:58:04Z</time>
      </trkpt>
      <trkpt lat="45.26921" lon="6.77539">
        <ele>2376.766</ele>
        <time>2015-08-26T11:58:09Z</time>
      </trkpt>
      <trkpt lat="45.2691" lon="6.77535">
        <ele>2377.5735</ele>
        <time>2015-08-26T11:58:19Z</time>
      </trkpt>
      <trkpt lat="45.26905" lon="6.77534">
        <ele>2377.5735</ele>
        <time>2015-08-26T11:58:24Z</time>
      </trkpt>
      <trkpt lat="45.26897" lon="6.77531">
        <ele>2378.3232</ele>
        <time>2015-08-26T11:58:34Z</time>
      </trkpt>
      <trkpt lat="45.26893" lon="6.77529">
        <ele>2378.3232</ele>
        <time>2015-08-26T11:58:39Z</time>
      </trkpt>
      <trkpt lat="45.26885" lon="6.77523">
        <ele>2378.917</ele>
        <time>2015-08-26T11:58:49Z</time>
      </trkpt>
      <trkpt lat="45.26881" lon="6.77519">
        <ele>2378.917</ele>
        <time>2015-08-26T11:58:54Z</time>
      </trkpt>
      <trkpt lat="45.26871" lon="6.77513">
        <ele>2379.3499</ele>
        <time>2015-08-26T11:59:04Z</time>
      </trkpt>
      <trkpt lat="45.26866" lon="6.77509">
        <ele>2379.3499</ele>
        <time>2015-08-26T11:59:09Z</time>
      </trkpt>
      <trkpt lat="45.26857" lon="6.77503">
        <ele>2379.8918</ele>
        <time>2015-08-26T11:59:19Z</time>
      </trkpt>
      <trkpt lat="45.26853" lon="6.775">
        <ele>2379.8918</ele>
        <time>2015-08-26T11:59:24Z</time>
      </trkpt>
      <trkpt lat="45.26845" lon="6.77489">
        <ele>2380.2888</ele>
        <time>2015-08-26T11:59:34Z</time>
      </trkpt>
      <trkpt lat="45.26843" lon="6.77483">
        <ele>2380.2888</ele>
        <time>2015-08-26T11:59:39Z</time>
      </trkpt>
      <trkpt lat="45.26835" lon="6.77471">
        <ele>2380.709</ele>
        <time>2015-08-26T11:59:49Z</time>
      </trkpt>
      <trkpt lat="45.26833" lon="6.77468">
        <ele>2380.709</ele>
        <time>2015-08-26T11:59:54Z</time>
      </trkpt>
      <trkpt lat="45.26827" lon="6.77459">
        <ele>2381.0496</ele>
        <time>2015-08-26T12:00:04Z</time>
      </trkpt>
      <trkpt lat="45.26823" lon="6.77456">
        <ele>2381.0496</ele>
        <time>2015-08-26T12:00:09Z</time>
      </trkpt>
      <trkpt lat="45.26815" lon="6.77436">
        <ele>2381.042</ele>
        <time>2015-08-26T12:00:24Z</time>
      </trkpt>
      <trkpt lat="45.26812" lon="6.77428">
        <ele>2381.042</ele>
        <time>2015-08-26T12:00:29Z</time>
      </trkpt>
      <trkpt lat="45.26807" lon="6.77413">
        <ele>2381.2024</ele>
        <time>2015-08-26T12:00:39Z</time>
      </trkpt>
      <trkpt lat="45.26806" lon="6.7741">
        <ele>2381.2024</ele>
        <time>2015-08-26T12:00:44Z</time>
      </trkpt>
      <trkpt lat="45.26804" lon="6.77404">
        <ele>2381.2024</ele>
        <time>2015-08-26T12:00:54Z</time>
      </trkpt>
      <trkpt lat="45.26801" lon="6.77401">
        <ele>2381.2886</ele>
        <time>2015-08-26T12:00:59Z</time>
      </trkpt>
      <trkpt lat="45.26796" lon="6.77392">
        <ele>2381.2886</ele>
        <time>2015-08-26T12:01:09Z</time>
      </trkpt>
      <trkpt lat="45.26794" lon="6.77389">
        <ele>2381.4792</ele>
        <time>2015-08-26T12:01:14Z</time>
      </trkpt>
      <trkpt lat="45.26791" lon="6.7738">
        <ele>2381.4792</ele>
        <time>2015-08-26T12:01:24Z</time>
      </trkpt>
      <trkpt lat="45.26789" lon="6.77374">
        <ele>2381.695</ele>
        <time>2015-08-26T12:01:29Z</time>
      </trkpt>
      <trkpt lat="45.26786" lon="6.77361">
        <ele>2381.9927</ele>
        <time>2015-08-26T12:01:39Z</time>
      </trkpt>
      <trkpt lat="45.26783" lon="6.77355">
        <ele>2381.9927</ele>
        <time>2015-08-26T12:01:44Z</time>
      </trkpt>
      <trkpt lat="45.26779" lon="6.77345">
        <ele>2382.4524</ele>
        <time>2015-08-26T12:01:54Z</time>
      </trkpt>
      <trkpt lat="45.26778" lon="6.77342">
        <ele>2382.4524</ele>
        <time>2015-08-26T12:01:59Z</time>
      </trkpt>
      <trkpt lat="45.26773" lon="6.77333">
        <ele>2383.1487</ele>
        <time>2015-08-26T12:02:09Z</time>
      </trkpt>
      <trkpt lat="45.26772" lon="6.77326">
        <ele>2383.1487</ele>
        <time>2015-08-26T12:02:14Z</time>
      </trkpt>
      <trkpt lat="45.26766" lon="6.77318">
        <ele>2383.8909</ele>
        <time>2015-08-26T12:02:24Z</time>
      </trkpt>
      <trkpt lat="45.26764" lon="6.77315">
        <ele>2383.8909</ele>
        <time>2015-08-26T12:02:29Z</time>
      </trkpt>
      <trkpt lat="45.26758" lon="6.77306">
        <ele>2384.66</ele>
        <time>2015-08-26T12:02:39Z</time>
      </trkpt>
      <trkpt lat="45.26755" lon="6.77301">
        <ele>2384.66</ele>
        <time>2015-08-26T12:02:44Z</time>
      </trkpt>
      <trkpt lat="45.26746" lon="6.77289">
        <ele>2385.6548</ele>
        <time>2015-08-26T12:02:59Z</time>
      </trkpt>
      <trkpt lat="45.26744" lon="6.77287">
        <ele>2385.6548</ele>
        <time>2015-08-26T12:03:04Z</time>
      </trkpt>
      <trkpt lat="45.2674" lon="6.77277">
        <ele>2386.2236</ele>
        <time>2015-08-26T12:03:14Z</time>
      </trkpt>
      <trkpt lat="45.26737" lon="6.77269">
        <ele>2386.2236</ele>
        <time>2015-08-26T12:03:19Z</time>
      </trkpt>
      <trkpt lat="45.26732" lon="6.7726">
        <ele>2386.6567</ele>
        <time>2015-08-26T12:03:29Z</time>
      </trkpt>
      <trkpt lat="45.26729" lon="6.77255">
        <ele>2386.6567</ele>
        <time>2015-08-26T12:03:34Z</time>
      </trkpt>
      <trkpt lat="45.26723" lon="6.77242">
        <ele>2387.0078</ele>
        <time>2015-08-26T12:03:44Z</time>
      </trkpt>
      <trkpt lat="45.2672" lon="6.77237">
        <ele>2387.0078</ele>
        <time>2015-08-26T12:03:49Z</time>
      </trkpt>
      <trkpt lat="45.26713" lon="6.77223">
        <ele>2387.2832</ele>
        <time>2015-08-26T12:03:59Z</time>
      </trkpt>
      <trkpt lat="45.26711" lon="6.7722">
        <ele>2387.2832</ele>
        <time>2015-08-26T12:04:04Z</time>
      </trkpt>
      <trkpt lat="45.2671" lon="6.77207">
        <ele>2387.5466</ele>
        <time>2015-08-26T12:04:14Z</time>
      </trkpt>
      <trkpt lat="45.26708" lon="6.77198">
        <ele>2387.5466</ele>
        <time>2015-08-26T12:04:19Z</time>
      </trkpt>
      <trkpt lat="45.26705" lon="6.7718">
        <ele>2387.8867</ele>
        <time>2015-08-26T12:04:34Z</time>
      </trkpt>
      <trkpt lat="45.26703" lon="6.77173">
        <ele>2387.8867</ele>
        <time>2015-08-26T12:04:39Z</time>
      </trkpt>
      <trkpt lat="45.26698" lon="6.77155">
        <ele>2387.9956</ele>
        <time>2015-08-26T12:04:49Z</time>
      </trkpt>
      <trkpt lat="45.26695" lon="6.77148">
        <ele>2387.9956</ele>
        <time>2015-08-26T12:04:54Z</time>
      </trkpt>
      <trkpt lat="45.26692" lon="6.77138">
        <ele>2388.2087</ele>
        <time>2015-08-26T12:05:04Z</time>
      </trkpt>
      <trkpt lat="45.26689" lon="6.77131">
        <ele>2388.2087</ele>
        <time>2015-08-26T12:05:09Z</time>
      </trkpt>
      <trkpt lat="45.26681" lon="6.7712">
        <ele>2388.721</ele>
        <time>2015-08-26T12:05:19Z</time>
      </trkpt>
      <trkpt lat="45.26679" lon="6.77113">
        <ele>2388.721</ele>
        <time>2015-08-26T12:05:24Z</time>
      </trkpt>
      <trkpt lat="45.26672" lon="6.77097">
        <ele>2389.3523</ele>
        <time>2015-08-26T12:05:34Z</time>
      </trkpt>
      <trkpt lat="45.26671" lon="6.77091">
        <ele>2389.3523</ele>
        <time>2015-08-26T12:05:39Z</time>
      </trkpt>
      <trkpt lat="45.26672" lon="6.77084">
        <ele>2389.3523</ele>
        <time>2015-08-26T12:05:49Z</time>
      </trkpt>
      <trkpt lat="45.26673" lon="6.77075">
        <ele>2389.8777</ele>
        <time>2015-08-26T12:05:54Z</time>
      </trkpt>
      <trkpt lat="45.26676" lon="6.77062">
        <ele>2390.377</ele>
        <time>2015-08-26T12:06:04Z</time>
      </trkpt>
      <trkpt lat="45.26679" lon="6.77055">
        <ele>2390.377</ele>
        <time>2015-08-26T12:06:09Z</time>
      </trkpt>
      <trkpt lat="45.26673" lon="6.77043">
        <ele>2390.8958</ele>
        <time>2015-08-26T12:06:19Z</time>
      </trkpt>
      <trkpt lat="45.26669" lon="6.77039">
        <ele>2390.8958</ele>
        <time>2015-08-26T12:06:24Z</time>
      </trkpt>
      <trkpt lat="45.26662" lon="6.7703">
        <ele>2391.5193</ele>
        <time>2015-08-26T12:06:34Z</time>
      </trkpt>
      <trkpt lat="45.26658" lon="6.77024">
        <ele>2391.5193</ele>
        <time>2015-08-26T12:06:39Z</time>
      </trkpt>
      <trkpt lat="45.26654" lon="6.77017">
        <ele>2392.1099</ele>
        <time>2015-08-26T12:06:49Z</time>
      </trkpt>
      <trkpt lat="45.26649" lon="6.77007">
        <ele>2392.1099</ele>
        <time>2015-08-26T12:06:54Z</time>
      </trkpt>
      <trkpt lat="45.26644" lon="6.77">
        <ele>2392.6416</ele>
        <time>2015-08-26T12:07:04Z</time>
      </trkpt>
      <trkpt lat="45.2664" lon="6.76996">
        <ele>2392.6416</ele>
        <time>2015-08-26T12:07:09Z</time>
      </trkpt>
      <trkpt lat="45.26629" lon="6.76978">
        <ele>2393.032</ele>
        <time>2015-08-26T12:07:24Z</time>
      </trkpt>
      <trkpt lat="45.26626" lon="6.76973">
        <ele>2393.032</ele>
        <time>2015-08-26T12:07:29Z</time>
      </trkpt>
      <trkpt lat="45.26624" lon="6.7696">
        <ele>2393.6384</ele>
        <time>2015-08-26T12:07:39Z</time>
      </trkpt>
      <trkpt lat="45.26621" lon="6.76953">
        <ele>2393.6384</ele>
        <time>2015-08-26T12:07:44Z</time>
      </trkpt>
      <trkpt lat="45.26619" lon="6.76941">
        <ele>2394.4446</ele>
        <time>2015-08-26T12:07:54Z</time>
      </trkpt>
      <trkpt lat="45.26617" lon="6.76934">
        <ele>2394.4446</ele>
        <time>2015-08-26T12:07:59Z</time>
      </trkpt>
      <trkpt lat="45.26613" lon="6.76923">
        <ele>2395.5366</ele>
        <time>2015-08-26T12:08:09Z</time>
      </trkpt>
      <trkpt lat="45.26609" lon="6.76918">
        <ele>2395.5366</ele>
        <time>2015-08-26T12:08:14Z</time>
      </trkpt>
      <trkpt lat="45.266" lon="6.76907">
        <ele>2396.8772</ele>
        <time>2015-08-26T12:08:24Z</time>
      </trkpt>
      <trkpt lat="45.26599" lon="6.76902">
        <ele>2396.8772</ele>
        <time>2015-08-26T12:08:29Z</time>
      </trkpt>
      <trkpt lat="45.26595" lon="6.7689">
        <ele>2398.216</ele>
        <time>2015-08-26T12:08:39Z</time>
      </trkpt>
      <trkpt lat="45.26592" lon="6.76881">
        <ele>2398.216</ele>
        <time>2015-08-26T12:08:44Z</time>
      </trkpt>
      <trkpt lat="45.26585" lon="6.7687">
        <ele>2399.6084</ele>
        <time>2015-08-26T12:08:54Z</time>
      </trkpt>
      <trkpt lat="45.26584" lon="6.76865">
        <ele>2399.6084</ele>
        <time>2015-08-26T12:08:59Z</time>
      </trkpt>
      <trkpt lat="45.26578" lon="6.76854">
        <ele>2401.0774</ele>
        <time>2015-08-26T12:09:09Z</time>
      </trkpt>
      <trkpt lat="45.26574" lon="6.76849">
        <ele>2401.0774</ele>
        <time>2015-08-26T12:09:14Z</time>
      </trkpt>
      <trkpt lat="45.26564" lon="6.76841">
        <ele>2402.442</ele>
        <time>2015-08-26T12:09:24Z</time>
      </trkpt>
      <trkpt lat="45.26558" lon="6.76836">
        <ele>2402.442</ele>
        <time>2015-08-26T12:09:29Z</time>
      </trkpt>
      <trkpt lat="45.26543" lon="6.76822">
        <ele>2403.8083</ele>
        <time>2015-08-26T12:09:44Z</time>
      </trkpt>
      <trkpt lat="45.26539" lon="6.76818">
        <ele>2403.8083</ele>
        <time>2015-08-26T12:09:49Z</time>
      </trkpt>
      <trkpt lat="45.2653" lon="6.76811">
        <ele>2405.2039</ele>
        <time>2015-08-26T12:09:59Z</time>
      </trkpt>
      <trkpt lat="45.26526" lon="6.76808">
        <ele>2405.2039</ele>
        <time>2015-08-26T12:10:04Z</time>
      </trkpt>
      <trkpt lat="45.26519" lon="6.76791">
        <ele>2406.3357</ele>
        <time>2015-08-26T12:10:14Z</time>
      </trkpt>
      <trkpt lat="45.26518" lon="6.76785">
        <ele>2406.3357</ele>
        <time>2015-08-26T12:10:19Z</time>
      </trkpt>
      <trkpt lat="45.2651" lon="6.76778">
        <ele>2407.2363</ele>
        <time>2015-08-26T12:10:29Z</time>
      </trkpt>
      <trkpt lat="45.26505" lon="6.76778">
        <ele>2407.2363</ele>
        <time>2015-08-26T12:10:34Z</time>
      </trkpt>
      <trkpt lat="45.26495" lon="6.7677">
        <ele>2407.8792</ele>
        <time>2015-08-26T12:10:44Z</time>
      </trkpt>
      <trkpt lat="45.2649" lon="6.76764">
        <ele>2407.8792</ele>
        <time>2015-08-26T12:10:49Z</time>
      </trkpt>
      <trkpt lat="45.26486" lon="6.7675">
        <ele>2408.4417</ele>
        <time>2015-08-26T12:10:59Z</time>
      </trkpt>
      <trkpt lat="45.26482" lon="6.76744">
        <ele>2408.4417</ele>
        <time>2015-08-26T12:11:04Z</time>
      </trkpt>
      <trkpt lat="45.2648" lon="6.76735">
        <ele>2408.916</ele>
        <time>2015-08-26T12:11:14Z</time>
      </trkpt>
      <trkpt lat="45.26479" lon="6.76734">
        <ele>2408.916</ele>
        <time>2015-08-26T12:11:19Z</time>
      </trkpt>
      <trkpt lat="45.26475" lon="6.76725">
        <ele>2408.916</ele>
        <time>2015-08-26T12:11:29Z</time>
      </trkpt>
      <trkpt lat="45.26474" lon="6.76722">
        <ele>2409.655</ele>
        <time>2015-08-26T12:11:34Z</time>
      </trkpt>
      <trkpt lat="45.26468" lon="6.76714">
        <ele>2409.655</ele>
        <time>2015-08-26T12:11:44Z</time>
      </trkpt>
      <trkpt lat="45.26466" lon="6.76713">
        <ele>2410.3223</ele>
        <time>2015-08-26T12:11:49Z</time>
      </trkpt>
      <trkpt lat="45.26459" lon="6.76708">
        <ele>2410.3223</ele>
        <time>2015-08-26T12:11:59Z</time>
      </trkpt>
      <trkpt lat="45.26454" lon="6.76704">
        <ele>2410.9954</ele>
        <time>2015-08-26T12:12:04Z</time>
      </trkpt>
      <trkpt lat="45.26447" lon="6.76699">
        <ele>2410.9954</ele>
        <time>2015-08-26T12:12:14Z</time>
      </trkpt>
      <trkpt lat="45.26445" lon="6.76697">
        <ele>2411.5444</ele>
        <time>2015-08-26T12:12:19Z</time>
      </trkpt>
      <trkpt lat="45.26436" lon="6.76694">
        <ele>2411.5444</ele>
        <time>2015-08-26T12:12:29Z</time>
      </trkpt>
      <trkpt lat="45.2643" lon="6.76689">
        <ele>2411.8926</ele>
        <time>2015-08-26T12:12:34Z</time>
      </trkpt>
      <trkpt lat="45.26422" lon="6.76684">
        <ele>2412.013</ele>
        <time>2015-08-26T12:12:49Z</time>
      </trkpt>
      <trkpt lat="45.26419" lon="6.76684">
        <ele>2412.013</ele>
        <time>2015-08-26T12:12:54Z</time>
      </trkpt>
      <trkpt lat="45.26411" lon="6.76683">
        <ele>2411.9236</ele>
        <time>2015-08-26T12:13:04Z</time>
      </trkpt>
      <trkpt lat="45.26407" lon="6.76682">
        <ele>2411.9236</ele>
        <time>2015-08-26T12:13:09Z</time>
      </trkpt>
      <trkpt lat="45.264" lon="6.76677">
        <ele>2411.8154</ele>
        <time>2015-08-26T12:13:19Z</time>
      </trkpt>
      <trkpt lat="45.26395" lon="6.76675">
        <ele>2411.8154</ele>
        <time>2015-08-26T12:13:24Z</time>
      </trkpt>
      <trkpt lat="45.26388" lon="6.76669">
        <ele>2411.635</ele>
        <time>2015-08-26T12:13:34Z</time>
      </trkpt>
      <trkpt lat="45.26384" lon="6.76669">
        <ele>2411.635</ele>
        <time>2015-08-26T12:13:39Z</time>
      </trkpt>
      <trkpt lat="45.26375" lon="6.76669">
        <ele>2411.4187</ele>
        <time>2015-08-26T12:13:49Z</time>
      </trkpt>
      <trkpt lat="45.26372" lon="6.76671">
        <ele>2411.4187</ele>
        <time>2015-08-26T12:13:54Z</time>
      </trkpt>
      <trkpt lat="45.26364" lon="6.76674">
        <ele>2411.2007</ele>
        <time>2015-08-26T12:14:04Z</time>
      </trkpt>
      <trkpt lat="45.26357" lon="6.76674">
        <ele>2411.2007</ele>
        <time>2015-08-26T12:14:09Z</time>
      </trkpt>
      <trkpt lat="45.2635" lon="6.76668">
        <ele>2411.1572</ele>
        <time>2015-08-26T12:14:19Z</time>
      </trkpt>
      <trkpt lat="45.26346" lon="6.76664">
        <ele>2411.1572</ele>
        <time>2015-08-26T12:14:24Z</time>
      </trkpt>
      <trkpt lat="45.26344" lon="6.76661">
        <ele>2411.1572</ele>
        <time>2015-08-26T12:14:39Z</time>
      </trkpt>
      <trkpt lat="45.26345" lon="6.76661">
        <ele>2411.9258</ele>
        <time>2015-08-26T12:14:44Z</time>
      </trkpt>
      <trkpt lat="45.26343" lon="6.76662">
        <ele>2411.9258</ele>
        <time>2015-08-26T12:14:54Z</time>
      </trkpt>
      <trkpt lat="45.26343" lon="6.76665">
        <ele>2411.9258</ele>
        <time>2015-08-26T12:14:59Z</time>
      </trkpt>
      <trkpt lat="45.26345" lon="6.76664">
        <ele>2411.9258</ele>
        <time>2015-08-26T12:15:09Z</time>
      </trkpt>
      <trkpt lat="45.26345" lon="6.76661">
        <ele>2411.9258</ele>
        <time>2015-08-26T12:15:14Z</time>
      </trkpt>
      <trkpt lat="45.26345" lon="6.76661">
        <ele>2411.9258</ele>
        <time>2015-08-26T12:15:24Z</time>
      </trkpt>
      <trkpt lat="45.26346" lon="6.76662">
        <ele>2413.4036</ele>
        <time>2015-08-26T12:15:29Z</time>
      </trkpt>
      <trkpt lat="45.26347" lon="6.76664">
        <ele>2413.4036</ele>
        <time>2015-08-26T12:15:39Z</time>
      </trkpt>
      <trkpt lat="45.26347" lon="6.76664">
        <ele>2413.4036</ele>
        <time>2015-08-26T12:15:44Z</time>
      </trkpt>
      <trkpt lat="45.26346" lon="6.76665">
        <ele>2413.4036</ele>
        <time>2015-08-26T12:15:54Z</time>
      </trkpt>
      <trkpt lat="45.26343" lon="6.76664">
        <ele>2413.4036</ele>
        <time>2015-08-26T12:15:59Z</time>
      </trkpt>
      <trkpt lat="45.26346" lon="6.76658">
        <ele>2414.6719</ele>
        <time>2015-08-26T12:16:09Z</time>
      </trkpt>
      <trkpt lat="45.26345" lon="6.76655">
        <ele>2414.6719</ele>
        <time>2015-08-26T12:16:14Z</time>
      </trkpt>
      <trkpt lat="45.26345" lon="6.7665">
        <ele>2414.6719</ele>
        <time>2015-08-26T12:16:24Z</time>
      </trkpt>
      <trkpt lat="45.26342" lon="6.76649">
        <ele>2414.6719</ele>
        <time>2015-08-26T12:16:29Z</time>
      </trkpt>
      <trkpt lat="45.26339" lon="6.7665">
        <ele>2415.3552</ele>
        <time>2015-08-26T12:16:39Z</time>
      </trkpt>
      <trkpt lat="45.26339" lon="6.76651">
        <ele>2415.3552</ele>
        <time>2015-08-26T12:16:44Z</time>
      </trkpt>
      <trkpt lat="45.26342" lon="6.76653">
        <ele>2415.3552</ele>
        <time>2015-08-26T12:16:54Z</time>
      </trkpt>
      <trkpt lat="45.26343" lon="6.76654">
        <ele>2415.3552</ele>
        <time>2015-08-26T12:16:59Z</time>
      </trkpt>
      <trkpt lat="45.26345" lon="6.76652">
        <ele>2415.3552</ele>
        <time>2015-08-26T12:17:09Z</time>
      </trkpt>
      <trkpt lat="45.26345" lon="6.76652">
        <ele>2415.3552</ele>
        <time>2015-08-26T12:17:14Z</time>
      </trkpt>
      <trkpt lat="45.26346" lon="6.76656">
        <ele>2416.0586</ele>
        <time>2015-08-26T12:17:29Z</time>
      </trkpt>
      <trkpt lat="45.26345" lon="6.76654">
        <ele>2416.0586</ele>
        <time>2015-08-26T12:17:34Z</time>
      </trkpt>
      <trkpt lat="45.26346" lon="6.76654">
        <ele>2416.0586</ele>
        <time>2015-08-26T12:17:44Z</time>
      </trkpt>
      <trkpt lat="45.26345" lon="6.76654">
        <ele>2416.0586</ele>
        <time>2015-08-26T12:17:49Z</time>
      </trkpt>
      <trkpt lat="45.26343" lon="6.76656">
        <ele>2416.0586</ele>
        <time>2015-08-26T12:57:50Z</time>
      </trkpt>
      <trkpt lat="45.26343" lon="6.76656">
        <ele>2416.0586</ele>
        <time>2015-08-26T12:57:55Z</time>
      </trkpt>
      <trkpt lat="45.26343" lon="6.76656">
        <ele>2416.0586</ele>
        <time>2015-08-26T12:58:25Z</time>
      </trkpt>
      <trkpt lat="45.26343" lon="6.76648">
        <ele>2416.161</ele>
        <time>2015-08-26T12:58:40Z</time>
      </trkpt>
      <trkpt lat="45.26343" lon="6.76648">
        <ele>2416.161</ele>
        <time>2015-08-26T12:58:45Z</time>
      </trkpt>
      <trkpt lat="45.26344" lon="6.76638">
        <ele>2416.161</ele>
        <time>2015-08-26T12:58:55Z</time>
      </trkpt>
      <trkpt lat="45.26343" lon="6.76629">
        <ele>2416.0107</ele>
        <time>2015-08-26T12:59:00Z</time>
      </trkpt>
      <trkpt lat="45.2635" lon="6.76624">
        <ele>2416.0107</ele>
        <time>2015-08-26T12:59:10Z</time>
      </trkpt>
      <trkpt lat="45.26352" lon="6.7662">
        <ele>2415.7876</ele>
        <time>2015-08-26T12:59:15Z</time>
      </trkpt>
      <trkpt lat="45.26358" lon="6.76605">
        <ele>2415.3984</ele>
        <time>2015-08-26T12:59:30Z</time>
      </trkpt>
      <trkpt lat="45.2636" lon="6.76603">
        <ele>2415.3984</ele>
        <time>2015-08-26T12:59:35Z</time>
      </trkpt>
      <trkpt lat="45.26364" lon="6.76596">
        <ele>2415.3984</ele>
        <time>2015-08-26T12:59:45Z</time>
      </trkpt>
      <trkpt lat="45.26367" lon="6.76595">
        <ele>2415.1318</ele>
        <time>2015-08-26T12:59:50Z</time>
      </trkpt>
      <trkpt lat="45.26372" lon="6.76592">
        <ele>2415.1318</ele>
        <time>2015-08-26T13:00:00Z</time>
      </trkpt>
      <trkpt lat="45.26377" lon="6.76587">
        <ele>2415.0107</ele>
        <time>2015-08-26T13:00:05Z</time>
      </trkpt>
      <trkpt lat="45.26384" lon="6.7658">
        <ele>2415.0107</ele>
        <time>2015-08-26T13:00:15Z</time>
      </trkpt>
      <trkpt lat="45.26386" lon="6.76576">
        <ele>2414.8967</ele>
        <time>2015-08-26T13:00:20Z</time>
      </trkpt>
      <trkpt lat="45.2639" lon="6.7657">
        <ele>2414.8967</ele>
        <time>2015-08-26T13:00:30Z</time>
      </trkpt>
      <trkpt lat="45.26391" lon="6.76566">
        <ele>2414.8967</ele>
        <time>2015-08-26T13:00:35Z</time>
      </trkpt>
      <trkpt lat="45.26397" lon="6.76553">
        <ele>2414.9932</ele>
        <time>2015-08-26T13:00:45Z</time>
      </trkpt>
      <trkpt lat="45.26397" lon="6.76548">
        <ele>2414.9932</ele>
        <time>2015-08-26T13:00:50Z</time>
      </trkpt>
      <trkpt lat="45.264" lon="6.76539">
        <ele>2415.3867</ele>
        <time>2015-08-26T13:01:00Z</time>
      </trkpt>
      <trkpt lat="45.26401" lon="6.76534">
        <ele>2415.3867</ele>
        <time>2015-08-26T13:01:05Z</time>
      </trkpt>
      <trkpt lat="45.26404" lon="6.76521">
        <ele>2415.8547</ele>
        <time>2015-08-26T13:01:20Z</time>
      </trkpt>
      <trkpt lat="45.26404" lon="6.76513">
        <ele>2415.8547</ele>
        <time>2015-08-26T13:01:25Z</time>
      </trkpt>
      <trkpt lat="45.26406" lon="6.76504">
        <ele>2416.2476</ele>
        <time>2015-08-26T13:01:35Z</time>
      </trkpt>
      <trkpt lat="45.26408" lon="6.76501">
        <ele>2416.2476</ele>
        <time>2015-08-26T13:01:40Z</time>
      </trkpt>
      <trkpt lat="45.26406" lon="6.76493">
        <ele>2416.2476</ele>
        <time>2015-08-26T13:01:50Z</time>
      </trkpt>
      <trkpt lat="45.26404" lon="6.76486">
        <ele>2416.7441</ele>
        <time>2015-08-26T13:01:55Z</time>
      </trkpt>
      <trkpt lat="45.26405" lon="6.76478">
        <ele>2416.7441</ele>
        <time>2015-08-26T13:02:05Z</time>
      </trkpt>
      <trkpt lat="45.26407" lon="6.76473">
        <ele>2417.6543</ele>
        <time>2015-08-26T13:02:10Z</time>
      </trkpt>
      <trkpt lat="45.26406" lon="6.7646">
        <ele>2418.2834</ele>
        <time>2015-08-26T13:02:20Z</time>
      </trkpt>
      <trkpt lat="45.26406" lon="6.76454">
        <ele>2418.2834</ele>
        <time>2015-08-26T13:02:25Z</time>
      </trkpt>
      <trkpt lat="45.26406" lon="6.76443">
        <ele>2418.854</ele>
        <time>2015-08-26T13:02:35Z</time>
      </trkpt>
      <trkpt lat="45.26406" lon="6.76441">
        <ele>2418.854</ele>
        <time>2015-08-26T13:02:40Z</time>
      </trkpt>
      <trkpt lat="45.26408" lon="6.76424">
        <ele>2419.4995</ele>
        <time>2015-08-26T13:02:55Z</time>
      </trkpt>
      <trkpt lat="45.26408" lon="6.76421">
        <ele>2419.4995</ele>
        <time>2015-08-26T13:03:00Z</time>
      </trkpt>
      <trkpt lat="45.26409" lon="6.7641">
        <ele>2420.142</ele>
        <time>2015-08-26T13:03:10Z</time>
      </trkpt>
      <trkpt lat="45.2641" lon="6.76405">
        <ele>2420.142</ele>
        <time>2015-08-26T13:03:15Z</time>
      </trkpt>
      <trkpt lat="45.26412" lon="6.76398">
        <ele>2420.5366</ele>
        <time>2015-08-26T13:03:25Z</time>
      </trkpt>
      <trkpt lat="45.26412" lon="6.76391">
        <ele>2420.5366</ele>
        <time>2015-08-26T13:03:30Z</time>
      </trkpt>
      <trkpt lat="45.26417" lon="6.76385">
        <ele>2420.3987</ele>
        <time>2015-08-26T13:03:40Z</time>
      </trkpt>
      <trkpt lat="45.26419" lon="6.76383">
        <ele>2420.3987</ele>
        <time>2015-08-26T13:03:45Z</time>
      </trkpt>
      <trkpt lat="45.26424" lon="6.76373">
        <ele>2420.7495</ele>
        <time>2015-08-26T13:03:55Z</time>
      </trkpt>
      <trkpt lat="45.26424" lon="6.76369">
        <ele>2420.7495</ele>
        <time>2015-08-26T13:04:00Z</time>
      </trkpt>
      <trkpt lat="45.26425" lon="6.76356">
        <ele>2421.2217</ele>
        <time>2015-08-26T13:04:10Z</time>
      </trkpt>
      <trkpt lat="45.26422" lon="6.7635">
        <ele>2421.2217</ele>
        <time>2015-08-26T13:04:15Z</time>
      </trkpt>
      <trkpt lat="45.26427" lon="6.76339">
        <ele>2421.6912</ele>
        <time>2015-08-26T13:04:25Z</time>
      </trkpt>
      <trkpt lat="45.26425" lon="6.76333">
        <ele>2421.6912</ele>
        <time>2015-08-26T13:04:30Z</time>
      </trkpt>
      <trkpt lat="45.26424" lon="6.76323">
        <ele>2422.1003</ele>
        <time>2015-08-26T13:04:40Z</time>
      </trkpt>
      <trkpt lat="45.26426" lon="6.7632">
        <ele>2422.1003</ele>
        <time>2015-08-26T13:04:45Z</time>
      </trkpt>
      <trkpt lat="45.26427" lon="6.76304">
        <ele>2422.6125</ele>
        <time>2015-08-26T13:05:00Z</time>
      </trkpt>
      <trkpt lat="45.2643" lon="6.76298">
        <ele>2422.6125</ele>
        <time>2015-08-26T13:05:05Z</time>
      </trkpt>
      <trkpt lat="45.26431" lon="6.7629">
        <ele>2423.191</ele>
        <time>2015-08-26T13:05:15Z</time>
      </trkpt>
      <trkpt lat="45.26432" lon="6.76286">
        <ele>2423.191</ele>
        <time>2015-08-26T13:05:20Z</time>
      </trkpt>
      <trkpt lat="45.26435" lon="6.76278">
        <ele>2424.104</ele>
        <time>2015-08-26T13:05:30Z</time>
      </trkpt>
      <trkpt lat="45.26436" lon="6.76273">
        <ele>2424.104</ele>
        <time>2015-08-26T13:05:35Z</time>
      </trkpt>
      <trkpt lat="45.26443" lon="6.76262">
        <ele>2424.98</ele>
        <time>2015-08-26T13:05:45Z</time>
      </trkpt>
      <trkpt lat="45.26444" lon="6.76258">
        <ele>2424.98</ele>
        <time>2015-08-26T13:05:50Z</time>
      </trkpt>
      <trkpt lat="45.26445" lon="6.76252">
        <ele>2424.98</ele>
        <time>2015-08-26T13:06:00Z</time>
      </trkpt>
      <trkpt lat="45.26444" lon="6.76251">
        <ele>2424.98</ele>
        <time>2015-08-26T13:06:05Z</time>
      </trkpt>
      <trkpt lat="45.26446" lon="6.76242">
        <ele>2426.008</ele>
        <time>2015-08-26T13:06:15Z</time>
      </trkpt>
      <trkpt lat="45.26447" lon="6.76237">
        <ele>2426.008</ele>
        <time>2015-08-26T13:06:20Z</time>
      </trkpt>
      <trkpt lat="45.26449" lon="6.76226">
        <ele>2426.93</ele>
        <time>2015-08-26T13:06:30Z</time>
      </trkpt>
      <trkpt lat="45.26448" lon="6.76222">
        <ele>2426.93</ele>
        <time>2015-08-26T13:06:35Z</time>
      </trkpt>
      <trkpt lat="45.26449" lon="6.76214">
        <ele>2426.93</ele>
        <time>2015-08-26T13:06:45Z</time>
      </trkpt>
      <trkpt lat="45.2645" lon="6.76208">
        <ele>2427.8098</ele>
        <time>2015-08-26T13:06:50Z</time>
      </trkpt>
      <trkpt lat="45.26448" lon="6.76195">
        <ele>2428.8655</ele>
        <time>2015-08-26T13:07:05Z</time>
      </trkpt>
      <trkpt lat="45.26448" lon="6.76192">
        <ele>2428.8655</ele>
        <time>2015-08-26T13:07:10Z</time>
      </trkpt>
      <trkpt lat="45.26444" lon="6.76182">
        <ele>2429.809</ele>
        <time>2015-08-26T13:07:20Z</time>
      </trkpt>
      <trkpt lat="45.26444" lon="6.76174">
        <ele>2429.809</ele>
        <time>2015-08-26T13:07:25Z</time>
      </trkpt>
      <trkpt lat="45.26444" lon="6.76165">
        <ele>2431.0503</ele>
        <time>2015-08-26T13:07:35Z</time>
      </trkpt>
      <trkpt lat="45.26443" lon="6.76158">
        <ele>2431.0503</ele>
        <time>2015-08-26T13:07:40Z</time>
      </trkpt>
      <trkpt lat="45.26443" lon="6.76149">
        <ele>2432.3923</ele>
        <time>2015-08-26T13:07:50Z</time>
      </trkpt>
      <trkpt lat="45.26443" lon="6.76142">
        <ele>2432.3923</ele>
        <time>2015-08-26T13:07:55Z</time>
      </trkpt>
      <trkpt lat="45.26442" lon="6.76132">
        <ele>2433.782</ele>
        <time>2015-08-26T13:08:05Z</time>
      </trkpt>
      <trkpt lat="45.26443" lon="6.76127">
        <ele>2433.782</ele>
        <time>2015-08-26T13:08:10Z</time>
      </trkpt>
      <trkpt lat="45.26446" lon="6.76115">
        <ele>2434.8962</ele>
        <time>2015-08-26T13:08:20Z</time>
      </trkpt>
      <trkpt lat="45.26447" lon="6.76112">
        <ele>2434.8962</ele>
        <time>2015-08-26T13:08:25Z</time>
      </trkpt>
      <trkpt lat="45.26447" lon="6.76107">
        <ele>2434.8962</ele>
        <time>2015-08-26T13:08:35Z</time>
      </trkpt>
      <trkpt lat="45.26449" lon="6.76103">
        <ele>2436.3445</ele>
        <time>2015-08-26T13:08:40Z</time>
      </trkpt>
      <trkpt lat="45.26452" lon="6.76097">
        <ele>2436.3445</ele>
        <time>2015-08-26T13:08:50Z</time>
      </trkpt>
      <trkpt lat="45.26453" lon="6.76094">
        <ele>2436.3445</ele>
        <time>2015-08-26T13:08:55Z</time>
      </trkpt>
      <trkpt lat="45.26455" lon="6.76087">
        <ele>2438.027</ele>
        <time>2015-08-26T13:09:05Z</time>
      </trkpt>
      <trkpt lat="45.26458" lon="6.76081">
        <ele>2438.027</ele>
        <time>2015-08-26T13:09:10Z</time>
      </trkpt>
      <trkpt lat="45.26459" lon="6.76068">
        <ele>2439.5923</ele>
        <time>2015-08-26T13:09:20Z</time>
      </trkpt>
      <trkpt lat="45.26459" lon="6.76067">
        <ele>2439.5923</ele>
        <time>2015-08-26T13:09:25Z</time>
      </trkpt>
      <trkpt lat="45.26456" lon="6.7606">
        <ele>2439.5923</ele>
        <time>2015-08-26T13:09:35Z</time>
      </trkpt>
      <trkpt lat="45.26456" lon="6.76056">
        <ele>2441.4204</ele>
        <time>2015-08-26T13:09:40Z</time>
      </trkpt>
      <trkpt lat="45.26456" lon="6.76053">
        <ele>2441.4204</ele>
        <time>2015-08-26T13:09:50Z</time>
      </trkpt>
      <trkpt lat="45.26455" lon="6.7605">
        <ele>2441.4204</ele>
        <time>2015-08-26T13:09:55Z</time>
      </trkpt>
      <trkpt lat="45.26451" lon="6.76037">
        <ele>2443.2437</ele>
        <time>2015-08-26T13:10:05Z</time>
      </trkpt>
      <trkpt lat="45.26446" lon="6.76032">
        <ele>2443.2437</ele>
        <time>2015-08-26T13:10:10Z</time>
      </trkpt>
      <trkpt lat="45.26436" lon="6.76006">
        <ele>2445.5198</ele>
        <time>2015-08-26T13:10:25Z</time>
      </trkpt>
      <trkpt lat="45.26433" lon="6.76">
        <ele>2445.5198</ele>
        <time>2015-08-26T13:10:30Z</time>
      </trkpt>
      <trkpt lat="45.26429" lon="6.7599">
        <ele>2447.865</ele>
        <time>2015-08-26T13:10:40Z</time>
      </trkpt>
      <trkpt lat="45.26424" lon="6.75988">
        <ele>2447.865</ele>
        <time>2015-08-26T13:10:45Z</time>
      </trkpt>
      <trkpt lat="45.26417" lon="6.75983">
        <ele>2450.2263</ele>
        <time>2015-08-26T13:10:55Z</time>
      </trkpt>
      <trkpt lat="45.26414" lon="6.75978">
        <ele>2450.2263</ele>
        <time>2015-08-26T13:11:00Z</time>
      </trkpt>
      <trkpt lat="45.26405" lon="6.75969">
        <ele>2452.4822</ele>
        <time>2015-08-26T13:11:10Z</time>
      </trkpt>
      <trkpt lat="45.26402" lon="6.75968">
        <ele>2452.4822</ele>
        <time>2015-08-26T13:11:15Z</time>
      </trkpt>
      <trkpt lat="45.26394" lon="6.75964">
        <ele>2454.7368</ele>
        <time>2015-08-26T13:11:25Z</time>
      </trkpt>
      <trkpt lat="45.26391" lon="6.75962">
        <ele>2454.7368</ele>
        <time>2015-08-26T13:11:30Z</time>
      </trkpt>
      <trkpt lat="45.26385" lon="6.75955">
        <ele>2456.7268</ele>
        <time>2015-08-26T13:11:40Z</time>
      </trkpt>
      <trkpt lat="45.26381" lon="6.75953">
        <ele>2456.7268</ele>
        <time>2015-08-26T13:11:45Z</time>
      </trkpt>
      <trkpt lat="45.26372" lon="6.7595">
        <ele>2458.6985</ele>
        <time>2015-08-26T13:11:55Z</time>
      </trkpt>
      <trkpt lat="45.26366" lon="6.75948">
        <ele>2458.6985</ele>
        <time>2015-08-26T13:12:00Z</time>
      </trkpt>
      <trkpt lat="45.26353" lon="6.75955">
        <ele>2460.8948</ele>
        <time>2015-08-26T13:12:15Z</time>
      </trkpt>
      <trkpt lat="45.2635" lon="6.75957">
        <ele>2460.8948</ele>
        <time>2015-08-26T13:12:20Z</time>
      </trkpt>
      <trkpt lat="45.26341" lon="6.75965">
        <ele>2462.9497</ele>
        <time>2015-08-26T13:12:30Z</time>
      </trkpt>
      <trkpt lat="45.26338" lon="6.75971">
        <ele>2462.9497</ele>
        <time>2015-08-26T13:12:35Z</time>
      </trkpt>
      <trkpt lat="45.26328" lon="6.7598">
        <ele>2464.8992</ele>
        <time>2015-08-26T13:12:45Z</time>
      </trkpt>
      <trkpt lat="45.26324" lon="6.75981">
        <ele>2464.8992</ele>
        <time>2015-08-26T13:12:50Z</time>
      </trkpt>
      <trkpt lat="45.26316" lon="6.75978">
        <ele>2466.6902</ele>
        <time>2015-08-26T13:13:00Z</time>
      </trkpt>
      <trkpt lat="45.26311" lon="6.75976">
        <ele>2466.6902</ele>
        <time>2015-08-26T13:13:05Z</time>
      </trkpt>
      <trkpt lat="45.26304" lon="6.75973">
        <ele>2468.1877</ele>
        <time>2015-08-26T13:13:15Z</time>
      </trkpt>
      <trkpt lat="45.26298" lon="6.75971">
        <ele>2468.1877</ele>
        <time>2015-08-26T13:13:20Z</time>
      </trkpt>
      <trkpt lat="45.26289" lon="6.75966">
        <ele>2469.4268</ele>
        <time>2015-08-26T13:13:30Z</time>
      </trkpt>
      <trkpt lat="45.26286" lon="6.75962">
        <ele>2469.4268</ele>
        <time>2015-08-26T13:13:35Z</time>
      </trkpt>
      <trkpt lat="45.26279" lon="6.75956">
        <ele>2470.4397</ele>
        <time>2015-08-26T13:13:45Z</time>
      </trkpt>
      <trkpt lat="45.26274" lon="6.75952">
        <ele>2470.4397</ele>
        <time>2015-08-26T13:13:50Z</time>
      </trkpt>
      <trkpt lat="45.26266" lon="6.75942">
        <ele>2471.258</ele>
        <time>2015-08-26T13:14:00Z</time>
      </trkpt>
      <trkpt lat="45.26262" lon="6.75937">
        <ele>2471.258</ele>
        <time>2015-08-26T13:14:05Z</time>
      </trkpt>
      <trkpt lat="45.26254" lon="6.75934">
        <ele>2471.882</ele>
        <time>2015-08-26T13:14:15Z</time>
      </trkpt>
      <trkpt lat="45.2625" lon="6.75932">
        <ele>2471.882</ele>
        <time>2015-08-26T13:14:20Z</time>
      </trkpt>
      <trkpt lat="45.26241" lon="6.75928">
        <ele>2472.3855</ele>
        <time>2015-08-26T13:14:30Z</time>
      </trkpt>
      <trkpt lat="45.26237" lon="6.75927">
        <ele>2472.3855</ele>
        <time>2015-08-26T13:14:35Z</time>
      </trkpt>
      <trkpt lat="45.26229" lon="6.75916">
        <ele>2472.8218</ele>
        <time>2015-08-26T13:14:45Z</time>
      </trkpt>
      <trkpt lat="45.26225" lon="6.75915">
        <ele>2472.8218</ele>
        <time>2015-08-26T13:14:50Z</time>
      </trkpt>
      <trkpt lat="45.26216" lon="6.75912">
        <ele>2473.4722</ele>
        <time>2015-08-26T13:15:05Z</time>
      </trkpt>
      <trkpt lat="45.26211" lon="6.75914">
        <ele>2473.4722</ele>
        <time>2015-08-26T13:15:10Z</time>
      </trkpt>
      <trkpt lat="45.262" lon="6.75918">
        <ele>2473.9905</ele>
        <time>2015-08-26T13:15:20Z</time>
      </trkpt>
      <trkpt lat="45.26194" lon="6.75923">
        <ele>2473.9905</ele>
        <time>2015-08-26T13:15:25Z</time>
      </trkpt>
      <trkpt lat="45.26187" lon="6.75929">
        <ele>2474.3457</ele>
        <time>2015-08-26T13:15:35Z</time>
      </trkpt>
      <trkpt lat="45.26182" lon="6.75931">
        <ele>2474.3457</ele>
        <time>2015-08-26T13:15:40Z</time>
      </trkpt>
      <trkpt lat="45.26171" lon="6.75937">
        <ele>2474.6238</ele>
        <time>2015-08-26T13:15:50Z</time>
      </trkpt>
      <trkpt lat="45.26167" lon="6.75939">
        <ele>2474.6238</ele>
        <time>2015-08-26T13:15:55Z</time>
      </trkpt>
      <trkpt lat="45.26157" lon="6.7594">
        <ele>2474.8623</ele>
        <time>2015-08-26T13:16:05Z</time>
      </trkpt>
      <trkpt lat="45.26152" lon="6.75942">
        <ele>2474.8623</ele>
        <time>2015-08-26T13:16:10Z</time>
      </trkpt>
      <trkpt lat="45.26144" lon="6.75949">
        <ele>2475.0808</ele>
        <time>2015-08-26T13:16:20Z</time>
      </trkpt>
      <trkpt lat="45.2614" lon="6.7595">
        <ele>2475.0808</ele>
        <time>2015-08-26T13:16:25Z</time>
      </trkpt>
      <trkpt lat="45.26125" lon="6.75953">
        <ele>2475.2122</ele>
        <time>2015-08-26T13:16:40Z</time>
      </trkpt>
      <trkpt lat="45.26121" lon="6.75951">
        <ele>2475.2122</ele>
        <time>2015-08-26T13:16:45Z</time>
      </trkpt>
      <trkpt lat="45.26111" lon="6.75951">
        <ele>2475.2942</ele>
        <time>2015-08-26T13:16:55Z</time>
      </trkpt>
      <trkpt lat="45.26105" lon="6.75951">
        <ele>2475.2942</ele>
        <time>2015-08-26T13:17:00Z</time>
      </trkpt>
      <trkpt lat="45.26094" lon="6.75955">
        <ele>2475.3916</ele>
        <time>2015-08-26T13:17:10Z</time>
      </trkpt>
      <trkpt lat="45.26091" lon="6.75958">
        <ele>2475.3916</ele>
        <time>2015-08-26T13:17:15Z</time>
      </trkpt>
      <trkpt lat="45.26082" lon="6.75964">
        <ele>2475.4631</ele>
        <time>2015-08-26T13:17:25Z</time>
      </trkpt>
      <trkpt lat="45.26079" lon="6.75968">
        <ele>2475.4631</ele>
        <time>2015-08-26T13:17:30Z</time>
      </trkpt>
      <trkpt lat="45.26071" lon="6.75973">
        <ele>2475.3699</ele>
        <time>2015-08-26T13:17:40Z</time>
      </trkpt>
      <trkpt lat="45.26068" lon="6.75976">
        <ele>2475.3699</ele>
        <time>2015-08-26T13:17:45Z</time>
      </trkpt>
      <trkpt lat="45.26059" lon="6.75986">
        <ele>2475.0552</ele>
        <time>2015-08-26T13:17:55Z</time>
      </trkpt>
      <trkpt lat="45.26055" lon="6.75988">
        <ele>2475.0552</ele>
        <time>2015-08-26T13:18:00Z</time>
      </trkpt>
      <trkpt lat="45.26043" lon="6.76">
        <ele>2474.684</ele>
        <time>2015-08-26T13:18:15Z</time>
      </trkpt>
      <trkpt lat="45.26043" lon="6.75998">
        <ele>2474.684</ele>
        <time>2015-08-26T13:18:20Z</time>
      </trkpt>
      <trkpt lat="45.26043" lon="6.75999">
        <ele>2474.684</ele>
        <time>2015-08-26T13:18:30Z</time>
      </trkpt>
      <trkpt lat="45.26041" lon="6.75999">
        <ele>2474.684</ele>
        <time>2015-08-26T13:18:35Z</time>
      </trkpt>
      <trkpt lat="45.26041" lon="6.76001">
        <ele>2474.684</ele>
        <time>2015-08-26T13:18:45Z</time>
      </trkpt>
      <trkpt lat="45.26041" lon="6.76002">
        <ele>2474.684</ele>
        <time>2015-08-26T13:18:50Z</time>
      </trkpt>
      <trkpt lat="45.26041" lon="6.75999">
        <ele>2474.684</ele>
        <time>2015-08-26T13:19:00Z</time>
      </trkpt>
      <trkpt lat="45.2604" lon="6.75994">
        <ele>2474.5527</ele>
        <time>2015-08-26T13:19:05Z</time>
      </trkpt>
      <trkpt lat="45.26037" lon="6.75982">
        <ele>2474.5527</ele>
        <time>2015-08-26T13:19:15Z</time>
      </trkpt>
      <trkpt lat="45.26035" lon="6.75976">
        <ele>2474.1719</ele>
        <time>2015-08-26T13:19:20Z</time>
      </trkpt>
      <trkpt lat="45.26032" lon="6.75962">
        <ele>2473.5925</ele>
        <time>2015-08-26T13:19:30Z</time>
      </trkpt>
      <trkpt lat="45.26031" lon="6.75956">
        <ele>2473.5925</ele>
        <time>2015-08-26T13:19:35Z</time>
      </trkpt>
      <trkpt lat="45.26031" lon="6.75952">
        <ele>2473.5925</ele>
        <time>2015-08-26T13:19:50Z</time>
      </trkpt>
      <trkpt lat="45.26031" lon="6.75951">
        <ele>2473.5925</ele>
        <time>2015-08-26T13:19:55Z</time>
      </trkpt>
      <trkpt lat="45.2603" lon="6.7594">
        <ele>2472.6614</ele>
        <time>2015-08-26T13:20:05Z</time>
      </trkpt>
      <trkpt lat="45.2603" lon="6.75931">
        <ele>2472.6614</ele>
        <time>2015-08-26T13:20:10Z</time>
      </trkpt>
      <trkpt lat="45.26027" lon="6.75911">
        <ele>2471.2222</ele>
        <time>2015-08-26T13:20:20Z</time>
      </trkpt>
      <trkpt lat="45.26025" lon="6.75905">
        <ele>2471.2222</ele>
        <time>2015-08-26T13:20:25Z</time>
      </trkpt>
      <trkpt lat="45.2602" lon="6.7589">
        <ele>2469.5354</ele>
        <time>2015-08-26T13:20:35Z</time>
      </trkpt>
      <trkpt lat="45.26017" lon="6.75882">
        <ele>2469.5354</ele>
        <time>2015-08-26T13:20:40Z</time>
      </trkpt>
      <trkpt lat="45.26017" lon="6.75874">
        <ele>2467.6123</ele>
        <time>2015-08-26T13:20:50Z</time>
      </trkpt>
      <trkpt lat="45.26017" lon="6.75868">
        <ele>2467.6123</ele>
        <time>2015-08-26T13:20:55Z</time>
      </trkpt>
      <trkpt lat="45.26016" lon="6.75856">
        <ele>2465.7087</ele>
        <time>2015-08-26T13:21:05Z</time>
      </trkpt>
      <trkpt lat="45.26013" lon="6.75855">
        <ele>2465.7087</ele>
        <time>2015-08-26T13:21:10Z</time>
      </trkpt>
      <trkpt lat="45.25996" lon="6.75842">
        <ele>2464.2637</ele>
        <time>2015-08-26T13:21:25Z</time>
      </trkpt>
      <trkpt lat="45.25991" lon="6.75837">
        <ele>2464.2637</ele>
        <time>2015-08-26T13:21:30Z</time>
      </trkpt>
      <trkpt lat="45.25981" lon="6.75828">
        <ele>2463.048</ele>
        <time>2015-08-26T13:21:40Z</time>
      </trkpt>
      <trkpt lat="45.25975" lon="6.75826">
        <ele>2463.048</ele>
        <time>2015-08-26T13:21:45Z</time>
      </trkpt>
      <trkpt lat="45.25967" lon="6.75822">
        <ele>2461.9639</ele>
        <time>2015-08-26T13:21:55Z</time>
      </trkpt>
      <trkpt lat="45.25963" lon="6.75823">
        <ele>2461.9639</ele>
        <time>2015-08-26T13:22:00Z</time>
      </trkpt>
      <trkpt lat="45.25952" lon="6.75823">
        <ele>2460.8625</ele>
        <time>2015-08-26T13:22:10Z</time>
      </trkpt>
      <trkpt lat="45.25947" lon="6.75822">
        <ele>2460.8625</ele>
        <time>2015-08-26T13:22:15Z</time>
      </trkpt>
      <trkpt lat="45.25937" lon="6.75822">
        <ele>2459.707</ele>
        <time>2015-08-26T13:22:25Z</time>
      </trkpt>
      <trkpt lat="45.25932" lon="6.75821">
        <ele>2459.707</ele>
        <time>2015-08-26T13:22:30Z</time>
      </trkpt>
      <trkpt lat="45.25921" lon="6.7582">
        <ele>2458.4775</ele>
        <time>2015-08-26T13:22:40Z</time>
      </trkpt>
      <trkpt lat="45.25915" lon="6.75813">
        <ele>2458.4775</ele>
        <time>2015-08-26T13:22:45Z</time>
      </trkpt>
      <trkpt lat="45.25908" lon="6.75809">
        <ele>2457.1843</ele>
        <time>2015-08-26T13:22:55Z</time>
      </trkpt>
      <trkpt lat="45.25905" lon="6.75808">
        <ele>2457.1843</ele>
        <time>2015-08-26T13:23:00Z</time>
      </trkpt>
      <trkpt lat="45.25893" lon="6.75803">
        <ele>2455.7217</ele>
        <time>2015-08-26T13:23:10Z</time>
      </trkpt>
      <trkpt lat="45.25887" lon="6.75799">
        <ele>2455.7217</ele>
        <time>2015-08-26T13:23:15Z</time>
      </trkpt>
      <trkpt lat="45.25872" lon="6.7579">
        <ele>2454.2227</ele>
        <time>2015-08-26T13:23:30Z</time>
      </trkpt>
      <trkpt lat="45.25867" lon="6.75789">
        <ele>2454.2227</ele>
        <time>2015-08-26T13:23:35Z</time>
      </trkpt>
      <trkpt lat="45.25858" lon="6.75788">
        <ele>2452.6377</ele>
        <time>2015-08-26T13:23:45Z</time>
      </trkpt>
      <trkpt lat="45.25852" lon="6.75785">
        <ele>2452.6377</ele>
        <time>2015-08-26T13:23:50Z</time>
      </trkpt>
      <trkpt lat="45.25842" lon="6.7578">
        <ele>2450.9924</ele>
        <time>2015-08-26T13:24:00Z</time>
      </trkpt>
      <trkpt lat="45.25839" lon="6.75777">
        <ele>2450.9924</ele>
        <time>2015-08-26T13:24:05Z</time>
      </trkpt>
      <trkpt lat="45.25832" lon="6.75777">
        <ele>2449.2102</ele>
        <time>2015-08-26T13:24:15Z</time>
      </trkpt>
      <trkpt lat="45.25832" lon="6.75773">
        <ele>2449.2102</ele>
        <time>2015-08-26T13:24:20Z</time>
      </trkpt>
      <trkpt lat="45.25831" lon="6.75774">
        <ele>2449.2102</ele>
        <time>2015-08-26T13:24:30Z</time>
      </trkpt>
      <trkpt lat="45.25829" lon="6.75775">
        <ele>2449.2102</ele>
        <time>2015-08-26T13:24:35Z</time>
      </trkpt>
      <trkpt lat="45.25832" lon="6.75779">
        <ele>2447.7102</ele>
        <time>2015-08-26T13:24:45Z</time>
      </trkpt>
      <trkpt lat="45.25839" lon="6.75786">
        <ele>2447.7102</ele>
        <time>2015-08-26T13:24:50Z</time>
      </trkpt>
      <trkpt lat="45.25846" lon="6.75792">
        <ele>2446.1445</ele>
        <time>2015-08-26T13:25:00Z</time>
      </trkpt>
      <trkpt lat="45.2585" lon="6.75794">
        <ele>2446.1445</ele>
        <time>2015-08-26T13:25:05Z</time>
      </trkpt>
      <trkpt lat="45.2586" lon="6.75801">
        <ele>2444.4934</ele>
        <time>2015-08-26T13:25:15Z</time>
      </trkpt>
      <trkpt lat="45.25863" lon="6.75805">
        <ele>2444.4934</ele>
        <time>2015-08-26T13:25:20Z</time>
      </trkpt>
      <trkpt lat="45.25879" lon="6.75811">
        <ele>2443.114</ele>
        <time>2015-08-26T13:25:35Z</time>
      </trkpt>
      <trkpt lat="45.25883" lon="6.75818">
        <ele>2443.114</ele>
        <time>2015-08-26T13:25:40Z</time>
      </trkpt>
      <trkpt lat="45.25893" lon="6.75827">
        <ele>2441.4275</ele>
        <time>2015-08-26T13:25:50Z</time>
      </trkpt>
      <trkpt lat="45.25894" lon="6.7583">
        <ele>2441.4275</ele>
        <time>2015-08-26T13:25:55Z</time>
      </trkpt>
      <trkpt lat="45.25904" lon="6.75843">
        <ele>2439.6482</ele>
        <time>2015-08-26T13:26:05Z</time>
      </trkpt>
      <trkpt lat="45.25909" lon="6.75849">
        <ele>2439.6482</ele>
        <time>2015-08-26T13:26:10Z</time>
      </trkpt>
      <trkpt lat="45.25918" lon="6.75855">
        <ele>2437.9026</ele>
        <time>2015-08-26T13:26:20Z</time>
      </trkpt>
      <trkpt lat="45.25925" lon="6.75862">
        <ele>2437.9026</ele>
        <time>2015-08-26T13:26:25Z</time>
      </trkpt>
      <trkpt lat="45.25934" lon="6.75865">
        <ele>2436.3652</ele>
        <time>2015-08-26T13:26:35Z</time>
      </trkpt>
      <trkpt lat="45.25939" lon="6.75865">
        <ele>2436.3652</ele>
        <time>2015-08-26T13:26:40Z</time>
      </trkpt>
      <trkpt lat="45.25949" lon="6.75867">
        <ele>2434.6348</ele>
        <time>2015-08-26T13:26:50Z</time>
      </trkpt>
      <trkpt lat="45.25952" lon="6.75869">
        <ele>2434.6348</ele>
        <time>2015-08-26T13:26:55Z</time>
      </trkpt>
      <trkpt lat="45.25944" lon="6.75867">
        <ele>2432.6714</ele>
        <time>2015-08-26T13:27:05Z</time>
      </trkpt>
      <trkpt lat="45.25938" lon="6.75866">
        <ele>2432.6714</ele>
        <time>2015-08-26T13:27:10Z</time>
      </trkpt>
      <trkpt lat="45.25928" lon="6.75867">
        <ele>2430.684</ele>
        <time>2015-08-26T13:27:20Z</time>
      </trkpt>
      <trkpt lat="45.25922" lon="6.75865">
        <ele>2430.684</ele>
        <time>2015-08-26T13:27:25Z</time>
      </trkpt>
      <trkpt lat="45.25905" lon="6.75861">
        <ele>2428.6638</ele>
        <time>2015-08-26T13:27:40Z</time>
      </trkpt>
      <trkpt lat="45.259" lon="6.75857">
        <ele>2428.6638</ele>
        <time>2015-08-26T13:27:45Z</time>
      </trkpt>
      <trkpt lat="45.2589" lon="6.75854">
        <ele>2426.7903</ele>
        <time>2015-08-26T13:27:55Z</time>
      </trkpt>
      <trkpt lat="45.25885" lon="6.7585">
        <ele>2426.7903</ele>
        <time>2015-08-26T13:28:00Z</time>
      </trkpt>
      <trkpt lat="45.25876" lon="6.75845">
        <ele>2424.8972</ele>
        <time>2015-08-26T13:28:10Z</time>
      </trkpt>
      <trkpt lat="45.25871" lon="6.75845">
        <ele>2424.8972</ele>
        <time>2015-08-26T13:28:15Z</time>
      </trkpt>
      <trkpt lat="45.25857" lon="6.75849">
        <ele>2423.0327</ele>
        <time>2015-08-26T13:28:25Z</time>
      </trkpt>
      <trkpt lat="45.25851" lon="6.75852">
        <ele>2423.0327</ele>
        <time>2015-08-26T13:28:30Z</time>
      </trkpt>
      <trkpt lat="45.25842" lon="6.7585">
        <ele>2421.241</ele>
        <time>2015-08-26T13:28:40Z</time>
      </trkpt>
      <trkpt lat="45.25836" lon="6.75849">
        <ele>2421.241</ele>
        <time>2015-08-26T13:28:45Z</time>
      </trkpt>
      <trkpt lat="45.25824" lon="6.75848">
        <ele>2419.519</ele>
        <time>2015-08-26T13:28:55Z</time>
      </trkpt>
      <trkpt lat="45.25819" lon="6.75846">
        <ele>2419.519</ele>
        <time>2015-08-26T13:29:00Z</time>
      </trkpt>
      <trkpt lat="45.25808" lon="6.75838">
        <ele>2417.9797</ele>
        <time>2015-08-26T13:29:10Z</time>
      </trkpt>
      <trkpt lat="45.25804" lon="6.75837">
        <ele>2417.9797</ele>
        <time>2015-08-26T13:29:15Z</time>
      </trkpt>
      <trkpt lat="45.25796" lon="6.7583">
        <ele>2416.4814</ele>
        <time>2015-08-26T13:29:25Z</time>
      </trkpt>
      <trkpt lat="45.25792" lon="6.75825">
        <ele>2416.4814</ele>
        <time>2015-08-26T13:29:30Z</time>
      </trkpt>
      <trkpt lat="45.25783" lon="6.75813">
        <ele>2415.0369</ele>
        <time>2015-08-26T13:29:40Z</time>
      </trkpt>
      <trkpt lat="45.2578" lon="6.75808">
        <ele>2415.0369</ele>
        <time>2015-08-26T13:29:45Z</time>
      </trkpt>
      <trkpt lat="45.25777" lon="6.7579">
        <ele>2413.3118</ele>
        <time>2015-08-26T13:30:00Z</time>
      </trkpt>
      <trkpt lat="45.25777" lon="6.75786">
        <ele>2413.3118</ele>
        <time>2015-08-26T13:30:05Z</time>
      </trkpt>
      <trkpt lat="45.25774" lon="6.75771">
        <ele>2411.3718</ele>
        <time>2015-08-26T13:30:15Z</time>
      </trkpt>
      <trkpt lat="45.25773" lon="6.75763">
        <ele>2411.3718</ele>
        <time>2015-08-26T13:30:20Z</time>
      </trkpt>
      <trkpt lat="45.25772" lon="6.75752">
        <ele>2409.307</ele>
        <time>2015-08-26T13:30:30Z</time>
      </trkpt>
      <trkpt lat="45.2577" lon="6.75755">
        <ele>2409.307</ele>
        <time>2015-08-26T13:30:35Z</time>
      </trkpt>
      <trkpt lat="45.25773" lon="6.75771">
        <ele>2407.0854</ele>
        <time>2015-08-26T13:30:45Z</time>
      </trkpt>
      <trkpt lat="45.25771" lon="6.75778">
        <ele>2407.0854</ele>
        <time>2015-08-26T13:30:50Z</time>
      </trkpt>
      <trkpt lat="45.25773" lon="6.75793">
        <ele>2404.8086</ele>
        <time>2015-08-26T13:31:00Z</time>
      </trkpt>
      <trkpt lat="45.25774" lon="6.75798">
        <ele>2404.8086</ele>
        <time>2015-08-26T13:31:05Z</time>
      </trkpt>
      <trkpt lat="45.25773" lon="6.75812">
        <ele>2402.3384</ele>
        <time>2015-08-26T13:31:15Z</time>
      </trkpt>
      <trkpt lat="45.25773" lon="6.75821">
        <ele>2402.3384</ele>
        <time>2015-08-26T13:31:20Z</time>
      </trkpt>
      <trkpt lat="45.25775" lon="6.75841">
        <ele>2399.5774</ele>
        <time>2015-08-26T13:31:35Z</time>
      </trkpt>
      <trkpt lat="45.25776" lon="6.75849">
        <ele>2399.5774</ele>
        <time>2015-08-26T13:31:40Z</time>
      </trkpt>
      <trkpt lat="45.25777" lon="6.75863">
        <ele>2396.767</ele>
        <time>2015-08-26T13:31:50Z</time>
      </trkpt>
      <trkpt lat="45.25778" lon="6.75872">
        <ele>2396.767</ele>
        <time>2015-08-26T13:31:55Z</time>
      </trkpt>
      <trkpt lat="45.25781" lon="6.75887">
        <ele>2394.0447</ele>
        <time>2015-08-26T13:32:05Z</time>
      </trkpt>
      <trkpt lat="45.25784" lon="6.75895">
        <ele>2394.0447</ele>
        <time>2015-08-26T13:32:10Z</time>
      </trkpt>
      <trkpt lat="45.25791" lon="6.75903">
        <ele>2391.3208</ele>
        <time>2015-08-26T13:32:20Z</time>
      </trkpt>
      <trkpt lat="45.25794" lon="6.75908">
        <ele>2391.3208</ele>
        <time>2015-08-26T13:32:25Z</time>
      </trkpt>
      <trkpt lat="45.25802" lon="6.75918">
        <ele>2388.3826</ele>
        <time>2015-08-26T13:32:35Z</time>
      </trkpt>
      <trkpt lat="45.25806" lon="6.75924">
        <ele>2388.3826</ele>
        <time>2015-08-26T13:32:40Z</time>
      </trkpt>
      <trkpt lat="45.25813" lon="6.75931">
        <ele>2385.4663</ele>
        <time>2015-08-26T13:32:50Z</time>
      </trkpt>
      <trkpt lat="45.25819" lon="6.75935">
        <ele>2385.4663</ele>
        <time>2015-08-26T13:32:55Z</time>
      </trkpt>
      <trkpt lat="45.2583" lon="6.75936">
        <ele>2382.761</ele>
        <time>2015-08-26T13:33:05Z</time>
      </trkpt>
      <trkpt lat="45.25836" lon="6.75937">
        <ele>2382.761</ele>
        <time>2015-08-26T13:33:10Z</time>
      </trkpt>
      <trkpt lat="45.25847" lon="6.75937">
        <ele>2380.3552</ele>
        <time>2015-08-26T13:33:20Z</time>
      </trkpt>
      <trkpt lat="45.25853" lon="6.75939">
        <ele>2380.3552</ele>
        <time>2015-08-26T13:33:25Z</time>
      </trkpt>
      <trkpt lat="45.25868" lon="6.75948">
        <ele>2378.2869</ele>
        <time>2015-08-26T13:33:40Z</time>
      </trkpt>
      <trkpt lat="45.25873" lon="6.75953">
        <ele>2378.2869</ele>
        <time>2015-08-26T13:33:45Z</time>
      </trkpt>
      <trkpt lat="45.25881" lon="6.75963">
        <ele>2376.4885</ele>
        <time>2015-08-26T13:33:55Z</time>
      </trkpt>
      <trkpt lat="45.25886" lon="6.75969">
        <ele>2376.4885</ele>
        <time>2015-08-26T13:34:00Z</time>
      </trkpt>
      <trkpt lat="45.25885" lon="6.75966">
        <ele>2376.4885</ele>
        <time>2015-08-26T13:34:10Z</time>
      </trkpt>
      <trkpt lat="45.25878" lon="6.7596">
        <ele>2374.4504</ele>
        <time>2015-08-26T13:34:15Z</time>
      </trkpt>
      <trkpt lat="45.25868" lon="6.75954">
        <ele>2372.5227</ele>
        <time>2015-08-26T13:34:25Z</time>
      </trkpt>
      <trkpt lat="45.25863" lon="6.75954">
        <ele>2372.5227</ele>
        <time>2015-08-26T13:34:30Z</time>
      </trkpt>
      <trkpt lat="45.25849" lon="6.75957">
        <ele>2370.654</ele>
        <time>2015-08-26T13:34:40Z</time>
      </trkpt>
      <trkpt lat="45.25843" lon="6.75958">
        <ele>2370.654</ele>
        <time>2015-08-26T13:34:45Z</time>
      </trkpt>
      <trkpt lat="45.25831" lon="6.75964">
        <ele>2368.9407</ele>
        <time>2015-08-26T13:34:55Z</time>
      </trkpt>
      <trkpt lat="45.25827" lon="6.75969">
        <ele>2368.9407</ele>
        <time>2015-08-26T13:35:00Z</time>
      </trkpt>
      <trkpt lat="45.25817" lon="6.75968">
        <ele>2367.227</ele>
        <time>2015-08-26T13:35:10Z</time>
      </trkpt>
      <trkpt lat="45.25811" lon="6.7597">
        <ele>2367.227</ele>
        <time>2015-08-26T13:35:15Z</time>
      </trkpt>
      <trkpt lat="45.25802" lon="6.75977">
        <ele>2365.5552</ele>
        <time>2015-08-26T13:35:25Z</time>
      </trkpt>
      <trkpt lat="45.25796" lon="6.75978">
        <ele>2365.5552</ele>
        <time>2015-08-26T13:35:30Z</time>
      </trkpt>
      <trkpt lat="45.25784" lon="6.75974">
        <ele>2363.864</ele>
        <time>2015-08-26T13:35:40Z</time>
      </trkpt>
      <trkpt lat="45.25778" lon="6.75973">
        <ele>2363.864</ele>
        <time>2015-08-26T13:35:45Z</time>
      </trkpt>
      <trkpt lat="45.25761" lon="6.75983">
        <ele>2362.1396</ele>
        <time>2015-08-26T13:36:00Z</time>
      </trkpt>
      <trkpt lat="45.25755" lon="6.75983">
        <ele>2362.1396</ele>
        <time>2015-08-26T13:36:05Z</time>
      </trkpt>
      <trkpt lat="45.25743" lon="6.75979">
        <ele>2360.5422</ele>
        <time>2015-08-26T13:36:15Z</time>
      </trkpt>
      <trkpt lat="45.25737" lon="6.75974">
        <ele>2360.5422</ele>
        <time>2015-08-26T13:36:20Z</time>
      </trkpt>
      <trkpt lat="45.25725" lon="6.75968">
        <ele>2359.1763</ele>
        <time>2015-08-26T13:36:30Z</time>
      </trkpt>
      <trkpt lat="45.25721" lon="6.75968">
        <ele>2359.1763</ele>
        <time>2015-08-26T13:36:35Z</time>
      </trkpt>
      <trkpt lat="45.2571" lon="6.75964">
        <ele>2358.0088</ele>
        <time>2015-08-26T13:36:45Z</time>
      </trkpt>
      <trkpt lat="45.25705" lon="6.75963">
        <ele>2358.0088</ele>
        <time>2015-08-26T13:36:50Z</time>
      </trkpt>
      <trkpt lat="45.25708" lon="6.75963">
        <ele>2358.0088</ele>
        <time>2015-08-26T13:37:00Z</time>
      </trkpt>
      <trkpt lat="45.25707" lon="6.75963">
        <ele>2358.0088</ele>
        <time>2015-08-26T13:37:05Z</time>
      </trkpt>
      <trkpt lat="45.25708" lon="6.75963">
        <ele>2356.7776</ele>
        <time>2015-08-26T13:37:15Z</time>
      </trkpt>
      <trkpt lat="45.25707" lon="6.75965">
        <ele>2356.7776</ele>
        <time>2015-08-26T13:37:20Z</time>
      </trkpt>
      <trkpt lat="45.25704" lon="6.75968">
        <ele>2356.7776</ele>
        <time>2015-08-26T13:37:30Z</time>
      </trkpt>
      <trkpt lat="45.25704" lon="6.7597">
        <ele>2356.7776</ele>
        <time>2015-08-26T13:37:35Z</time>
      </trkpt>
      <trkpt lat="45.25703" lon="6.75968">
        <ele>2356.7776</ele>
        <time>2015-08-26T13:37:45Z</time>
      </trkpt>
      <trkpt lat="45.25704" lon="6.75969">
        <ele>2356.7776</ele>
        <time>2015-08-26T13:37:50Z</time>
      </trkpt>
      <trkpt lat="45.25704" lon="6.75969">
        <ele>2355.6</ele>
        <time>2015-08-26T13:38:05Z</time>
      </trkpt>
      <trkpt lat="45.25705" lon="6.7597">
        <ele>2355.6</ele>
        <time>2015-08-26T13:38:10Z</time>
      </trkpt>
      <trkpt lat="45.25703" lon="6.75967">
        <ele>2355.6</ele>
        <time>2015-08-26T13:38:20Z</time>
      </trkpt>
      <trkpt lat="45.25699" lon="6.75963">
        <ele>2355.6</ele>
        <time>2015-08-26T13:38:25Z</time>
      </trkpt>
      <trkpt lat="45.25691" lon="6.75953">
        <ele>2354.3838</ele>
        <time>2015-08-26T13:38:35Z</time>
      </trkpt>
      <trkpt lat="45.25687" lon="6.75948">
        <ele>2354.3838</ele>
        <time>2015-08-26T13:38:40Z</time>
      </trkpt>
      <trkpt lat="45.25681" lon="6.75932">
        <ele>2353.2874</ele>
        <time>2015-08-26T13:38:50Z</time>
      </trkpt>
      <trkpt lat="45.25681" lon="6.75926">
        <ele>2353.2874</ele>
        <time>2015-08-26T13:38:55Z</time>
      </trkpt>
      <trkpt lat="45.25678" lon="6.75911">
        <ele>2352.2996</ele>
        <time>2015-08-26T13:39:05Z</time>
      </trkpt>
      <trkpt lat="45.25676" lon="6.75905">
        <ele>2352.2996</ele>
        <time>2015-08-26T13:39:10Z</time>
      </trkpt>
      <trkpt lat="45.25678" lon="6.75888">
        <ele>2351.265</ele>
        <time>2015-08-26T13:39:20Z</time>
      </trkpt>
      <trkpt lat="45.25676" lon="6.75881">
        <ele>2351.265</ele>
        <time>2015-08-26T13:39:25Z</time>
      </trkpt>
      <trkpt lat="45.25675" lon="6.75863">
        <ele>2350.098</ele>
        <time>2015-08-26T13:39:35Z</time>
      </trkpt>
      <trkpt lat="45.25673" lon="6.75857">
        <ele>2350.098</ele>
        <time>2015-08-26T13:39:40Z</time>
      </trkpt>
      <trkpt lat="45.25657" lon="6.75849">
        <ele>2348.935</ele>
        <time>2015-08-26T13:39:55Z</time>
      </trkpt>
      <trkpt lat="45.25654" lon="6.75844">
        <ele>2348.935</ele>
        <time>2015-08-26T13:40:00Z</time>
      </trkpt>
      <trkpt lat="45.25648" lon="6.75833">
        <ele>2347.9612</ele>
        <time>2015-08-26T13:40:10Z</time>
      </trkpt>
      <trkpt lat="45.25645" lon="6.75826">
        <ele>2347.9612</ele>
        <time>2015-08-26T13:40:15Z</time>
      </trkpt>
      <trkpt lat="45.25638" lon="6.75812">
        <ele>2347.0154</ele>
        <time>2015-08-26T13:40:25Z</time>
      </trkpt>
      <trkpt lat="45.25634" lon="6.75806">
        <ele>2347.0154</ele>
        <time>2015-08-26T13:40:30Z</time>
      </trkpt>
      <trkpt lat="45.25624" lon="6.75794">
        <ele>2346.1357</ele>
        <time>2015-08-26T13:40:40Z</time>
      </trkpt>
      <trkpt lat="45.25619" lon="6.75788">
        <ele>2346.1357</ele>
        <time>2015-08-26T13:40:45Z</time>
      </trkpt>
      <trkpt lat="45.25608" lon="6.75783">
        <ele>2345.4585</ele>
        <time>2015-08-26T13:40:55Z</time>
      </trkpt>
      <trkpt lat="45.25605" lon="6.75783">
        <ele>2345.4585</ele>
        <time>2015-08-26T13:41:00Z</time>
      </trkpt>
      <trkpt lat="45.25613" lon="6.75783">
        <ele>2344.821</ele>
        <time>2015-08-26T13:41:10Z</time>
      </trkpt>
      <trkpt lat="45.25621" lon="6.75784">
        <ele>2344.821</ele>
        <time>2015-08-26T13:41:15Z</time>
      </trkpt>
      <trkpt lat="45.25623" lon="6.75787">
        <ele>2344.0867</ele>
        <time>2015-08-26T13:41:25Z</time>
      </trkpt>
      <trkpt lat="45.2562" lon="6.75787">
        <ele>2344.0867</ele>
        <time>2015-08-26T13:41:30Z</time>
      </trkpt>
      <trkpt lat="45.25612" lon="6.75787">
        <ele>2343.3606</ele>
        <time>2015-08-26T13:41:40Z</time>
      </trkpt>
      <trkpt lat="45.25612" lon="6.75787">
        <ele>2343.3606</ele>
        <time>2015-08-26T13:41:45Z</time>
      </trkpt>
      <trkpt lat="45.25621" lon="6.7579">
        <ele>2342.2349</ele>
        <time>2015-08-26T13:42:00Z</time>
      </trkpt>
      <trkpt lat="45.25626" lon="6.75792">
        <ele>2342.2349</ele>
        <time>2015-08-26T13:42:05Z</time>
      </trkpt>
      <trkpt lat="45.25642" lon="6.75797">
        <ele>2340.9246</ele>
        <time>2015-08-26T13:42:15Z</time>
      </trkpt>
      <trkpt lat="45.25646" lon="6.758">
        <ele>2340.9246</ele>
        <time>2015-08-26T13:42:20Z</time>
      </trkpt>
      <trkpt lat="45.25659" lon="6.75809">
        <ele>2339.7295</ele>
        <time>2015-08-26T13:42:30Z</time>
      </trkpt>
      <trkpt lat="45.25664" lon="6.75806">
        <ele>2339.7295</ele>
        <time>2015-08-26T13:42:35Z</time>
      </trkpt>
      <trkpt lat="45.25671" lon="6.75787">
        <ele>2338.5535</ele>
        <time>2015-08-26T13:42:45Z</time>
      </trkpt>
      <trkpt lat="45.25669" lon="6.75783">
        <ele>2338.5535</ele>
        <time>2015-08-26T13:42:50Z</time>
      </trkpt>
      <trkpt lat="45.25658" lon="6.75787">
        <ele>2337.2344</ele>
        <time>2015-08-26T13:43:00Z</time>
      </trkpt>
      <trkpt lat="45.25653" lon="6.75784">
        <ele>2337.2344</ele>
        <time>2015-08-26T13:43:05Z</time>
      </trkpt>
      <trkpt lat="45.25645" lon="6.75773">
        <ele>2335.9255</ele>
        <time>2015-08-26T13:43:15Z</time>
      </trkpt>
      <trkpt lat="45.2564" lon="6.75766">
        <ele>2335.9255</ele>
        <time>2015-08-26T13:43:20Z</time>
      </trkpt>
      <trkpt lat="45.25631" lon="6.75755">
        <ele>2334.683</ele>
        <time>2015-08-26T13:43:30Z</time>
      </trkpt>
      <trkpt lat="45.25627" lon="6.75752">
        <ele>2334.683</ele>
        <time>2015-08-26T13:43:35Z</time>
      </trkpt>
      <trkpt lat="45.25618" lon="6.75746">
        <ele>2333.3853</ele>
        <time>2015-08-26T13:43:45Z</time>
      </trkpt>
      <trkpt lat="45.25611" lon="6.75745">
        <ele>2333.3853</ele>
        <time>2015-08-26T13:43:50Z</time>
      </trkpt>
      <trkpt lat="45.256" lon="6.75745">
        <ele>2332.251</ele>
        <time>2015-08-26T13:44:00Z</time>
      </trkpt>
      <trkpt lat="45.25595" lon="6.75742">
        <ele>2332.251</ele>
        <time>2015-08-26T13:44:05Z</time>
      </trkpt>
      <trkpt lat="45.25584" lon="6.75742">
        <ele>2331.2239</ele>
        <time>2015-08-26T13:44:15Z</time>
      </trkpt>
      <trkpt lat="45.25581" lon="6.7574">
        <ele>2331.2239</ele>
        <time>2015-08-26T13:44:20Z</time>
      </trkpt>
      <trkpt lat="45.256" lon="6.75742">
        <ele>2329.977</ele>
        <time>2015-08-26T13:44:35Z</time>
      </trkpt>
      <trkpt lat="45.25607" lon="6.75741">
        <ele>2329.977</ele>
        <time>2015-08-26T13:44:40Z</time>
      </trkpt>
      <trkpt lat="45.25614" lon="6.75738">
        <ele>2328.5112</ele>
        <time>2015-08-26T13:44:50Z</time>
      </trkpt>
      <trkpt lat="45.25619" lon="6.75736">
        <ele>2328.5112</ele>
        <time>2015-08-26T13:44:55Z</time>
      </trkpt>
      <trkpt lat="45.25632" lon="6.75735">
        <ele>2326.6116</ele>
        <time>2015-08-26T13:45:05Z</time>
      </trkpt>
      <trkpt lat="45.25633" lon="6.75735">
        <ele>2326.6116</ele>
        <time>2015-08-26T13:45:10Z</time>
      </trkpt>
      <trkpt lat="45.25643" lon="6.75741">
        <ele>2324.7144</ele>
        <time>2015-08-26T13:45:20Z</time>
      </trkpt>
      <trkpt lat="45.25646" lon="6.75741">
        <ele>2324.7144</ele>
        <time>2015-08-26T13:45:25Z</time>
      </trkpt>
      <trkpt lat="45.25662" lon="6.75731">
        <ele>2322.8494</ele>
        <time>2015-08-26T13:45:35Z</time>
      </trkpt>
      <trkpt lat="45.25662" lon="6.75725">
        <ele>2322.8494</ele>
        <time>2015-08-26T13:45:40Z</time>
      </trkpt>
      <trkpt lat="45.25665" lon="6.7571">
        <ele>2321.0435</ele>
        <time>2015-08-26T13:45:50Z</time>
      </trkpt>
      <trkpt lat="45.25665" lon="6.75706">
        <ele>2321.0435</ele>
        <time>2015-08-26T13:45:55Z</time>
      </trkpt>
      <trkpt lat="45.25676" lon="6.75695">
        <ele>2319.2505</ele>
        <time>2015-08-26T13:46:05Z</time>
      </trkpt>
      <trkpt lat="45.25679" lon="6.75689">
        <ele>2319.2505</ele>
        <time>2015-08-26T13:46:10Z</time>
      </trkpt>
      <trkpt lat="45.2568" lon="6.75678">
        <ele>2317.441</ele>
        <time>2015-08-26T13:46:20Z</time>
      </trkpt>
      <trkpt lat="45.25683" lon="6.7567">
        <ele>2317.441</ele>
        <time>2015-08-26T13:46:25Z</time>
      </trkpt>
      <trkpt lat="45.25683" lon="6.75655">
        <ele>2315.6748</ele>
        <time>2015-08-26T13:46:35Z</time>
      </trkpt>
      <trkpt lat="45.25683" lon="6.75647">
        <ele>2315.6748</ele>
        <time>2015-08-26T13:46:40Z</time>
      </trkpt>
      <trkpt lat="45.25683" lon="6.75631">
        <ele>2314.1943</ele>
        <time>2015-08-26T13:46:50Z</time>
      </trkpt>
      <trkpt lat="45.25683" lon="6.75626">
        <ele>2314.1943</ele>
        <time>2015-08-26T13:46:55Z</time>
      </trkpt>
      <trkpt lat="45.2568" lon="6.75645">
        <ele>2312.6477</ele>
        <time>2015-08-26T13:47:10Z</time>
      </trkpt>
      <trkpt lat="45.25679" lon="6.75651">
        <ele>2312.6477</ele>
        <time>2015-08-26T13:47:15Z</time>
      </trkpt>
      <trkpt lat="45.25677" lon="6.7567">
        <ele>2311.1545</ele>
        <time>2015-08-26T13:47:25Z</time>
      </trkpt>
      <trkpt lat="45.25674" lon="6.75677">
        <ele>2311.1545</ele>
        <time>2015-08-26T13:47:30Z</time>
      </trkpt>
      <trkpt lat="45.25665" lon="6.75686">
        <ele>2309.8699</ele>
        <time>2015-08-26T13:47:40Z</time>
      </trkpt>
      <trkpt lat="45.25658" lon="6.75687">
        <ele>2309.8699</ele>
        <time>2015-08-26T13:47:45Z</time>
      </trkpt>
      <trkpt lat="45.25648" lon="6.75692">
        <ele>2308.5762</ele>
        <time>2015-08-26T13:47:55Z</time>
      </trkpt>
      <trkpt lat="45.25645" lon="6.75696">
        <ele>2308.5762</ele>
        <time>2015-08-26T13:48:00Z</time>
      </trkpt>
      <trkpt lat="45.25651" lon="6.75686">
        <ele>2306.971</ele>
        <time>2015-08-26T13:48:10Z</time>
      </trkpt>
      <trkpt lat="45.2566" lon="6.75683">
        <ele>2305.38</ele>
        <time>2015-08-26T13:48:15Z</time>
      </trkpt>
      <trkpt lat="45.25667" lon="6.75677">
        <ele>2305.38</ele>
        <time>2015-08-26T13:48:25Z</time>
      </trkpt>
      <trkpt lat="45.2567" lon="6.75673">
        <ele>2303.6587</ele>
        <time>2015-08-26T13:48:30Z</time>
      </trkpt>
      <trkpt lat="45.25674" lon="6.75646">
        <ele>2302.235</ele>
        <time>2015-08-26T13:48:45Z</time>
      </trkpt>
      <trkpt lat="45.25675" lon="6.75637">
        <ele>2302.235</ele>
        <time>2015-08-26T13:48:50Z</time>
      </trkpt>
      <trkpt lat="45.2567" lon="6.7562">
        <ele>2300.9868</ele>
        <time>2015-08-26T13:49:00Z</time>
      </trkpt>
      <trkpt lat="45.25669" lon="6.75613">
        <ele>2300.9868</ele>
        <time>2015-08-26T13:49:05Z</time>
      </trkpt>
      <trkpt lat="45.25677" lon="6.75608">
        <ele>2299.5107</ele>
        <time>2015-08-26T13:49:15Z</time>
      </trkpt>
      <trkpt lat="45.25681" lon="6.75605">
        <ele>2299.5107</ele>
        <time>2015-08-26T13:49:20Z</time>
      </trkpt>
      <trkpt lat="45.25684" lon="6.75598">
        <ele>2298.0405</ele>
        <time>2015-08-26T13:49:30Z</time>
      </trkpt>
      <trkpt lat="45.25686" lon="6.75595">
        <ele>2298.0405</ele>
        <time>2015-08-26T13:49:35Z</time>
      </trkpt>
      <trkpt lat="45.25697" lon="6.75585">
        <ele>2295.9414</ele>
        <time>2015-08-26T13:49:45Z</time>
      </trkpt>
      <trkpt lat="45.25701" lon="6.75581">
        <ele>2295.9414</ele>
        <time>2015-08-26T13:49:50Z</time>
      </trkpt>
      <trkpt lat="45.25706" lon="6.75571">
        <ele>2293.5496</ele>
        <time>2015-08-26T13:50:00Z</time>
      </trkpt>
      <trkpt lat="45.25709" lon="6.75564">
        <ele>2293.5496</ele>
        <time>2015-08-26T13:50:05Z</time>
      </trkpt>
      <trkpt lat="45.25716" lon="6.7555">
        <ele>2291.293</ele>
        <time>2015-08-26T13:50:15Z</time>
      </trkpt>
      <trkpt lat="45.25717" lon="6.75546">
        <ele>2291.293</ele>
        <time>2015-08-26T13:50:20Z</time>
      </trkpt>
      <trkpt lat="45.2571" lon="6.75527">
        <ele>2289.553</ele>
        <time>2015-08-26T13:50:30Z</time>
      </trkpt>
      <trkpt lat="45.25709" lon="6.75518">
        <ele>2289.553</ele>
        <time>2015-08-26T13:50:35Z</time>
      </trkpt>
      <trkpt lat="45.25701" lon="6.75498">
        <ele>2288.4077</ele>
        <time>2015-08-26T13:50:50Z</time>
      </trkpt>
      <trkpt lat="45.25698" lon="6.75493">
        <ele>2288.4077</ele>
        <time>2015-08-26T13:50:55Z</time>
      </trkpt>
      <trkpt lat="45.25692" lon="6.75478">
        <ele>2287.4524</ele>
        <time>2015-08-26T13:51:05Z</time>
      </trkpt>
      <trkpt lat="45.25693" lon="6.75474">
        <ele>2287.4524</ele>
        <time>2015-08-26T13:51:10Z</time>
      </trkpt>
      <trkpt lat="45.25692" lon="6.75465">
        <ele>2286.4268</ele>
        <time>2015-08-26T13:51:20Z</time>
      </trkpt>
      <trkpt lat="45.25688" lon="6.75462">
        <ele>2286.4268</ele>
        <time>2015-08-26T13:51:25Z</time>
      </trkpt>
      <trkpt lat="45.25683" lon="6.7545">
        <ele>2285.3062</ele>
        <time>2015-08-26T13:51:35Z</time>
      </trkpt>
      <trkpt lat="45.25682" lon="6.75443">
        <ele>2285.3062</ele>
        <time>2015-08-26T13:51:40Z</time>
      </trkpt>
      <trkpt lat="45.25678" lon="6.75433">
        <ele>2284.3555</ele>
        <time>2015-08-26T13:51:50Z</time>
      </trkpt>
      <trkpt lat="45.25674" lon="6.75429">
        <ele>2284.3555</ele>
        <time>2015-08-26T13:51:55Z</time>
      </trkpt>
      <trkpt lat="45.25667" lon="6.75419">
        <ele>2283.2156</ele>
        <time>2015-08-26T13:52:05Z</time>
      </trkpt>
      <trkpt lat="45.25664" lon="6.75413">
        <ele>2283.2156</ele>
        <time>2015-08-26T13:52:10Z</time>
      </trkpt>
      <trkpt lat="45.25655" lon="6.75403">
        <ele>2282.0288</ele>
        <time>2015-08-26T13:52:20Z</time>
      </trkpt>
      <trkpt lat="45.25652" lon="6.75401">
        <ele>2282.0288</ele>
        <time>2015-08-26T13:52:25Z</time>
      </trkpt>
      <trkpt lat="45.25643" lon="6.75398">
        <ele>2280.6252</ele>
        <time>2015-08-26T13:52:35Z</time>
      </trkpt>
      <trkpt lat="45.25638" lon="6.75396">
        <ele>2280.6252</ele>
        <time>2015-08-26T13:52:40Z</time>
      </trkpt>
      <trkpt lat="45.25631" lon="6.7539">
        <ele>2279.049</ele>
        <time>2015-08-26T13:52:50Z</time>
      </trkpt>
      <trkpt lat="45.25626" lon="6.75384">
        <ele>2279.049</ele>
        <time>2015-08-26T13:52:55Z</time>
      </trkpt>
      <trkpt lat="45.2562" lon="6.75374">
        <ele>2277.2993</ele>
        <time>2015-08-26T13:53:05Z</time>
      </trkpt>
      <trkpt lat="45.25619" lon="6.75369">
        <ele>2277.2993</ele>
        <time>2015-08-26T13:53:10Z</time>
      </trkpt>
      <trkpt lat="45.2562" lon="6.75355">
        <ele>2275.4329</ele>
        <time>2015-08-26T13:53:20Z</time>
      </trkpt>
      <trkpt lat="45.25621" lon="6.75349">
        <ele>2275.4329</ele>
        <time>2015-08-26T13:53:25Z</time>
      </trkpt>
      <trkpt lat="45.2562" lon="6.75334">
        <ele>2273.5024</ele>
        <time>2015-08-26T13:53:35Z</time>
      </trkpt>
      <trkpt lat="45.25619" lon="6.75328">
        <ele>2273.5024</ele>
        <time>2015-08-26T13:53:40Z</time>
      </trkpt>
      <trkpt lat="45.25617" lon="6.75309">
        <ele>2271.255</ele>
        <time>2015-08-26T13:53:55Z</time>
      </trkpt>
      <trkpt lat="45.25618" lon="6.75304">
        <ele>2271.255</ele>
        <time>2015-08-26T13:54:00Z</time>
      </trkpt>
      <trkpt lat="45.25624" lon="6.7529">
        <ele>2268.8745</ele>
        <time>2015-08-26T13:54:10Z</time>
      </trkpt>
      <trkpt lat="45.25627" lon="6.75285">
        <ele>2268.8745</ele>
        <time>2015-08-26T13:54:15Z</time>
      </trkpt>
      <trkpt lat="45.25637" lon="6.75275">
        <ele>2265.9265</ele>
        <time>2015-08-26T13:54:25Z</time>
      </trkpt>
      <trkpt lat="45.2564" lon="6.75271">
        <ele>2265.9265</ele>
        <time>2015-08-26T13:54:30Z</time>
      </trkpt>
      <trkpt lat="45.25648" lon="6.7526">
        <ele>2262.7163</ele>
        <time>2015-08-26T13:54:40Z</time>
      </trkpt>
      <trkpt lat="45.25654" lon="6.75256">
        <ele>2262.7163</ele>
        <time>2015-08-26T13:54:45Z</time>
      </trkpt>
      <trkpt lat="45.25658" lon="6.75253">
        <ele>2259.3257</ele>
        <time>2015-08-26T13:54:55Z</time>
      </trkpt>
      <trkpt lat="45.25658" lon="6.75253">
        <ele>2259.3257</ele>
        <time>2015-08-26T13:55:00Z</time>
      </trkpt>
      <trkpt lat="45.25658" lon="6.75253">
        <ele>2259.3257</ele>
        <time>2015-08-26T13:55:10Z</time>
      </trkpt>
      <trkpt lat="45.25666" lon="6.75253">
        <ele>2259.3257</ele>
        <time>2015-08-26T13:55:40Z</time>
      </trkpt>
      <trkpt lat="45.25671" lon="6.75255">
        <ele>2255.961</ele>
        <time>2015-08-26T13:55:45Z</time>
      </trkpt>
      <trkpt lat="45.25684" lon="6.7526">
        <ele>2253.0142</ele>
        <time>2015-08-26T13:55:55Z</time>
      </trkpt>
      <trkpt lat="45.25688" lon="6.7526">
        <ele>2253.0142</ele>
        <time>2015-08-26T13:56:00Z</time>
      </trkpt>
      <trkpt lat="45.25706" lon="6.75259">
        <ele>2249.9832</ele>
        <time>2015-08-26T13:56:15Z</time>
      </trkpt>
      <trkpt lat="45.25714" lon="6.75256">
        <ele>2247.224</ele>
        <time>2015-08-26T13:56:20Z</time>
      </trkpt>
      <trkpt lat="45.25719" lon="6.75256">
        <ele>2247.224</ele>
        <time>2015-08-26T13:56:30Z</time>
      </trkpt>
      <trkpt lat="45.25721" lon="6.75255">
        <ele>2247.224</ele>
        <time>2015-08-26T13:56:35Z</time>
      </trkpt>
      <trkpt lat="45.25723" lon="6.75251">
        <ele>2244.4177</ele>
        <time>2015-08-26T13:56:45Z</time>
      </trkpt>
      <trkpt lat="45.25722" lon="6.75251">
        <ele>2244.4177</ele>
        <time>2015-08-26T13:56:50Z</time>
      </trkpt>
      <trkpt lat="45.25718" lon="6.75248">
        <ele>2244.4177</ele>
        <time>2015-08-26T13:57:00Z</time>
      </trkpt>
      <trkpt lat="45.25717" lon="6.75243">
        <ele>2244.4177</ele>
        <time>2015-08-26T13:57:05Z</time>
      </trkpt>
      <trkpt lat="45.2571" lon="6.75236">
        <ele>2241.8015</ele>
        <time>2015-08-26T13:57:15Z</time>
      </trkpt>
      <trkpt lat="45.25705" lon="6.75232">
        <ele>2241.8015</ele>
        <time>2015-08-26T13:57:20Z</time>
      </trkpt>
      <trkpt lat="45.25692" lon="6.75231">
        <ele>2239.3499</ele>
        <time>2015-08-26T13:57:35Z</time>
      </trkpt>
      <trkpt lat="45.25688" lon="6.7523">
        <ele>2239.3499</ele>
        <time>2015-08-26T13:57:40Z</time>
      </trkpt>
      <trkpt lat="45.25682" lon="6.75228">
        <ele>2236.9375</ele>
        <time>2015-08-26T13:57:50Z</time>
      </trkpt>
      <trkpt lat="45.25684" lon="6.75227">
        <ele>2236.9375</ele>
        <time>2015-08-26T13:57:55Z</time>
      </trkpt>
      <trkpt lat="45.25686" lon="6.75221">
        <ele>2236.9375</ele>
        <time>2015-08-26T13:58:05Z</time>
      </trkpt>
      <trkpt lat="45.25685" lon="6.75215">
        <ele>2234.405</ele>
        <time>2015-08-26T13:58:10Z</time>
      </trkpt>
      <trkpt lat="45.25679" lon="6.75216">
        <ele>2234.405</ele>
        <time>2015-08-26T13:58:20Z</time>
      </trkpt>
      <trkpt lat="45.25677" lon="6.75215">
        <ele>2234.405</ele>
        <time>2015-08-26T13:58:25Z</time>
      </trkpt>
      <trkpt lat="45.25679" lon="6.75211">
        <ele>2231.317</ele>
        <time>2015-08-26T13:58:35Z</time>
      </trkpt>
      <trkpt lat="45.25679" lon="6.75211">
        <ele>2231.317</ele>
        <time>2015-08-26T13:58:40Z</time>
      </trkpt>
      <trkpt lat="45.25683" lon="6.75209">
        <ele>2231.317</ele>
        <time>2015-08-26T13:58:50Z</time>
      </trkpt>
      <trkpt lat="45.25683" lon="6.7521">
        <ele>2231.317</ele>
        <time>2015-08-26T13:58:55Z</time>
      </trkpt>
      <trkpt lat="45.25682" lon="6.75209">
        <ele>2231.317</ele>
        <time>2015-08-26T13:59:20Z</time>
      </trkpt>
      <trkpt lat="45.25683" lon="6.75209">
        <ele>2231.317</ele>
        <time>2015-08-26T14:03:05Z</time>
      </trkpt>
      <trkpt lat="45.25683" lon="6.75209">
        <ele>2231.317</ele>
        <time>2015-08-26T14:03:15Z</time>
      </trkpt>
      <trkpt lat="45.25684" lon="6.75208">
        <ele>2231.317</ele>
        <time>2015-08-26T14:03:40Z</time>
      </trkpt>
      <trkpt lat="45.25684" lon="6.75208">
        <ele>2231.317</ele>
        <time>2015-08-26T14:03:50Z</time>
      </trkpt>
      <trkpt lat="45.25682" lon="6.75207">
        <ele>2228.5244</ele>
        <time>2015-08-26T14:03:55Z</time>
      </trkpt>
      <trkpt lat="45.2568" lon="6.75209">
        <ele>2228.5244</ele>
        <time>2015-08-26T14:04:05Z</time>
      </trkpt>
      <trkpt lat="45.25679" lon="6.75209">
        <ele>2228.5244</ele>
        <time>2015-08-26T14:04:10Z</time>
      </trkpt>
      <trkpt lat="45.25675" lon="6.75207">
        <ele>2228.5244</ele>
        <time>2015-08-26T14:04:20Z</time>
      </trkpt>
      <trkpt lat="45.25673" lon="6.75207">
        <ele>2226.1384</ele>
        <time>2015-08-26T14:05:10Z</time>
      </trkpt>
      <trkpt lat="45.25669" lon="6.75201">
        <ele>2226.1384</ele>
        <time>2015-08-26T14:05:20Z</time>
      </trkpt>
      <trkpt lat="45.25662" lon="6.75194">
        <ele>2223.958</ele>
        <time>2015-08-26T14:05:25Z</time>
      </trkpt>
      <trkpt lat="45.25657" lon="6.7518">
        <ele>2221.954</ele>
        <time>2015-08-26T14:05:35Z</time>
      </trkpt>
      <trkpt lat="45.25658" lon="6.75175">
        <ele>2221.954</ele>
        <time>2015-08-26T14:05:40Z</time>
      </trkpt>
      <trkpt lat="45.25658" lon="6.75175">
        <ele>2221.954</ele>
        <time>2015-08-26T14:05:50Z</time>
      </trkpt>
      <trkpt lat="45.25657" lon="6.75173">
        <ele>2221.954</ele>
        <time>2015-08-26T14:06:55Z</time>
      </trkpt>
      <trkpt lat="45.25656" lon="6.75171">
        <ele>2221.954</ele>
        <time>2015-08-26T14:07:00Z</time>
      </trkpt>
      <trkpt lat="45.25654" lon="6.75161">
        <ele>2220.345</ele>
        <time>2015-08-26T14:07:10Z</time>
      </trkpt>
      <trkpt lat="45.25652" lon="6.75153">
        <ele>2220.345</ele>
        <time>2015-08-26T14:07:15Z</time>
      </trkpt>
      <trkpt lat="45.25652" lon="6.75143">
        <ele>2218.8843</ele>
        <time>2015-08-26T14:07:25Z</time>
      </trkpt>
      <trkpt lat="45.25653" lon="6.75137">
        <ele>2218.8843</ele>
        <time>2015-08-26T14:07:30Z</time>
      </trkpt>
      <trkpt lat="45.25656" lon="6.75123">
        <ele>2217.6753</ele>
        <time>2015-08-26T14:07:40Z</time>
      </trkpt>
      <trkpt lat="45.25657" lon="6.75114">
        <ele>2217.6753</ele>
        <time>2015-08-26T14:07:45Z</time>
      </trkpt>
      <trkpt lat="45.25659" lon="6.75104">
        <ele>2216.755</ele>
        <time>2015-08-26T14:07:55Z</time>
      </trkpt>
      <trkpt lat="45.2566" lon="6.75099">
        <ele>2216.755</ele>
        <time>2015-08-26T14:08:00Z</time>
      </trkpt>
      <trkpt lat="45.25667" lon="6.75088">
        <ele>2215.8394</ele>
        <time>2015-08-26T14:08:15Z</time>
      </trkpt>
      <trkpt lat="45.25667" lon="6.75086">
        <ele>2215.8394</ele>
        <time>2015-08-26T14:08:20Z</time>
      </trkpt>
      <trkpt lat="45.25667" lon="6.75081">
        <ele>2215.8394</ele>
        <time>2015-08-26T14:08:30Z</time>
      </trkpt>
      <trkpt lat="45.25668" lon="6.75077">
        <ele>2215.8394</ele>
        <time>2015-08-26T14:08:35Z</time>
      </trkpt>
      <trkpt lat="45.25671" lon="6.75068">
        <ele>2214.6375</ele>
        <time>2015-08-26T14:08:45Z</time>
      </trkpt>
      <trkpt lat="45.25672" lon="6.75066">
        <ele>2214.6375</ele>
        <time>2015-08-26T14:08:50Z</time>
      </trkpt>
      <trkpt lat="45.25672" lon="6.75061">
        <ele>2214.6375</ele>
        <time>2015-08-26T14:09:00Z</time>
      </trkpt>
      <trkpt lat="45.25671" lon="6.7506">
        <ele>2214.6375</ele>
        <time>2015-08-26T14:09:05Z</time>
      </trkpt>
      <trkpt lat="45.25675" lon="6.75055">
        <ele>2213.6865</ele>
        <time>2015-08-26T14:09:15Z</time>
      </trkpt>
      <trkpt lat="45.25678" lon="6.7505">
        <ele>2213.6865</ele>
        <time>2015-08-26T14:09:20Z</time>
      </trkpt>
      <trkpt lat="45.25682" lon="6.75046">
        <ele>2212.8352</ele>
        <time>2015-08-26T14:09:30Z</time>
      </trkpt>
      <trkpt lat="45.25684" lon="6.75045">
        <ele>2212.8352</ele>
        <time>2015-08-26T14:09:35Z</time>
      </trkpt>
      <trkpt lat="45.25692" lon="6.75038">
        <ele>2212.376</ele>
        <time>2015-08-26T14:09:45Z</time>
      </trkpt>
      <trkpt lat="45.25693" lon="6.75034">
        <ele>2212.376</ele>
        <time>2015-08-26T14:09:50Z</time>
      </trkpt>
      <trkpt lat="45.25698" lon="6.75028">
        <ele>2212.2898</ele>
        <time>2015-08-26T14:10:00Z</time>
      </trkpt>
      <trkpt lat="45.25698" lon="6.75028">
        <ele>2212.2898</ele>
        <time>2015-08-26T14:10:05Z</time>
      </trkpt>
      <trkpt lat="45.257" lon="6.75018">
        <ele>2212.2898</ele>
        <time>2015-08-26T14:10:15Z</time>
      </trkpt>
      <trkpt lat="45.25702" lon="6.75015">
        <ele>2212.7458</ele>
        <time>2015-08-26T14:10:20Z</time>
      </trkpt>
      <trkpt lat="45.25701" lon="6.7501">
        <ele>2212.7458</ele>
        <time>2015-08-26T14:10:30Z</time>
      </trkpt>
      <trkpt lat="45.25701" lon="6.75006">
        <ele>2212.7458</ele>
        <time>2015-08-26T14:10:35Z</time>
      </trkpt>
      <trkpt lat="45.25703" lon="6.74995">
        <ele>2213.7979</ele>
        <time>2015-08-26T14:10:45Z</time>
      </trkpt>
      <trkpt lat="45.25702" lon="6.74991">
        <ele>2213.7979</ele>
        <time>2015-08-26T14:10:50Z</time>
      </trkpt>
      <trkpt lat="45.25696" lon="6.74982">
        <ele>2215.077</ele>
        <time>2015-08-26T14:11:00Z</time>
      </trkpt>
      <trkpt lat="45.25691" lon="6.74979">
        <ele>2215.077</ele>
        <time>2015-08-26T14:11:05Z</time>
      </trkpt>
      <trkpt lat="45.25682" lon="6.7497">
        <ele>2216.6724</ele>
        <time>2015-08-26T14:11:20Z</time>
      </trkpt>
      <trkpt lat="45.2568" lon="6.74968">
        <ele>2216.6724</ele>
        <time>2015-08-26T14:11:25Z</time>
      </trkpt>
      <trkpt lat="45.25676" lon="6.74963">
        <ele>2216.6724</ele>
        <time>2015-08-26T14:11:35Z</time>
      </trkpt>
      <trkpt lat="45.25674" lon="6.74957">
        <ele>2218.551</ele>
        <time>2015-08-26T14:11:40Z</time>
      </trkpt>
      <trkpt lat="45.25669" lon="6.74945">
        <ele>2220.4944</ele>
        <time>2015-08-26T14:11:50Z</time>
      </trkpt>
      <trkpt lat="45.25669" lon="6.7494">
        <ele>2220.4944</ele>
        <time>2015-08-26T14:11:55Z</time>
      </trkpt>
      <trkpt lat="45.25666" lon="6.7493">
        <ele>2222.5015</ele>
        <time>2015-08-26T14:12:05Z</time>
      </trkpt>
      <trkpt lat="45.25665" lon="6.74926">
        <ele>2222.5015</ele>
        <time>2015-08-26T14:12:10Z</time>
      </trkpt>
      <trkpt lat="45.25663" lon="6.74917">
        <ele>2224.4128</ele>
        <time>2015-08-26T14:12:20Z</time>
      </trkpt>
      <trkpt lat="45.25662" lon="6.74914">
        <ele>2224.4128</ele>
        <time>2015-08-26T14:12:25Z</time>
      </trkpt>
      <trkpt lat="45.25658" lon="6.74904">
        <ele>2226.3118</ele>
        <time>2015-08-26T14:12:35Z</time>
      </trkpt>
      <trkpt lat="45.25656" lon="6.74899">
        <ele>2226.3118</ele>
        <time>2015-08-26T14:12:40Z</time>
      </trkpt>
      <trkpt lat="45.25651" lon="6.74894">
        <ele>2228.2039</ele>
        <time>2015-08-26T14:12:50Z</time>
      </trkpt>
      <trkpt lat="45.25649" lon="6.74892">
        <ele>2228.2039</ele>
        <time>2015-08-26T14:12:55Z</time>
      </trkpt>
      <trkpt lat="45.25646" lon="6.74884">
        <ele>2230.2527</ele>
        <time>2015-08-26T14:13:10Z</time>
      </trkpt>
      <trkpt lat="45.25645" lon="6.74881">
        <ele>2230.2527</ele>
        <time>2015-08-26T14:13:15Z</time>
      </trkpt>
      <trkpt lat="45.25641" lon="6.74875">
        <ele>2230.2527</ele>
        <time>2015-08-26T14:13:25Z</time>
      </trkpt>
      <trkpt lat="45.25639" lon="6.74872">
        <ele>2232.4658</ele>
        <time>2015-08-26T14:13:30Z</time>
      </trkpt>
      <trkpt lat="45.25637" lon="6.7486">
        <ele>2232.4658</ele>
        <time>2015-08-26T14:13:40Z</time>
      </trkpt>
      <trkpt lat="45.25636" lon="6.74856">
        <ele>2234.691</ele>
        <time>2015-08-26T14:13:45Z</time>
      </trkpt>
      <trkpt lat="45.25633" lon="6.74845">
        <ele>2234.691</ele>
        <time>2015-08-26T14:13:55Z</time>
      </trkpt>
      <trkpt lat="45.25632" lon="6.7484">
        <ele>2236.7737</ele>
        <time>2015-08-26T14:14:00Z</time>
      </trkpt>
      <trkpt lat="45.25629" lon="6.74832">
        <ele>2236.7737</ele>
        <time>2015-08-26T14:14:10Z</time>
      </trkpt>
      <trkpt lat="45.25628" lon="6.74829">
        <ele>2236.7737</ele>
        <time>2015-08-26T14:14:15Z</time>
      </trkpt>
      <trkpt lat="45.25625" lon="6.74826">
        <ele>2238.758</ele>
        <time>2015-08-26T14:14:25Z</time>
      </trkpt>
      <trkpt lat="45.25623" lon="6.74823">
        <ele>2238.758</ele>
        <time>2015-08-26T14:14:30Z</time>
      </trkpt>
      <trkpt lat="45.25625" lon="6.74821">
        <ele>2238.758</ele>
        <time>2015-08-26T14:14:40Z</time>
      </trkpt>
      <trkpt lat="45.25627" lon="6.7482">
        <ele>2238.758</ele>
        <time>2015-08-26T14:14:45Z</time>
      </trkpt>
      <trkpt lat="45.25624" lon="6.7482">
        <ele>2240.686</ele>
        <time>2015-08-26T14:14:55Z</time>
      </trkpt>
      <trkpt lat="45.25622" lon="6.74818">
        <ele>2240.686</ele>
        <time>2015-08-26T14:15:00Z</time>
      </trkpt>
      <trkpt lat="45.25623" lon="6.7482">
        <ele>2240.686</ele>
        <time>2015-08-26T14:15:10Z</time>
      </trkpt>
      <trkpt lat="45.25622" lon="6.74819">
        <ele>2240.686</ele>
        <time>2015-08-26T14:15:15Z</time>
      </trkpt>
      <trkpt lat="45.25621" lon="6.74816">
        <ele>2240.686</ele>
        <time>2015-08-26T14:15:25Z</time>
      </trkpt>
      <trkpt lat="45.2562" lon="6.74811">
        <ele>2242.7122</ele>
        <time>2015-08-26T14:15:30Z</time>
      </trkpt>
      <trkpt lat="45.25618" lon="6.74797">
        <ele>2244.5754</ele>
        <time>2015-08-26T14:15:40Z</time>
      </trkpt>
      <trkpt lat="45.25615" lon="6.7479">
        <ele>2244.5754</ele>
        <time>2015-08-26T14:15:45Z</time>
      </trkpt>
      <trkpt lat="45.25612" lon="6.7478">
        <ele>2246.3384</ele>
        <time>2015-08-26T14:15:55Z</time>
      </trkpt>
      <trkpt lat="45.25609" lon="6.74777">
        <ele>2246.3384</ele>
        <time>2015-08-26T14:16:00Z</time>
      </trkpt>
      <trkpt lat="45.25609" lon="6.74764">
        <ele>2247.9724</ele>
        <time>2015-08-26T14:16:15Z</time>
      </trkpt>
      <trkpt lat="45.25609" lon="6.7476">
        <ele>2247.9724</ele>
        <time>2015-08-26T14:16:20Z</time>
      </trkpt>
      <trkpt lat="45.25608" lon="6.74744">
        <ele>2249.4663</ele>
        <time>2015-08-26T14:16:30Z</time>
      </trkpt>
      <trkpt lat="45.25606" lon="6.7474">
        <ele>2249.4663</ele>
        <time>2015-08-26T14:16:35Z</time>
      </trkpt>
      <trkpt lat="45.25606" lon="6.74731">
        <ele>2250.7239</ele>
        <time>2015-08-26T14:16:45Z</time>
      </trkpt>
      <trkpt lat="45.25605" lon="6.74725">
        <ele>2250.7239</ele>
        <time>2015-08-26T14:16:50Z</time>
      </trkpt>
      <trkpt lat="45.25601" lon="6.74715">
        <ele>2251.9019</ele>
        <time>2015-08-26T14:17:00Z</time>
      </trkpt>
      <trkpt lat="45.25601" lon="6.74711">
        <ele>2251.9019</ele>
        <time>2015-08-26T14:17:05Z</time>
      </trkpt>
      <trkpt lat="45.256" lon="6.74704">
        <ele>2251.9019</ele>
        <time>2015-08-26T14:17:15Z</time>
      </trkpt>
      <trkpt lat="45.25599" lon="6.747">
        <ele>2253.1313</ele>
        <time>2015-08-26T14:17:20Z</time>
      </trkpt>
      <trkpt lat="45.25596" lon="6.74693">
        <ele>2253.1313</ele>
        <time>2015-08-26T14:17:30Z</time>
      </trkpt>
      <trkpt lat="45.25597" lon="6.74688">
        <ele>2254.1597</ele>
        <time>2015-08-26T14:17:35Z</time>
      </trkpt>
      <trkpt lat="45.256" lon="6.7468">
        <ele>2254.1597</ele>
        <time>2015-08-26T14:17:45Z</time>
      </trkpt>
      <trkpt lat="45.25601" lon="6.74676">
        <ele>2254.9985</ele>
        <time>2015-08-26T14:17:50Z</time>
      </trkpt>
      <trkpt lat="45.25602" lon="6.74669">
        <ele>2254.9985</ele>
        <time>2015-08-26T14:18:00Z</time>
      </trkpt>
      <trkpt lat="45.25603" lon="6.74666">
        <ele>2254.9985</ele>
        <time>2015-08-26T14:18:05Z</time>
      </trkpt>
      <trkpt lat="45.25606" lon="6.74655">
        <ele>2255.803</ele>
        <time>2015-08-26T14:18:20Z</time>
      </trkpt>
      <trkpt lat="45.25607" lon="6.74652">
        <ele>2255.803</ele>
        <time>2015-08-26T14:18:25Z</time>
      </trkpt>
      <trkpt lat="45.25608" lon="6.74645">
        <ele>2255.803</ele>
        <time>2015-08-26T14:18:35Z</time>
      </trkpt>
      <trkpt lat="45.25611" lon="6.7464">
        <ele>2256.5593</ele>
        <time>2015-08-26T14:18:40Z</time>
      </trkpt>
      <trkpt lat="45.25615" lon="6.74634">
        <ele>2256.5593</ele>
        <time>2015-08-26T14:18:50Z</time>
      </trkpt>
      <trkpt lat="45.25617" lon="6.74631">
        <ele>2257.413</ele>
        <time>2015-08-26T14:18:55Z</time>
      </trkpt>
      <trkpt lat="45.25623" lon="6.74625">
        <ele>2257.413</ele>
        <time>2015-08-26T14:19:05Z</time>
      </trkpt>
      <trkpt lat="45.25624" lon="6.74625">
        <ele>2257.413</ele>
        <time>2015-08-26T14:19:10Z</time>
      </trkpt>
      <trkpt lat="45.25628" lon="6.7462">
        <ele>2258.3267</ele>
        <time>2015-08-26T14:19:20Z</time>
      </trkpt>
      <trkpt lat="45.25629" lon="6.74615">
        <ele>2258.3267</ele>
        <time>2015-08-26T14:19:25Z</time>
      </trkpt>
      <trkpt lat="45.25633" lon="6.7461">
        <ele>2258.3267</ele>
        <time>2015-08-26T14:19:35Z</time>
      </trkpt>
      <trkpt lat="45.25634" lon="6.74605">
        <ele>2259.1064</ele>
        <time>2015-08-26T14:19:40Z</time>
      </trkpt>
      <trkpt lat="45.25638" lon="6.74597">
        <ele>2259.1064</ele>
        <time>2015-08-26T14:19:50Z</time>
      </trkpt>
      <trkpt lat="45.25638" lon="6.74593">
        <ele>2259.7607</ele>
        <time>2015-08-26T14:19:55Z</time>
      </trkpt>
      <trkpt lat="45.25642" lon="6.74589">
        <ele>2259.7607</ele>
        <time>2015-08-26T14:20:05Z</time>
      </trkpt>
      <trkpt lat="45.25644" lon="6.74588">
        <ele>2259.7607</ele>
        <time>2015-08-26T14:20:10Z</time>
      </trkpt>
      <trkpt lat="45.25652" lon="6.74585">
        <ele>2260.6729</ele>
        <time>2015-08-26T14:20:25Z</time>
      </trkpt>
      <trkpt lat="45.25654" lon="6.74583">
        <ele>2260.6729</ele>
        <time>2015-08-26T14:20:30Z</time>
      </trkpt>
      <trkpt lat="45.2566" lon="6.74575">
        <ele>2261.7073</ele>
        <time>2015-08-26T14:20:40Z</time>
      </trkpt>
      <trkpt lat="45.25664" lon="6.74572">
        <ele>2261.7073</ele>
        <time>2015-08-26T14:20:45Z</time>
      </trkpt>
      <trkpt lat="45.25671" lon="6.74567">
        <ele>2262.8394</ele>
        <time>2015-08-26T14:20:55Z</time>
      </trkpt>
      <trkpt lat="45.25673" lon="6.74565">
        <ele>2262.8394</ele>
        <time>2015-08-26T14:21:00Z</time>
      </trkpt>
      <trkpt lat="45.25676" lon="6.74563">
        <ele>2262.8394</ele>
        <time>2015-08-26T14:21:10Z</time>
      </trkpt>
      <trkpt lat="45.25677" lon="6.74562">
        <ele>2262.8394</ele>
        <time>2015-08-26T14:21:15Z</time>
      </trkpt>
      <trkpt lat="45.25684" lon="6.74553">
        <ele>2264.5354</ele>
        <time>2015-08-26T14:21:25Z</time>
      </trkpt>
      <trkpt lat="45.25685" lon="6.7455">
        <ele>2264.5354</ele>
        <time>2015-08-26T14:21:30Z</time>
      </trkpt>
      <trkpt lat="45.25688" lon="6.7454">
        <ele>2266.218</ele>
        <time>2015-08-26T14:21:40Z</time>
      </trkpt>
      <trkpt lat="45.25689" lon="6.74535">
        <ele>2266.218</ele>
        <time>2015-08-26T14:21:45Z</time>
      </trkpt>
      <trkpt lat="45.25692" lon="6.74525">
        <ele>2267.914</ele>
        <time>2015-08-26T14:21:55Z</time>
      </trkpt>
      <trkpt lat="45.2569" lon="6.7452">
        <ele>2267.914</ele>
        <time>2015-08-26T14:22:00Z</time>
      </trkpt>
      <trkpt lat="45.25686" lon="6.74512">
        <ele>2269.735</ele>
        <time>2015-08-26T14:22:10Z</time>
      </trkpt>
      <trkpt lat="45.25683" lon="6.74509">
        <ele>2269.735</ele>
        <time>2015-08-26T14:22:15Z</time>
      </trkpt>
      <trkpt lat="45.25673" lon="6.74506">
        <ele>2271.5105</ele>
        <time>2015-08-26T14:22:25Z</time>
      </trkpt>
      <trkpt lat="45.25668" lon="6.74505">
        <ele>2271.5105</ele>
        <time>2015-08-26T14:22:30Z</time>
      </trkpt>
      <trkpt lat="45.2566" lon="6.74499">
        <ele>2273.2842</ele>
        <time>2015-08-26T14:22:40Z</time>
      </trkpt>
      <trkpt lat="45.25656" lon="6.74496">
        <ele>2273.2842</ele>
        <time>2015-08-26T14:22:45Z</time>
      </trkpt>
      <trkpt lat="45.2565" lon="6.74491">
        <ele>2274.9238</ele>
        <time>2015-08-26T14:22:55Z</time>
      </trkpt>
      <trkpt lat="45.25646" lon="6.74489">
        <ele>2274.9238</ele>
        <time>2015-08-26T14:23:00Z</time>
      </trkpt>
      <trkpt lat="45.25634" lon="6.74483">
        <ele>2276.6682</ele>
        <time>2015-08-26T14:23:15Z</time>
      </trkpt>
      <trkpt lat="45.2563" lon="6.7448">
        <ele>2276.6682</ele>
        <time>2015-08-26T14:23:20Z</time>
      </trkpt>
      <trkpt lat="45.25621" lon="6.74478">
        <ele>2278.3772</ele>
        <time>2015-08-26T14:23:30Z</time>
      </trkpt>
      <trkpt lat="45.25617" lon="6.74477">
        <ele>2278.3772</ele>
        <time>2015-08-26T14:23:35Z</time>
      </trkpt>
      <trkpt lat="45.25609" lon="6.74471">
        <ele>2279.9797</ele>
        <time>2015-08-26T14:23:45Z</time>
      </trkpt>
      <trkpt lat="45.25605" lon="6.74467">
        <ele>2279.9797</ele>
        <time>2015-08-26T14:23:50Z</time>
      </trkpt>
      <trkpt lat="45.25597" lon="6.74461">
        <ele>2281.2944</ele>
        <time>2015-08-26T14:24:00Z</time>
      </trkpt>
      <trkpt lat="45.25594" lon="6.74459">
        <ele>2281.2944</ele>
        <time>2015-08-26T14:24:05Z</time>
      </trkpt>
      <trkpt lat="45.25587" lon="6.74453">
        <ele>2282.3853</ele>
        <time>2015-08-26T14:24:15Z</time>
      </trkpt>
      <trkpt lat="45.25585" lon="6.7445">
        <ele>2282.3853</ele>
        <time>2015-08-26T14:24:20Z</time>
      </trkpt>
      <trkpt lat="45.25577" lon="6.74443">
        <ele>2283.3406</ele>
        <time>2015-08-26T14:24:30Z</time>
      </trkpt>
      <trkpt lat="45.25575" lon="6.74443">
        <ele>2283.3406</ele>
        <time>2015-08-26T14:24:35Z</time>
      </trkpt>
      <trkpt lat="45.25577" lon="6.74444">
        <ele>2283.3406</ele>
        <time>2015-08-26T14:24:45Z</time>
      </trkpt>
      <trkpt lat="45.25576" lon="6.74444">
        <ele>2283.3406</ele>
        <time>2015-08-26T14:24:50Z</time>
      </trkpt>
      <trkpt lat="45.25575" lon="6.74444">
        <ele>2283.3406</ele>
        <time>2015-08-26T14:25:00Z</time>
      </trkpt>
      <trkpt lat="45.25575" lon="6.74444">
        <ele>2283.3406</ele>
        <time>2015-08-26T14:25:05Z</time>
      </trkpt>
      <trkpt lat="45.25576" lon="6.74444">
        <ele>2283.3406</ele>
        <time>2015-08-26T14:25:15Z</time>
      </trkpt>
      <trkpt lat="45.25577" lon="6.74444">
        <ele>2283.3406</ele>
        <time>2015-08-26T14:25:20Z</time>
      </trkpt>
      <trkpt lat="45.25577" lon="6.74443">
        <ele>2283.3406</ele>
        <time>2015-08-26T14:25:30Z</time>
      </trkpt>
      <trkpt lat="45.25577" lon="6.74443">
        <ele>2283.3406</ele>
        <time>2015-08-26T14:25:35Z</time>
      </trkpt>
      <trkpt lat="45.25578" lon="6.7444">
        <ele>2284.0703</ele>
        <time>2015-08-26T14:25:45Z</time>
      </trkpt>
      <trkpt lat="45.25578" lon="6.74441">
        <ele>2284.0703</ele>
        <time>2015-08-26T14:25:50Z</time>
      </trkpt>
      <trkpt lat="45.25576" lon="6.74439">
        <ele>2284.0703</ele>
        <time>2015-08-26T14:26:00Z</time>
      </trkpt>
      <trkpt lat="45.25574" lon="6.74439">
        <ele>2284.0703</ele>
        <time>2015-08-26T14:26:05Z</time>
      </trkpt>
      <trkpt lat="45.25568" lon="6.74434">
        <ele>2284.592</ele>
        <time>2015-08-26T14:26:15Z</time>
      </trkpt>
      <trkpt lat="45.25565" lon="6.7443">
        <ele>2284.592</ele>
        <time>2015-08-26T14:26:20Z</time>
      </trkpt>
      <trkpt lat="45.25555" lon="6.74416">
        <ele>2285.0818</ele>
        <time>2015-08-26T14:26:35Z</time>
      </trkpt>
      <trkpt lat="45.25552" lon="6.74412">
        <ele>2285.0818</ele>
        <time>2015-08-26T14:26:40Z</time>
      </trkpt>
      <trkpt lat="45.25544" lon="6.74402">
        <ele>2285.414</ele>
        <time>2015-08-26T14:26:50Z</time>
      </trkpt>
      <trkpt lat="45.2554" lon="6.74395">
        <ele>2285.414</ele>
        <time>2015-08-26T14:26:55Z</time>
      </trkpt>
      <trkpt lat="45.25534" lon="6.74387">
        <ele>2285.6033</ele>
        <time>2015-08-26T14:27:05Z</time>
      </trkpt>
      <trkpt lat="45.25531" lon="6.74382">
        <ele>2285.6033</ele>
        <time>2015-08-26T14:27:10Z</time>
      </trkpt>
      <trkpt lat="45.25526" lon="6.7437">
        <ele>2285.461</ele>
        <time>2015-08-26T14:27:20Z</time>
      </trkpt>
      <trkpt lat="45.25524" lon="6.74365">
        <ele>2285.461</ele>
        <time>2015-08-26T14:27:25Z</time>
      </trkpt>
      <trkpt lat="45.25521" lon="6.74357">
        <ele>2285.2896</ele>
        <time>2015-08-26T14:27:35Z</time>
      </trkpt>
      <trkpt lat="45.2552" lon="6.74353">
        <ele>2285.2896</ele>
        <time>2015-08-26T14:27:40Z</time>
      </trkpt>
      <trkpt lat="45.25517" lon="6.74341">
        <ele>2284.9941</ele>
        <time>2015-08-26T14:27:50Z</time>
      </trkpt>
      <trkpt lat="45.25515" lon="6.74335">
        <ele>2284.9941</ele>
        <time>2015-08-26T14:27:55Z</time>
      </trkpt>
      <trkpt lat="45.25513" lon="6.74324">
        <ele>2284.4734</ele>
        <time>2015-08-26T14:28:05Z</time>
      </trkpt>
      <trkpt lat="45.2551" lon="6.74317">
        <ele>2284.4734</ele>
        <time>2015-08-26T14:28:10Z</time>
      </trkpt>
      <trkpt lat="45.25511" lon="6.74301">
        <ele>2283.619</ele>
        <time>2015-08-26T14:28:20Z</time>
      </trkpt>
      <trkpt lat="45.25511" lon="6.74295">
        <ele>2283.619</ele>
        <time>2015-08-26T14:28:25Z</time>
      </trkpt>
      <trkpt lat="45.25508" lon="6.74275">
        <ele>2282.4614</ele>
        <time>2015-08-26T14:28:40Z</time>
      </trkpt>
      <trkpt lat="45.25507" lon="6.74269">
        <ele>2282.4614</ele>
        <time>2015-08-26T14:28:45Z</time>
      </trkpt>
      <trkpt lat="45.25504" lon="6.74258">
        <ele>2281.1453</ele>
        <time>2015-08-26T14:28:55Z</time>
      </trkpt>
      <trkpt lat="45.25502" lon="6.74254">
        <ele>2281.1453</ele>
        <time>2015-08-26T14:29:00Z</time>
      </trkpt>
      <trkpt lat="45.255" lon="6.74243">
        <ele>2279.8765</ele>
        <time>2015-08-26T14:29:10Z</time>
      </trkpt>
      <trkpt lat="45.25497" lon="6.74236">
        <ele>2279.8765</ele>
        <time>2015-08-26T14:29:15Z</time>
      </trkpt>
      <trkpt lat="45.25489" lon="6.74226">
        <ele>2278.6877</ele>
        <time>2015-08-26T14:29:25Z</time>
      </trkpt>
      <trkpt lat="45.25486" lon="6.74221">
        <ele>2278.6877</ele>
        <time>2015-08-26T14:29:30Z</time>
      </trkpt>
      <trkpt lat="45.25476" lon="6.74215">
        <ele>2277.5505</ele>
        <time>2015-08-26T14:29:40Z</time>
      </trkpt>
      <trkpt lat="45.25472" lon="6.74214">
        <ele>2277.5505</ele>
        <time>2015-08-26T14:29:45Z</time>
      </trkpt>
      <trkpt lat="45.25464" lon="6.74208">
        <ele>2276.439</ele>
        <time>2015-08-26T14:29:55Z</time>
      </trkpt>
      <trkpt lat="45.25461" lon="6.74203">
        <ele>2276.439</ele>
        <time>2015-08-26T14:30:00Z</time>
      </trkpt>
      <trkpt lat="45.25453" lon="6.74189">
        <ele>2275.3286</ele>
        <time>2015-08-26T14:30:10Z</time>
      </trkpt>
      <trkpt lat="45.25449" lon="6.74183">
        <ele>2275.3286</ele>
        <time>2015-08-26T14:30:15Z</time>
      </trkpt>
      <trkpt lat="45.25441" lon="6.74173">
        <ele>2274.2974</ele>
        <time>2015-08-26T14:30:25Z</time>
      </trkpt>
      <trkpt lat="45.25437" lon="6.74168">
        <ele>2274.2974</ele>
        <time>2015-08-26T14:30:30Z</time>
      </trkpt>
      <trkpt lat="45.25429" lon="6.74161">
        <ele>2273.302</ele>
        <time>2015-08-26T14:30:40Z</time>
      </trkpt>
      <trkpt lat="45.25426" lon="6.74159">
        <ele>2273.302</ele>
        <time>2015-08-26T14:30:45Z</time>
      </trkpt>
      <trkpt lat="45.25415" lon="6.74156">
        <ele>2272.187</ele>
        <time>2015-08-26T14:30:55Z</time>
      </trkpt>
      <trkpt lat="45.25411" lon="6.74154">
        <ele>2272.187</ele>
        <time>2015-08-26T14:31:00Z</time>
      </trkpt>
      <trkpt lat="45.254" lon="6.74152">
        <ele>2271.01</ele>
        <time>2015-08-26T14:31:10Z</time>
      </trkpt>
      <trkpt lat="45.25395" lon="6.74148">
        <ele>2271.01</ele>
        <time>2015-08-26T14:31:15Z</time>
      </trkpt>
      <trkpt lat="45.25385" lon="6.74143">
        <ele>2269.7668</ele>
        <time>2015-08-26T14:31:25Z</time>
      </trkpt>
      <trkpt lat="45.25382" lon="6.74139">
        <ele>2269.7668</ele>
        <time>2015-08-26T14:31:30Z</time>
      </trkpt>
      <trkpt lat="45.25372" lon="6.74135">
        <ele>2268.3672</ele>
        <time>2015-08-26T14:31:45Z</time>
      </trkpt>
      <trkpt lat="45.25368" lon="6.74131">
        <ele>2268.3672</ele>
        <time>2015-08-26T14:31:50Z</time>
      </trkpt>
      <trkpt lat="45.25358" lon="6.74125">
        <ele>2266.8142</ele>
        <time>2015-08-26T14:32:00Z</time>
      </trkpt>
      <trkpt lat="45.25353" lon="6.74123">
        <ele>2266.8142</ele>
        <time>2015-08-26T14:32:05Z</time>
      </trkpt>
      <trkpt lat="45.25347" lon="6.74116">
        <ele>2265.169</ele>
        <time>2015-08-26T14:32:15Z</time>
      </trkpt>
      <trkpt lat="45.25344" lon="6.7411">
        <ele>2265.169</ele>
        <time>2015-08-26T14:32:20Z</time>
      </trkpt>
      <trkpt lat="45.25338" lon="6.74099">
        <ele>2263.5593</ele>
        <time>2015-08-26T14:32:30Z</time>
      </trkpt>
      <trkpt lat="45.25334" lon="6.74093">
        <ele>2263.5593</ele>
        <time>2015-08-26T14:32:35Z</time>
      </trkpt>
      <trkpt lat="45.2533" lon="6.7408">
        <ele>2261.7153</ele>
        <time>2015-08-26T14:32:45Z</time>
      </trkpt>
      <trkpt lat="45.25328" lon="6.74074">
        <ele>2261.7153</ele>
        <time>2015-08-26T14:32:50Z</time>
      </trkpt>
      <trkpt lat="45.25325" lon="6.74059">
        <ele>2259.6895</ele>
        <time>2015-08-26T14:33:00Z</time>
      </trkpt>
      <trkpt lat="45.25324" lon="6.74052">
        <ele>2259.6895</ele>
        <time>2015-08-26T14:33:05Z</time>
      </trkpt>
      <trkpt lat="45.25318" lon="6.74042">
        <ele>2257.4297</ele>
        <time>2015-08-26T14:33:15Z</time>
      </trkpt>
      <trkpt lat="45.25316" lon="6.74039">
        <ele>2257.4297</ele>
        <time>2015-08-26T14:33:20Z</time>
      </trkpt>
      <trkpt lat="45.25315" lon="6.74025">
        <ele>2255.1196</ele>
        <time>2015-08-26T14:33:30Z</time>
      </trkpt>
      <trkpt lat="45.25313" lon="6.7402">
        <ele>2255.1196</ele>
        <time>2015-08-26T14:33:35Z</time>
      </trkpt>
      <trkpt lat="45.25309" lon="6.74009">
        <ele>2252.9136</ele>
        <time>2015-08-26T14:33:45Z</time>
      </trkpt>
      <trkpt lat="45.25309" lon="6.74001">
        <ele>2252.9136</ele>
        <time>2015-08-26T14:33:50Z</time>
      </trkpt>
      <trkpt lat="45.25309" lon="6.73989">
        <ele>2250.5952</ele>
        <time>2015-08-26T14:34:00Z</time>
      </trkpt>
      <trkpt lat="45.25306" lon="6.73982">
        <ele>2250.5952</ele>
        <time>2015-08-26T14:34:05Z</time>
      </trkpt>
      <trkpt lat="45.25307" lon="6.7396">
        <ele>2248.1792</ele>
        <time>2015-08-26T14:34:20Z</time>
      </trkpt>
      <trkpt lat="45.25307" lon="6.73954">
        <ele>2248.1792</ele>
        <time>2015-08-26T14:34:25Z</time>
      </trkpt>
      <trkpt lat="45.25307" lon="6.73942">
        <ele>2246.0686</ele>
        <time>2015-08-26T14:34:35Z</time>
      </trkpt>
      <trkpt lat="45.25305" lon="6.73937">
        <ele>2246.0686</ele>
        <time>2015-08-26T14:34:40Z</time>
      </trkpt>
      <trkpt lat="45.25303" lon="6.73922">
        <ele>2244.2185</ele>
        <time>2015-08-26T14:34:50Z</time>
      </trkpt>
      <trkpt lat="45.25301" lon="6.73915">
        <ele>2244.2185</ele>
        <time>2015-08-26T14:34:55Z</time>
      </trkpt>
      <trkpt lat="45.25297" lon="6.73906">
        <ele>2242.427</ele>
        <time>2015-08-26T14:35:05Z</time>
      </trkpt>
      <trkpt lat="45.25296" lon="6.73901">
        <ele>2242.427</ele>
        <time>2015-08-26T14:35:10Z</time>
      </trkpt>
      <trkpt lat="45.25295" lon="6.73887">
        <ele>2240.694</ele>
        <time>2015-08-26T14:35:20Z</time>
      </trkpt>
      <trkpt lat="45.25296" lon="6.7388">
        <ele>2240.694</ele>
        <time>2015-08-26T14:35:25Z</time>
      </trkpt>
      <trkpt lat="45.25298" lon="6.73863">
        <ele>2239.0344</ele>
        <time>2015-08-26T14:35:35Z</time>
      </trkpt>
      <trkpt lat="45.25299" lon="6.73854">
        <ele>2239.0344</ele>
        <time>2015-08-26T14:35:40Z</time>
      </trkpt>
      <trkpt lat="45.25295" lon="6.73833">
        <ele>2237.691</ele>
        <time>2015-08-26T14:35:55Z</time>
      </trkpt>
      <trkpt lat="45.25292" lon="6.73829">
        <ele>2237.691</ele>
        <time>2015-08-26T14:36:00Z</time>
      </trkpt>
      <trkpt lat="45.25282" lon="6.73824">
        <ele>2236.701</ele>
        <time>2015-08-26T14:36:10Z</time>
      </trkpt>
      <trkpt lat="45.25279" lon="6.73822">
        <ele>2236.701</ele>
        <time>2015-08-26T14:36:15Z</time>
      </trkpt>
      <trkpt lat="45.25273" lon="6.73815">
        <ele>2236.0251</ele>
        <time>2015-08-26T14:36:25Z</time>
      </trkpt>
      <trkpt lat="45.25271" lon="6.73811">
        <ele>2236.0251</ele>
        <time>2015-08-26T14:36:30Z</time>
      </trkpt>
      <trkpt lat="45.25264" lon="6.73807">
        <ele>2235.5544</ele>
        <time>2015-08-26T14:36:40Z</time>
      </trkpt>
      <trkpt lat="45.25261" lon="6.73805">
        <ele>2235.5544</ele>
        <time>2015-08-26T14:36:45Z</time>
      </trkpt>
      <trkpt lat="45.25256" lon="6.73801">
        <ele>2235.5544</ele>
        <time>2015-08-26T14:36:55Z</time>
      </trkpt>
      <trkpt lat="45.25254" lon="6.73798">
        <ele>2235.3457</ele>
        <time>2015-08-26T14:37:00Z</time>
      </trkpt>
      <trkpt lat="45.25245" lon="6.73786">
        <ele>2235.3635</ele>
        <time>2015-08-26T14:37:15Z</time>
      </trkpt>
      <trkpt lat="45.25241" lon="6.73783">
        <ele>2235.3635</ele>
        <time>2015-08-26T14:37:20Z</time>
      </trkpt>
      <trkpt lat="45.25234" lon="6.73777">
        <ele>2235.6038</ele>
        <time>2015-08-26T14:37:30Z</time>
      </trkpt>
      <trkpt lat="45.25231" lon="6.73773">
        <ele>2235.6038</ele>
        <time>2015-08-26T14:37:35Z</time>
      </trkpt>
      <trkpt lat="45.25228" lon="6.73765">
        <ele>2235.8745</ele>
        <time>2015-08-26T14:37:45Z</time>
      </trkpt>
      <trkpt lat="45.25225" lon="6.73761">
        <ele>2235.8745</ele>
        <time>2015-08-26T14:37:50Z</time>
      </trkpt>
      <trkpt lat="45.25219" lon="6.73754">
        <ele>2236.3862</ele>
        <time>2015-08-26T14:38:00Z</time>
      </trkpt>
      <trkpt lat="45.25216" lon="6.73751">
        <ele>2236.3862</ele>
        <time>2015-08-26T14:38:05Z</time>
      </trkpt>
      <trkpt lat="45.25208" lon="6.73743">
        <ele>2237.1323</ele>
        <time>2015-08-26T14:38:15Z</time>
      </trkpt>
      <trkpt lat="45.25203" lon="6.7374">
        <ele>2237.1323</ele>
        <time>2015-08-26T14:38:20Z</time>
      </trkpt>
      <trkpt lat="45.25194" lon="6.73735">
        <ele>2238.105</ele>
        <time>2015-08-26T14:38:30Z</time>
      </trkpt>
      <trkpt lat="45.25189" lon="6.73732">
        <ele>2238.105</ele>
        <time>2015-08-26T14:38:35Z</time>
      </trkpt>
      <trkpt lat="45.25182" lon="6.73725">
        <ele>2239.254</ele>
        <time>2015-08-26T14:38:45Z</time>
      </trkpt>
      <trkpt lat="45.25179" lon="6.73722">
        <ele>2239.254</ele>
        <time>2015-08-26T14:38:50Z</time>
      </trkpt>
      <trkpt lat="45.25172" lon="6.73718">
        <ele>2240.4736</ele>
        <time>2015-08-26T14:39:00Z</time>
      </trkpt>
      <trkpt lat="45.25168" lon="6.73714">
        <ele>2240.4736</ele>
        <time>2015-08-26T14:39:05Z</time>
      </trkpt>
      <trkpt lat="45.25158" lon="6.73708">
        <ele>2241.6665</ele>
        <time>2015-08-26T14:39:15Z</time>
      </trkpt>
      <trkpt lat="45.25153" lon="6.73706">
        <ele>2241.6665</ele>
        <time>2015-08-26T14:39:20Z</time>
      </trkpt>
      <trkpt lat="45.25142" lon="6.73696">
        <ele>2242.8867</ele>
        <time>2015-08-26T14:39:35Z</time>
      </trkpt>
      <trkpt lat="45.25138" lon="6.73692">
        <ele>2242.8867</ele>
        <time>2015-08-26T14:39:40Z</time>
      </trkpt>
      <trkpt lat="45.2513" lon="6.73682">
        <ele>2244.0825</ele>
        <time>2015-08-26T14:39:50Z</time>
      </trkpt>
      <trkpt lat="45.25125" lon="6.73677">
        <ele>2244.0825</ele>
        <time>2015-08-26T14:39:55Z</time>
      </trkpt>
      <trkpt lat="45.2512" lon="6.73668">
        <ele>2245.1492</ele>
        <time>2015-08-26T14:40:05Z</time>
      </trkpt>
      <trkpt lat="45.25118" lon="6.73663">
        <ele>2245.1492</ele>
        <time>2015-08-26T14:40:10Z</time>
      </trkpt>
      <trkpt lat="45.25112" lon="6.73652">
        <ele>2246.1775</ele>
        <time>2015-08-26T14:40:20Z</time>
      </trkpt>
      <trkpt lat="45.25109" lon="6.73645">
        <ele>2246.1775</ele>
        <time>2015-08-26T14:40:25Z</time>
      </trkpt>
      <trkpt lat="45.25105" lon="6.73634">
        <ele>2247.1648</ele>
        <time>2015-08-26T14:40:35Z</time>
      </trkpt>
      <trkpt lat="45.25103" lon="6.73628">
        <ele>2247.1648</ele>
        <time>2015-08-26T14:40:40Z</time>
      </trkpt>
      <trkpt lat="45.25099" lon="6.73616">
        <ele>2248.0369</ele>
        <time>2015-08-26T14:40:50Z</time>
      </trkpt>
      <trkpt lat="45.25097" lon="6.73611">
        <ele>2248.0369</ele>
        <time>2015-08-26T14:40:55Z</time>
      </trkpt>
      <trkpt lat="45.25095" lon="6.73599">
        <ele>2248.668</ele>
        <time>2015-08-26T14:41:05Z</time>
      </trkpt>
      <trkpt lat="45.25095" lon="6.73598">
        <ele>2248.668</ele>
        <time>2015-08-26T14:41:10Z</time>
      </trkpt>
      <trkpt lat="45.25093" lon="6.73583">
        <ele>2249.1152</ele>
        <time>2015-08-26T14:41:25Z</time>
      </trkpt>
      <trkpt lat="45.25093" lon="6.73582">
        <ele>2249.1152</ele>
        <time>2015-08-26T14:41:30Z</time>
      </trkpt>
      <trkpt lat="45.25091" lon="6.73582">
        <ele>2249.1152</ele>
        <time>2015-08-26T14:41:40Z</time>
      </trkpt>
      <trkpt lat="45.2509" lon="6.73583">
        <ele>2249.1152</ele>
        <time>2015-08-26T14:41:45Z</time>
      </trkpt>
      <trkpt lat="45.25092" lon="6.73584">
        <ele>2249.1152</ele>
        <time>2015-08-26T14:41:55Z</time>
      </trkpt>
      <trkpt lat="45.25093" lon="6.73583">
        <ele>2249.1152</ele>
        <time>2015-08-26T14:42:00Z</time>
      </trkpt>
      <trkpt lat="45.25093" lon="6.73581">
        <ele>2249.1147</ele>
        <time>2015-08-26T14:42:10Z</time>
      </trkpt>
      <trkpt lat="45.25092" lon="6.7358">
        <ele>2249.1147</ele>
        <time>2015-08-26T14:42:15Z</time>
      </trkpt>
      <trkpt lat="45.25092" lon="6.73582">
        <ele>2249.1147</ele>
        <time>2015-08-26T14:42:25Z</time>
      </trkpt>
      <trkpt lat="45.25091" lon="6.73582">
        <ele>2249.1147</ele>
        <time>2015-08-26T14:42:30Z</time>
      </trkpt>
      <trkpt lat="45.25093" lon="6.73582">
        <ele>2249.1147</ele>
        <time>2015-08-26T14:42:40Z</time>
      </trkpt>
      <trkpt lat="45.25093" lon="6.73581">
        <ele>2249.1147</ele>
        <time>2015-08-26T14:42:45Z</time>
      </trkpt>
      <trkpt lat="45.25092" lon="6.7358">
        <ele>2249.1147</ele>
        <time>2015-08-26T14:42:55Z</time>
      </trkpt>
      <trkpt lat="45.25092" lon="6.73581">
        <ele>2249.1147</ele>
        <time>2015-08-26T14:43:00Z</time>
      </trkpt>
      <trkpt lat="45.25092" lon="6.73581">
        <ele>2249.1147</ele>
        <time>2015-08-26T14:43:10Z</time>
      </trkpt>
      <trkpt lat="45.25092" lon="6.73581">
        <ele>2248.7412</ele>
        <time>2015-08-26T14:43:15Z</time>
      </trkpt>
      <trkpt lat="45.25091" lon="6.73574">
        <ele>2248.7412</ele>
        <time>2015-08-26T14:43:25Z</time>
      </trkpt>
      <trkpt lat="45.25091" lon="6.73568">
        <ele>2248.7412</ele>
        <time>2015-08-26T14:43:30Z</time>
      </trkpt>
      <trkpt lat="45.25089" lon="6.73553">
        <ele>2248.309</ele>
        <time>2015-08-26T14:43:40Z</time>
      </trkpt>
      <trkpt lat="45.25089" lon="6.73547">
        <ele>2248.309</ele>
        <time>2015-08-26T14:43:45Z</time>
      </trkpt>
      <trkpt lat="45.25086" lon="6.73536">
        <ele>2247.9666</ele>
        <time>2015-08-26T14:43:55Z</time>
      </trkpt>
      <trkpt lat="45.25085" lon="6.73528">
        <ele>2247.9666</ele>
        <time>2015-08-26T14:44:00Z</time>
      </trkpt>
      <trkpt lat="45.25085" lon="6.73515">
        <ele>2247.6628</ele>
        <time>2015-08-26T14:44:10Z</time>
      </trkpt>
      <trkpt lat="45.25085" lon="6.73509">
        <ele>2247.6628</ele>
        <time>2015-08-26T14:44:15Z</time>
      </trkpt>
      <trkpt lat="45.2509" lon="6.73489">
        <ele>2247.3657</ele>
        <time>2015-08-26T14:44:30Z</time>
      </trkpt>
      <trkpt lat="45.25091" lon="6.7348">
        <ele>2247.3657</ele>
        <time>2015-08-26T14:44:35Z</time>
      </trkpt>
      <trkpt lat="45.25093" lon="6.7347">
        <ele>2247.0884</ele>
        <time>2015-08-26T14:44:45Z</time>
      </trkpt>
      <trkpt lat="45.25092" lon="6.73462">
        <ele>2247.0884</ele>
        <time>2015-08-26T14:44:50Z</time>
      </trkpt>
      <trkpt lat="45.25093" lon="6.73449">
        <ele>2246.9153</ele>
        <time>2015-08-26T14:45:00Z</time>
      </trkpt>
      <trkpt lat="45.25094" lon="6.73446">
        <ele>2246.9153</ele>
        <time>2015-08-26T14:45:05Z</time>
      </trkpt>
      <trkpt lat="45.25093" lon="6.73431">
        <ele>2246.8381</ele>
        <time>2015-08-26T14:45:15Z</time>
      </trkpt>
      <trkpt lat="45.25092" lon="6.73424">
        <ele>2246.8381</ele>
        <time>2015-08-26T14:45:20Z</time>
      </trkpt>
      <trkpt lat="45.25093" lon="6.73413">
        <ele>2246.8628</ele>
        <time>2015-08-26T14:45:30Z</time>
      </trkpt>
      <trkpt lat="45.25093" lon="6.73408">
        <ele>2246.8628</ele>
        <time>2015-08-26T14:45:35Z</time>
      </trkpt>
      <trkpt lat="45.2509" lon="6.73393">
        <ele>2246.923</ele>
        <time>2015-08-26T14:45:45Z</time>
      </trkpt>
      <trkpt lat="45.25089" lon="6.7339">
        <ele>2246.923</ele>
        <time>2015-08-26T14:45:50Z</time>
      </trkpt>
      <trkpt lat="45.25086" lon="6.73386">
        <ele>2246.923</ele>
        <time>2015-08-26T14:46:00Z</time>
      </trkpt>
      <trkpt lat="45.25085" lon="6.73379">
        <ele>2246.8135</ele>
        <time>2015-08-26T14:46:05Z</time>
      </trkpt>
      <trkpt lat="45.25087" lon="6.73379">
        <ele>2246.8135</ele>
        <time>2015-08-26T14:46:15Z</time>
      </trkpt>
      <trkpt lat="45.25086" lon="6.73379">
        <ele>2246.8135</ele>
        <time>2015-08-26T14:46:20Z</time>
      </trkpt>
      <trkpt lat="45.25085" lon="6.73377">
        <ele>2246.8135</ele>
        <time>2015-08-26T14:46:30Z</time>
      </trkpt>
      <trkpt lat="45.25085" lon="6.73377">
        <ele>2246.8135</ele>
        <time>2015-08-26T14:46:35Z</time>
      </trkpt>
      <trkpt lat="45.25085" lon="6.73378">
        <ele>2246.8135</ele>
        <time>2015-08-26T14:46:45Z</time>
      </trkpt>
      <trkpt lat="45.25083" lon="6.73378">
        <ele>2246.8135</ele>
        <time>2015-08-26T14:46:50Z</time>
      </trkpt>
      <trkpt lat="45.25083" lon="6.73378">
        <ele>2246.8135</ele>
        <time>2015-08-26T14:47:00Z</time>
      </trkpt>
      <trkpt lat="45.25085" lon="6.73379">
        <ele>2246.4302</ele>
        <time>2015-08-26T14:47:05Z</time>
      </trkpt>
      <trkpt lat="45.25086" lon="6.73375">
        <ele>2246.4302</ele>
        <time>2015-08-26T14:47:15Z</time>
      </trkpt>
      <trkpt lat="45.25086" lon="6.73371">
        <ele>2246.4302</ele>
        <time>2015-08-26T14:47:20Z</time>
      </trkpt>
      <trkpt lat="45.25085" lon="6.73362">
        <ele>2246.255</ele>
        <time>2015-08-26T14:47:30Z</time>
      </trkpt>
      <trkpt lat="45.25083" lon="6.73355">
        <ele>2246.255</ele>
        <time>2015-08-26T14:47:35Z</time>
      </trkpt>
      <trkpt lat="45.25081" lon="6.73332">
        <ele>2246.3</ele>
        <time>2015-08-26T14:47:50Z</time>
      </trkpt>
      <trkpt lat="45.25079" lon="6.73325">
        <ele>2246.3</ele>
        <time>2015-08-26T14:47:55Z</time>
      </trkpt>
      <trkpt lat="45.25078" lon="6.73311">
        <ele>2246.3618</ele>
        <time>2015-08-26T14:48:05Z</time>
      </trkpt>
      <trkpt lat="45.25079" lon="6.73303">
        <ele>2246.3618</ele>
        <time>2015-08-26T14:48:10Z</time>
      </trkpt>
      <trkpt lat="45.25078" lon="6.73295">
        <ele>2246.4084</ele>
        <time>2015-08-26T14:48:20Z</time>
      </trkpt>
      <trkpt lat="45.25077" lon="6.73288">
        <ele>2246.4084</ele>
        <time>2015-08-26T14:48:25Z</time>
      </trkpt>
      <trkpt lat="45.25077" lon="6.73275">
        <ele>2246.7002</ele>
        <time>2015-08-26T14:48:35Z</time>
      </trkpt>
      <trkpt lat="45.25078" lon="6.73267">
        <ele>2246.7002</ele>
        <time>2015-08-26T14:48:40Z</time>
      </trkpt>
      <trkpt lat="45.25074" lon="6.73256">
        <ele>2246.9287</ele>
        <time>2015-08-26T14:48:50Z</time>
      </trkpt>
      <trkpt lat="45.25072" lon="6.73249">
        <ele>2246.9287</ele>
        <time>2015-08-26T14:48:55Z</time>
      </trkpt>
      <trkpt lat="45.2507" lon="6.73234">
        <ele>2247.1409</ele>
        <time>2015-08-26T14:49:05Z</time>
      </trkpt>
      <trkpt lat="45.25071" lon="6.73227">
        <ele>2247.1409</ele>
        <time>2015-08-26T14:49:10Z</time>
      </trkpt>
      <trkpt lat="45.25074" lon="6.73217">
        <ele>2247.2502</ele>
        <time>2015-08-26T14:49:20Z</time>
      </trkpt>
      <trkpt lat="45.25076" lon="6.7321">
        <ele>2247.2502</ele>
        <time>2015-08-26T14:49:25Z</time>
      </trkpt>
      <trkpt lat="45.25078" lon="6.73197">
        <ele>2247.3928</ele>
        <time>2015-08-26T14:49:35Z</time>
      </trkpt>
      <trkpt lat="45.25081" lon="6.73191">
        <ele>2247.3928</ele>
        <time>2015-08-26T14:49:40Z</time>
      </trkpt>
      <trkpt lat="45.25085" lon="6.73177">
        <ele>2247.4214</ele>
        <time>2015-08-26T14:49:55Z</time>
      </trkpt>
      <trkpt lat="45.25086" lon="6.73177">
        <ele>2247.4214</ele>
        <time>2015-08-26T14:50:00Z</time>
      </trkpt>
      <trkpt lat="45.25086" lon="6.73179">
        <ele>2247.4214</ele>
        <time>2015-08-26T14:50:10Z</time>
      </trkpt>
      <trkpt lat="45.25086" lon="6.73178">
        <ele>2247.4214</ele>
        <time>2015-08-26T14:50:15Z</time>
      </trkpt>
      <trkpt lat="45.25085" lon="6.73175">
        <ele>2247.4214</ele>
        <time>2015-08-26T14:50:25Z</time>
      </trkpt>
      <trkpt lat="45.25084" lon="6.73176">
        <ele>2247.4214</ele>
        <time>2015-08-26T14:50:30Z</time>
      </trkpt>
      <trkpt lat="45.25082" lon="6.73176">
        <ele>2247.4214</ele>
        <time>2015-08-26T14:50:40Z</time>
      </trkpt>
      <trkpt lat="45.25084" lon="6.73176">
        <ele>2247.4214</ele>
        <time>2015-08-26T14:50:45Z</time>
      </trkpt>
      <trkpt lat="45.25085" lon="6.73178">
        <ele>2247.5312</ele>
        <time>2015-08-26T14:50:55Z</time>
      </trkpt>
      <trkpt lat="45.25085" lon="6.73179">
        <ele>2247.5312</ele>
        <time>2015-08-26T14:51:00Z</time>
      </trkpt>
      <trkpt lat="45.25086" lon="6.7318">
        <ele>2247.5312</ele>
        <time>2015-08-26T14:51:10Z</time>
      </trkpt>
      <trkpt lat="45.25085" lon="6.73179">
        <ele>2247.5312</ele>
        <time>2015-08-26T14:51:15Z</time>
      </trkpt>
      <trkpt lat="45.25087" lon="6.73177">
        <ele>2247.5312</ele>
        <time>2015-08-26T14:51:25Z</time>
      </trkpt>
      <trkpt lat="45.2509" lon="6.73175">
        <ele>2247.5312</ele>
        <time>2015-08-26T14:51:30Z</time>
      </trkpt>
      <trkpt lat="45.25097" lon="6.73173">
        <ele>2247.571</ele>
        <time>2015-08-26T14:51:40Z</time>
      </trkpt>
      <trkpt lat="45.25101" lon="6.73173">
        <ele>2247.571</ele>
        <time>2015-08-26T14:51:45Z</time>
      </trkpt>
      <trkpt lat="45.25104" lon="6.73172">
        <ele>2247.571</ele>
        <time>2015-08-26T14:51:55Z</time>
      </trkpt>
      <trkpt lat="45.25104" lon="6.7317">
        <ele>2247.571</ele>
        <time>2015-08-26T14:52:00Z</time>
      </trkpt>
      <trkpt lat="45.25104" lon="6.7317">
        <ele>2247.571</ele>
        <time>2015-08-26T14:52:10Z</time>
      </trkpt>
      <trkpt lat="45.25104" lon="6.7317">
        <ele>2247.7478</ele>
        <time>2015-08-26T14:52:15Z</time>
      </trkpt>
      <trkpt lat="45.25105" lon="6.73173">
        <ele>2247.7478</ele>
        <time>2015-08-26T14:52:25Z</time>
      </trkpt>
      <trkpt lat="45.25108" lon="6.73175">
        <ele>2247.7478</ele>
        <time>2015-08-26T14:52:30Z</time>
      </trkpt>
      <trkpt lat="45.25109" lon="6.73175">
        <ele>2247.7478</ele>
        <time>2015-08-26T14:52:45Z</time>
      </trkpt>
      <trkpt lat="45.25109" lon="6.73175">
        <ele>2247.7478</ele>
        <time>2015-08-26T14:52:50Z</time>
      </trkpt>
      <trkpt lat="45.25109" lon="6.73176">
        <ele>2247.7478</ele>
        <time>2015-08-26T14:53:00Z</time>
      </trkpt>
      <trkpt lat="45.25109" lon="6.73176">
        <ele>2247.7478</ele>
        <time>2015-08-26T14:53:05Z</time>
      </trkpt>
      <trkpt lat="45.25112" lon="6.73176">
        <ele>2247.7908</ele>
        <time>2015-08-26T14:53:15Z</time>
      </trkpt>
      <trkpt lat="45.25115" lon="6.73177">
        <ele>2247.7908</ele>
        <time>2015-08-26T14:53:20Z</time>
      </trkpt>
      <trkpt lat="45.25113" lon="6.73177">
        <ele>2247.7908</ele>
        <time>2015-08-26T14:53:30Z</time>
      </trkpt>
      <trkpt lat="45.25112" lon="6.73176">
        <ele>2247.7908</ele>
        <time>2015-08-26T14:53:35Z</time>
      </trkpt>
      <trkpt lat="45.25114" lon="6.73175">
        <ele>2247.7908</ele>
        <time>2015-08-26T14:53:45Z</time>
      </trkpt>
      <trkpt lat="45.25114" lon="6.73175">
        <ele>2247.7908</ele>
        <time>2015-08-26T14:53:50Z</time>
      </trkpt>
      <trkpt lat="45.25115" lon="6.73176">
        <ele>2247.767</ele>
        <time>2015-08-26T14:54:00Z</time>
      </trkpt>
      <trkpt lat="45.25116" lon="6.73174">
        <ele>2247.767</ele>
        <time>2015-08-26T14:54:05Z</time>
      </trkpt>
      <trkpt lat="45.25118" lon="6.73171">
        <ele>2247.767</ele>
        <time>2015-08-26T14:54:15Z</time>
      </trkpt>
      <trkpt lat="45.25119" lon="6.73173">
        <ele>2247.767</ele>
        <time>2015-08-26T14:54:20Z</time>
      </trkpt>
      <trkpt lat="45.25125" lon="6.73176">
        <ele>2247.9553</ele>
        <time>2015-08-26T14:54:30Z</time>
      </trkpt>
      <trkpt lat="45.25129" lon="6.73178">
        <ele>2247.9553</ele>
        <time>2015-08-26T14:54:35Z</time>
      </trkpt>
      <trkpt lat="45.25136" lon="6.73181">
        <ele>2248.3538</ele>
        <time>2015-08-26T14:54:45Z</time>
      </trkpt>
      <trkpt lat="45.2514" lon="6.73183">
        <ele>2248.3538</ele>
        <time>2015-08-26T14:54:50Z</time>
      </trkpt>
      <trkpt lat="45.25149" lon="6.73187">
        <ele>2249.0461</ele>
        <time>2015-08-26T14:55:00Z</time>
      </trkpt>
      <trkpt lat="45.25153" lon="6.73189">
        <ele>2249.0461</ele>
        <time>2015-08-26T14:55:05Z</time>
      </trkpt>
      <trkpt lat="45.25162" lon="6.73192">
        <ele>2249.9656</ele>
        <time>2015-08-26T14:55:15Z</time>
      </trkpt>
      <trkpt lat="45.25168" lon="6.73193">
        <ele>2249.9656</ele>
        <time>2015-08-26T14:55:20Z</time>
      </trkpt>
      <trkpt lat="45.25181" lon="6.73192">
        <ele>2250.661</ele>
        <time>2015-08-26T14:55:35Z</time>
      </trkpt>
      <trkpt lat="45.25186" lon="6.73195">
        <ele>2250.661</ele>
        <time>2015-08-26T14:55:40Z</time>
      </trkpt>
      <trkpt lat="45.25193" lon="6.73201">
        <ele>2251.2324</ele>
        <time>2015-08-26T14:55:50Z</time>
      </trkpt>
      <trkpt lat="45.25197" lon="6.73204">
        <ele>2251.2324</ele>
        <time>2015-08-26T14:55:55Z</time>
      </trkpt>
      <trkpt lat="45.25205" lon="6.73207">
        <ele>2251.5725</ele>
        <time>2015-08-26T14:56:05Z</time>
      </trkpt>
      <trkpt lat="45.25207" lon="6.7321">
        <ele>2251.5725</ele>
        <time>2015-08-26T14:56:10Z</time>
      </trkpt>
      <trkpt lat="45.25214" lon="6.73218">
        <ele>2252.0432</ele>
        <time>2015-08-26T14:56:20Z</time>
      </trkpt>
      <trkpt lat="45.25218" lon="6.73221">
        <ele>2252.0432</ele>
        <time>2015-08-26T14:56:25Z</time>
      </trkpt>
      <trkpt lat="45.25226" lon="6.73229">
        <ele>2252.749</ele>
        <time>2015-08-26T14:56:35Z</time>
      </trkpt>
      <trkpt lat="45.25229" lon="6.73232">
        <ele>2252.749</ele>
        <time>2015-08-26T14:56:40Z</time>
      </trkpt>
      <trkpt lat="45.25237" lon="6.73239">
        <ele>2253.541</ele>
        <time>2015-08-26T14:56:50Z</time>
      </trkpt>
      <trkpt lat="45.25241" lon="6.73242">
        <ele>2253.541</ele>
        <time>2015-08-26T14:56:55Z</time>
      </trkpt>
      <trkpt lat="45.2525" lon="6.73246">
        <ele>2254.4397</ele>
        <time>2015-08-26T14:57:05Z</time>
      </trkpt>
      <trkpt lat="45.25256" lon="6.73244">
        <ele>2254.4397</ele>
        <time>2015-08-26T14:57:10Z</time>
      </trkpt>
      <trkpt lat="45.25265" lon="6.73241">
        <ele>2255.4495</ele>
        <time>2015-08-26T14:57:20Z</time>
      </trkpt>
      <trkpt lat="45.2527" lon="6.73239">
        <ele>2255.4495</ele>
        <time>2015-08-26T14:57:25Z</time>
      </trkpt>
      <trkpt lat="45.25284" lon="6.7324">
        <ele>2256.6316</ele>
        <time>2015-08-26T14:57:40Z</time>
      </trkpt>
      <trkpt lat="45.25289" lon="6.73241">
        <ele>2256.6316</ele>
        <time>2015-08-26T14:57:45Z</time>
      </trkpt>
      <trkpt lat="45.25298" lon="6.73243">
        <ele>2257.74</ele>
        <time>2015-08-26T14:57:55Z</time>
      </trkpt>
      <trkpt lat="45.25303" lon="6.73243">
        <ele>2257.74</ele>
        <time>2015-08-26T14:58:00Z</time>
      </trkpt>
      <trkpt lat="45.25311" lon="6.73242">
        <ele>2258.849</ele>
        <time>2015-08-26T14:58:10Z</time>
      </trkpt>
      <trkpt lat="45.25316" lon="6.73242">
        <ele>2258.849</ele>
        <time>2015-08-26T14:58:15Z</time>
      </trkpt>
      <trkpt lat="45.25327" lon="6.73245">
        <ele>2259.9421</ele>
        <time>2015-08-26T14:58:25Z</time>
      </trkpt>
      <trkpt lat="45.25329" lon="6.73246">
        <ele>2259.9421</ele>
        <time>2015-08-26T14:58:30Z</time>
      </trkpt>
      <trkpt lat="45.25338" lon="6.73243">
        <ele>2261.061</ele>
        <time>2015-08-26T14:58:40Z</time>
      </trkpt>
      <trkpt lat="45.25342" lon="6.7324">
        <ele>2261.061</ele>
        <time>2015-08-26T14:58:45Z</time>
      </trkpt>
      <trkpt lat="45.25348" lon="6.73231">
        <ele>2262.0142</ele>
        <time>2015-08-26T14:58:55Z</time>
      </trkpt>
      <trkpt lat="45.25352" lon="6.73224">
        <ele>2262.0142</ele>
        <time>2015-08-26T14:59:00Z</time>
      </trkpt>
      <trkpt lat="45.25356" lon="6.73214">
        <ele>2262.8257</ele>
        <time>2015-08-26T14:59:10Z</time>
      </trkpt>
      <trkpt lat="45.25359" lon="6.73208">
        <ele>2262.8257</ele>
        <time>2015-08-26T14:59:15Z</time>
      </trkpt>
      <trkpt lat="45.25365" lon="6.73198">
        <ele>2263.5483</ele>
        <time>2015-08-26T14:59:25Z</time>
      </trkpt>
      <trkpt lat="45.25367" lon="6.73193">
        <ele>2263.5483</ele>
        <time>2015-08-26T14:59:30Z</time>
      </trkpt>
      <trkpt lat="45.25374" lon="6.73191">
        <ele>2264.1147</ele>
        <time>2015-08-26T14:59:40Z</time>
      </trkpt>
      <trkpt lat="45.2538" lon="6.73193">
        <ele>2264.1147</ele>
        <time>2015-08-26T14:59:45Z</time>
      </trkpt>
      <trkpt lat="45.25392" lon="6.7319">
        <ele>2264.5076</ele>
        <time>2015-08-26T15:00:00Z</time>
      </trkpt>
      <trkpt lat="45.25397" lon="6.7319">
        <ele>2264.5076</ele>
        <time>2015-08-26T15:00:05Z</time>
      </trkpt>
      <trkpt lat="45.25408" lon="6.73196">
        <ele>2264.8542</ele>
        <time>2015-08-26T15:00:15Z</time>
      </trkpt>
      <trkpt lat="45.25411" lon="6.73199">
        <ele>2264.8542</ele>
        <time>2015-08-26T15:00:20Z</time>
      </trkpt>
      <trkpt lat="45.25417" lon="6.73209">
        <ele>2265.4036</ele>
        <time>2015-08-26T15:00:30Z</time>
      </trkpt>
      <trkpt lat="45.25422" lon="6.73214">
        <ele>2265.4036</ele>
        <time>2015-08-26T15:00:35Z</time>
      </trkpt>
      <trkpt lat="45.2543" lon="6.73219">
        <ele>2266.241</ele>
        <time>2015-08-26T15:00:45Z</time>
      </trkpt>
      <trkpt lat="45.25434" lon="6.73219">
        <ele>2266.241</ele>
        <time>2015-08-26T15:00:50Z</time>
      </trkpt>
      <trkpt lat="45.25441" lon="6.73219">
        <ele>2267.2432</ele>
        <time>2015-08-26T15:01:00Z</time>
      </trkpt>
      <trkpt lat="45.25445" lon="6.7322">
        <ele>2267.2432</ele>
        <time>2015-08-26T15:01:05Z</time>
      </trkpt>
      <trkpt lat="45.25455" lon="6.73218">
        <ele>2268.31</ele>
        <time>2015-08-26T15:01:15Z</time>
      </trkpt>
      <trkpt lat="45.2546" lon="6.73217">
        <ele>2268.31</ele>
        <time>2015-08-26T15:01:20Z</time>
      </trkpt>
      <trkpt lat="45.25467" lon="6.73211">
        <ele>2269.2478</ele>
        <time>2015-08-26T15:01:30Z</time>
      </trkpt>
      <trkpt lat="45.2547" lon="6.73208">
        <ele>2269.2478</ele>
        <time>2015-08-26T15:01:35Z</time>
      </trkpt>
      <trkpt lat="45.25477" lon="6.73203">
        <ele>2270.007</ele>
        <time>2015-08-26T15:01:45Z</time>
      </trkpt>
      <trkpt lat="45.2548" lon="6.732">
        <ele>2270.007</ele>
        <time>2015-08-26T15:01:50Z</time>
      </trkpt>
      <trkpt lat="45.25488" lon="6.73197">
        <ele>2270.7153</ele>
        <time>2015-08-26T15:02:00Z</time>
      </trkpt>
      <trkpt lat="45.25492" lon="6.73195">
        <ele>2270.7153</ele>
        <time>2015-08-26T15:02:05Z</time>
      </trkpt>
      <trkpt lat="45.255" lon="6.73187">
        <ele>2271.376</ele>
        <time>2015-08-26T15:02:15Z</time>
      </trkpt>
      <trkpt lat="45.25502" lon="6.73183">
        <ele>2271.376</ele>
        <time>2015-08-26T15:02:20Z</time>
      </trkpt>
      <trkpt lat="45.25508" lon="6.73172">
        <ele>2272.2227</ele>
        <time>2015-08-26T15:02:35Z</time>
      </trkpt>
      <trkpt lat="45.25513" lon="6.73169">
        <ele>2272.2227</ele>
        <time>2015-08-26T15:02:40Z</time>
      </trkpt>
      <trkpt lat="45.25519" lon="6.73164">
        <ele>2273.1113</ele>
        <time>2015-08-26T15:02:50Z</time>
      </trkpt>
      <trkpt lat="45.25522" lon="6.7316">
        <ele>2273.1113</ele>
        <time>2015-08-26T15:02:55Z</time>
      </trkpt>
      <trkpt lat="45.25527" lon="6.73155">
        <ele>2274.0522</ele>
        <time>2015-08-26T15:03:05Z</time>
      </trkpt>
      <trkpt lat="45.2553" lon="6.73153">
        <ele>2274.0522</ele>
        <time>2015-08-26T15:03:10Z</time>
      </trkpt>
      <trkpt lat="45.25538" lon="6.73149">
        <ele>2274.9106</ele>
        <time>2015-08-26T15:03:20Z</time>
      </trkpt>
      <trkpt lat="45.25541" lon="6.73146">
        <ele>2274.9106</ele>
        <time>2015-08-26T15:03:25Z</time>
      </trkpt>
      <trkpt lat="45.25547" lon="6.73139">
        <ele>2275.75</ele>
        <time>2015-08-26T15:03:35Z</time>
      </trkpt>
      <trkpt lat="45.2555" lon="6.73136">
        <ele>2275.75</ele>
        <time>2015-08-26T15:03:40Z</time>
      </trkpt>
      <trkpt lat="45.25558" lon="6.73129">
        <ele>2276.5996</ele>
        <time>2015-08-26T15:03:50Z</time>
      </trkpt>
      <trkpt lat="45.25562" lon="6.73126">
        <ele>2276.5996</ele>
        <time>2015-08-26T15:03:55Z</time>
      </trkpt>
      <trkpt lat="45.25569" lon="6.73114">
        <ele>2277.5156</ele>
        <time>2015-08-26T15:04:10Z</time>
      </trkpt>
      <trkpt lat="45.25571" lon="6.73109">
        <ele>2277.5156</ele>
        <time>2015-08-26T15:04:15Z</time>
      </trkpt>
      <trkpt lat="45.25574" lon="6.731">
        <ele>2278.493</ele>
        <time>2015-08-26T15:04:25Z</time>
      </trkpt>
      <trkpt lat="45.25578" lon="6.73095">
        <ele>2278.493</ele>
        <time>2015-08-26T15:04:30Z</time>
      </trkpt>
      <trkpt lat="45.25588" lon="6.73088">
        <ele>2279.4824</ele>
        <time>2015-08-26T15:04:40Z</time>
      </trkpt>
      <trkpt lat="45.25591" lon="6.73084">
        <ele>2279.4824</ele>
        <time>2015-08-26T15:04:45Z</time>
      </trkpt>
      <trkpt lat="45.25596" lon="6.73076">
        <ele>2280.4824</ele>
        <time>2015-08-26T15:04:55Z</time>
      </trkpt>
      <trkpt lat="45.25599" lon="6.73071">
        <ele>2280.4824</ele>
        <time>2015-08-26T15:05:00Z</time>
      </trkpt>
      <trkpt lat="45.25606" lon="6.73063">
        <ele>2281.4624</ele>
        <time>2015-08-26T15:05:10Z</time>
      </trkpt>
      <trkpt lat="45.25609" lon="6.73059">
        <ele>2281.4624</ele>
        <time>2015-08-26T15:05:15Z</time>
      </trkpt>
      <trkpt lat="45.25615" lon="6.7305">
        <ele>2282.3945</ele>
        <time>2015-08-26T15:05:25Z</time>
      </trkpt>
      <trkpt lat="45.2562" lon="6.73047">
        <ele>2282.3945</ele>
        <time>2015-08-26T15:05:30Z</time>
      </trkpt>
      <trkpt lat="45.25627" lon="6.7304">
        <ele>2283.3535</ele>
        <time>2015-08-26T15:05:40Z</time>
      </trkpt>
      <trkpt lat="45.25631" lon="6.73037">
        <ele>2283.3535</ele>
        <time>2015-08-26T15:05:45Z</time>
      </trkpt>
      <trkpt lat="45.25637" lon="6.73028">
        <ele>2284.308</ele>
        <time>2015-08-26T15:05:55Z</time>
      </trkpt>
      <trkpt lat="45.25642" lon="6.73025">
        <ele>2284.308</ele>
        <time>2015-08-26T15:06:00Z</time>
      </trkpt>
      <trkpt lat="45.25652" lon="6.73013">
        <ele>2285.2866</ele>
        <time>2015-08-26T15:06:15Z</time>
      </trkpt>
      <trkpt lat="45.25655" lon="6.7301">
        <ele>2285.2866</ele>
        <time>2015-08-26T15:06:20Z</time>
      </trkpt>
      <trkpt lat="45.25662" lon="6.73003">
        <ele>2286.258</ele>
        <time>2015-08-26T15:06:30Z</time>
      </trkpt>
      <trkpt lat="45.25665" lon="6.73">
        <ele>2286.258</ele>
        <time>2015-08-26T15:06:35Z</time>
      </trkpt>
      <trkpt lat="45.25666" lon="6.73">
        <ele>2286.258</ele>
        <time>2015-08-26T15:06:45Z</time>
      </trkpt>
      <trkpt lat="45.25667" lon="6.72999">
        <ele>2286.258</ele>
        <time>2015-08-26T15:06:50Z</time>
      </trkpt>
      <trkpt lat="45.25668" lon="6.73">
        <ele>2286.258</ele>
        <time>2015-08-26T15:07:00Z</time>
      </trkpt>
      <trkpt lat="45.25669" lon="6.72997">
        <ele>2287.208</ele>
        <time>2015-08-26T15:07:05Z</time>
      </trkpt>
      <trkpt lat="45.25675" lon="6.72991">
        <ele>2287.208</ele>
        <time>2015-08-26T15:07:15Z</time>
      </trkpt>
      <trkpt lat="45.25678" lon="6.72988">
        <ele>2288.1375</ele>
        <time>2015-08-26T15:07:20Z</time>
      </trkpt>
      <trkpt lat="45.25677" lon="6.72988">
        <ele>2288.1375</ele>
        <time>2015-08-26T15:07:30Z</time>
      </trkpt>
      <trkpt lat="45.25681" lon="6.72986">
        <ele>2288.1375</ele>
        <time>2015-08-26T15:07:35Z</time>
      </trkpt>
      <trkpt lat="45.25689" lon="6.72979">
        <ele>2289.0042</ele>
        <time>2015-08-26T15:07:45Z</time>
      </trkpt>
      <trkpt lat="45.25694" lon="6.72976">
        <ele>2289.0042</ele>
        <time>2015-08-26T15:07:50Z</time>
      </trkpt>
      <trkpt lat="45.25704" lon="6.72971">
        <ele>2289.784</ele>
        <time>2015-08-26T15:08:00Z</time>
      </trkpt>
      <trkpt lat="45.2571" lon="6.72971">
        <ele>2289.784</ele>
        <time>2015-08-26T15:08:05Z</time>
      </trkpt>
      <trkpt lat="45.25718" lon="6.72971">
        <ele>2290.5264</ele>
        <time>2015-08-26T15:08:15Z</time>
      </trkpt>
      <trkpt lat="45.25721" lon="6.72968">
        <ele>2290.5264</ele>
        <time>2015-08-26T15:08:20Z</time>
      </trkpt>
      <trkpt lat="45.25732" lon="6.72965">
        <ele>2291.2058</ele>
        <time>2015-08-26T15:08:30Z</time>
      </trkpt>
      <trkpt lat="45.25736" lon="6.72962">
        <ele>2291.2058</ele>
        <time>2015-08-26T15:08:35Z</time>
      </trkpt>
      <trkpt lat="45.25747" lon="6.72953">
        <ele>2291.827</ele>
        <time>2015-08-26T15:08:50Z</time>
      </trkpt>
      <trkpt lat="45.2575" lon="6.72951">
        <ele>2291.827</ele>
        <time>2015-08-26T15:08:55Z</time>
      </trkpt>
      <trkpt lat="45.2576" lon="6.72946">
        <ele>2292.496</ele>
        <time>2015-08-26T15:09:05Z</time>
      </trkpt>
      <trkpt lat="45.25763" lon="6.72942">
        <ele>2292.496</ele>
        <time>2015-08-26T15:09:10Z</time>
      </trkpt>
      <trkpt lat="45.25771" lon="6.72937">
        <ele>2293.123</ele>
        <time>2015-08-26T15:09:20Z</time>
      </trkpt>
      <trkpt lat="45.25776" lon="6.72935">
        <ele>2293.123</ele>
        <time>2015-08-26T15:09:25Z</time>
      </trkpt>
      <trkpt lat="45.25786" lon="6.72934">
        <ele>2293.7556</ele>
        <time>2015-08-26T15:09:35Z</time>
      </trkpt>
      <trkpt lat="45.25791" lon="6.72935">
        <ele>2293.7556</ele>
        <time>2015-08-26T15:09:40Z</time>
      </trkpt>
      <trkpt lat="45.25798" lon="6.72933">
        <ele>2294.3357</ele>
        <time>2015-08-26T15:09:50Z</time>
      </trkpt>
      <trkpt lat="45.25803" lon="6.72931">
        <ele>2294.3357</ele>
        <time>2015-08-26T15:09:55Z</time>
      </trkpt>
      <trkpt lat="45.2581" lon="6.72928">
        <ele>2294.9834</ele>
        <time>2015-08-26T15:10:05Z</time>
      </trkpt>
      <trkpt lat="45.25815" lon="6.72927">
        <ele>2294.9834</ele>
        <time>2015-08-26T15:10:10Z</time>
      </trkpt>
      <trkpt lat="45.25823" lon="6.72924">
        <ele>2295.6223</ele>
        <time>2015-08-26T15:10:20Z</time>
      </trkpt>
      <trkpt lat="45.25827" lon="6.72921">
        <ele>2295.6223</ele>
        <time>2015-08-26T15:10:25Z</time>
      </trkpt>
      <trkpt lat="45.25834" lon="6.72917">
        <ele>2296.1672</ele>
        <time>2015-08-26T15:10:35Z</time>
      </trkpt>
      <trkpt lat="45.25838" lon="6.72915">
        <ele>2296.1672</ele>
        <time>2015-08-26T15:10:40Z</time>
      </trkpt>
      <trkpt lat="45.25847" lon="6.72911">
        <ele>2296.7847</ele>
        <time>2015-08-26T15:10:50Z</time>
      </trkpt>
      <trkpt lat="45.25852" lon="6.72909">
        <ele>2296.7847</ele>
        <time>2015-08-26T15:10:55Z</time>
      </trkpt>
      <trkpt lat="45.25865" lon="6.72902">
        <ele>2297.5706</ele>
        <time>2015-08-26T15:11:10Z</time>
      </trkpt>
      <trkpt lat="45.25868" lon="6.72898">
        <ele>2297.5706</ele>
        <time>2015-08-26T15:11:15Z</time>
      </trkpt>
      <trkpt lat="45.25876" lon="6.72894">
        <ele>2298.441</ele>
        <time>2015-08-26T15:11:25Z</time>
      </trkpt>
      <trkpt lat="45.25879" lon="6.72891">
        <ele>2298.441</ele>
        <time>2015-08-26T15:11:30Z</time>
      </trkpt>
      <trkpt lat="45.25888" lon="6.72888">
        <ele>2299.303</ele>
        <time>2015-08-26T15:11:40Z</time>
      </trkpt>
      <trkpt lat="45.25892" lon="6.72886">
        <ele>2299.303</ele>
        <time>2015-08-26T15:11:45Z</time>
      </trkpt>
      <trkpt lat="45.25901" lon="6.72883">
        <ele>2300.114</ele>
        <time>2015-08-26T15:11:55Z</time>
      </trkpt>
      <trkpt lat="45.25903" lon="6.72881">
        <ele>2300.114</ele>
        <time>2015-08-26T15:12:00Z</time>
      </trkpt>
      <trkpt lat="45.25914" lon="6.72876">
        <ele>2300.9358</ele>
        <time>2015-08-26T15:12:10Z</time>
      </trkpt>
      <trkpt lat="45.25918" lon="6.72874">
        <ele>2300.9358</ele>
        <time>2015-08-26T15:12:15Z</time>
      </trkpt>
      <trkpt lat="45.25924" lon="6.72868">
        <ele>2301.767</ele>
        <time>2015-08-26T15:12:25Z</time>
      </trkpt>
      <trkpt lat="45.25926" lon="6.72865">
        <ele>2301.767</ele>
        <time>2015-08-26T15:12:30Z</time>
      </trkpt>
      <trkpt lat="45.2593" lon="6.72853">
        <ele>2302.5647</ele>
        <time>2015-08-26T15:12:40Z</time>
      </trkpt>
      <trkpt lat="45.25933" lon="6.72847">
        <ele>2302.5647</ele>
        <time>2015-08-26T15:12:45Z</time>
      </trkpt>
      <trkpt lat="45.25938" lon="6.72836">
        <ele>2303.302</ele>
        <time>2015-08-26T15:12:55Z</time>
      </trkpt>
      <trkpt lat="45.25941" lon="6.72834">
        <ele>2303.302</ele>
        <time>2015-08-26T15:13:00Z</time>
      </trkpt>
      <trkpt lat="45.25949" lon="6.7283">
        <ele>2303.9553</ele>
        <time>2015-08-26T15:13:10Z</time>
      </trkpt>
      <trkpt lat="45.25953" lon="6.7283">
        <ele>2303.9553</ele>
        <time>2015-08-26T15:13:15Z</time>
      </trkpt>
      <trkpt lat="45.25968" lon="6.7283">
        <ele>2304.7039</ele>
        <time>2015-08-26T15:13:30Z</time>
      </trkpt>
      <trkpt lat="45.25971" lon="6.72831">
        <ele>2304.7039</ele>
        <time>2015-08-26T15:13:35Z</time>
      </trkpt>
      <trkpt lat="45.2598" lon="6.72829">
        <ele>2305.4546</ele>
        <time>2015-08-26T15:13:45Z</time>
      </trkpt>
      <trkpt lat="45.25985" lon="6.72828">
        <ele>2305.4546</ele>
        <time>2015-08-26T15:13:50Z</time>
      </trkpt>
      <trkpt lat="45.25994" lon="6.72826">
        <ele>2306.1501</ele>
        <time>2015-08-26T15:14:00Z</time>
      </trkpt>
      <trkpt lat="45.26" lon="6.72825">
        <ele>2306.1501</ele>
        <time>2015-08-26T15:14:05Z</time>
      </trkpt>
      <trkpt lat="45.26007" lon="6.72818">
        <ele>2306.7515</ele>
        <time>2015-08-26T15:14:15Z</time>
      </trkpt>
      <trkpt lat="45.26009" lon="6.72815">
        <ele>2306.7515</ele>
        <time>2015-08-26T15:14:20Z</time>
      </trkpt>
      <trkpt lat="45.26016" lon="6.72809">
        <ele>2307.3242</ele>
        <time>2015-08-26T15:14:30Z</time>
      </trkpt>
      <trkpt lat="45.26021" lon="6.72807">
        <ele>2307.3242</ele>
        <time>2015-08-26T15:14:35Z</time>
      </trkpt>
      <trkpt lat="45.26032" lon="6.72805">
        <ele>2307.741</ele>
        <time>2015-08-26T15:14:45Z</time>
      </trkpt>
      <trkpt lat="45.26038" lon="6.72805">
        <ele>2307.741</ele>
        <time>2015-08-26T15:14:50Z</time>
      </trkpt>
      <trkpt lat="45.26048" lon="6.72798">
        <ele>2308.1736</ele>
        <time>2015-08-26T15:15:00Z</time>
      </trkpt>
      <trkpt lat="45.26053" lon="6.72796">
        <ele>2308.1736</ele>
        <time>2015-08-26T15:15:05Z</time>
      </trkpt>
      <trkpt lat="45.26062" lon="6.72791">
        <ele>2308.6646</ele>
        <time>2015-08-26T15:15:15Z</time>
      </trkpt>
      <trkpt lat="45.26064" lon="6.72789">
        <ele>2308.6646</ele>
        <time>2015-08-26T15:15:20Z</time>
      </trkpt>
      <trkpt lat="45.26078" lon="6.7278">
        <ele>2309.1245</ele>
        <time>2015-08-26T15:15:35Z</time>
      </trkpt>
      <trkpt lat="45.26082" lon="6.72777">
        <ele>2309.1245</ele>
        <time>2015-08-26T15:15:40Z</time>
      </trkpt>
      <trkpt lat="45.2609" lon="6.72772">
        <ele>2309.499</ele>
        <time>2015-08-26T15:15:50Z</time>
      </trkpt>
      <trkpt lat="45.26095" lon="6.7277">
        <ele>2309.499</ele>
        <time>2015-08-26T15:15:55Z</time>
      </trkpt>
      <trkpt lat="45.26102" lon="6.72764">
        <ele>2309.8389</ele>
        <time>2015-08-26T15:16:05Z</time>
      </trkpt>
      <trkpt lat="45.26107" lon="6.72762">
        <ele>2309.8389</ele>
        <time>2015-08-26T15:16:10Z</time>
      </trkpt>
      <trkpt lat="45.26115" lon="6.72757">
        <ele>2310.191</ele>
        <time>2015-08-26T15:16:20Z</time>
      </trkpt>
      <trkpt lat="45.26121" lon="6.72754">
        <ele>2310.191</ele>
        <time>2015-08-26T15:16:25Z</time>
      </trkpt>
      <trkpt lat="45.2613" lon="6.72751">
        <ele>2310.6565</ele>
        <time>2015-08-26T15:16:35Z</time>
      </trkpt>
      <trkpt lat="45.26135" lon="6.72748">
        <ele>2310.6565</ele>
        <time>2015-08-26T15:16:40Z</time>
      </trkpt>
      <trkpt lat="45.26144" lon="6.7274">
        <ele>2310.8823</ele>
        <time>2015-08-26T15:16:50Z</time>
      </trkpt>
      <trkpt lat="45.2615" lon="6.72736">
        <ele>2310.8823</ele>
        <time>2015-08-26T15:16:55Z</time>
      </trkpt>
      <trkpt lat="45.2616" lon="6.72726">
        <ele>2311.2622</ele>
        <time>2015-08-26T15:17:10Z</time>
      </trkpt>
      <trkpt lat="45.26164" lon="6.72723">
        <ele>2311.2622</ele>
        <time>2015-08-26T15:17:15Z</time>
      </trkpt>
      <trkpt lat="45.26172" lon="6.72717">
        <ele>2311.5557</ele>
        <time>2015-08-26T15:17:25Z</time>
      </trkpt>
      <trkpt lat="45.26177" lon="6.72713">
        <ele>2311.5557</ele>
        <time>2015-08-26T15:17:30Z</time>
      </trkpt>
      <trkpt lat="45.26183" lon="6.72704">
        <ele>2311.9138</ele>
        <time>2015-08-26T15:17:40Z</time>
      </trkpt>
      <trkpt lat="45.26185" lon="6.727">
        <ele>2311.9138</ele>
        <time>2015-08-26T15:17:45Z</time>
      </trkpt>
      <trkpt lat="45.2619" lon="6.72688">
        <ele>2312.3767</ele>
        <time>2015-08-26T15:17:55Z</time>
      </trkpt>
      <trkpt lat="45.26193" lon="6.72682">
        <ele>2312.3767</ele>
        <time>2015-08-26T15:18:00Z</time>
      </trkpt>
      <trkpt lat="45.26197" lon="6.72672">
        <ele>2312.9087</ele>
        <time>2015-08-26T15:18:10Z</time>
      </trkpt>
      <trkpt lat="45.262" lon="6.72668">
        <ele>2312.9087</ele>
        <time>2015-08-26T15:18:15Z</time>
      </trkpt>
      <trkpt lat="45.26206" lon="6.72657">
        <ele>2313.4182</ele>
        <time>2015-08-26T15:18:25Z</time>
      </trkpt>
      <trkpt lat="45.2621" lon="6.72653">
        <ele>2313.4182</ele>
        <time>2015-08-26T15:18:30Z</time>
      </trkpt>
      <trkpt lat="45.26215" lon="6.7264">
        <ele>2313.9656</ele>
        <time>2015-08-26T15:18:40Z</time>
      </trkpt>
      <trkpt lat="45.26219" lon="6.72634">
        <ele>2313.9656</ele>
        <time>2015-08-26T15:18:45Z</time>
      </trkpt>
      <trkpt lat="45.26224" lon="6.72622">
        <ele>2314.4763</ele>
        <time>2015-08-26T15:18:55Z</time>
      </trkpt>
      <trkpt lat="45.26227" lon="6.72617">
        <ele>2314.4763</ele>
        <time>2015-08-26T15:19:00Z</time>
      </trkpt>
      <trkpt lat="45.26231" lon="6.72605">
        <ele>2314.9104</ele>
        <time>2015-08-26T15:19:10Z</time>
      </trkpt>
      <trkpt lat="45.26235" lon="6.72599">
        <ele>2314.9104</ele>
        <time>2015-08-26T15:19:15Z</time>
      </trkpt>
      <trkpt lat="45.26243" lon="6.72584">
        <ele>2315.202</ele>
        <time>2015-08-26T15:19:30Z</time>
      </trkpt>
      <trkpt lat="45.26246" lon="6.72581">
        <ele>2315.202</ele>
        <time>2015-08-26T15:19:35Z</time>
      </trkpt>
      <trkpt lat="45.26254" lon="6.72577">
        <ele>2315.4634</ele>
        <time>2015-08-26T15:19:45Z</time>
      </trkpt>
      <trkpt lat="45.26261" lon="6.72578">
        <ele>2315.4634</ele>
        <time>2015-08-26T15:19:50Z</time>
      </trkpt>
      <trkpt lat="45.26269" lon="6.72589">
        <ele>2315.5107</ele>
        <time>2015-08-26T15:20:00Z</time>
      </trkpt>
      <trkpt lat="45.26272" lon="6.72594">
        <ele>2315.5107</ele>
        <time>2015-08-26T15:20:05Z</time>
      </trkpt>
      <trkpt lat="45.2628" lon="6.72602">
        <ele>2315.722</ele>
        <time>2015-08-26T15:20:15Z</time>
      </trkpt>
      <trkpt lat="45.26281" lon="6.72603">
        <ele>2315.722</ele>
        <time>2015-08-26T15:20:20Z</time>
      </trkpt>
      <trkpt lat="45.26282" lon="6.72604">
        <ele>2315.722</ele>
        <time>2015-08-26T15:20:30Z</time>
      </trkpt>
      <trkpt lat="45.26283" lon="6.72603">
        <ele>2315.722</ele>
        <time>2015-08-26T15:20:35Z</time>
      </trkpt>
      <trkpt lat="45.26282" lon="6.72598">
        <ele>2315.722</ele>
        <time>2015-08-26T15:20:45Z</time>
      </trkpt>
      <trkpt lat="45.26282" lon="6.72597">
        <ele>2315.722</ele>
        <time>2015-08-26T15:20:50Z</time>
      </trkpt>
      <trkpt lat="45.26282" lon="6.72597">
        <ele>2315.722</ele>
        <time>2015-08-26T15:21:00Z</time>
      </trkpt>
      <trkpt lat="45.26283" lon="6.72599">
        <ele>2315.722</ele>
        <time>2015-08-26T15:21:30Z</time>
      </trkpt>
      <trkpt lat="45.26286" lon="6.72605">
        <ele>2316.057</ele>
        <time>2015-08-26T15:21:35Z</time>
      </trkpt>
      <trkpt lat="45.26292" lon="6.72609">
        <ele>2316.057</ele>
        <time>2015-08-26T15:21:45Z</time>
      </trkpt>
      <trkpt lat="45.26298" lon="6.72612">
        <ele>2316.1616</ele>
        <time>2015-08-26T15:21:50Z</time>
      </trkpt>
      <trkpt lat="45.26309" lon="6.72611">
        <ele>2316.0547</ele>
        <time>2015-08-26T15:22:05Z</time>
      </trkpt>
      <trkpt lat="45.26312" lon="6.72614">
        <ele>2316.0547</ele>
        <time>2015-08-26T15:22:10Z</time>
      </trkpt>
      <trkpt lat="45.26323" lon="6.72617">
        <ele>2315.5083</ele>
        <time>2015-08-26T15:22:20Z</time>
      </trkpt>
      <trkpt lat="45.26326" lon="6.72618">
        <ele>2315.5083</ele>
        <time>2015-08-26T15:22:25Z</time>
      </trkpt>
      <trkpt lat="45.26337" lon="6.72621">
        <ele>2314.6013</ele>
        <time>2015-08-26T15:22:35Z</time>
      </trkpt>
      <trkpt lat="45.26342" lon="6.72622">
        <ele>2314.6013</ele>
        <time>2015-08-26T15:22:40Z</time>
      </trkpt>
      <trkpt lat="45.26347" lon="6.72626">
        <ele>2313.5083</ele>
        <time>2015-08-26T15:22:50Z</time>
      </trkpt>
      <trkpt lat="45.26349" lon="6.72628">
        <ele>2313.5083</ele>
        <time>2015-08-26T15:22:55Z</time>
      </trkpt>
      <trkpt lat="45.26354" lon="6.7264">
        <ele>2312.2766</ele>
        <time>2015-08-26T15:23:05Z</time>
      </trkpt>
      <trkpt lat="45.26358" lon="6.72644">
        <ele>2312.2766</ele>
        <time>2015-08-26T15:23:10Z</time>
      </trkpt>
      <trkpt lat="45.26366" lon="6.72653">
        <ele>2311.022</ele>
        <time>2015-08-26T15:23:20Z</time>
      </trkpt>
      <trkpt lat="45.2637" lon="6.72654">
        <ele>2311.022</ele>
        <time>2015-08-26T15:23:25Z</time>
      </trkpt>
      <trkpt lat="45.26377" lon="6.72653">
        <ele>2309.924</ele>
        <time>2015-08-26T15:23:35Z</time>
      </trkpt>
      <trkpt lat="45.26383" lon="6.7265">
        <ele>2309.924</ele>
        <time>2015-08-26T15:23:40Z</time>
      </trkpt>
      <trkpt lat="45.26387" lon="6.72638">
        <ele>2309.1199</ele>
        <time>2015-08-26T15:23:50Z</time>
      </trkpt>
      <trkpt lat="45.26387" lon="6.72633">
        <ele>2309.1199</ele>
        <time>2015-08-26T15:23:55Z</time>
      </trkpt>
      <trkpt lat="45.26385" lon="6.7262">
        <ele>2308.663</ele>
        <time>2015-08-26T15:24:10Z</time>
      </trkpt>
      <trkpt lat="45.26384" lon="6.72617">
        <ele>2308.663</ele>
        <time>2015-08-26T15:24:15Z</time>
      </trkpt>
      <trkpt lat="45.26384" lon="6.72609">
        <ele>2308.663</ele>
        <time>2015-08-26T15:24:25Z</time>
      </trkpt>
      <trkpt lat="45.26383" lon="6.72607">
        <ele>2308.4302</ele>
        <time>2015-08-26T15:24:30Z</time>
      </trkpt>
      <trkpt lat="45.26383" lon="6.72599">
        <ele>2308.4302</ele>
        <time>2015-08-26T15:24:40Z</time>
      </trkpt>
      <trkpt lat="45.26385" lon="6.72598">
        <ele>2308.4302</ele>
        <time>2015-08-26T15:24:45Z</time>
      </trkpt>
      <trkpt lat="45.26387" lon="6.726">
        <ele>2308.7805</ele>
        <time>2015-08-26T15:24:55Z</time>
      </trkpt>
      <trkpt lat="45.26389" lon="6.72604">
        <ele>2308.7805</ele>
        <time>2015-08-26T15:25:00Z</time>
      </trkpt>
      <trkpt lat="45.26392" lon="6.72605">
        <ele>2308.7805</ele>
        <time>2015-08-26T15:25:10Z</time>
      </trkpt>
      <trkpt lat="45.26394" lon="6.72606">
        <ele>2309.398</ele>
        <time>2015-08-26T15:25:15Z</time>
      </trkpt>
      <trkpt lat="45.26399" lon="6.72612">
        <ele>2309.398</ele>
        <time>2015-08-26T15:25:25Z</time>
      </trkpt>
      <trkpt lat="45.264" lon="6.72612">
        <ele>2309.398</ele>
        <time>2015-08-26T15:25:30Z</time>
      </trkpt>
      <trkpt lat="45.26404" lon="6.72609">
        <ele>2310.1177</ele>
        <time>2015-08-26T15:25:40Z</time>
      </trkpt>
      <trkpt lat="45.26402" lon="6.72608">
        <ele>2310.1177</ele>
        <time>2015-08-26T15:25:45Z</time>
      </trkpt>
      <trkpt lat="45.26404" lon="6.7261">
        <ele>2310.1177</ele>
        <time>2015-08-26T15:26:00Z</time>
      </trkpt>
      <trkpt lat="45.26405" lon="6.72607">
        <ele>2310.1177</ele>
        <time>2015-08-26T15:26:05Z</time>
      </trkpt>
      <trkpt lat="45.26405" lon="6.72606">
        <ele>2310.1177</ele>
        <time>2015-08-26T15:26:15Z</time>
      </trkpt>
      <trkpt lat="45.26405" lon="6.72607">
        <ele>2310.1177</ele>
        <time>2015-08-26T15:26:20Z</time>
      </trkpt>
      <trkpt lat="45.26405" lon="6.72606">
        <ele>2310.1177</ele>
        <time>2015-08-26T15:26:30Z</time>
      </trkpt>
      <trkpt lat="45.26405" lon="6.72605">
        <ele>2311.6658</ele>
        <time>2015-08-26T15:26:35Z</time>
      </trkpt>
      <trkpt lat="45.26402" lon="6.72603">
        <ele>2311.6658</ele>
        <time>2015-08-26T15:26:45Z</time>
      </trkpt>
      <trkpt lat="45.26402" lon="6.72603">
        <ele>2311.6658</ele>
        <time>2015-08-26T15:26:50Z</time>
      </trkpt>
      <trkpt lat="45.26402" lon="6.72608">
        <ele>2311.6658</ele>
        <time>2015-08-26T15:27:00Z</time>
      </trkpt>
      <trkpt lat="45.26409" lon="6.72606">
        <ele>2313.0413</ele>
        <time>2015-08-26T15:27:05Z</time>
      </trkpt>
      <trkpt lat="45.26417" lon="6.72604">
        <ele>2313.0413</ele>
        <time>2015-08-26T15:27:15Z</time>
      </trkpt>
      <trkpt lat="45.2642" lon="6.72604">
        <ele>2314.1382</ele>
        <time>2015-08-26T15:27:20Z</time>
      </trkpt>
      <trkpt lat="45.26428" lon="6.72601">
        <ele>2314.1382</ele>
        <time>2015-08-26T15:27:30Z</time>
      </trkpt>
      <trkpt lat="45.26431" lon="6.72598">
        <ele>2315.133</ele>
        <time>2015-08-26T15:27:35Z</time>
      </trkpt>
      <trkpt lat="45.26437" lon="6.72598">
        <ele>2315.133</ele>
        <time>2015-08-26T15:27:45Z</time>
      </trkpt>
      <trkpt lat="45.2644" lon="6.72599">
        <ele>2315.8728</ele>
        <time>2015-08-26T15:27:50Z</time>
      </trkpt>
      <trkpt lat="45.26449" lon="6.72601">
        <ele>2316.4612</ele>
        <time>2015-08-26T15:28:00Z</time>
      </trkpt>
      <trkpt lat="45.26452" lon="6.72601">
        <ele>2316.4612</ele>
        <time>2015-08-26T15:28:05Z</time>
      </trkpt>
      <trkpt lat="45.2646" lon="6.72601">
        <ele>2316.9658</ele>
        <time>2015-08-26T15:28:15Z</time>
      </trkpt>
      <trkpt lat="45.26465" lon="6.72601">
        <ele>2316.9658</ele>
        <time>2015-08-26T15:28:20Z</time>
      </trkpt>
      <trkpt lat="45.26472" lon="6.72601">
        <ele>2317.5361</ele>
        <time>2015-08-26T15:28:30Z</time>
      </trkpt>
      <trkpt lat="45.26474" lon="6.72602">
        <ele>2317.5361</ele>
        <time>2015-08-26T15:28:35Z</time>
      </trkpt>
      <trkpt lat="45.2648" lon="6.72593">
        <ele>2318.1807</ele>
        <time>2015-08-26T15:28:50Z</time>
      </trkpt>
      <trkpt lat="45.26481" lon="6.72588">
        <ele>2318.1807</ele>
        <time>2015-08-26T15:28:55Z</time>
      </trkpt>
      <trkpt lat="45.26483" lon="6.7258">
        <ele>2319.1377</ele>
        <time>2015-08-26T15:29:05Z</time>
      </trkpt>
      <trkpt lat="45.26484" lon="6.72578">
        <ele>2319.1377</ele>
        <time>2015-08-26T15:29:10Z</time>
      </trkpt>
      <trkpt lat="45.2649" lon="6.72574">
        <ele>2319.1377</ele>
        <time>2015-08-26T15:29:20Z</time>
      </trkpt>
      <trkpt lat="45.26491" lon="6.72572">
        <ele>2320.4685</ele>
        <time>2015-08-26T15:29:25Z</time>
      </trkpt>
      <trkpt lat="45.26495" lon="6.72566">
        <ele>2320.4685</ele>
        <time>2015-08-26T15:29:35Z</time>
      </trkpt>
      <trkpt lat="45.26496" lon="6.72559">
        <ele>2321.9697</ele>
        <time>2015-08-26T15:29:40Z</time>
      </trkpt>
      <trkpt lat="45.26497" lon="6.72552">
        <ele>2321.9697</ele>
        <time>2015-08-26T15:29:50Z</time>
      </trkpt>
      <trkpt lat="45.26497" lon="6.72549">
        <ele>2321.9697</ele>
        <time>2015-08-26T15:29:55Z</time>
      </trkpt>
      <trkpt lat="45.26496" lon="6.72537">
        <ele>2323.7837</ele>
        <time>2015-08-26T15:30:05Z</time>
      </trkpt>
      <trkpt lat="45.26496" lon="6.72534">
        <ele>2323.7837</ele>
        <time>2015-08-26T15:30:10Z</time>
      </trkpt>
      <trkpt lat="45.26496" lon="6.72529">
        <ele>2323.7837</ele>
        <time>2015-08-26T15:30:20Z</time>
      </trkpt>
      <trkpt lat="45.26495" lon="6.72525">
        <ele>2323.7837</ele>
        <time>2015-08-26T15:30:25Z</time>
      </trkpt>
      <trkpt lat="45.26494" lon="6.72516">
        <ele>2325.7244</ele>
        <time>2015-08-26T15:30:35Z</time>
      </trkpt>
      <trkpt lat="45.26493" lon="6.72514">
        <ele>2325.7244</ele>
        <time>2015-08-26T15:30:40Z</time>
      </trkpt>
      <trkpt lat="45.26493" lon="6.72507">
        <ele>2325.7244</ele>
        <time>2015-08-26T15:30:50Z</time>
      </trkpt>
      <trkpt lat="45.26494" lon="6.72505">
        <ele>2325.7244</ele>
        <time>2015-08-26T15:30:55Z</time>
      </trkpt>
      <trkpt lat="45.26495" lon="6.72507">
        <ele>2327.9795</ele>
        <time>2015-08-26T15:31:05Z</time>
      </trkpt>
      <trkpt lat="45.26496" lon="6.72508">
        <ele>2327.9795</ele>
        <time>2015-08-26T15:31:10Z</time>
      </trkpt>
      <trkpt lat="45.26498" lon="6.72506">
        <ele>2327.9795</ele>
        <time>2015-08-26T15:31:20Z</time>
      </trkpt>
      <trkpt lat="45.26498" lon="6.72508">
        <ele>2327.9795</ele>
        <time>2015-08-26T15:31:25Z</time>
      </trkpt>
      <trkpt lat="45.26499" lon="6.7251">
        <ele>2327.9795</ele>
        <time>2015-08-26T15:31:35Z</time>
      </trkpt>
      <trkpt lat="45.26502" lon="6.72507">
        <ele>2330.4194</ele>
        <time>2015-08-26T15:31:40Z</time>
      </trkpt>
      <trkpt lat="45.26507" lon="6.72502">
        <ele>2330.4194</ele>
        <time>2015-08-26T15:31:50Z</time>
      </trkpt>
      <trkpt lat="45.26507" lon="6.72505">
        <ele>2330.4194</ele>
        <time>2015-08-26T15:31:55Z</time>
      </trkpt>
      <trkpt lat="45.26506" lon="6.725">
        <ele>2332.794</ele>
        <time>2015-08-26T15:32:10Z</time>
      </trkpt>
      <trkpt lat="45.26504" lon="6.72504">
        <ele>2332.794</ele>
        <time>2015-08-26T15:32:15Z</time>
      </trkpt>
      <trkpt lat="45.26508" lon="6.72517">
        <ele>2334.713</ele>
        <time>2015-08-26T15:32:25Z</time>
      </trkpt>
      <trkpt lat="45.26508" lon="6.72521">
        <ele>2334.713</ele>
        <time>2015-08-26T15:32:30Z</time>
      </trkpt>
      <trkpt lat="45.26512" lon="6.72528">
        <ele>2336.6235</ele>
        <time>2015-08-26T15:32:40Z</time>
      </trkpt>
      <trkpt lat="45.26514" lon="6.72527">
        <ele>2336.6235</ele>
        <time>2015-08-26T15:32:45Z</time>
      </trkpt>
      <trkpt lat="45.26518" lon="6.72522">
        <ele>2336.6235</ele>
        <time>2015-08-26T15:32:55Z</time>
      </trkpt>
      <trkpt lat="45.2652" lon="6.7252">
        <ele>2338.637</ele>
        <time>2015-08-26T15:33:00Z</time>
      </trkpt>
      <trkpt lat="45.26522" lon="6.72512">
        <ele>2338.637</ele>
        <time>2015-08-26T15:33:10Z</time>
      </trkpt>
      <trkpt lat="45.26525" lon="6.72507">
        <ele>2340.5974</ele>
        <time>2015-08-26T15:33:15Z</time>
      </trkpt>
      <trkpt lat="45.26529" lon="6.72509">
        <ele>2340.5974</ele>
        <time>2015-08-26T15:33:25Z</time>
      </trkpt>
      <trkpt lat="45.26531" lon="6.72513">
        <ele>2340.5974</ele>
        <time>2015-08-26T15:33:30Z</time>
      </trkpt>
      <trkpt lat="45.26532" lon="6.72521">
        <ele>2342.6194</ele>
        <time>2015-08-26T15:33:40Z</time>
      </trkpt>
      <trkpt lat="45.26533" lon="6.72523">
        <ele>2342.6194</ele>
        <time>2015-08-26T15:33:45Z</time>
      </trkpt>
      <trkpt lat="45.2654" lon="6.7253">
        <ele>2344.5938</ele>
        <time>2015-08-26T15:34:00Z</time>
      </trkpt>
      <trkpt lat="45.26543" lon="6.72532">
        <ele>2344.5938</ele>
        <time>2015-08-26T15:34:05Z</time>
      </trkpt>
      <trkpt lat="45.26548" lon="6.72537">
        <ele>2346.476</ele>
        <time>2015-08-26T15:34:15Z</time>
      </trkpt>
      <trkpt lat="45.2655" lon="6.72538">
        <ele>2346.476</ele>
        <time>2015-08-26T15:34:20Z</time>
      </trkpt>
      <trkpt lat="45.26556" lon="6.72534">
        <ele>2346.476</ele>
        <time>2015-08-26T15:34:30Z</time>
      </trkpt>
      <trkpt lat="45.26557" lon="6.72533">
        <ele>2348.6157</ele>
        <time>2015-08-26T15:34:35Z</time>
      </trkpt>
      <trkpt lat="45.26556" lon="6.72532">
        <ele>2348.6157</ele>
        <time>2015-08-26T15:34:45Z</time>
      </trkpt>
      <trkpt lat="45.26557" lon="6.7253">
        <ele>2348.6157</ele>
        <time>2015-08-26T15:34:50Z</time>
      </trkpt>
      <trkpt lat="45.26556" lon="6.72522">
        <ele>2348.6157</ele>
        <time>2015-08-26T15:35:00Z</time>
      </trkpt>
      <trkpt lat="45.26559" lon="6.7252">
        <ele>2351.1912</ele>
        <time>2015-08-26T15:35:05Z</time>
      </trkpt>
      <trkpt lat="45.26563" lon="6.72519">
        <ele>2351.1912</ele>
        <time>2015-08-26T15:35:15Z</time>
      </trkpt>
      <trkpt lat="45.26563" lon="6.72514">
        <ele>2351.1912</ele>
        <time>2015-08-26T15:35:20Z</time>
      </trkpt>
      <trkpt lat="45.26559" lon="6.72506">
        <ele>2353.848</ele>
        <time>2015-08-26T15:35:30Z</time>
      </trkpt>
      <trkpt lat="45.26557" lon="6.72502">
        <ele>2353.848</ele>
        <time>2015-08-26T15:35:35Z</time>
      </trkpt>
      <trkpt lat="45.26556" lon="6.72495">
        <ele>2353.848</ele>
        <time>2015-08-26T15:35:45Z</time>
      </trkpt>
      <trkpt lat="45.26558" lon="6.72493">
        <ele>2356.4446</ele>
        <time>2015-08-26T15:35:50Z</time>
      </trkpt>
      <trkpt lat="45.26559" lon="6.72494">
        <ele>2356.4446</ele>
        <time>2015-08-26T15:36:05Z</time>
      </trkpt>
      <trkpt lat="45.26561" lon="6.72494">
        <ele>2356.4446</ele>
        <time>2015-08-26T15:36:10Z</time>
      </trkpt>
      <trkpt lat="45.2656" lon="6.72497">
        <ele>2356.4446</ele>
        <time>2015-08-26T15:36:20Z</time>
      </trkpt>
      <trkpt lat="45.26559" lon="6.72496">
        <ele>2356.4446</ele>
        <time>2015-08-26T15:36:25Z</time>
      </trkpt>
      <trkpt lat="45.26558" lon="6.72494">
        <ele>2356.4446</ele>
        <time>2015-08-26T15:36:35Z</time>
      </trkpt>
      <trkpt lat="45.26557" lon="6.72493">
        <ele>2358.8367</ele>
        <time>2015-08-26T15:36:40Z</time>
      </trkpt>
      <trkpt lat="45.26556" lon="6.72489">
        <ele>2358.8367</ele>
        <time>2015-08-26T15:36:50Z</time>
      </trkpt>
      <trkpt lat="45.26556" lon="6.72489">
        <ele>2358.8367</ele>
        <time>2015-08-26T15:36:55Z</time>
      </trkpt>
      <trkpt lat="45.26557" lon="6.72491">
        <ele>2358.8367</ele>
        <time>2015-08-26T15:37:05Z</time>
      </trkpt>
      <trkpt lat="45.26556" lon="6.72491">
        <ele>2358.8367</ele>
        <time>2015-08-26T15:37:10Z</time>
      </trkpt>
      <trkpt lat="45.26559" lon="6.72489">
        <ele>2358.8367</ele>
        <time>2015-08-26T15:37:20Z</time>
      </trkpt>
      <trkpt lat="45.26558" lon="6.72489">
        <ele>2361.1643</ele>
        <time>2015-08-26T15:37:25Z</time>
      </trkpt>
      <trkpt lat="45.26558" lon="6.72488">
        <ele>2361.1643</ele>
        <time>2015-08-26T15:37:30Z</time>
      </trkpt>
    </trkseg>
  </trk>
</gpx>